ECMWFFLT1_500_spd_000.txt.gz
Wind_Speed
26 25 26 25 26 26 26 27 27 27 27 27 27 27 26 27 27 28 28 28 28 29 29 29 28 27 27 27 27 27 27 28 29 28 29 30 30 29 29 29 29 25 23 23 22 20 20 23 31 39 43 43 39 36 37 41 45 46 47 47 47 47 48
25 25 25 25 24 24 24 25 25 25 26 26 26 26 26 26 27 27 27 27 27 28 28 28 27 26 25 25 26 25 26 27 27 27 28 30 31 31 31 32 32 30 29 28 27 25 21 20 26 33 35 39 42 38 38 41 43 45 47 48 47 48 48
24 24 24 24 23 23 23 23 23 23 23 24 24 25 25 25 26 26 26 25 26 26 26 26 26 24 23 23 24 24 24 25 26 26 27 28 29 30 31 32 33 32 32 32 31 29 27 23 22 27 30 33 36 37 36 37 37 39 44 46 46 46 45
23 23 23 22 22 22 21 21 21 21 21 21 22 23 24 24 25 25 24 24 24 24 24 24 24 23 22 22 22 23 23 24 25 25 25 25 26 27 29 30 31 31 31 31 31 31 30 27 24 23 24 27 30 32 33 32 32 33 35 37 38 38 38
22 21 21 22 21 21 21 20 20 20 19 19 20 21 22 23 23 23 23 22 23 23 23 23 22 21 21 21 21 21 22 22 23 24 24 24 24 25 26 27 28 28 28 28 29 29 28 27 26 24 24 24 26 29 32 32 31 30 31 31 31 32 32
21 21 20 21 21 21 21 20 19 19 19 18 19 19 20 21 21 21 21 21 21 22 22 22 22 21 20 20 20 20 21 21 22 22 23 23 23 23 23 24 25 25 25 25 25 26 26 26 26 25 24 24 25 26 28 31 32 30 29 30 30 32 32
22 22 21 21 21 21 21 20 20 19 18 18 17 17 18 18 19 19 20 20 20 21 22 22 22 21 20 19 19 19 19 20 21 21 21 21 21 21 22 22 23 23 23 24 23 23 23 23 24 24 24 24 25 26 26 27 29 30 29 29 30 31 32
22 22 22 21 21 21 21 21 20 19 18 17 17 17 17 17 18 17 18 18 19 20 21 22 22 21 21 20 19 19 19 19 19 20 20 20 20 20 20 21 21 21 21 22 22 21 21 21 22 22 22 23 24 25 26 26 27 28 29 29 31 32 32
21 21 21 21 21 21 21 21 21 20 20 19 18 18 18 18 17 17 16 17 17 18 19 21 22 22 21 21 20 20 19 19 19 19 19 20 20 20 20 20 21 21 21 21 22 21 20 20 20 20 21 21 21 22 23 24 26 27 27 28 29 30 32
19 19 19 20 20 20 20 20 21 21 21 20 20 19 19 19 18 18 17 16 16 17 18 19 21 22 22 22 22 21 21 20 20 20 20 20 20 20 20 20 21 21 22 22 22 22 22 21 20 20 20 20 20 20 20 22 24 25 26 27 27 27 28
18 19 19 19 20 20 20 19 19 20 20 21 21 21 21 20 20 20 19 18 17 17 17 18 19 21 22 22 22 22 22 22 22 21 21 21 21 21 21 21 22 22 23 23 23 23 23 22 22 21 21 21 20 21 21 21 23 24 24 25 27 27 27
21 21 20 19 19 19 19 19 18 18 18 19 20 21 21 21 21 21 21 21 20 19 19 19 19 20 21 22 22 22 22 22 23 23 23 23 22 22 23 23 23 23 23 24 24 24 24 24 23 23 23 23 23 23 23 23 25 26 25 25 26 27 27
24 22 21 20 20 19 18 18 19 18 18 18 19 19 20 20 20 21 21 22 22 22 22 21 22 22 22 23 23 23 23 23 23 23 24 24 24 24 24 24 24 25 25 25 26 26 26 25 25 25 25 25 25 26 26 26 27 28 29 28 28 29 29
27 26 25 25 25 25 23 23 22 21 21 21 21 20 19 19 19 19 20 20 20 21 22 23 24 24 25 26 26 26 26 26 25 25 25 25 26 26 26 26 26 27 27 27 27 27 27 27 27 27 27 27 27 27 28 29 29 30 31 31 31 32 32
28 28 28 28 29 29 29 28 27 25 24 24 24 23 22 21 21 21 21 22 22 22 23 24 25 26 27 28 28 29 29 29 29 29 28 28 28 28 28 28 29 29 29 29 29 29 28 29 29 29 29 29 29 29 29 30 30 31 32 33 33 33 33
30 29 28 28 29 30 31 31 31 29 27 26 25 25 24 24 24 24 24 25 25 25 26 26 27 28 29 29 29 30 30 31 31 31 31 31 31 31 31 31 31 31 32 32 32 32 31 31 31 31 32 32 32 32 31 32 32 32 32 33 33 33 33
34 34 33 32 31 31 32 32 31 31 29 28 28 27 26 25 26 26 26 26 25 25 26 27 28 29 31 31 30 30 31 32 32 32 32 32 33 33 33 34 34 34 34 34 34 34 34 34 35 34 34 35 35 34 33 32 32 32 32 33 33 33 33
36 35 34 33 33 32 32 33 32 32 31 30 30 30 28 28 28 28 28 27 26 26 27 27 28 29 31 32 32 32 31 32 33 33 33 33 33 34 34 34 35 36 36 37 37 37 37 37 37 37 37 36 36 35 34 33 32 31 32 32 32 32 32
38 36 34 33 33 33 33 34 34 34 34 33 32 32 31 31 31 30 30 30 30 30 30 30 30 30 31 32 33 34 34 33 33 33 33 33 33 34 35 36 36 37 37 38 38 39 39 39 38 38 38 38 37 36 35 34 32 31 31 31 32 32 32
41 39 37 37 37 37 36 37 36 35 36 36 35 34 34 35 35 35 35 35 35 35 35 36 36 35 36 35 35 35 36 36 36 36 36 35 34 34 35 36 37 38 39 39 39 39 40 40 39 39 39 39 39 38 36 35 34 33 32 32 32 32 31
43 40 40 40 39 39 39 39 38 38 38 38 37 37 38 38 38 38 38 38 40 40 40 41 41 41 41 40 38 38 39 39 39 39 39 39 39 38 37 37 38 39 41 41 41 41 41 40 40 40 41 41 41 40 39 37 36 35 34 34 33 32 31
41 39 41 42 41 40 39 40 40 40 40 39 39 41 41 41 41 41 40 39 40 41 41 42 43 43 43 43 41 40 41 41 41 41 41 42 43 42 40 39 38 40 42 43 44 44 43 42 42 42 42 43 43 42 41 39 38 36 36 35 33 33 33
43 41 43 44 44 43 42 42 42 41 41 41 42 44 44 44 45 46 44 42 42 42 42 42 43 44 45 45 45 43 42 42 42 42 43 44 46 46 45 44 42 41 43 44 45 46 46 45 44 44 44 45 45 44 42 40 39 37 36 35 34 34 34
48 45 45 46 47 46 46 45 44 43 43 44 45 47 47 47 48 48 48 48 46 44 44 45 45 47 49 49 48 46 45 44 45 45 44 45 46 47 47 47 47 45 45 45 46 47 47 47 46 45 45 46 47 46 44 42 40 39 38 37 36 36 36
50 48 47 48 48 49 48 48 47 47 48 48 48 49 50 51 51 49 50 51 49 46 47 48 47 49 50 50 49 49 46 45 45 45 45 44 44 44 44 45 47 48 47 47 47 48 48 48 47 46 46 46 47 48 46 44 42 41 41 40 39 39 40
53 52 51 51 51 51 51 51 51 52 53 53 53 52 52 53 53 52 52 53 52 49 49 50 49 49 49 49 50 50 48 45 44 44 45 44 44 44 44 44 45 47 47 47 47 47 48 49 49 48 47 47 48 49 49 47 45 44 44 43 43 43 43
57 57 57 57 57 57 56 56 56 56 57 57 57 56 55 55 54 54 54 55 54 52 52 53 52 52 52 53 54 54 52 49 47 46 46 45 45 45 45 44 45 47 48 47 46 46 47 48 49 49 48 48 48 50 51 51 49 48 47 46 47 47 47
61 60 60 60 60 60 60 60 60 60 59 59 58 58 58 57 57 56 55 55 54 52 52 53 51 51 53 55 55 54 53 50 48 46 46 46 45 45 45 45 46 47 48 48 47 47 48 48 48 48 48 49 49 50 51 51 51 50 49 49 49 51 52
60 60 60 60 60 60 60 60 60 60 60 59 58 58 58 59 59 58 57 56 55 53 53 53 51 51 53 54 54 53 52 51 50 49 49 49 48 46 47 47 47 47 47 47 46 47 49 50 50 49 49 49 49 50 51 51 52 52 52 53 53 54 55
59 59 59 59 59 59 59 59 58 58 58 58 58 58 58 58 59 59 58 58 58 56 55 54 52 53 55 55 53 53 53 53 53 52 52 52 50 48 47 47 47 47 47 47 47 47 48 50 51 51 52 51 51 52 52 53 54 55 56 56 55 55 56
57 58 58 58 58 58 57 57 57 57 57 57 58 58 57 57 57 57 57 58 58 57 57 55 55 56 56 53 50 50 51 52 53 54 53 52 51 49 49 49 49 48 47 47 49 49 48 49 50 50 52 53 54 55 56 57 58 58 58 58 58 58 59
55 55 55 55 55 55 55 55 55 55 55 56 56 57 56 56 55 55 55 56 56 56 57 57 57 57 55 52 52 53 54 54 55 56 56 55 54 54 54 53 53 53 50 49 51 52 52 51 51 50 51 52 54 56 58 59 60 61 62 62 62 62 62
52 52 53 53 53 53 53 53 53 53 54 54 54 54 54 54 53 53 53 53 54 56 57 56 56 56 56 56 57 58 58 57 57 58 59 59 58 58 58 56 55 55 53 52 53 55 55 54 53 52 51 51 51 52 54 55 57 59 60 61 62 63 63
52 52 52 52 52 52 52 52 52 52 52 52 51 51 51 51 51 51 51 51 53 55 54 53 53 53 53 55 56 56 57 57 57 57 58 58 58 58 57 56 55 54 53 52 52 54 56 55 54 53 53 52 51 50 51 52 53 55 56 58 60 62 63
53 53 53 53 53 53 52 52 51 51 50 49 49 48 49 49 49 49 49 50 51 51 51 51 51 50 50 52 53 55 55 56 56 56 56 57 57 58 58 58 58 57 55 54 52 53 54 56 56 56 56 56 56 56 57 58 58 58 58 58 59 60 62
54 54 54 54 53 53 52 51 51 50 50 48 47 47 47 48 47 47 48 48 48 49 50 49 48 48 49 50 50 51 52 52 52 53 53 54 55 56 56 57 58 58 58 58 57 55 55 56 58 59 60 61 62 63 63 62 62 62 61 61 60 60 61
53 53 53 53 53 53 52 50 50 49 49 48 47 46 47 46 46 46 45 45 46 47 47 47 46 46 46 45 44 44 45 45 46 47 49 50 50 51 52 53 54 55 56 58 58 58 57 56 57 58 59 59 60 60 60 60 59 59 59 59 59 59 60

ECMWFFLT1_500_spd_003.txt.gz
Wind_Speed
28 28 27 27 28 29 29 30 30 30 30 29 29 29 29 29 30 30 31 31 32 31 31 31 31 30 30 29 28 29 29 29 28 28 29 29 28 28 29 29 27 25 23 21 19 20 21 20 18 22 31 41 47 49 50 51 50 48 46 45 43 40 42
28 28 27 27 28 28 29 29 29 29 28 27 27 27 27 27 27 28 29 30 30 31 30 30 30 30 30 30 28 28 29 29 27 27 28 28 27 27 28 29 28 27 25 23 23 24 24 23 21 20 21 27 37 45 49 51 52 51 48 46 44 41 41
28 27 27 27 27 28 28 28 27 27 26 26 25 25 25 25 25 25 26 27 28 29 29 29 29 29 29 29 28 27 28 28 27 26 27 27 27 26 26 27 28 28 28 28 29 30 29 27 26 25 23 22 25 33 41 47 51 53 50 46 45 43 39
26 26 26 26 26 27 26 26 25 24 24 23 23 23 23 23 23 23 23 24 25 26 27 27 28 28 28 28 26 26 26 27 26 25 25 26 26 25 25 26 27 28 29 28 29 30 30 29 27 25 25 24 23 25 31 38 43 49 50 45 42 42 39
25 25 25 24 24 24 24 23 23 22 21 21 21 21 21 21 21 21 22 22 23 24 25 25 26 26 26 26 25 24 24 25 25 24 24 25 25 25 24 24 25 26 27 27 27 28 27 26 26 25 23 23 24 23 25 32 36 41 47 46 42 42 40
23 24 23 23 22 22 21 21 20 20 19 19 19 19 20 20 19 19 19 20 21 22 23 23 24 24 24 24 23 22 22 23 23 23 24 24 24 24 24 23 23 24 25 25 25 24 24 23 23 23 22 21 22 23 21 24 29 33 40 43 42 39 36
22 23 22 22 21 21 20 20 19 19 19 18 18 18 18 18 18 17 17 18 19 21 21 22 22 23 23 23 22 21 21 21 22 22 22 23 23 23 23 23 22 22 23 23 23 22 22 21 21 21 21 20 21 22 21 20 22 25 30 35 36 35 33
21 22 23 23 22 22 21 20 20 19 19 19 18 18 18 18 17 17 16 16 17 19 20 20 21 21 22 22 21 21 20 20 20 21 21 22 22 21 21 21 21 21 21 21 22 21 21 20 20 20 20 19 20 20 20 19 20 21 23 26 29 31 33
20 20 22 22 23 23 22 21 21 20 19 19 19 19 19 19 18 17 16 16 17 17 18 18 19 19 20 20 20 20 19 19 19 20 20 21 21 21 20 20 20 20 20 20 20 20 19 19 18 18 18 18 18 19 19 19 19 20 21 21 23 25 27
20 20 21 22 22 22 21 21 20 20 20 19 19 19 19 19 19 18 18 17 17 17 18 18 18 18 18 18 18 18 18 18 18 19 19 20 20 20 20 19 19 19 19 19 19 18 18 18 17 17 17 17 17 18 18 18 18 19 20 20 21 22 22
22 22 21 20 20 20 20 20 20 20 20 20 20 20 20 20 20 20 19 19 19 19 18 18 18 18 18 18 18 17 17 17 18 18 19 19 20 20 19 19 19 19 19 19 19 18 18 17 17 16 16 17 17 17 17 18 18 18 19 19 20 21 21
23 23 22 20 21 21 21 21 22 22 22 22 22 21 22 22 21 21 21 20 20 20 20 20 20 19 19 18 18 18 18 18 17 18 18 19 19 20 20 19 19 19 20 20 20 20 19 19 18 18 17 17 18 18 18 19 20 20 20 20 21 21 21
25 24 23 23 24 24 24 23 22 22 22 22 21 21 21 21 21 21 21 21 21 21 22 21 21 21 20 20 20 20 20 20 20 19 19 19 20 20 20 20 20 20 20 21 21 22 22 21 21 21 20 20 20 20 20 20 22 23 23 22 23 24 24
26 26 25 25 25 26 26 25 24 23 22 22 22 21 21 21 21 21 21 20 20 20 20 21 21 21 20 20 20 20 21 21 22 22 22 22 22 22 22 22 22 22 21 21 22 23 23 24 24 23 23 23 23 23 23 23 23 24 25 25 25 26 26
27 27 26 26 26 26 26 26 24 25 26 26 25 25 24 23 23 22 22 22 22 21 20 20 21 22 22 22 21 21 22 22 22 23 23 23 23 24 24 25 25 25 25 24 24 24 24 25 25 25 25 25 25 25 25 25 25 25 26 27 27 28 28
28 27 26 28 28 26 26 26 25 26 26 26 26 27 28 27 26 25 24 24 25 24 23 23 23 23 23 23 23 23 24 24 25 25 25 24 24 24 25 26 27 27 28 28 28 27 27 27 27 27 27 27 28 28 28 28 28 28 28 29 30 30 30
31 29 28 31 31 29 29 30 29 28 27 27 27 28 28 28 29 28 27 26 26 26 24 24 23 23 23 23 23 23 24 25 26 27 27 27 26 26 26 27 28 28 29 29 29 30 30 30 30 30 30 30 30 31 31 31 31 31 31 32 33 33 32
34 33 32 32 33 32 31 32 32 32 32 32 32 30 28 27 28 29 30 28 27 26 25 25 25 24 24 25 24 24 25 26 27 28 28 28 28 29 29 29 29 30 31 31 31 31 31 31 31 32 32 32 32 32 33 34 34 34 33 33 35 35 35
36 35 33 33 35 35 34 34 34 33 34 33 33 32 31 29 28 28 29 29 29 29 29 28 28 28 28 28 28 27 28 29 29 30 31 31 31 31 31 32 32 33 33 33 33 33 33 33 33 33 33 33 33 33 34 34 35 36 36 35 36 36 36
38 36 35 37 38 38 38 38 36 35 36 36 35 36 35 34 32 30 30 30 30 31 33 32 32 32 32 34 34 33 34 34 34 34 34 34 33 33 33 34 35 36 36 36 36 36 36 36 35 35 35 34 34 34 34 35 35 36 37 37 37 37 37
41 41 40 40 41 41 42 42 41 40 41 39 37 37 39 40 38 34 33 34 33 34 34 34 36 36 35 36 37 38 38 37 37 36 36 36 35 35 36 36 37 38 39 40 40 40 40 39 39 39 38 37 36 36 36 36 36 37 37 38 39 39 39
43 45 44 42 42 43 45 47 47 45 44 41 37 36 38 41 40 37 37 37 38 39 37 35 37 39 38 39 40 39 38 38 38 38 38 38 37 36 37 38 39 39 40 41 42 42 43 42 42 42 42 41 40 39 39 38 38 38 39 39 40 41 42
46 46 46 45 44 44 44 45 44 42 43 43 42 42 41 41 43 42 41 39 40 41 39 37 38 40 41 42 43 41 40 39 40 40 40 40 40 40 40 40 41 41 41 43 44 44 44 44 44 44 44 43 43 42 41 41 41 41 41 41 41 42 44
51 51 50 50 49 49 48 47 44 41 41 42 44 44 43 43 45 46 45 44 44 44 43 42 41 41 43 46 46 44 42 42 42 43 44 43 42 41 40 40 40 41 41 43 44 46 46 46 46 45 45 45 45 45 44 43 43 43 43 43 43 44 45
53 54 55 55 55 56 56 55 54 51 47 45 44 44 44 45 47 48 48 48 49 49 47 44 43 43 45 48 47 45 45 45 44 46 46 44 43 43 42 42 42 43 43 43 44 45 46 46 46 45 45 46 47 47 47 46 45 45 45 45 45 46 46
55 56 56 56 57 58 58 58 57 55 52 49 47 46 45 45 47 48 49 50 51 51 49 47 47 48 49 49 48 48 48 47 46 47 49 49 49 49 48 48 48 48 48 47 47 47 47 47 47 47 46 46 46 47 47 47 47 47 47 46 46 46 47
53 53 53 53 53 54 55 55 54 53 52 51 50 50 49 49 50 50 51 52 52 51 51 51 52 52 52 52 51 50 51 51 51 51 51 51 50 48 47 48 48 49 49 49 49 49 49 48 48 48 48 48 48 47 47 47 47 47 47 47 47 47 48
54 53 53 53 52 52 53 54 55 55 55 55 55 55 55 55 55 55 56 56 55 55 56 57 56 56 56 55 54 54 55 54 52 51 51 51 51 49 49 50 50 50 50 50 50 49 48 48 48 48 49 49 50 50 49 49 48 48 48 47 47 48 48
58 58 58 57 56 56 56 57 58 59 59 59 60 60 59 59 60 60 60 60 60 59 60 60 60 60 59 57 56 56 56 54 54 54 54 55 54 52 51 51 52 52 53 53 52 51 50 50 50 49 50 50 50 51 50 50 50 50 49 49 48 48 48
57 57 57 58 58 58 59 59 59 60 61 61 61 61 62 62 62 62 62 62 61 60 60 61 60 59 58 57 56 56 56 56 56 56 55 55 55 54 53 53 53 53 53 52 51 51 51 51 51 51 51 51 51 51 50 50 51 51 51 50 50 50 49
56 56 56 56 56 57 57 57 58 58 59 59 59 60 60 61 61 60 59 59 58 58 58 58 57 56 56 56 55 55 55 55 55 55 56 56 56 55 55 54 54 53 53 53 54 53 53 53 53 53 53 53 53 52 51 51 51 51 51 51 50 51 52
56 56 56 55 56 56 56 56 56 56 56 56 56 57 58 59 58 56 55 55 56 56 56 56 55 55 55 54 54 54 55 55 55 56 57 57 57 56 56 56 55 55 56 57 58 57 56 56 56 56 56 56 55 55 54 53 52 53 53 52 51 51 52
55 55 55 55 55 56 56 56 55 55 55 55 55 55 56 57 55 53 52 53 54 54 54 54 54 54 54 54 54 54 54 54 54 55 55 56 56 56 56 56 56 55 56 56 56 56 56 56 57 57 58 58 58 57 56 55 54 55 55 55 54 54 54
53 53 53 54 54 54 55 55 55 55 55 54 54 54 54 54 53 53 52 52 52 52 52 52 52 53 53 53 53 54 54 53 52 53 53 53 53 54 54 55 55 55 55 55 55 54 54 54 55 56 57 57 58 58 58 57 56 56 56 57 57 57 57
52 52 52 53 53 53 54 54 54 54 54 53 52 53 53 52 52 53 52 51 50 49 50 50 51 51 51 52 52 52 52 52 51 51 50 50 51 52 52 54 55 55 55 55 55 54 54 54 54 55 56 56 57 57 58 58 57 57 57 58 58 59 58
52 52 52 52 53 53 53 53 53 53 53 52 52 52 53 52 52 52 51 50 49 48 49 49 48 48 48 49 49 50 50 50 49 49 49 49 50 50 51 53 54 54 54 53 53 52 52 52 53 54 55 56 57 57 58 58 58 58 58 58 59 59 59
51 52 51 52 52 53 53 53 52 51 51 51 52 53 52 51 51 51 51 50 48 48 48 47 46 46 46 46 46 48 48 47 46 47 48 48 48 50 52 53 53 52 51 51 51 51 52 53 55 56 57 58 58 59 59 59 59 59 58 58 59 59 60

ECMWFFLT1_500_spd_006.txt.gz
Wind_Speed
21 22 22 22 23 24 24 23 23 23 24 24 25 25 26 27 28 28 28 28 27 27 26 25 25 25 25 24 24 24 24 24 25 25 25 26 26 26 26 26 26 25 24 23 23 23 21 21 21 20 18 17 20 25 31 36 39 41 43 42 42 42 43
22 22 22 22 23 23 23 23 23 23 23 24 24 24 25 25 26 26 27 26 26 26 25 24 24 24 24 23 23 23 23 23 23 24 24 25 25 25 25 25 24 24 23 22 22 23 22 21 20 19 19 19 18 19 22 28 33 39 43 45 45 44 44
22 22 22 22 22 22 22 22 22 23 23 23 23 23 23 24 24 24 25 25 25 24 24 23 21 21 21 21 21 21 21 21 21 22 23 24 24 24 24 24 23 23 22 21 22 23 23 23 23 23 23 23 22 22 21 21 24 29 37 43 45 46 46
21 21 21 21 21 20 20 21 21 22 23 23 22 22 22 22 22 22 23 23 23 22 22 21 20 19 18 18 18 19 19 19 20 20 21 22 22 23 23 23 22 22 21 21 21 22 23 24 25 25 25 23 23 24 23 22 21 22 27 35 40 44 47
18 19 19 19 19 19 19 19 20 20 21 22 21 21 21 21 21 21 21 21 21 21 20 19 18 17 16 16 16 16 17 17 17 18 19 20 20 21 22 22 21 21 20 20 20 21 22 22 23 24 22 21 22 22 22 22 21 21 22 26 31 37 42
16 15 16 17 17 18 18 18 19 19 20 20 20 20 19 19 20 20 20 20 20 20 19 19 18 16 15 15 15 15 15 15 15 16 17 18 18 19 20 21 21 20 19 19 19 20 20 20 20 21 19 18 19 19 20 20 20 19 19 21 25 29 34
14 13 14 15 16 17 18 18 18 19 19 19 19 19 18 17 18 18 19 19 19 19 19 18 18 17 16 15 15 15 15 14 14 14 15 16 16 17 18 19 19 18 18 17 18 19 19 19 18 18 17 16 17 17 17 19 19 18 17 18 20 24 29
13 13 14 15 16 17 18 18 19 19 20 20 20 19 18 18 17 17 17 18 18 18 17 17 17 17 17 16 16 16 15 14 14 14 14 15 15 15 16 17 17 17 16 16 17 17 17 17 17 16 16 15 15 15 15 16 17 17 16 17 18 20 23
13 14 15 15 16 16 17 18 19 19 20 20 20 20 19 19 18 18 17 17 17 17 17 16 16 16 16 16 16 16 15 15 14 13 13 14 15 15 16 16 15 15 15 14 14 15 16 16 16 15 15 14 14 14 14 14 15 15 15 17 18 17 17
14 15 16 16 17 17 18 19 20 20 20 20 20 20 19 19 19 18 18 18 18 18 17 17 16 16 16 16 15 15 15 14 14 13 13 13 14 15 16 16 15 15 15 14 13 13 14 15 15 15 14 13 13 14 14 14 13 13 14 15 17 16 15
16 16 17 18 18 19 20 20 21 20 20 20 19 19 19 19 19 18 18 18 19 19 19 18 18 17 16 16 16 15 15 14 13 13 12 13 13 14 15 16 16 16 16 16 15 14 14 14 14 14 14 13 13 13 14 14 14 13 13 15 16 16 15
18 18 19 19 19 20 20 20 19 19 19 19 19 19 19 19 19 19 20 20 20 20 20 19 19 18 18 17 17 17 17 16 15 15 14 14 13 14 15 15 16 16 17 17 17 17 16 15 15 15 15 14 14 14 14 15 15 15 14 15 16 16 16
21 21 21 20 20 21 21 20 20 19 19 19 19 20 19 18 18 18 18 19 19 19 20 19 19 19 18 18 18 18 18 18 18 17 17 17 16 16 16 16 16 17 17 17 18 19 19 18 18 17 17 17 17 16 16 16 17 17 17 17 18 18 18
24 23 22 21 21 21 21 22 23 22 21 20 20 20 19 19 19 19 18 19 19 19 19 19 19 19 19 19 19 18 18 18 18 18 17 17 17 17 18 18 18 19 19 19 19 19 20 20 20 20 20 20 19 19 19 19 19 19 20 20 20 21 21
26 25 23 23 23 22 22 24 25 25 24 23 22 21 20 20 21 21 21 21 22 22 21 21 21 21 21 20 20 20 20 19 19 19 18 18 18 18 18 18 19 20 21 21 22 22 22 22 23 23 23 23 22 22 22 22 22 22 22 22 22 23 23
30 28 26 26 25 23 23 25 26 26 26 25 24 23 22 22 23 23 23 23 23 23 24 24 24 23 23 23 23 22 21 21 21 21 20 20 20 20 20 20 20 21 21 22 23 24 24 25 25 26 26 26 26 25 25 25 25 25 25 25 25 25 25
33 31 29 28 26 25 26 26 27 28 28 27 27 26 25 24 23 24 25 24 24 25 26 26 25 25 24 24 24 24 23 23 22 22 22 21 21 21 22 22 22 22 23 23 24 24 25 26 27 27 28 28 29 29 29 28 28 28 28 28 28 28 28
36 34 32 29 27 28 29 30 30 30 30 31 30 30 29 27 25 27 28 28 27 26 27 27 27 26 25 25 25 24 24 24 24 24 24 24 23 23 24 24 25 25 25 25 26 26 26 27 28 28 29 29 30 30 31 31 32 32 31 31 32 32 32
39 38 35 31 29 30 31 32 34 33 33 34 32 30 30 29 28 29 28 28 28 27 27 27 28 28 28 27 26 26 26 26 26 26 27 27 27 28 28 28 28 29 29 29 29 29 29 29 29 30 30 31 31 31 32 32 33 33 34 34 34 34 35
44 43 39 34 33 35 35 35 37 38 36 36 34 34 34 34 33 32 30 29 29 28 27 27 27 28 30 30 29 29 29 29 29 29 30 30 31 31 32 32 31 30 31 31 32 32 32 31 31 32 32 32 33 34 34 34 34 34 34 35 35 35 36
41 41 39 37 37 39 39 37 37 37 37 35 33 34 35 34 34 34 33 33 33 33 33 32 31 29 29 32 32 31 31 32 32 33 32 32 32 32 33 33 32 31 31 32 33 33 34 34 33 34 34 34 34 35 36 36 36 36 36 36 36 36 37
41 41 41 40 40 41 42 41 39 38 38 38 38 38 38 36 36 37 38 38 38 38 38 36 35 32 30 31 32 32 33 34 34 35 34 33 33 34 34 35 35 34 34 34 35 35 35 34 34 34 34 35 35 36 36 37 37 38 38 38 38 38 38
44 43 43 43 44 45 45 46 45 43 42 43 44 45 45 43 41 42 44 44 43 42 39 35 34 35 33 33 33 32 33 34 35 37 38 37 35 35 37 38 38 37 37 38 38 36 35 34 34 34 34 35 35 36 36 37 37 38 39 39 39 39 39
47 47 47 47 48 50 50 50 50 49 48 48 48 47 47 45 43 40 40 41 41 41 41 40 39 38 38 38 38 37 37 37 38 41 42 41 39 37 38 39 40 40 39 39 39 38 38 38 39 38 38 38 39 39 39 38 38 38 39 40 41 41 41
50 50 50 50 50 52 52 52 52 52 51 52 52 52 52 51 50 47 45 44 42 41 43 45 44 42 41 42 42 42 41 41 42 43 44 44 43 41 40 42 42 42 41 41 42 43 44 43 41 41 41 41 42 42 42 42 41 41 41 40 41 42 43
51 50 50 51 51 52 53 54 54 54 54 53 54 54 54 54 55 56 54 53 51 50 49 48 47 46 45 44 44 44 43 43 43 44 44 45 45 44 44 45 46 46 47 47 47 46 44 42 42 42 43 43 43 44 44 44 44 44 44 43 43 43 44
53 51 50 51 51 51 53 54 55 57 57 56 56 56 55 55 56 58 59 59 56 53 51 49 48 47 47 47 46 46 46 46 46 46 46 46 47 48 49 50 50 52 52 50 47 46 46 47 48 48 48 47 46 46 46 46 46 46 46 46 46 45 45
55 55 54 53 52 52 52 52 53 54 54 54 55 56 55 55 55 56 59 59 56 52 49 48 48 48 49 50 50 51 52 52 52 51 51 51 52 53 54 55 55 54 53 52 52 52 53 54 54 53 52 51 49 48 48 47 48 48 48 48 48 48 48
54 56 57 58 58 57 57 57 57 57 56 56 56 56 56 56 55 55 55 56 55 52 50 49 49 50 51 51 52 54 55 55 55 55 55 55 56 56 57 57 57 56 57 57 57 56 54 54 54 54 54 54 52 51 50 49 49 49 48 49 49 50 50
52 54 56 57 59 60 60 61 61 62 61 61 61 61 60 60 59 58 56 55 55 54 52 51 52 52 53 52 53 54 54 54 54 55 56 56 57 57 56 56 56 56 56 56 54 53 52 52 53 54 54 54 53 52 51 51 51 51 50 50 50 51 52
53 54 54 55 56 57 58 59 60 60 60 60 60 60 61 61 62 61 59 58 57 56 55 54 54 54 54 53 52 52 52 52 52 53 54 54 54 53 53 52 52 52 52 51 51 51 51 51 52 52 53 53 53 53 53 53 52 52 53 53 53 53 53
54 54 55 55 56 56 57 57 58 58 58 58 58 58 58 59 60 60 58 57 57 56 56 55 54 53 53 52 52 51 51 51 51 51 51 50 49 49 49 50 50 50 50 50 50 50 50 51 51 51 52 53 53 53 54 53 53 53 53 53 53 53 54
54 55 55 56 57 57 57 57 58 58 58 58 58 58 58 57 57 55 55 54 54 54 55 54 54 53 52 52 51 50 50 50 49 49 49 48 48 49 49 49 49 49 49 49 50 50 51 51 52 52 52 53 53 52 52 52 52 52 52 52 52 52 53
54 54 55 56 56 57 57 57 57 58 58 58 58 57 57 57 56 54 53 52 52 52 53 52 52 52 51 51 50 50 49 49 48 48 48 49 49 49 50 49 48 48 48 49 50 51 51 51 52 52 52 52 51 52 52 52 52 51 52 52 52 52 52
53 53 54 55 56 56 57 57 57 57 57 58 57 57 56 57 56 55 53 52 51 51 51 51 50 50 50 50 50 49 49 49 49 48 48 48 48 49 50 50 48 47 48 49 50 50 50 51 51 51 51 51 51 52 52 51 51 51 51 51 51 52 52
52 52 52 53 54 54 55 55 56 57 57 57 56 55 55 55 55 53 52 51 50 50 51 51 50 50 50 50 50 50 50 50 49 48 48 48 48 48 49 49 48 47 48 49 49 50 50 50 50 50 51 51 51 51 51 51 51 50 50 51 52 53 55
50 50 50 50 51 52 52 53 54 54 55 55 55 54 53 53 53 52 51 50 50 50 50 50 50 50 50 51 50 50 49 49 48 47 47 47 47 46 46 47 46 46 47 47 48 48 49 49 49 50 51 51 51 52 52 52 52 52 53 54 56 57 58

ECMWFFLT1_500_spd_009.txt.gz
Wind_Speed
15 16 16 16 17 19 20 20 20 20 20 20 20 19 19 18 18 18 18 17 17 18 18 19 19 19 19 19 19 19 19 19 19 19 19 19 20 20 19 20 20 20 20 20 21 21 21 22 22 22 20 18 17 17 16 14 15 20 25 29 32 34 37
16 16 16 17 17 18 18 19 19 20 20 20 20 19 19 18 18 18 17 17 17 17 18 18 19 19 19 19 19 19 19 19 18 18 19 19 19 19 19 20 20 19 19 19 19 20 21 21 21 21 21 18 16 16 15 14 15 17 20 25 30 32 34
17 16 16 17 17 18 18 18 18 19 19 19 19 19 18 18 18 17 17 17 17 17 17 17 17 18 18 19 19 19 18 18 18 18 18 18 18 18 19 19 19 19 19 19 19 19 20 20 21 21 21 20 19 19 19 19 19 18 18 20 24 29 32
17 16 16 16 17 17 18 18 18 18 19 19 18 18 17 17 17 17 17 17 16 16 16 16 16 16 16 17 17 17 17 17 17 17 16 17 17 17 17 18 18 18 19 19 18 19 19 20 20 21 21 22 22 22 22 22 22 21 20 18 19 23 28
19 16 15 15 15 16 17 17 17 18 18 18 17 17 16 16 16 16 16 16 15 15 15 15 14 14 14 14 15 15 15 15 15 15 15 16 16 17 16 16 17 17 17 17 17 17 18 19 20 20 20 21 22 23 23 23 23 22 20 19 18 19 21
18 16 15 14 14 14 15 15 16 16 16 16 16 15 15 15 15 15 15 15 15 14 13 13 12 12 12 11 12 12 13 13 13 13 14 14 15 16 16 15 15 15 15 16 15 16 16 17 18 18 19 19 20 20 21 21 22 21 20 18 17 18 18
17 17 15 13 12 12 12 13 14 14 14 14 14 14 15 15 15 15 14 14 14 13 13 12 11 11 10 9 9 9 10 10 10 11 12 13 13 14 14 14 14 14 14 14 14 14 14 15 16 16 16 17 17 17 18 19 20 20 20 18 16 16 17
16 16 15 13 11 10 9 10 11 12 13 13 13 14 14 15 15 15 15 14 14 13 13 12 12 11 10 9 8 8 8 9 9 9 10 11 12 12 12 12 12 12 12 12 12 12 12 13 13 14 14 15 15 15 16 17 18 19 19 18 16 15 16
15 15 15 12 10 8 7 9 10 11 12 12 13 13 14 14 15 15 15 15 14 14 13 13 12 12 11 10 9 9 8 8 9 9 9 9 10 11 11 11 11 11 10 10 11 11 11 11 11 12 12 12 13 13 14 15 16 18 19 17 16 15 16
15 14 14 12 10 8 7 9 11 12 12 12 12 12 12 12 12 13 13 14 14 14 14 14 13 13 13 12 11 11 10 9 9 9 9 9 10 10 11 11 11 10 10 10 10 9 10 10 11 11 11 11 11 12 12 13 14 16 17 16 15 15 15
17 15 12 11 11 10 9 10 12 13 13 12 11 10 10 11 11 11 12 12 13 13 14 14 14 14 14 14 13 12 12 11 10 10 10 10 10 10 11 11 12 11 11 11 11 10 10 9 10 10 11 11 11 12 12 12 13 14 15 15 14 14 14
19 16 13 11 11 12 13 12 13 14 14 14 13 12 12 11 11 11 12 12 12 12 13 13 13 14 14 14 14 14 14 13 12 12 11 11 11 11 11 12 12 12 12 11 11 12 11 11 11 11 11 12 12 13 13 13 13 14 15 16 15 14 14
21 19 16 13 13 14 16 16 16 17 17 17 16 16 15 14 13 13 12 12 12 12 12 12 12 13 14 14 15 15 15 15 14 14 14 14 13 14 13 13 14 13 13 13 13 13 13 13 12 12 12 13 14 14 15 15 16 16 16 17 17 16 16
23 21 19 18 17 17 19 19 18 18 19 20 20 19 17 16 16 15 15 14 14 14 14 14 13 14 14 15 16 17 17 16 16 15 14 14 14 14 14 14 14 14 14 15 15 15 15 15 15 15 15 15 15 15 16 17 17 18 18 19 19 19 19
24 23 23 23 22 20 20 21 20 19 20 22 23 22 20 19 18 17 17 18 17 17 16 16 16 16 16 17 18 18 18 18 18 17 16 15 15 14 14 14 14 14 15 15 15 16 16 16 17 17 18 18 17 17 18 18 19 20 20 20 21 21 21
26 26 26 26 24 23 23 23 22 21 22 23 24 23 22 21 21 20 20 20 19 19 19 18 17 18 19 19 19 19 19 19 20 20 20 18 18 16 15 15 15 14 15 15 15 16 17 17 18 18 19 19 20 20 20 20 21 22 23 23 23 23 23
28 29 29 28 27 25 25 26 26 25 25 24 24 24 23 23 23 23 23 23 22 22 22 20 20 20 20 20 21 21 20 19 19 20 21 21 20 19 18 17 17 16 16 16 16 17 18 19 20 20 21 21 22 22 22 22 22 23 24 25 26 26 26
30 30 31 31 29 28 28 28 29 29 28 26 25 26 25 24 25 26 25 26 26 26 26 25 23 22 21 21 22 23 22 21 20 20 21 21 21 21 21 20 20 20 20 20 20 20 21 21 22 22 23 24 25 25 25 25 25 25 24 25 26 28 28
33 33 33 33 32 32 32 32 32 33 31 28 26 26 26 26 28 29 28 28 29 29 28 27 26 25 25 23 23 23 24 24 24 23 23 23 23 23 24 24 24 24 24 24 23 23 24 24 25 25 26 27 27 28 28 28 28 28 27 27 27 28 29
34 32 32 33 34 35 36 37 37 37 36 33 30 29 29 29 31 32 31 31 33 33 31 30 29 28 27 26 26 26 25 24 25 26 27 27 26 26 27 27 27 27 27 26 25 25 25 26 26 27 28 28 29 30 30 31 31 31 30 30 29 29 30
35 34 33 34 35 36 38 39 38 37 37 36 36 35 34 33 33 33 32 31 31 32 32 31 31 30 29 28 29 29 29 28 27 28 29 30 30 30 30 30 29 28 28 28 28 27 27 27 28 29 29 30 31 31 32 32 32 32 32 32 32 31 31
43 41 40 39 39 39 39 39 38 37 37 36 37 38 38 37 36 35 34 31 29 30 31 31 32 32 31 31 31 31 33 34 33 31 30 30 31 32 32 32 31 31 31 31 32 31 30 29 30 31 31 31 32 32 32 32 33 33 33 33 33 33 33
47 46 45 44 44 44 44 44 43 42 40 39 38 39 40 40 40 38 37 36 35 35 36 36 36 35 34 34 35 35 36 37 37 35 32 30 31 32 32 33 33 33 34 35 35 35 34 32 32 32 32 33 33 33 34 34 35 35 35 35 34 35 35
49 49 49 48 47 47 48 48 47 46 44 41 41 41 42 42 43 42 42 42 42 42 42 41 40 38 36 36 36 35 35 35 35 35 35 35 36 36 36 37 37 37 38 38 38 38 37 36 36 35 35 36 36 37 38 38 38 38 37 37 36 37 37
52 52 52 52 52 52 52 52 51 50 48 46 45 45 44 44 45 46 47 47 47 47 46 45 44 43 41 40 40 39 38 38 39 40 40 40 40 40 40 40 40 40 40 41 41 41 41 40 40 39 39 39 39 41 42 42 41 41 41 41 41 41 41
53 53 53 54 55 56 56 56 55 55 53 52 51 50 48 48 48 49 49 48 48 48 47 47 47 47 47 47 47 48 47 47 48 47 47 46 44 43 43 42 43 43 43 43 43 44 44 44 44 44 44 44 45 46 46 47 47 48 48 48 47 47 47
48 48 49 50 51 53 54 55 56 56 56 55 55 53 51 51 51 52 52 51 49 49 48 48 48 48 49 49 49 49 48 48 49 49 48 48 47 47 47 47 47 48 47 47 47 47 48 48 49 49 49 48 49 49 49 50 52 53 54 53 52 51 50
45 46 48 49 50 50 50 51 52 53 54 55 55 55 53 52 51 52 53 52 50 48 47 47 47 48 48 49 49 49 48 47 47 47 47 47 48 49 49 49 50 50 50 49 49 48 49 49 50 50 50 50 49 50 50 52 53 53 53 53 53 52 51
48 49 51 52 52 51 51 50 50 50 51 53 54 55 55 55 54 54 54 53 52 51 50 50 50 49 49 49 50 51 51 51 50 49 48 49 49 50 50 49 50 50 50 50 49 49 49 50 50 50 50 50 50 50 51 51 52 52 52 51 51 51 51
52 53 53 53 53 52 51 51 50 50 51 52 53 54 55 55 55 55 55 55 55 54 54 54 53 53 54 54 54 54 54 54 54 53 52 52 52 52 52 52 51 50 50 50 50 50 51 50 50 49 49 49 49 49 50 50 51 51 51 50 50 50 51
56 55 53 52 52 52 51 51 51 51 51 52 52 53 53 54 54 54 55 54 54 54 53 53 52 53 53 54 53 53 53 53 54 54 53 53 52 52 53 53 52 51 50 50 50 50 50 50 49 49 49 48 48 48 49 49 49 49 50 50 50 50 50
56 55 53 52 52 52 52 52 52 52 52 52 52 53 53 53 53 53 53 53 53 53 52 52 51 51 51 51 50 50 50 50 51 51 51 51 50 50 50 51 50 50 49 49 49 48 48 48 49 49 49 48 48 48 49 49 49 49 49 49 49 49 49
56 55 54 53 52 52 52 53 53 54 54 54 54 54 55 55 55 55 54 54 54 54 54 53 53 52 51 50 49 48 47 48 48 49 49 49 49 49 49 48 48 48 47 47 47 47 48 48 48 48 48 49 49 49 49 49 49 49 49 48 49 49 49
54 54 53 52 51 51 52 52 53 54 54 55 55 55 54 54 54 55 55 55 55 54 54 54 53 53 52 50 49 48 47 47 47 47 48 49 49 49 48 48 47 47 47 47 47 47 48 48 48 48 49 49 50 50 49 49 49 49 49 48 49 49 49
52 51 51 51 50 49 49 50 51 52 52 52 52 52 52 52 52 53 54 54 54 53 52 52 51 51 51 50 48 47 47 46 46 47 47 48 48 48 48 48 48 47 47 48 48 48 48 48 49 49 50 50 50 50 50 50 49 49 49 49 49 49 50
51 51 51 50 49 49 48 48 48 49 49 49 50 50 50 50 50 51 51 51 52 51 51 50 49 49 48 47 47 46 46 46 46 46 47 47 48 48 48 47 47 48 48 49 48 48 49 49 50 50 50 50 51 51 51 50 49 48 48 48 48 49 50
52 51 51 50 49 48 48 47 46 46 46 47 48 48 48 48 48 49 49 49 49 49 48 48 47 46 45 44 44 45 45 45 45 46 46 47 48 48 48 47 47 48 48 48 48 48 48 48 48 49 49 50 51 51 51 50 49 48 47 48 48 49 49

ECMWFFLT1_500_spd_015.txt.gz
Wind_Speed
14 13 13 16 21 23 23 23 21 19 17 17 17 17 17 17 17 17 17 17 17 18 18 19 20 21 22 22 23 23 22 21 22 21 21 22 23 21 22 23 23 24 24 25 26 26 26 26 26 26 27 27 27 27 26 26 26 26 27 27 28 28 29
19 19 21 26 28 26 22 23 23 20 19 18 17 17 16 16 16 16 16 16 17 17 18 19 19 20 20 21 21 21 21 21 21 21 22 24 25 24 24 25 25 25 26 26 27 27 27 27 27 27 28 27 27 27 27 26 26 25 25 25 26 27 28
22 24 25 26 26 24 22 22 22 21 19 18 17 17 16 15 15 15 15 15 16 16 17 18 18 19 19 19 19 20 20 20 21 22 22 23 24 25 25 26 26 26 27 27 28 28 28 28 28 28 28 28 28 27 27 26 25 24 24 25 26 27 26
23 25 25 23 22 23 21 20 21 20 18 17 16 17 16 15 14 13 13 13 14 15 16 16 17 17 18 18 18 18 19 19 20 21 21 22 23 23 24 25 26 26 27 27 27 27 28 28 28 28 28 28 28 27 27 26 25 24 24 25 26 26 25
23 26 25 23 23 22 19 19 20 19 17 16 15 16 15 14 14 13 12 12 12 13 13 14 15 16 16 16 17 17 17 18 18 19 19 20 21 22 22 23 23 24 24 25 25 25 25 25 26 27 27 27 27 27 27 26 25 25 25 26 27 28 28
23 26 26 23 23 22 19 19 19 17 16 14 14 14 14 14 13 13 11 10 10 10 11 12 13 13 14 15 15 16 16 17 17 17 18 18 19 20 20 20 21 21 21 22 22 22 22 23 23 24 24 24 25 25 25 25 24 25 25 26 28 30 30
19 22 22 22 24 24 20 18 18 17 15 12 12 13 13 12 12 11 11 10 9 9 9 10 10 11 12 13 14 15 15 16 16 16 17 17 17 18 18 18 18 18 19 19 20 20 20 20 21 21 21 22 23 23 23 23 23 24 24 25 27 29 30
19 18 18 20 24 24 19 17 18 16 13 12 11 12 11 11 10 10 10 10 10 10 10 9 9 10 10 11 12 13 14 14 15 15 15 15 16 16 16 16 16 16 17 17 18 18 18 19 19 19 19 19 19 20 20 20 20 21 22 23 24 26 26
18 16 14 19 23 21 17 16 16 15 13 12 12 11 10 8 7 7 8 9 10 11 12 11 11 10 10 10 11 11 12 12 13 13 13 13 13 14 14 15 15 15 15 16 16 17 17 17 17 17 17 17 16 16 16 16 16 17 18 19 20 21 22
15 13 14 20 22 19 16 16 15 14 12 12 12 11 9 7 6 5 6 8 9 11 12 12 12 11 11 10 10 10 10 11 11 11 11 11 12 12 13 13 14 14 14 14 15 16 16 17 16 16 16 15 15 14 13 13 13 14 15 15 16 17 17
15 13 15 21 21 17 16 16 15 14 13 13 12 12 11 9 8 6 5 6 7 9 10 11 12 12 11 11 11 11 11 11 11 11 11 11 12 12 13 13 13 13 14 14 14 15 15 16 16 16 16 15 14 14 13 12 12 13 13 14 15 15 15
14 13 16 21 20 17 16 15 16 16 15 14 14 13 12 12 11 9 8 7 6 7 8 9 10 11 12 12 12 13 13 13 13 12 12 13 13 13 14 14 14 14 14 14 15 15 15 15 15 16 16 16 15 15 14 14 13 14 14 15 15 15 15
14 14 16 19 18 15 14 15 16 16 16 15 14 14 13 12 11 11 10 10 9 8 9 9 10 11 11 11 12 12 13 13 13 13 13 13 14 14 14 15 15 16 16 16 16 16 16 16 16 16 16 17 17 16 16 15 15 15 15 16 16 16 16
15 15 16 17 16 16 16 16 18 18 17 16 16 15 14 12 12 12 12 12 11 10 10 10 11 11 11 11 11 12 12 12 13 13 14 15 16 16 16 17 16 16 16 16 16 16 16 16 16 16 16 17 17 17 17 17 17 16 17 17 17 17 18
18 18 19 19 19 21 21 20 21 21 20 19 18 18 16 14 13 13 12 12 12 12 12 12 13 13 14 14 14 14 14 14 14 14 15 17 18 18 19 19 18 18 17 17 17 16 16 16 16 15 16 16 16 17 17 18 18 18 18 18 18 18 19
18 20 21 20 21 23 25 26 25 24 23 22 21 19 18 15 14 14 14 13 13 13 13 14 15 15 16 16 16 16 16 16 16 17 18 18 18 19 19 20 20 20 20 19 19 19 18 18 17 17 16 16 16 16 16 17 17 18 18 18 18 18 19
15 16 18 20 21 22 25 28 28 27 26 25 23 21 20 19 17 16 16 16 15 15 14 15 16 17 17 18 18 18 19 19 20 21 20 20 20 20 20 21 21 22 22 22 21 21 20 20 20 20 20 19 18 18 18 18 18 19 19 19 19 19 19
16 15 16 17 20 22 26 28 28 27 27 26 24 22 21 21 20 18 18 17 17 17 17 17 18 18 19 20 20 20 21 22 23 24 24 24 23 22 21 22 22 23 23 22 22 22 22 23 23 23 23 23 23 22 21 21 21 21 21 21 21 21 21
20 19 20 20 21 23 28 29 26 23 23 23 23 23 22 21 20 18 18 18 18 18 19 20 20 20 20 21 22 22 22 23 24 25 27 27 26 25 24 23 23 23 23 22 22 22 23 24 25 26 26 27 26 26 25 25 24 23 22 21 22 23 23
23 23 23 21 21 22 27 31 28 23 22 21 21 21 22 22 21 21 21 20 20 21 22 23 23 24 23 24 25 25 25 24 24 25 28 29 29 28 27 26 25 25 24 23 22 23 24 25 26 27 28 29 29 29 28 27 26 25 24 24 24 24 25
25 25 23 20 20 21 25 30 30 26 25 24 22 22 22 22 22 22 22 21 22 24 25 24 24 25 26 27 29 30 29 28 27 27 28 28 29 30 30 29 29 28 28 27 27 26 27 29 29 30 30 31 32 31 30 29 28 28 28 29 29 29 29
27 26 24 21 20 21 22 25 28 29 28 25 22 21 21 21 22 23 24 25 26 26 26 25 25 25 27 28 31 33 33 32 31 31 31 29 27 29 32 32 33 33 33 32 32 32 32 32 32 33 33 33 34 34 34 33 32 32 33 33 34 34 34
29 28 27 24 23 25 25 24 27 29 28 26 25 26 29 30 31 32 33 33 29 27 27 28 28 28 28 29 30 32 34 34 34 34 35 33 30 31 33 34 36 36 35 35 34 35 35 35 35 35 35 35 35 36 35 35 35 35 36 36 36 36 37
31 31 30 28 27 30 30 28 30 31 31 31 32 35 37 35 33 35 37 35 32 33 34 33 31 31 32 32 33 34 35 35 36 36 37 37 36 36 38 39 39 39 37 37 37 39 40 39 39 39 38 38 38 38 37 38 39 40 40 40 41 41 42
37 35 34 32 32 32 33 32 32 34 35 35 33 31 33 33 33 34 35 33 33 34 34 33 32 32 33 34 35 36 37 38 39 40 40 41 42 42 43 43 43 42 42 41 42 43 44 44 43 43 42 40 39 39 41 42 44 45 46 46 47 47 48
41 40 39 38 38 37 35 34 34 35 36 35 34 33 34 35 34 33 31 31 33 33 32 32 32 33 34 36 37 38 39 40 41 42 44 45 45 46 46 46 45 44 44 44 44 45 46 46 46 47 46 45 43 44 46 48 50 50 51 52 52 52 52
43 42 42 41 41 40 38 37 37 37 37 37 36 37 36 35 34 32 31 32 33 34 35 35 36 37 38 38 39 39 40 41 42 43 44 45 46 46 46 46 46 45 44 44 44 45 46 46 47 47 48 48 48 49 51 52 53 54 54 54 54 53 52
43 43 43 43 43 42 41 40 39 38 38 38 38 37 37 36 35 34 33 34 36 38 39 40 41 41 41 40 40 41 41 42 42 43 43 44 44 44 44 44 45 45 45 45 45 46 47 48 48 49 49 49 49 50 51 51 52 52 53 53 53 52 51
44 45 45 46 45 45 45 44 43 41 40 40 40 39 38 36 36 36 37 38 39 41 42 43 44 44 44 43 41 41 42 43 43 43 43 44 44 44 45 45 46 47 47 48 48 49 50 51 52 52 53 53 53 53 53 53 53 53 53 54 54 54 54
46 46 46 46 46 46 46 46 46 45 44 42 41 40 38 38 38 39 40 41 41 42 44 45 46 47 47 45 43 42 42 43 43 44 44 44 44 45 45 46 47 47 48 49 49 50 51 52 52 53 53 54 54 54 54 54 55 55 55 55 55 56 56
46 46 46 46 46 46 46 46 46 46 45 44 42 41 40 40 40 41 41 42 43 44 45 47 48 49 49 48 47 46 44 44 44 44 44 45 45 46 46 47 47 48 49 49 50 51 51 52 52 53 53 53 54 54 54 55 55 55 55 56 57 57 57
45 45 46 46 46 46 46 45 45 45 45 44 44 43 42 42 42 42 43 44 45 46 47 48 50 50 50 50 49 48 48 47 46 45 45 45 46 46 47 48 48 49 50 51 51 52 52 53 53 54 54 54 54 54 55 55 55 56 56 57 57 58 58
45 45 45 46 47 47 46 45 45 45 46 46 46 45 45 44 44 45 46 47 48 49 49 50 51 51 51 50 49 49 48 47 46 46 45 45 45 45 46 46 47 48 49 49 50 50 51 52 52 53 53 54 54 55 55 56 56 56 57 57 57 58 58
43 43 44 46 48 47 46 46 47 47 47 48 48 48 49 48 49 49 50 49 50 50 51 51 51 51 50 49 48 47 46 46 45 45 44 44 44 44 45 45 46 46 46 47 47 48 49 49 50 51 52 52 53 54 55 55 56 56 57 57 57 58 58
43 44 46 48 49 49 48 48 49 49 50 51 52 52 53 54 54 54 52 51 51 52 52 51 51 50 49 48 46 45 45 45 45 44 44 44 44 44 44 45 45 45 45 45 46 46 47 47 48 48 49 51 52 53 54 55 55 56 56 56 56 57 58
55 54 55 54 53 51 51 51 51 53 54 56 57 58 58 59 58 56 54 53 53 52 51 50 49 48 47 46 46 46 45 45 45 44 44 44 44 44 44 44 44 44 44 45 45 45 46 46 46 47 47 48 50 51 52 53 53 54 54 55 55 56 57
62 63 63 63 61 60 59 59 60 61 62 63 64 64 63 61 59 56 54 54 53 52 50 49 48 47 47 46 46 47 47 46 45 44 44 44 44 44 44 44 44 44 44 44 45 45 46 46 46 45 45 46 47 47 48 49 50 51 52 52 53 53 54

ECMWFFLT1_500_spd_018.txt.gz
Wind_Speed
14 14 16 16 17 17 17 19 22 20 19 18 18 21 22 21 21 21 22 22 22 21 21 21 21 22 23 24 25 26 27 28 28 27 26 26 27 27 26 25 26 26 25 24 26 26 26 26 25 25 25 25 26 26 26 27 27 26 26 27 28 29 30
15 16 18 20 22 22 23 24 23 20 18 18 18 21 22 22 21 22 23 23 23 22 21 21 22 22 23 24 25 25 26 27 27 27 27 26 26 26 26 27 26 26 26 25 26 27 27 27 26 26 27 27 27 27 27 28 28 27 27 27 27 29 30
18 18 20 22 24 25 26 26 23 20 18 17 17 20 22 23 22 22 23 23 23 23 22 22 22 22 23 23 24 24 25 25 25 26 26 26 26 26 26 26 27 27 27 27 27 27 27 28 28 28 28 28 28 28 28 28 28 28 28 27 27 27 29
20 20 21 23 24 26 26 25 23 20 18 16 17 19 21 22 22 22 22 23 23 23 22 22 21 21 21 22 22 22 23 23 23 24 24 25 25 26 26 26 26 27 27 27 27 27 27 28 28 29 28 28 28 28 28 28 28 28 28 27 26 26 27
22 21 22 23 24 25 24 21 19 17 15 15 17 19 19 19 20 20 21 22 23 23 22 21 20 20 20 20 21 21 21 22 22 23 24 24 25 25 26 26 26 26 26 27 27 27 27 27 27 28 27 27 26 26 27 27 27 27 27 26 26 25 25
24 22 22 22 21 21 19 16 14 13 13 15 16 17 18 18 18 19 20 21 22 22 21 20 19 19 19 19 19 19 19 20 21 22 22 23 23 24 24 24 24 25 25 25 25 25 25 25 25 25 25 24 24 24 24 25 25 25 25 25 25 25 24
25 24 23 22 20 19 16 12 11 11 12 14 15 16 17 16 17 18 19 20 20 20 20 19 18 17 17 16 16 16 17 18 18 19 20 21 21 21 22 22 22 22 22 22 22 22 22 22 22 21 21 21 21 21 22 22 23 23 23 23 23 23 23
20 20 20 21 20 19 17 13 11 12 12 13 15 16 16 16 18 18 19 19 19 19 19 18 16 15 14 14 14 14 14 15 16 17 18 18 18 19 18 18 19 19 19 19 19 19 19 19 19 19 18 18 18 19 19 20 20 20 20 20 20 20 20
19 18 19 21 18 16 16 15 13 13 13 13 15 16 16 16 17 18 18 18 18 18 18 17 16 15 14 13 13 13 13 13 14 14 15 15 15 15 15 15 15 15 16 16 16 16 16 17 17 17 16 16 16 16 17 17 18 17 17 17 17 17 17
19 18 18 18 15 15 19 20 17 15 14 14 15 16 16 15 16 17 17 17 17 17 17 16 16 15 15 14 14 13 12 12 12 13 13 13 13 13 12 12 13 13 13 14 14 14 15 15 15 15 15 15 15 15 15 15 15 15 14 14 14 14 14
16 14 15 16 14 17 23 24 21 18 15 15 16 16 15 15 14 15 16 17 17 17 16 15 15 15 14 14 14 14 13 13 12 12 12 12 12 12 11 11 11 12 12 13 13 14 14 14 14 14 14 15 14 14 14 14 14 14 13 13 12 12 13
15 13 13 15 15 18 25 27 23 20 16 15 16 16 15 15 15 15 16 17 18 18 18 17 16 16 15 15 15 14 14 14 14 14 13 13 13 12 12 12 12 12 13 13 14 14 14 14 14 14 14 14 14 14 13 13 13 13 13 13 12 12 13
14 14 14 15 15 18 23 22 18 15 14 15 16 16 16 16 17 18 18 18 19 19 19 18 18 17 16 15 15 15 15 15 15 15 14 14 13 12 12 12 12 13 14 15 15 15 16 15 16 16 16 16 16 15 15 14 14 14 14 13 13 13 13
11 13 14 15 16 15 16 15 13 12 12 13 15 16 17 18 18 20 20 20 20 19 19 19 18 17 16 15 15 14 14 14 14 14 14 13 13 13 13 13 14 15 15 16 16 17 17 17 17 17 17 17 17 17 17 16 16 15 15 15 15 14 14
10 11 13 15 17 16 15 16 16 14 14 16 17 19 20 20 20 20 21 21 21 20 20 19 19 18 17 16 15 15 14 14 14 14 14 14 13 14 14 15 17 17 18 18 18 18 18 18 19 19 19 18 18 18 17 17 17 17 16 16 16 16 16
11 12 12 13 14 14 15 17 17 17 19 20 21 22 22 21 22 21 20 20 20 20 20 20 20 20 19 18 17 17 16 16 16 16 15 15 15 15 16 17 18 19 19 19 19 19 19 19 20 20 20 20 19 19 19 19 18 18 18 18 17 18 18
13 13 13 13 12 12 13 15 17 19 23 24 23 23 23 23 23 23 22 21 20 19 18 19 19 19 19 19 18 18 18 18 18 18 18 17 18 18 18 18 18 19 20 21 21 20 20 20 20 20 21 21 21 21 22 22 21 21 21 21 21 21 20
15 16 16 15 14 13 13 15 17 21 25 26 25 23 24 25 25 25 24 24 22 19 18 18 18 18 18 19 19 19 19 19 20 20 20 20 20 20 20 20 21 22 22 22 22 22 21 21 21 21 21 22 22 23 23 24 24 25 25 25 25 24 24
17 18 18 17 16 15 16 18 20 22 24 26 25 24 24 25 26 26 27 25 22 20 18 17 18 18 19 19 19 20 20 20 21 21 22 22 21 21 22 22 23 24 25 25 24 24 23 23 23 23 23 22 22 23 24 25 26 27 27 28 28 27 26
20 19 18 17 16 16 18 19 21 23 24 25 28 29 27 26 27 26 25 23 21 20 19 18 18 19 20 20 20 21 22 22 23 24 24 24 23 23 24 25 25 26 26 27 27 26 25 25 25 25 24 24 24 24 25 27 28 29 29 30 30 30 29
24 21 20 20 20 19 19 20 20 22 23 24 28 31 30 27 27 26 23 20 20 22 22 21 21 21 21 22 22 22 22 23 25 27 27 26 26 25 26 28 29 29 27 27 29 29 28 27 27 27 27 27 28 28 28 29 30 30 31 32 33 33 33
29 28 28 27 26 24 22 22 22 22 23 22 24 28 30 29 29 28 24 21 22 25 24 23 23 24 24 25 25 24 23 23 24 27 28 28 28 28 28 30 33 32 30 28 29 30 31 31 31 31 32 33 35 35 33 32 31 31 32 33 34 35 37
32 33 32 31 31 29 26 25 24 24 25 24 23 25 28 30 31 29 26 24 24 25 26 27 28 29 28 27 27 27 27 27 28 29 30 30 30 30 31 32 34 34 33 32 32 32 33 34 34 34 35 36 38 38 38 36 36 36 36 37 38 38 39
35 34 34 34 33 33 31 29 28 27 27 27 28 28 28 29 30 30 27 26 27 28 29 30 31 31 29 29 30 31 32 33 34 34 35 34 34 34 35 35 35 35 36 36 36 37 38 39 39 39 39 39 40 41 42 43 43 43 42 42 43 43 43
38 37 36 35 35 36 35 34 33 32 31 30 31 33 32 31 33 34 32 31 30 30 30 29 30 31 31 31 32 33 33 33 33 33 34 35 36 37 38 38 39 40 40 41 41 42 43 44 45 45 45 44 44 45 46 48 48 48 48 48 49 49 48
41 40 39 38 37 37 37 36 35 34 35 34 33 34 34 34 35 36 34 33 33 33 31 31 31 32 32 31 30 30 31 32 33 34 35 35 36 37 38 39 41 42 43 44 46 47 48 49 50 50 50 50 50 49 49 50 50 51 52 52 52 52 52
43 42 41 40 39 38 37 37 36 35 36 36 36 35 36 36 36 35 34 34 35 35 35 36 36 34 32 31 29 30 32 34 36 37 37 37 37 37 38 40 42 43 44 45 46 48 49 50 51 52 53 53 53 53 52 51 51 51 52 53 53 53 53
45 44 43 41 40 39 38 38 38 38 38 37 38 38 37 37 36 36 36 35 36 36 37 36 36 34 32 31 31 32 35 36 37 37 37 38 38 38 39 40 41 43 45 46 47 48 49 50 50 51 52 53 53 53 53 52 52 52 52 52 53 53 54
46 45 44 43 42 41 40 40 40 40 40 40 40 40 40 39 38 37 37 37 37 37 37 36 34 33 33 33 34 36 36 37 37 37 38 39 39 40 40 40 41 43 44 45 47 48 48 49 50 50 51 51 51 51 52 52 52 52 53 53 54 54 55
45 44 44 43 43 43 42 43 43 43 43 43 43 42 40 39 38 38 38 38 39 39 38 37 36 36 35 36 36 37 37 38 39 39 40 41 41 41 41 41 42 43 44 45 46 47 48 48 49 50 50 50 51 51 52 52 53 53 54 54 55 55 56
42 42 42 42 42 42 42 42 42 42 43 43 43 42 41 39 39 39 39 39 40 40 39 39 39 40 40 39 39 39 40 41 41 41 41 42 42 42 42 42 43 43 44 45 46 47 48 48 49 50 50 50 51 51 51 52 52 53 53 53 54 55 56
41 42 42 42 42 42 42 42 41 41 42 42 42 42 41 40 39 38 38 39 40 40 41 41 42 43 43 43 43 43 44 44 43 43 43 43 43 43 43 43 43 43 44 44 44 45 46 46 47 47 48 48 49 49 49 50 50 51 52 52 53 54 55
39 40 41 42 43 43 43 42 42 42 43 43 42 42 41 41 40 40 39 39 39 40 41 41 42 43 44 45 45 46 46 46 46 46 45 45 45 44 44 44 43 43 43 43 44 44 43 44 44 45 45 46 46 47 48 49 49 50 51 51 52 53 54
45 43 42 41 41 41 41 41 41 42 43 43 43 43 43 43 42 42 41 40 39 40 40 40 41 42 44 45 47 48 48 48 48 47 47 46 46 45 44 44 43 43 43 43 43 43 43 43 44 44 44 45 46 47 47 48 48 49 49 50 51 51 52
53 50 47 45 43 42 42 41 40 40 41 42 43 43 45 45 44 43 42 42 41 41 41 42 43 44 46 47 49 50 51 51 50 49 48 47 46 45 44 44 43 43 42 42 42 42 42 43 43 44 44 45 45 46 47 47 47 47 48 49 50 51 52
55 53 51 49 48 47 46 44 42 39 40 43 45 46 47 48 46 45 45 45 44 45 45 46 47 48 50 52 53 54 54 53 51 50 48 47 47 46 45 45 44 43 42 42 42 42 42 43 43 44 44 44 44 45 45 45 46 46 47 49 49 50 51
57 57 56 55 54 53 51 48 47 45 44 45 46 47 49 50 49 48 48 48 49 50 51 52 53 54 55 56 56 55 54 52 50 48 47 46 44 43 43 43 42 41 41 42 42 42 42 43 43 43 43 43 43 43 44 45 46 46 47 48 49 49 50

ECMWFFLT1_500_spd_021.txt.gz
Wind_Speed
16 16 14 13 14 15 16 17 17 18 19 21 22 21 19 19 19 17 17 17 18 19 20 21 21 22 23 23 23 23 24 24 25 26 27 26 25 24 24 24 23 23 23 24 24 24 23 23 23 22 22 23 24 25 26 27 27 26 26 26 26 26 27
18 18 17 15 15 16 17 18 19 21 23 24 25 23 20 19 19 19 18 18 19 20 21 22 23 23 23 24 24 24 25 25 25 26 26 26 25 25 24 24 23 23 22 22 23 23 23 23 23 24 24 24 25 26 27 28 28 27 27 27 27 27 27
21 21 20 19 19 18 19 20 21 22 24 25 25 24 22 19 18 18 18 18 20 21 22 23 24 24 24 24 25 25 25 25 25 26 26 26 26 25 24 23 23 22 22 22 22 23 23 23 25 25 25 25 26 27 27 28 28 27 27 27 27 27 27
23 23 22 22 22 22 22 22 23 23 25 26 27 26 24 21 17 16 17 18 20 22 23 24 25 26 26 25 26 26 26 26 26 26 26 26 25 25 24 23 22 22 22 23 23 23 23 24 25 25 25 25 26 27 27 27 27 27 27 26 26 26 26
24 24 24 23 24 24 24 24 23 23 23 24 26 25 25 22 18 15 16 18 20 22 23 24 25 26 27 27 26 26 26 26 26 26 26 25 24 23 23 22 22 22 22 22 22 23 23 23 23 23 23 24 24 25 25 26 26 26 25 24 24 24 24
24 25 25 24 24 25 25 25 23 20 19 21 23 24 23 21 18 15 16 18 19 21 23 24 26 27 27 28 28 27 27 27 26 26 25 24 23 22 21 21 21 20 19 19 20 20 20 20 20 20 20 21 21 22 22 23 23 23 23 22 22 22 22
22 23 24 24 24 25 26 26 23 20 18 19 21 21 20 18 16 15 15 17 18 20 23 24 26 27 28 28 28 28 27 26 25 24 24 23 22 20 19 19 18 18 17 17 16 16 16 16 16 16 16 16 16 17 17 18 18 19 19 19 19 19 20
21 22 22 23 22 22 22 23 23 22 19 19 20 19 18 16 14 14 15 16 17 19 22 24 26 27 27 28 27 27 26 25 24 23 22 21 20 18 17 16 16 16 15 14 14 14 13 13 13 13 13 13 13 13 13 14 14 15 15 16 16 16 16
23 23 21 20 20 19 20 20 21 21 19 18 18 18 17 16 14 14 15 16 17 18 21 22 24 25 26 26 26 26 25 24 23 22 21 20 18 17 16 15 15 14 14 13 13 12 11 11 11 10 10 10 11 11 12 12 12 12 13 13 13 13 13
24 22 19 19 19 20 21 20 18 19 19 18 18 18 18 16 15 15 15 16 17 18 19 21 22 23 24 24 24 24 24 23 23 22 21 20 18 17 16 15 14 13 13 12 11 11 10 10 10 9 9 10 10 10 11 12 12 12 12 12 12 12 12
19 17 16 17 19 20 20 19 18 19 20 20 20 20 19 17 15 15 15 15 16 17 18 20 21 22 22 23 23 24 24 24 23 22 21 20 19 17 16 15 14 13 12 11 11 10 10 10 11 11 11 11 11 11 11 12 12 12 13 13 13 12 12
15 15 15 16 18 19 19 19 18 19 21 23 24 23 20 17 15 15 15 15 15 16 17 18 20 21 22 23 24 24 25 24 23 22 21 19 18 17 16 16 15 14 13 13 12 12 12 12 12 12 12 12 12 13 13 13 13 13 13 13 14 14 14
14 14 13 14 17 18 17 18 18 18 18 22 24 23 19 16 14 14 15 16 16 17 18 19 20 21 22 23 24 24 24 24 23 22 20 19 18 17 17 16 15 15 14 14 13 13 13 13 13 13 13 13 13 13 13 14 14 14 14 14 14 14 14
12 12 12 12 14 16 16 17 17 17 15 14 15 15 15 15 15 15 17 18 19 19 20 20 21 21 22 23 23 23 23 22 22 21 20 19 19 18 17 16 15 14 14 13 14 14 15 15 16 16 16 16 15 15 15 14 14 14 14 14 14 14 15
11 12 12 11 13 15 16 16 16 17 16 13 11 11 13 14 16 17 18 20 21 21 21 21 22 22 22 22 22 22 22 22 21 21 21 21 20 19 18 17 16 15 14 14 14 14 15 16 17 18 18 18 17 17 16 16 15 14 14 14 14 15 15
12 12 13 14 14 14 15 15 14 15 15 14 13 14 15 16 17 19 20 21 21 22 22 22 23 23 23 23 23 22 21 21 21 21 21 21 21 20 19 18 17 16 15 15 15 16 16 16 17 18 19 19 19 18 18 17 17 16 16 16 16 16 17
14 13 14 15 16 16 15 14 14 13 13 13 14 16 17 18 19 20 22 22 22 22 22 23 23 23 24 24 23 23 22 22 21 21 21 21 21 21 20 20 19 18 18 18 18 18 18 18 19 19 20 20 20 20 20 19 19 18 18 18 19 19 19
16 14 13 14 16 17 16 16 16 16 16 16 16 17 19 19 20 20 22 23 24 24 23 23 23 24 24 24 23 23 23 23 22 22 22 22 21 21 21 21 21 21 21 20 20 20 20 21 22 22 22 22 22 22 21 21 21 20 20 20 20 21 22
18 16 14 14 15 17 18 18 18 18 18 18 19 20 21 21 20 20 21 23 24 25 24 24 25 25 24 24 24 24 23 23 23 23 23 23 22 22 22 23 23 23 23 22 22 22 21 22 23 25 25 25 24 24 24 23 23 22 22 22 23 23 24
19 18 17 16 16 17 18 18 19 19 19 20 20 22 23 23 23 24 25 25 26 26 25 26 27 27 26 25 25 25 24 23 23 23 23 24 24 23 23 23 23 23 23 23 24 24 23 23 24 25 27 28 28 27 27 27 26 26 26 26 26 26 27
24 22 22 21 20 20 20 21 22 23 24 25 24 24 24 23 24 25 27 29 29 28 27 28 28 28 28 27 26 25 24 24 24 24 25 25 26 25 26 25 25 25 25 25 25 25 25 25 25 26 27 29 30 30 30 30 30 30 30 30 30 31 32
30 30 30 29 27 26 26 27 28 29 30 30 29 26 25 25 26 26 27 30 31 30 28 28 27 26 27 27 26 25 24 25 26 25 25 26 26 26 26 26 27 28 29 30 30 30 29 29 29 29 29 29 31 32 33 33 34 34 35 35 36 37 38
33 35 36 35 34 33 32 32 32 33 33 33 32 30 27 26 28 27 26 29 31 29 27 28 27 27 27 28 27 25 25 26 27 26 26 27 27 27 26 26 27 29 31 33 34 35 35 34 34 33 32 32 33 34 35 36 37 38 38 38 39 40 41
36 37 38 39 39 38 37 36 35 35 34 34 34 33 31 29 29 29 28 28 29 29 28 29 29 28 27 28 28 27 28 29 30 30 29 29 30 31 30 30 31 32 33 35 36 37 38 38 38 38 38 38 38 38 39 40 40 41 41 41 42 43 45
39 40 40 41 42 42 41 40 39 37 36 36 36 35 35 33 32 32 31 30 30 30 30 30 30 30 31 32 32 32 32 34 34 32 31 31 32 34 35 35 35 34 33 35 36 38 38 39 41 41 42 43 43 44 44 45 45 46 47 47 48 49 50
42 43 43 43 44 44 43 43 43 41 39 38 38 37 37 36 36 35 34 34 33 31 30 31 34 35 36 36 35 34 34 34 33 33 33 33 33 34 35 35 33 33 33 35 36 38 38 39 40 40 41 42 43 44 45 46 47 48 50 51 52 52 53
43 43 44 44 44 44 44 44 44 44 42 41 40 39 39 38 38 38 37 37 36 34 34 36 38 39 39 38 35 33 33 33 34 35 36 36 35 34 34 33 33 33 34 35 37 38 38 39 39 40 41 41 42 43 44 45 46 47 49 50 51 53 54
41 41 42 42 43 44 44 45 45 44 43 42 42 41 41 40 40 39 39 39 38 38 36 35 35 36 38 39 38 36 36 38 38 39 39 38 37 36 34 33 33 34 35 36 37 39 40 41 41 41 42 42 43 44 44 45 46 47 48 50 51 52 53
44 43 43 43 43 43 44 45 45 45 44 43 43 42 42 42 41 41 41 40 39 39 36 34 33 35 36 38 39 39 40 40 40 40 39 38 37 35 34 33 33 34 35 36 37 39 40 41 42 42 43 43 44 44 45 46 47 48 49 50 51 52 53
48 48 46 45 44 44 44 45 46 45 44 44 44 43 43 43 44 43 43 42 40 40 40 39 39 39 38 38 38 39 39 39 39 39 38 38 37 36 35 34 34 35 35 36 37 39 40 41 42 42 43 44 45 46 46 47 48 49 50 51 52 52 53
50 49 48 46 44 43 43 43 44 44 43 43 43 43 43 44 45 45 45 44 43 43 43 43 43 43 42 41 40 39 39 39 39 39 39 39 38 37 37 37 37 37 37 38 39 40 41 42 42 43 44 45 45 46 47 48 49 50 51 52 52 53 54
49 49 49 47 44 43 42 41 41 41 40 40 41 42 42 43 44 45 46 45 45 46 46 46 44 43 43 42 42 41 41 40 40 40 40 40 40 39 39 40 40 40 40 41 42 42 42 42 43 43 44 45 46 47 48 49 50 51 51 52 52 53 53
51 50 50 49 47 46 44 43 42 42 41 41 40 41 41 42 42 43 43 44 44 44 44 44 44 43 42 42 42 42 42 42 41 41 41 41 41 42 42 43 43 43 44 45 45 44 43 43 43 44 45 46 47 48 49 49 50 50 51 51 51 51 51
54 53 53 52 51 51 48 45 43 43 42 42 42 41 41 41 41 40 41 43 44 44 43 42 42 42 42 42 41 41 42 42 42 42 43 43 43 44 44 44 44 46 48 48 46 44 44 44 45 45 46 47 48 49 49 49 49 50 50 50 50 50 50
55 55 55 55 55 55 54 51 47 44 42 41 40 39 40 40 40 40 41 43 43 43 43 42 42 42 42 42 43 42 42 42 43 44 44 44 44 44 45 46 48 50 50 48 45 44 44 44 45 45 46 46 47 47 48 48 48 48 48 48 49 49 50
56 55 55 56 56 57 57 57 56 53 50 48 45 43 40 39 40 40 41 43 44 43 43 43 44 44 44 43 43 43 44 44 44 44 45 45 45 46 48 50 52 51 48 45 44 44 44 43 43 43 43 43 43 44 45 46 46 47 47 47 47 48 48
58 57 56 56 56 57 58 58 58 57 56 55 54 51 48 46 45 45 45 46 45 44 44 45 46 47 47 46 44 44 44 44 44 45 45 46 48 51 52 52 50 47 45 44 44 43 43 43 42 42 42 42 43 44 44 45 45 45 45 46 46 46 47

ECMWFFLT1_500_spd_024.txt.gz
Wind_Speed
16 15 15 14 14 13 12 12 13 15 16 17 17 19 20 22 22 21 19 19 19 19 18 17 18 19 19 19 19 19 20 20 20 20 20 20 20 20 19 20 20 19 19 19 18 18 18 18 18 18 19 20 20 20 20 21 21 22 22 23 23 24 24
16 15 15 16 16 15 15 14 14 15 17 17 18 19 21 23 23 23 21 20 20 21 21 19 18 18 19 20 20 21 21 21 21 21 20 20 20 20 20 21 21 20 20 19 18 18 18 17 17 18 19 20 21 22 22 23 23 23 23 23 24 24 24
16 17 17 18 18 18 18 18 18 19 19 19 20 21 22 23 24 24 23 21 21 22 23 21 19 19 19 20 21 21 22 22 22 22 21 21 20 20 20 21 21 21 20 20 19 19 18 18 18 18 19 21 22 23 23 23 23 23 23 23 23 24 24
19 20 21 21 22 22 22 22 23 23 23 23 22 22 23 24 25 25 24 23 21 22 23 23 21 19 19 19 21 22 22 23 24 23 23 22 22 21 21 21 20 21 20 20 20 19 19 19 19 19 19 21 22 22 22 22 22 22 22 22 23 23 24
22 22 23 23 24 24 25 25 25 26 26 25 24 22 22 23 24 24 23 23 22 22 22 23 21 20 19 20 20 21 22 23 24 24 24 24 24 23 22 21 21 21 21 20 20 19 19 19 19 19 19 20 20 20 21 21 21 21 21 21 22 22 23
24 24 24 24 23 24 25 26 26 27 27 26 24 23 21 21 22 22 22 23 22 22 21 21 20 20 20 20 20 21 21 22 23 24 25 25 25 24 23 22 22 22 21 20 20 19 18 18 18 18 18 18 19 19 19 20 20 20 20 20 20 20 21
24 23 23 23 22 23 25 26 28 28 27 26 24 23 21 20 20 21 21 22 22 21 20 19 19 18 19 19 20 21 22 23 23 24 25 25 25 25 24 23 23 22 21 20 19 19 19 18 18 18 18 18 18 18 18 18 19 19 18 18 18 17 17
23 21 21 21 21 24 26 27 28 27 25 24 22 21 20 19 19 20 20 21 20 18 17 17 16 16 17 18 19 20 22 23 24 25 25 26 25 25 24 23 22 21 20 20 18 18 17 17 17 16 16 17 17 16 16 16 16 16 15 15 15 15 14
21 20 20 20 22 25 26 26 25 25 24 22 21 20 19 19 19 19 19 19 18 16 15 15 14 15 15 16 18 19 21 22 24 25 25 25 25 24 23 22 21 20 19 18 17 16 16 16 15 15 15 15 14 14 14 13 13 13 13 13 13 13 13
21 21 21 22 22 22 22 22 23 23 23 23 21 20 19 19 19 18 18 17 16 14 13 13 13 13 14 16 17 18 19 21 22 23 24 24 24 23 22 21 19 18 17 17 16 16 15 15 14 13 13 12 12 11 11 11 11 11 11 11 11 11 12
20 21 21 21 20 18 18 19 20 21 21 21 20 18 18 18 19 18 18 17 15 13 12 11 11 11 13 15 17 18 19 20 21 22 22 22 22 22 21 20 18 17 17 16 16 15 14 13 13 12 11 11 11 11 11 11 11 11 11 11 12 12 11
17 17 17 16 16 16 16 16 16 18 19 19 18 17 17 19 20 20 20 18 15 12 11 10 10 11 12 14 16 17 19 20 20 21 21 20 20 20 19 18 17 17 16 15 15 14 13 13 12 11 11 11 11 12 12 11 11 12 12 12 13 13 13
15 14 13 13 13 14 15 14 15 16 17 17 18 18 17 18 20 22 22 18 15 12 11 11 11 12 13 14 15 17 18 19 19 20 19 19 19 18 18 18 17 16 16 15 14 14 13 13 12 12 12 13 13 13 13 13 13 13 13 13 13 14 14
14 13 12 12 12 13 13 13 15 16 16 16 17 18 17 16 17 20 21 18 15 13 13 13 13 13 14 15 16 17 18 19 19 19 19 19 19 18 18 18 18 17 17 16 15 15 14 14 13 13 14 14 14 15 15 15 15 15 15 15 15 15 15
14 13 13 12 12 12 13 13 14 15 15 15 16 17 16 15 14 15 17 17 16 15 15 15 15 15 15 16 17 18 19 20 20 20 20 20 19 19 19 18 18 18 17 17 17 16 16 15 15 15 15 15 15 16 16 16 16 17 17 17 17 16 16
14 14 14 14 13 13 13 13 14 15 15 14 15 15 15 14 14 14 16 17 17 17 18 18 18 16 15 16 17 19 20 21 21 21 21 21 21 21 20 19 18 18 17 17 17 16 16 15 15 15 15 15 16 17 17 17 18 18 18 19 19 19 19
16 15 15 15 15 14 14 14 14 15 15 15 14 13 13 13 14 16 17 18 19 20 21 22 22 20 18 18 19 20 21 22 22 23 23 23 23 23 22 21 20 20 19 18 18 18 17 17 17 17 17 17 17 18 18 19 19 20 20 20 20 20 20
18 17 17 17 17 16 15 15 15 16 16 16 15 14 13 13 14 15 17 19 21 22 23 24 25 24 23 22 22 22 23 23 24 24 24 24 24 24 24 23 23 22 22 21 21 21 20 19 19 19 19 19 19 20 20 21 21 22 22 22 22 22 22
20 19 19 19 19 18 17 16 16 17 17 18 17 15 14 13 14 15 17 18 20 21 23 24 25 26 26 25 25 25 24 25 25 25 26 26 26 26 26 25 25 24 24 24 24 23 22 22 21 21 21 21 21 21 22 23 24 25 25 25 24 24 24
20 20 21 21 21 22 21 20 19 18 18 19 18 17 17 17 18 19 20 20 20 21 22 23 25 26 27 28 28 28 27 26 26 27 27 27 27 28 28 27 27 26 26 26 26 26 25 24 23 23 22 22 23 23 24 25 26 27 28 28 27 27 27
19 19 21 22 23 23 24 23 22 20 20 20 21 21 22 23 24 25 25 24 23 23 23 24 24 26 27 28 30 30 29 28 29 29 29 29 29 29 29 29 28 28 27 27 28 28 27 26 26 25 24 24 25 26 27 28 29 29 30 31 31 31 31
20 20 21 23 24 25 25 26 26 25 25 26 27 27 28 29 29 30 29 29 28 27 26 26 25 25 26 27 30 31 30 30 31 31 31 31 31 31 30 29 29 29 29 29 29 30 30 30 29 29 29 29 30 30 31 31 32 33 33 34 34 34 35
24 24 24 25 26 27 28 29 30 31 32 33 33 33 33 34 34 33 33 33 32 30 29 29 28 28 27 27 27 29 30 30 30 32 33 33 33 33 32 31 30 30 30 30 30 31 32 32 31 31 32 33 34 34 34 35 35 36 36 36 36 37 38
30 29 29 29 29 30 31 32 33 34 35 36 36 37 38 38 37 37 36 36 35 33 32 32 32 31 30 28 28 29 31 31 30 31 33 33 33 34 33 32 32 31 30 30 31 32 32 32 33 33 34 35 36 37 37 38 38 38 39 39 40 41 41
34 34 34 34 34 34 35 35 36 37 38 39 39 40 40 41 41 40 39 38 38 37 36 35 34 33 33 32 30 30 31 32 32 33 34 34 35 35 34 35 35 34 33 33 33 34 35 36 37 37 37 37 37 37 38 39 39 40 40 41 42 43 44
37 37 37 38 38 38 38 39 39 40 40 41 42 43 43 44 44 44 42 41 41 40 39 37 36 37 37 35 33 32 32 34 35 34 34 34 35 35 35 37 38 37 37 36 35 36 37 38 39 39 38 39 39 39 39 40 41 41 42 42 44 45 45
40 40 40 40 40 40 40 40 40 41 42 43 44 45 46 47 47 47 46 45 44 43 41 38 38 40 40 38 36 35 35 34 34 35 35 35 36 38 39 40 39 39 39 37 36 36 37 38 39 39 40 40 40 40 40 40 41 42 43 44 44 45 45
42 42 42 41 41 41 41 41 41 41 42 43 44 45 47 48 49 49 49 48 48 47 44 41 41 41 42 40 38 37 36 34 33 37 40 41 41 41 41 40 40 40 39 39 38 39 39 40 40 40 39 38 38 38 39 40 41 42 43 44 44 45 45
45 44 44 43 42 42 43 43 43 43 43 44 45 46 47 48 48 49 49 49 49 48 46 44 42 43 43 42 40 38 36 35 36 40 44 44 43 42 41 41 41 41 42 42 42 42 42 41 40 39 38 37 37 37 38 39 40 41 42 44 44 45 45
47 46 46 45 45 45 46 46 46 46 46 47 48 48 48 49 50 50 49 49 48 48 47 45 43 43 43 43 42 40 40 40 41 43 44 42 41 41 42 42 42 42 42 42 42 43 43 42 41 40 39 39 38 39 40 41 42 43 44 45 45 46 47
50 49 49 49 49 49 49 49 49 49 49 49 50 50 50 50 50 50 50 49 49 49 48 47 45 44 44 44 43 43 42 43 43 44 44 42 41 42 43 43 42 42 42 42 43 44 44 43 43 42 42 42 42 43 44 45 46 46 46 46 46 47 48
54 54 53 53 53 53 53 52 52 51 50 50 50 50 50 50 50 50 49 49 49 49 48 47 46 46 45 45 45 43 42 43 44 45 46 46 46 47 47 46 45 44 44 44 45 45 45 45 45 45 45 46 47 47 48 48 48 47 47 47 47 48 49
59 58 58 57 57 56 55 55 53 52 52 51 50 50 50 50 49 48 46 46 46 47 47 46 47 47 46 47 47 46 45 45 46 47 48 50 50 50 50 48 47 46 46 46 46 46 46 46 47 47 48 49 49 49 50 49 48 48 47 48 48 49 49
63 62 61 60 59 58 57 56 55 54 54 53 51 50 49 49 49 48 46 45 45 45 45 45 46 47 47 47 48 48 48 48 48 49 50 50 50 50 50 49 48 47 46 46 47 47 48 48 49 49 49 49 50 51 51 49 48 48 48 49 49 50 50
66 65 63 62 61 60 58 57 56 55 55 54 52 51 50 50 49 48 46 46 46 46 46 46 46 46 46 46 46 46 46 47 47 47 47 47 48 49 49 48 48 47 47 47 48 48 48 48 48 49 50 51 53 52 51 49 48 49 49 49 50 50 50
67 65 63 62 61 61 60 58 57 56 54 53 53 53 53 54 53 50 48 46 46 47 48 48 47 45 44 44 44 44 45 46 46 46 45 45 46 46 47 48 48 48 48 48 48 48 47 47 48 50 52 53 52 51 50 49 49 49 49 50 50 51 51
68 67 65 64 63 62 61 61 59 58 56 54 53 53 54 55 56 56 53 50 47 45 45 46 45 43 43 44 45 45 46 47 47 46 44 44 44 45 47 48 49 49 49 48 48 47 47 48 50 51 52 51 51 51 50 50 49 49 49 50 51 51 52

ECMWFFLT1_500_spd_027.txt.gz
Wind_Speed
14 14 14 14 13 13 13 14 14 14 13 12 12 13 14 15 16 16 17 18 18 17 17 17 17 17 18 19 19 20 19 18 16 16 15 15 15 15 16 17 17 16 16 17 17 17 17 15 14 15 16 17 18 18 19 19 19 20 21 21 20 21 21
14 14 14 14 13 13 13 13 14 14 14 13 13 14 15 16 17 18 19 20 21 21 21 20 18 18 18 19 19 20 20 19 18 18 17 16 17 17 16 17 17 17 17 17 17 17 16 15 15 16 18 18 19 19 19 19 20 21 21 21 21 22 22
15 15 15 14 13 13 13 14 14 15 15 16 16 17 18 18 19 19 20 21 22 22 23 22 21 19 19 19 20 20 20 19 19 19 18 18 18 17 16 16 18 18 18 17 17 16 17 18 18 18 19 19 20 20 20 20 20 21 22 22 23 23 23
15 15 15 15 14 14 15 16 17 18 18 19 19 20 20 21 21 21 21 21 22 22 23 23 22 21 20 20 21 20 20 19 19 19 19 19 19 17 16 18 19 18 17 16 17 18 19 21 20 20 20 21 21 21 21 21 21 22 22 23 23 23 23
15 16 16 16 17 17 18 19 20 20 20 20 21 22 22 23 23 22 21 21 21 21 22 22 21 21 20 21 21 20 19 18 18 18 18 18 18 18 19 20 20 19 17 18 18 19 20 21 21 21 22 21 21 22 21 22 22 22 22 22 22 22 22
16 17 17 18 18 19 20 20 20 19 20 21 23 23 23 23 22 22 21 20 19 19 19 19 19 19 19 20 21 20 18 17 16 16 16 16 17 18 19 19 19 20 20 20 21 20 21 22 22 22 21 21 21 21 21 21 21 21 21 21 21 20 20
17 18 18 19 20 20 21 20 19 19 20 22 23 22 21 20 20 20 19 18 18 18 17 17 16 16 17 19 20 19 17 15 14 13 13 14 15 15 17 17 18 19 20 20 21 22 22 22 22 21 21 21 20 20 20 19 19 19 19 19 19 19 19
19 19 19 20 20 20 20 19 18 19 20 20 19 19 19 18 19 18 17 17 17 17 16 16 15 15 16 17 17 16 15 13 12 11 11 12 13 14 15 16 17 18 19 20 21 21 21 21 21 20 20 20 19 19 19 18 18 18 17 17 17 16 16
19 19 20 20 19 19 18 18 19 19 19 18 17 17 17 19 19 18 18 17 17 17 17 16 16 15 15 14 14 12 11 10 10 9 10 11 12 13 14 15 16 17 18 19 19 20 20 20 20 19 18 18 18 18 17 17 17 16 16 15 14 14 14
21 21 20 19 19 18 18 18 19 19 19 19 18 17 16 18 19 19 19 19 19 18 17 16 15 15 14 13 11 10 9 8 8 8 9 10 11 12 13 14 15 15 16 17 17 18 18 18 18 17 17 16 16 16 16 16 15 14 14 13 13 13 13
21 21 21 20 19 18 17 17 18 18 19 19 19 17 16 17 17 17 18 18 19 18 16 15 15 14 13 12 10 9 8 8 8 8 9 9 10 11 12 13 13 14 14 14 15 15 15 16 16 16 15 15 15 15 15 14 14 14 14 14 14 14 14
20 20 21 20 19 17 16 17 17 17 17 18 18 17 17 16 16 15 16 17 18 18 17 15 14 13 13 11 10 9 9 9 9 10 10 10 11 11 12 12 13 13 13 13 13 13 13 14 14 15 15 15 15 15 15 15 15 15 15 15 15 15 15
19 18 20 20 18 18 17 17 17 16 16 16 16 17 17 17 16 16 16 16 17 18 18 16 14 13 13 12 12 11 11 11 11 11 12 12 12 12 12 12 13 13 13 13 13 13 13 14 15 15 16 16 16 16 16 16 16 16 16 16 16 16 17
18 17 19 19 18 18 18 18 18 17 16 16 16 16 17 16 16 16 17 16 15 15 17 17 16 15 14 13 13 13 12 12 12 12 13 13 14 14 14 13 13 14 14 15 15 15 16 16 16 17 17 17 17 17 16 16 16 16 17 17 17 17 18
20 19 19 20 19 20 20 19 18 17 17 16 16 16 16 16 15 15 16 16 13 12 13 15 16 15 15 15 14 15 14 14 14 14 14 14 15 15 15 15 15 15 16 16 16 17 17 18 18 18 18 17 17 17 17 17 17 17 17 17 17 18 18
21 21 21 21 21 22 21 20 18 18 17 16 16 15 15 15 14 13 14 13 12 11 12 13 14 15 16 16 17 18 18 18 17 17 16 16 16 16 16 17 17 17 18 18 18 19 19 19 19 18 18 18 18 18 18 18 17 18 17 17 18 18 18
22 22 22 22 22 22 21 20 18 18 18 17 16 16 16 15 14 13 12 11 11 12 13 14 15 17 18 19 21 22 22 22 21 20 19 18 18 18 18 18 18 19 19 19 19 20 20 20 20 20 19 19 19 19 19 19 19 19 18 19 19 19 19
22 22 22 23 22 22 21 20 19 19 19 18 17 17 16 16 15 14 13 12 11 11 12 13 15 17 19 21 22 23 24 24 24 24 23 22 21 21 21 21 21 21 21 21 21 21 22 22 22 22 22 21 21 21 21 21 21 20 20 20 20 20 21
22 22 23 23 23 22 21 20 20 20 20 19 19 19 18 18 17 16 15 14 12 11 12 13 15 16 18 20 21 22 24 25 26 26 26 26 25 24 24 24 24 24 24 24 25 24 24 24 24 24 24 24 24 24 24 24 23 23 23 22 21 21 22
21 22 22 22 22 23 22 22 21 21 21 21 20 20 20 19 18 18 17 17 16 15 16 17 18 18 18 19 20 21 23 24 26 27 28 28 27 27 27 26 26 27 27 28 28 28 27 27 26 27 27 26 26 25 25 25 25 25 25 25 25 24 24
21 21 20 20 21 22 22 22 22 22 22 23 23 22 22 21 19 19 19 19 20 21 22 22 22 22 22 21 22 22 22 23 25 26 28 29 30 30 29 28 28 29 29 30 30 30 30 29 29 29 29 28 27 27 27 27 27 27 27 28 28 28 29
21 21 20 20 20 21 21 21 21 22 23 24 25 26 26 24 23 23 23 23 24 25 26 27 27 27 27 26 25 25 25 25 25 25 26 28 30 31 31 31 31 32 31 32 32 31 31 31 31 31 30 30 30 30 30 29 30 31 31 32 32 32 33
23 23 23 23 23 22 22 21 22 22 23 25 27 29 29 29 29 29 29 29 30 30 30 31 32 33 33 32 30 28 27 27 27 27 27 27 28 30 31 32 32 33 33 33 33 33 33 33 34 33 32 32 32 32 31 31 32 33 34 34 35 35 36
27 27 27 27 27 27 26 26 26 26 27 28 30 31 31 31 31 32 32 33 33 34 34 35 36 37 38 37 37 34 31 29 28 28 28 28 28 29 30 32 32 32 31 31 31 34 35 36 36 35 34 34 34 33 33 33 33 34 35 36 37 38 38
30 30 31 31 31 31 31 31 31 31 32 32 33 34 34 34 34 34 35 35 36 37 38 38 39 40 40 40 40 39 37 34 31 30 30 30 30 29 30 33 33 33 32 31 31 34 36 37 37 37 36 35 35 36 36 36 37 37 38 38 39 40 40
33 33 33 33 34 34 34 34 34 34 35 35 36 37 37 37 37 37 37 38 39 40 42 43 43 42 41 41 41 42 42 40 37 34 32 32 32 31 32 34 37 37 36 35 36 37 37 37 37 37 37 37 37 38 38 39 39 39 40 40 40 42 43
37 36 36 36 37 37 37 37 38 38 38 38 38 39 39 39 39 40 40 40 40 41 43 44 43 42 42 41 41 41 43 43 42 40 37 35 35 34 35 37 39 39 37 36 37 37 36 35 36 37 38 38 39 39 39 39 39 40 41 42 43 44 44
40 40 40 40 40 41 41 41 41 41 41 41 41 41 41 41 41 41 41 40 40 41 42 41 40 40 41 40 41 42 44 44 44 43 42 40 38 37 38 39 39 39 38 39 40 38 37 38 40 40 39 39 39 40 41 41 42 43 44 45 45 44 43
44 44 43 43 43 43 43 43 44 44 44 43 43 43 43 43 42 41 40 41 41 42 43 43 44 43 42 42 43 44 45 46 46 45 45 43 41 39 39 39 40 41 41 42 45 45 44 45 44 42 40 40 41 43 43 44 44 45 46 46 45 45 45
44 44 43 44 45 46 47 48 48 48 47 46 46 45 45 44 44 44 43 44 45 45 44 44 44 44 44 45 46 46 47 47 47 47 46 45 44 42 41 40 42 43 44 45 48 49 49 47 44 42 42 43 44 45 44 44 45 45 46 46 46 47 47
48 49 50 51 52 52 52 51 51 50 50 49 49 48 47 47 47 47 47 48 48 48 48 47 48 47 47 47 47 47 48 48 48 48 48 48 47 44 42 43 45 45 44 44 46 47 46 44 41 41 42 44 45 44 43 44 45 46 46 47 48 48 49
56 57 58 58 57 56 55 54 53 52 52 51 52 51 51 50 49 50 50 51 51 52 53 53 52 51 49 47 47 48 49 49 49 49 49 48 47 45 44 45 47 47 46 45 46 47 46 44 43 43 45 46 47 47 45 46 47 48 48 48 49 50 50
61 61 61 61 60 59 57 56 55 55 54 54 54 54 55 55 54 54 54 54 54 55 56 55 53 50 48 47 48 49 50 50 49 47 46 45 44 44 45 46 48 49 49 50 50 50 50 49 49 48 48 49 49 49 48 48 49 50 50 50 50 50 50
64 63 63 62 62 62 61 60 59 58 57 56 55 56 56 56 57 57 56 56 55 56 56 56 55 53 51 49 48 48 49 50 49 47 47 47 47 47 48 48 49 50 50 51 52 52 53 53 52 51 50 50 50 50 51 50 49 49 50 50 50 49 50
65 65 64 64 64 64 64 64 64 63 61 59 58 57 57 57 58 58 57 57 56 56 56 57 57 55 52 49 48 48 48 48 48 48 48 49 49 49 50 51 51 50 50 51 51 52 53 54 53 51 50 49 49 50 50 50 49 49 49 49 49 50 52
66 66 66 67 67 67 67 66 66 66 65 64 63 61 61 60 59 57 56 55 55 55 55 55 56 55 53 50 48 47 48 48 48 47 48 48 48 49 50 51 51 50 49 48 48 49 50 50 50 48 48 48 48 49 49 49 49 49 49 49 50 53 55
68 69 70 70 70 70 70 69 68 68 68 67 66 65 64 63 61 58 56 53 52 53 54 54 54 55 54 52 50 48 47 48 48 48 48 48 49 50 51 50 48 47 47 47 47 48 47 47 46 45 45 46 47 48 49 49 50 49 49 51 53 56 57

ECMWFFLT1_500_spd_030.txt.gz
Wind_Speed
12 13 13 12 11 11 11 10 9 9 10 10 10 11 11 11 10 10 11 11 12 13 14 15 16 15 15 15 14 13 14 15 16 15 15 13 12 11 11 11 11 12 12 12 12 12 12 12 14 13 13 13 13 13 15 16 16 16 16 17 17 16 16
12 12 12 11 11 10 10 9 8 8 9 10 11 12 13 13 14 13 13 13 14 14 15 16 17 18 18 17 16 15 14 15 16 17 17 15 14 13 13 11 11 12 12 12 12 12 12 13 14 12 12 13 13 14 16 17 17 17 17 17 17 17 17
11 11 11 11 11 10 9 8 8 8 10 11 12 13 14 15 15 16 16 16 16 16 16 17 17 18 18 18 18 17 15 15 16 18 18 17 16 14 13 12 11 11 11 10 10 11 12 13 13 11 11 13 14 15 16 17 18 18 17 17 18 18 18
10 11 12 12 11 10 9 9 9 10 11 12 13 13 14 15 16 17 17 18 17 17 17 17 17 17 18 18 18 17 16 15 16 18 18 18 16 14 13 11 10 11 11 10 10 11 12 13 13 12 12 13 15 16 17 17 18 18 18 18 18 18 18
11 11 12 12 12 11 10 10 11 11 12 12 12 14 15 16 17 17 18 18 17 17 16 15 15 15 16 16 16 16 15 15 15 17 17 17 15 13 11 10 10 11 11 10 11 12 12 13 13 12 13 15 16 16 16 16 17 18 18 18 18 17 17
12 12 13 13 13 12 12 12 12 12 11 11 11 13 15 16 16 16 16 16 15 15 15 14 14 14 14 14 14 14 14 14 14 14 14 14 13 11 9 8 9 10 10 11 11 12 14 13 12 12 15 16 16 16 16 16 17 17 17 17 17 16 16
15 14 14 15 15 14 14 13 13 12 11 10 11 13 14 15 15 15 15 14 14 14 13 13 13 14 14 14 14 14 14 14 14 13 12 11 11 10 8 8 9 9 9 11 11 12 14 14 13 13 15 16 16 16 17 17 17 16 16 16 16 15 15
16 16 15 16 17 16 15 14 12 11 9 9 10 12 13 14 15 15 14 14 14 15 14 14 14 14 13 13 14 14 14 15 14 13 12 10 10 9 9 8 8 8 8 9 10 11 12 13 13 14 15 15 15 16 16 16 16 15 15 15 14 14 14
16 16 17 18 17 18 17 15 12 10 9 9 10 11 12 14 15 15 15 14 14 15 15 15 15 15 14 14 13 14 14 14 14 14 12 11 10 10 9 8 7 7 7 8 9 9 10 11 11 12 13 13 13 14 15 15 15 14 14 14 14 14 14
18 17 19 19 19 19 19 16 13 11 9 9 10 11 12 13 14 15 15 15 15 15 15 15 15 15 15 14 14 13 13 14 14 14 13 12 11 10 9 9 8 8 8 8 8 8 9 9 10 11 11 11 12 13 13 13 13 13 13 14 14 14 14
20 19 21 21 20 21 21 18 14 12 11 10 9 10 12 13 14 15 16 16 16 15 15 15 15 16 16 15 14 14 13 13 13 12 12 11 10 10 9 9 8 8 8 8 8 8 9 9 10 10 10 11 12 12 12 13 13 13 13 14 14 15 15
22 22 22 21 21 21 21 19 16 14 12 10 10 11 12 13 14 15 16 16 17 16 15 15 15 16 16 16 15 15 14 14 13 12 11 11 10 9 9 9 9 9 9 9 9 10 10 10 11 11 11 12 12 12 12 12 13 13 14 14 15 15 16
23 24 25 23 22 21 20 19 17 15 13 12 12 12 13 13 13 14 15 15 16 16 16 16 15 15 15 16 15 15 15 15 14 13 12 11 10 10 10 10 10 10 11 11 11 11 11 11 12 12 12 13 13 13 13 14 14 14 15 15 15 16 16
24 24 25 24 22 21 21 20 18 16 15 14 14 14 14 14 14 14 15 15 15 15 16 16 16 16 15 15 15 15 15 15 15 14 13 13 12 12 12 12 13 13 13 13 13 13 13 13 13 13 14 14 14 14 15 15 16 16 16 17 17 17 17
24 22 22 24 25 24 22 22 20 18 17 16 15 15 15 15 14 14 14 15 15 15 15 15 16 16 15 14 14 15 15 15 15 15 15 15 15 15 16 16 15 15 15 14 14 14 14 14 15 15 15 15 16 16 17 17 17 18 18 18 18 18 18
26 25 26 28 29 27 24 22 21 19 18 17 16 16 16 16 15 14 14 14 15 15 15 15 15 15 15 14 14 14 15 15 16 16 17 17 18 18 18 18 17 17 16 15 15 15 15 15 15 16 17 18 18 19 19 18 19 19 19 19 18 19 19
27 29 31 32 30 27 23 21 20 18 17 17 18 18 17 17 16 15 14 15 15 16 16 15 15 14 14 14 14 15 15 16 16 17 17 18 18 19 19 19 19 18 18 17 17 17 16 16 17 18 19 19 20 21 21 21 20 20 20 20 19 19 20
23 26 28 29 29 26 23 20 18 18 18 19 19 19 19 18 17 16 16 15 16 16 17 16 15 14 13 13 13 13 14 15 15 16 16 17 18 19 20 21 21 21 21 20 19 19 19 18 19 21 21 21 22 23 23 23 23 22 21 21 21 21 21
21 21 24 27 28 25 21 19 19 19 19 20 20 21 21 20 18 17 17 16 17 17 18 17 15 13 12 11 11 12 13 13 14 15 16 17 18 19 20 21 23 23 24 23 22 22 22 21 22 23 23 23 23 25 26 26 25 24 24 23 23 23 23
20 21 23 25 25 23 21 20 20 20 20 21 21 21 21 20 19 18 18 17 17 18 18 18 17 15 14 13 13 13 14 14 15 16 17 17 18 19 20 21 23 24 26 26 26 25 25 25 24 25 26 25 25 26 28 28 27 26 27 26 25 24 24
21 22 23 23 22 21 20 20 20 20 21 21 22 22 22 21 20 19 19 19 19 19 20 20 20 20 20 19 19 18 17 17 17 18 19 20 21 22 23 23 24 25 26 27 28 28 27 27 27 26 27 27 27 27 28 29 29 28 28 28 27 27 26
20 21 21 21 21 21 20 20 20 19 19 21 22 23 22 22 21 21 22 23 24 23 24 25 26 25 25 25 24 23 23 22 21 21 22 22 23 25 25 25 25 26 26 26 28 29 28 28 29 29 29 30 30 30 30 30 30 30 30 30 30 30 30
20 20 19 20 21 21 20 20 20 20 20 20 21 22 22 22 22 23 25 26 27 28 29 31 31 30 29 29 29 28 27 27 26 26 25 25 27 27 27 27 28 28 28 26 27 28 28 28 29 29 30 31 33 34 33 33 32 33 33 33 32 32 32
21 21 20 20 20 20 20 20 21 21 21 21 21 22 23 23 23 25 26 28 29 30 33 34 33 33 33 33 32 32 32 31 31 30 29 29 30 30 29 28 29 31 31 29 27 28 29 29 29 29 29 31 34 35 35 35 35 35 35 35 34 34 34
23 23 23 23 22 22 22 23 24 24 24 25 26 26 26 26 27 28 29 30 31 33 34 35 34 33 33 31 31 31 32 33 34 35 35 35 36 36 34 32 31 32 34 33 31 29 30 31 32 31 30 32 34 35 36 37 37 38 37 37 36 35 36
26 26 25 25 25 25 25 26 26 27 28 29 29 28 28 29 29 30 31 32 34 35 36 35 34 33 32 32 32 32 32 33 34 36 38 39 40 40 38 35 34 33 34 34 34 32 31 33 34 35 35 36 36 37 39 39 38 38 38 37 37 36 37
30 29 29 29 29 29 28 29 29 30 31 32 32 31 31 32 31 32 34 35 36 38 39 38 37 36 37 37 36 35 35 34 34 34 35 37 38 39 38 37 36 36 35 34 35 36 36 36 36 37 39 39 37 36 36 35 34 35 35 37 38 37 37
34 34 33 33 33 33 33 33 33 33 34 35 35 35 34 34 35 35 37 38 39 40 42 43 42 41 41 39 37 36 36 36 35 34 35 38 39 38 39 39 39 39 38 36 36 38 40 40 39 38 40 42 40 36 34 34 35 36 37 37 38 37 37
39 39 39 39 39 38 37 37 36 37 38 39 39 39 39 39 39 39 40 41 42 43 45 46 46 44 43 42 41 41 40 39 39 38 38 42 44 44 43 44 44 44 44 42 39 38 39 40 40 40 41 42 41 41 41 41 41 41 40 38 37 37 38
42 42 42 42 42 41 40 40 40 40 40 41 41 41 41 40 41 41 43 44 46 47 48 49 49 47 45 45 45 45 44 44 44 43 41 41 43 46 47 48 48 48 47 46 44 42 41 41 41 42 42 42 43 45 45 44 41 40 38 37 36 37 38
44 44 44 44 44 44 43 41 40 40 39 39 40 41 43 45 47 48 50 51 51 51 51 51 52 51 48 47 47 47 47 47 48 48 46 44 45 48 51 51 51 49 48 48 47 45 45 43 42 43 43 42 42 44 43 41 39 38 38 38 39 40 42
44 45 44 45 46 46 45 43 42 42 43 44 46 48 50 52 54 55 55 54 53 53 53 53 54 54 52 51 50 50 50 51 51 50 50 50 48 48 49 50 50 48 46 47 48 47 46 45 44 46 46 43 42 43 44 44 44 44 43 43 43 44 44
46 45 44 45 46 47 48 48 48 50 51 53 54 56 56 56 56 56 56 55 55 54 54 54 55 55 55 54 54 54 53 54 54 53 54 53 51 48 47 47 47 46 45 45 45 44 43 42 42 44 46 46 46 47 47 47 48 48 47 46 46 45 45
49 49 48 49 49 50 51 53 55 56 58 60 60 60 60 59 58 58 57 57 57 55 55 56 56 56 56 55 55 54 54 54 53 54 55 54 51 49 48 47 47 46 46 46 45 43 41 40 41 43 46 47 49 49 48 47 47 46 46 46 45 45 44
54 54 54 55 55 56 57 59 61 62 63 64 64 63 62 61 61 60 60 60 60 59 58 57 57 57 57 56 55 55 54 54 53 53 54 54 51 49 47 46 46 45 44 45 47 47 46 45 46 46 47 47 48 48 48 46 45 44 44 44 44 44 42
60 60 60 61 61 61 62 63 64 64 65 65 65 65 64 64 64 64 63 63 63 62 61 59 58 58 57 56 55 54 51 50 49 50 51 51 50 49 48 48 48 47 45 45 47 49 49 49 48 47 47 46 47 46 44 43 43 44 44 45 45 44 43
63 63 63 63 63 63 63 64 64 64 65 66 66 66 66 66 66 65 66 65 64 63 62 60 59 60 59 57 56 54 52 52 52 51 49 48 47 48 48 48 49 49 48 48 48 48 48 47 47 46 46 46 45 44 43 43 44 44 44 44 45 46 46

ECMWFFLT1_500_spd_033.txt.gz
Wind_Speed
13 15 16 15 13 12 10 9 8 7 6 5 4 3 3 4 5 5 6 6 6 6 7 8 9 10 11 11 10 11 11 10 10 11 10 10 10 10 10 11 11 11 11 10 10 11 12 12 12 12 11 11 10 10 9 8 10 11 12 12 12 12 12
12 14 15 14 11 10 9 9 8 7 5 3 3 4 5 5 6 6 7 7 7 8 9 10 10 11 11 12 12 12 13 12 12 12 11 11 11 11 11 12 12 11 11 11 11 12 12 12 12 12 11 11 11 10 9 9 10 12 12 12 12 13 13
10 12 13 11 9 8 8 9 8 7 5 3 4 5 5 6 7 8 9 9 8 8 9 10 11 12 13 12 12 12 13 14 14 13 13 12 12 12 12 12 12 12 11 11 12 12 12 11 11 11 11 10 10 10 11 11 12 13 13 13 13 14 14
8 9 10 9 8 7 8 8 8 7 5 4 5 5 5 6 7 7 8 8 8 7 8 8 9 11 12 12 12 12 12 13 14 14 14 13 12 12 12 12 12 11 11 11 12 13 12 11 11 11 11 10 10 10 11 12 13 13 13 13 13 14 14
6 6 8 8 7 6 6 7 8 7 6 6 5 4 4 5 6 6 6 6 6 6 6 5 6 7 8 9 10 10 11 11 13 14 14 14 13 13 13 12 12 12 12 13 13 13 13 11 10 10 11 10 9 10 11 11 12 13 14 13 13 14 14
8 8 9 9 8 7 6 7 8 8 8 8 6 4 4 4 5 6 6 6 5 5 5 5 4 4 5 6 7 8 8 10 11 12 14 14 14 14 14 14 14 14 13 13 13 13 11 9 9 10 11 10 9 10 11 12 12 13 13 13 13 13 13
13 13 12 11 10 9 7 7 8 9 9 8 6 5 4 5 5 6 6 5 5 6 6 5 5 4 4 5 5 5 6 7 9 11 13 14 15 16 16 16 16 15 14 14 13 13 11 9 10 11 11 10 9 9 11 11 12 12 13 13 12 12 12
14 14 13 12 11 10 8 7 8 9 9 9 8 6 5 5 5 6 5 5 5 6 6 6 5 5 5 6 6 6 6 6 8 10 11 13 15 16 17 17 17 16 16 15 14 13 10 10 11 11 9 7 7 8 9 10 10 11 11 12 12 12 11
12 13 12 11 10 10 9 8 8 9 10 10 10 8 6 6 6 6 6 6 5 5 6 6 5 5 6 6 7 7 7 7 8 9 10 12 14 15 15 15 15 15 14 13 12 11 10 9 9 8 6 6 7 9 9 9 9 9 10 10 11 11 11
11 13 13 11 10 10 10 10 10 10 11 12 12 10 8 7 7 7 6 6 5 5 6 5 6 6 6 7 7 8 8 8 8 9 10 11 12 12 12 12 12 11 11 10 10 9 9 8 8 7 6 7 8 8 8 8 9 9 9 10 10 10 10
9 12 14 13 11 10 10 10 12 12 12 13 13 11 10 9 8 8 7 7 6 6 6 6 6 7 7 7 7 8 8 9 9 9 10 10 10 10 10 10 10 9 9 9 8 8 7 7 7 7 7 7 7 8 8 8 9 9 10 10 10 10 10
9 10 12 14 14 14 13 12 12 12 12 13 13 12 11 10 9 9 9 8 7 7 7 7 7 7 7 8 8 8 8 8 9 10 10 10 10 9 9 9 8 7 7 7 7 7 7 7 6 6 7 7 8 9 9 9 10 10 11 11 11 11 11
9 9 11 14 16 17 17 15 13 13 12 13 14 14 13 11 11 11 10 9 8 7 8 8 8 8 8 8 9 9 9 9 9 9 10 10 9 9 9 8 7 7 7 7 7 7 7 6 6 6 7 8 9 10 11 11 11 11 12 12 12 12 13
16 15 14 14 16 18 18 17 15 13 13 14 15 16 14 13 13 12 12 11 9 9 9 8 9 9 9 9 10 10 10 9 9 9 10 10 10 9 9 9 8 9 9 9 9 8 7 7 8 8 9 9 11 12 12 13 13 13 13 13 13 14 15
21 20 17 15 15 16 16 15 14 14 15 17 18 17 16 15 14 14 14 13 11 10 10 10 10 10 10 10 10 10 10 10 10 10 10 11 11 11 10 10 10 10 11 11 11 10 9 10 11 11 11 11 12 13 14 14 15 14 14 14 14 15 16
19 19 19 18 17 15 15 16 16 18 20 21 21 19 18 16 15 15 16 15 13 12 11 11 11 11 11 10 10 9 9 9 10 10 10 11 11 11 10 10 10 10 10 10 10 11 11 13 14 14 13 13 13 14 16 16 16 15 15 16 17 17 17
16 14 15 16 16 16 16 18 20 22 22 22 22 21 19 18 17 17 18 17 16 14 12 12 12 12 12 11 10 10 9 9 9 10 10 11 11 11 10 9 9 9 9 9 10 11 12 14 15 16 15 15 15 15 17 17 17 17 17 18 18 19 18
15 14 13 13 15 16 17 18 21 22 22 22 22 22 21 20 19 18 19 19 17 15 14 13 13 13 13 12 10 9 8 8 9 9 10 10 11 10 9 9 9 9 9 10 11 12 13 14 16 17 17 18 18 17 17 18 18 19 20 21 21 21 21
16 17 16 16 17 18 18 19 20 20 21 22 23 23 22 21 20 19 19 18 17 16 15 14 14 14 13 11 9 9 9 9 10 11 11 12 12 12 11 11 11 11 12 13 13 13 14 15 16 17 19 20 21 21 21 20 20 20 21 22 23 23 23
13 14 14 16 18 19 19 18 18 19 20 22 23 22 22 21 21 20 19 19 17 16 15 15 14 13 13 12 12 12 13 13 14 15 15 15 15 15 15 15 15 16 16 17 17 17 17 17 17 17 19 20 22 24 24 24 23 23 23 23 24 24 24
12 15 16 16 16 16 16 16 17 18 21 22 22 22 22 22 22 22 22 21 20 18 16 14 14 13 14 15 16 17 17 17 18 19 20 20 20 19 18 18 19 20 20 21 22 21 21 20 20 19 20 21 23 25 26 27 26 26 26 26 25 25 24
13 16 18 17 15 14 14 15 17 20 21 22 22 23 23 23 24 24 24 24 23 21 20 18 18 18 18 19 20 21 21 21 22 23 24 24 23 22 21 21 22 23 23 24 24 25 24 24 24 23 22 22 23 25 26 27 27 28 28 29 28 27 26
16 18 21 19 16 14 15 16 19 21 22 22 22 22 23 23 23 24 24 24 24 23 23 22 22 22 22 23 24 24 25 26 26 27 27 27 27 25 24 24 24 24 25 26 27 27 27 27 27 26 25 25 25 27 27 27 27 28 28 29 29 29 29
19 19 19 18 17 18 18 18 19 20 21 22 22 23 23 22 22 22 22 22 23 23 24 24 24 24 24 25 25 26 27 27 28 29 29 29 29 28 27 27 26 25 25 27 28 28 28 29 29 29 28 27 28 29 30 29 29 29 30 30 30 30 31
20 19 18 19 20 20 21 20 19 20 21 22 23 24 24 24 23 22 22 22 23 24 25 25 25 26 26 26 27 27 28 28 29 28 27 26 27 29 30 29 29 28 27 27 28 28 29 29 30 31 31 30 30 31 32 32 32 32 33 34 34 34 35
22 23 22 22 22 22 22 21 20 21 22 23 24 25 25 26 26 25 25 25 25 26 26 27 27 27 28 28 28 29 30 30 31 30 29 29 31 32 32 32 31 31 30 30 30 31 31 30 30 31 32 32 32 33 35 36 36 36 36 36 36 36 37
25 25 25 25 25 26 27 26 24 25 26 27 27 28 28 28 29 28 27 27 27 27 28 29 28 29 30 30 30 31 32 33 34 34 34 34 35 34 33 34 35 35 34 35 36 36 36 35 34 34 34 35 35 35 37 39 40 40 39 38 36 35 35
29 29 29 29 30 30 31 30 29 29 30 30 31 31 32 32 32 31 31 30 30 30 30 31 31 32 33 33 34 34 35 36 37 38 38 38 37 37 37 38 40 40 38 38 39 40 40 38 38 39 40 39 38 37 38 40 41 42 41 39 37 35 34
33 33 33 34 34 34 35 35 34 33 34 35 35 36 37 37 37 36 35 34 33 33 33 34 34 35 35 36 37 38 40 42 42 41 41 41 41 41 40 41 42 43 43 42 42 42 41 39 40 42 44 44 41 39 38 40 41 42 42 41 40 38 38
37 37 37 37 37 37 38 38 38 37 38 39 40 41 41 41 41 41 39 38 38 37 37 37 37 36 37 38 40 43 46 47 47 45 44 44 44 43 43 43 44 45 45 45 44 43 42 43 45 46 46 46 44 41 40 41 42 43 43 43 41 40 40
41 41 40 40 39 40 40 41 42 43 43 44 44 45 45 45 44 44 43 43 42 40 39 39 38 38 39 42 44 46 48 48 49 48 48 47 47 46 45 45 46 46 47 47 48 47 47 46 46 46 46 45 43 43 44 43 42 42 42 41 40 39 40
45 44 43 43 42 42 43 43 44 45 46 46 46 46 47 48 47 46 45 45 43 41 39 40 41 42 44 47 48 48 49 49 49 49 49 49 49 49 48 48 48 48 48 48 49 49 48 47 46 45 45 43 42 42 44 42 41 40 40 39 39 40 42
46 46 46 46 46 47 47 47 48 48 48 47 47 47 48 49 51 50 49 48 47 45 44 45 47 48 50 51 52 52 51 51 51 51 51 51 52 52 52 52 51 50 50 51 51 50 48 47 45 43 41 40 41 42 41 39 38 37 37 38 39 41 43
45 45 46 48 49 49 50 50 49 49 48 48 50 50 50 51 53 54 53 53 53 53 53 52 53 54 55 55 55 54 53 53 52 53 53 54 55 55 54 53 52 52 52 52 51 50 48 44 42 42 41 41 44 45 43 41 38 36 36 37 40 42 44
43 44 46 48 48 48 49 50 50 49 49 49 51 52 53 54 55 56 57 57 58 59 60 59 58 58 58 58 56 55 54 54 55 55 56 57 56 55 53 53 53 53 52 49 48 47 45 43 42 43 43 43 44 44 42 41 40 39 40 41 43 45 45
48 50 51 53 53 52 53 53 54 54 55 55 56 57 58 59 60 60 61 62 62 63 64 63 61 60 59 59 58 57 57 57 57 58 57 57 55 53 53 52 50 48 46 44 43 42 41 42 43 44 44 44 44 42 41 42 42 42 43 44 45 45 43
53 54 56 58 58 58 59 58 59 59 60 60 61 62 62 63 63 63 64 64 65 65 65 65 64 63 61 61 60 60 59 58 58 58 57 56 54 53 50 46 44 45 45 43 43 44 45 47 48 48 47 47 46 45 44 45 44 44 44 44 43 43 42

ECMWFFLT1_500_spd_036.txt.gz
Wind_Speed
8 8 8 10 9 7 10 13 13 11 10 8 8 7 6 5 5 6 7 7 8 9 10 10 10 10 10 10 11 10 9 8 8 7 6 7 7 7 7 7 7 8 8 9 9 9 9 10 10 10 9 9 9 10 11 12 13 13 13 13 14 14 14
7 7 8 8 7 7 11 13 12 11 10 8 8 7 6 6 7 8 8 9 10 11 12 12 11 11 10 10 11 11 11 11 11 10 9 9 9 9 9 8 8 8 9 10 11 10 10 10 10 10 10 10 10 11 12 13 14 13 12 13 14 15 15
8 8 8 8 8 9 11 12 12 11 10 9 9 9 8 8 8 9 10 11 13 13 13 13 12 12 12 11 11 11 11 12 12 12 12 12 12 12 11 10 9 9 11 12 12 12 11 11 11 10 10 10 11 12 13 14 14 13 12 13 14 15 16
8 8 8 10 11 11 12 12 11 11 10 10 11 11 10 9 9 9 9 10 11 12 12 12 12 13 13 12 12 12 12 12 13 13 13 13 13 14 13 13 11 11 12 14 14 13 12 12 12 11 11 11 11 13 14 15 15 14 14 15 15 16 16
9 8 9 11 12 12 13 13 12 11 11 12 12 12 11 10 9 9 8 8 8 9 9 10 10 11 11 11 11 11 11 12 12 13 13 13 14 14 15 14 13 13 14 15 14 14 13 13 13 13 12 12 13 14 15 15 16 16 15 16 16 16 16
10 9 10 11 12 13 14 14 13 12 12 13 13 12 12 11 9 8 7 7 6 6 7 8 9 9 10 10 10 9 10 11 11 12 13 13 13 14 15 15 14 14 15 15 14 14 14 15 15 14 13 13 14 15 16 17 17 17 17 17 17 16 16
11 11 11 11 12 14 15 14 14 13 13 13 13 13 13 12 10 8 7 7 7 6 6 8 9 10 10 10 9 8 8 9 10 11 12 12 13 14 14 15 15 15 15 16 15 15 15 15 15 15 14 15 16 17 18 18 19 19 18 17 16 16 15
12 14 14 12 13 15 16 16 14 14 14 14 13 14 13 12 10 9 8 8 7 6 7 8 10 10 10 10 9 9 8 9 9 10 11 11 12 13 14 14 15 14 15 16 15 15 16 16 16 16 16 17 18 19 20 20 20 19 18 17 15 15 14
11 13 13 12 12 15 17 17 16 15 15 14 13 13 13 12 10 9 9 9 8 7 7 8 9 9 9 9 9 9 9 10 10 11 11 11 12 12 13 13 14 14 15 15 14 15 17 16 16 16 16 18 19 20 20 19 19 18 17 16 14 14 14
8 9 10 11 12 15 16 17 16 16 15 14 13 13 12 11 10 9 10 9 9 8 7 7 8 8 8 8 8 8 9 10 11 11 11 12 12 12 13 13 14 15 16 16 16 17 17 17 17 17 17 19 20 20 18 17 16 16 16 15 14 14 13
6 7 9 12 14 16 16 15 15 16 17 16 14 12 12 10 10 10 10 10 10 9 8 7 7 7 7 7 7 7 8 9 9 10 10 11 12 12 13 14 14 15 17 17 17 18 18 18 18 17 17 18 19 17 16 15 14 14 15 15 15 14 14
9 8 8 12 15 18 17 16 16 15 16 17 16 14 12 11 10 10 11 11 11 10 9 8 7 6 6 6 7 7 8 8 9 9 10 10 11 12 13 13 14 14 15 16 16 16 16 16 17 17 16 17 17 16 15 15 14 14 15 15 15 15 15
11 10 10 11 14 17 19 20 19 17 16 16 16 15 14 12 11 11 12 12 12 11 11 10 8 8 7 6 6 7 8 9 9 10 11 11 11 12 12 13 13 13 13 14 14 14 14 15 15 15 15 15 15 15 15 15 15 15 14 15 15 16 16
15 15 14 14 14 15 18 20 21 20 18 17 17 16 15 15 13 13 13 13 13 13 12 11 10 9 8 6 6 7 8 9 9 11 12 12 12 13 13 13 12 12 12 12 13 13 14 14 14 14 14 14 15 15 16 16 16 15 15 16 16 16 17
21 20 20 20 19 18 19 20 20 19 19 18 17 16 15 16 16 15 14 13 14 14 13 12 11 10 9 7 7 7 8 9 10 11 12 12 13 13 12 12 12 12 12 13 13 13 13 13 13 14 14 15 16 16 16 16 16 17 17 17 18 18 18
22 21 21 21 21 19 19 19 17 17 17 16 16 15 15 16 17 17 16 14 15 15 14 14 12 10 9 8 8 8 8 9 9 10 11 12 12 12 12 11 11 11 12 12 12 12 12 12 12 12 13 13 14 15 15 16 16 17 17 17 18 18 18
21 19 18 18 18 18 19 19 17 16 16 17 17 16 16 16 17 18 17 16 16 15 15 14 12 11 9 9 9 9 9 9 10 10 10 11 11 11 10 10 9 9 9 9 9 9 9 10 10 10 11 12 13 14 14 15 15 16 17 17 18 18 18
21 20 18 17 17 17 19 20 20 18 18 19 18 18 17 17 17 19 18 17 17 16 15 14 13 12 11 10 10 10 10 10 9 9 9 9 9 9 9 8 8 8 8 8 8 8 8 8 9 10 11 11 12 13 14 14 15 16 17 17 18 18 19
18 18 18 17 17 16 16 18 19 19 19 19 19 19 18 18 18 19 19 18 17 17 16 15 15 14 13 13 13 13 12 12 11 11 10 10 10 10 10 9 9 9 10 10 10 11 12 12 13 13 13 13 13 13 13 14 16 17 18 19 19 19 20
18 19 18 18 17 16 15 16 18 19 20 21 20 20 19 19 19 20 20 19 18 17 17 17 16 16 15 15 15 15 15 15 14 15 14 14 14 14 14 14 14 14 15 15 15 15 16 17 18 18 18 18 16 15 15 15 15 17 19 20 21 21 22
16 18 17 16 16 16 16 17 17 18 20 21 21 20 19 19 20 20 20 19 19 19 19 19 19 18 17 17 16 16 17 17 18 18 18 18 19 19 19 20 20 19 19 20 19 18 18 19 20 20 20 20 20 19 18 17 16 17 19 21 23 24 24
15 15 14 14 15 17 19 19 17 16 18 21 21 20 19 19 19 20 20 21 21 22 22 21 21 19 18 18 17 17 18 19 20 20 20 20 21 21 22 23 23 23 23 23 24 23 22 22 22 22 21 21 22 22 23 22 20 19 20 22 23 24 25
15 15 15 15 15 14 17 20 18 16 17 19 20 19 19 20 21 22 23 23 24 24 24 24 23 22 22 21 20 20 20 21 21 21 21 20 20 20 21 22 23 23 23 24 26 27 26 25 23 22 21 21 21 22 23 24 24 23 23 24 24 24 25
16 16 16 16 15 14 16 20 21 18 17 18 19 19 20 22 23 24 25 25 25 26 26 25 25 25 24 24 23 23 22 22 22 21 21 20 19 18 19 20 22 23 24 26 28 29 28 26 24 24 23 22 22 22 23 25 26 27 27 27 28 28 28
17 17 16 16 16 16 17 18 18 18 18 18 19 20 21 23 24 25 25 26 26 26 26 26 26 26 26 26 25 25 24 23 23 22 21 21 20 20 20 21 23 25 26 28 29 30 29 27 27 28 29 28 27 27 27 29 30 30 30 30 31 32 33
19 18 18 18 17 17 19 20 19 21 23 22 21 21 21 22 24 25 26 27 27 27 27 27 27 27 27 28 27 27 26 25 24 24 23 24 24 24 24 24 26 28 29 30 30 31 31 31 32 33 33 32 31 31 32 33 33 33 32 32 34 35 36
22 22 22 22 22 22 24 25 25 25 25 22 22 22 23 24 25 26 28 29 30 30 30 30 30 31 31 31 31 30 29 28 27 26 26 26 26 27 27 29 31 33 33 32 31 32 33 34 35 36 36 35 35 35 36 36 36 36 36 36 37 40 41
25 25 24 23 24 25 26 27 27 26 26 25 25 26 27 27 28 29 30 31 32 33 33 34 34 35 35 34 34 33 33 32 31 30 29 29 29 29 31 32 35 35 34 34 34 34 34 36 37 39 39 38 38 38 38 38 39 39 40 40 42 44 45
28 28 27 27 27 27 28 28 28 28 29 30 31 32 32 32 32 32 33 33 34 35 36 37 37 38 39 38 38 38 37 36 35 33 32 32 32 32 33 34 35 35 34 34 35 35 35 37 39 40 40 39 39 40 41 41 42 42 43 44 46 47 47
30 30 31 31 31 31 32 31 31 31 32 33 34 35 36 36 37 36 36 36 37 38 39 40 41 42 43 43 43 43 43 41 39 38 37 36 35 35 35 35 35 34 35 36 37 37 39 40 41 41 42 42 43 43 44 44 45 45 45 46 47 46 45
34 34 35 35 35 35 35 35 35 35 36 36 37 38 39 39 40 40 40 41 41 41 42 44 45 46 47 48 48 49 48 47 45 43 41 40 39 38 38 38 38 38 39 40 41 43 44 44 43 44 46 47 46 46 45 46 47 47 44 43 44 45 45
39 39 39 39 39 39 39 39 39 39 39 40 40 40 41 42 43 43 44 44 45 45 46 48 49 51 51 51 51 52 52 51 49 49 47 44 42 42 42 42 42 42 42 43 45 46 47 46 46 48 49 50 50 48 47 46 48 47 45 44 46 49 50
38 40 41 42 43 43 43 44 43 43 43 43 43 43 43 44 45 46 47 48 48 49 50 50 51 53 54 53 52 52 53 52 52 52 51 48 46 47 48 48 47 46 46 46 46 48 48 47 47 49 52 52 51 50 48 47 48 48 45 44 45 46 46
36 37 39 40 41 42 43 44 43 43 44 45 45 46 47 47 48 48 49 50 50 50 51 51 50 51 52 53 53 53 53 53 53 53 53 53 53 54 53 52 52 51 49 47 47 48 49 48 48 51 53 51 49 48 47 46 46 46 44 42 42 42 43
43 42 42 42 42 42 42 43 43 43 44 45 45 46 47 48 48 48 48 49 50 49 49 49 49 49 50 51 53 54 55 55 56 56 57 58 59 58 56 54 53 52 51 51 50 49 48 48 48 49 49 46 44 45 45 44 44 45 44 43 44 44 46
46 46 46 46 45 45 45 46 46 47 48 48 49 50 50 50 50 50 50 50 52 52 52 52 52 52 52 53 55 56 57 58 60 60 61 61 61 61 59 56 54 54 54 53 52 50 50 50 48 46 46 47 46 46 46 45 45 44 43 44 45 46 48
45 45 45 45 46 46 46 47 48 49 50 51 52 53 53 54 55 55 56 56 56 57 58 58 58 58 58 59 60 61 61 61 62 63 63 63 62 61 59 57 55 55 54 53 52 52 52 51 50 49 49 50 50 48 47 46 45 43 42 43 44 46 47

ECMWFFLT1_500_spd_039.txt.gz
Wind_Speed
19 18 18 16 15 15 14 13 11 8 7 8 8 9 9 9 9 9 9 9 9 10 11 12 12 13 14 15 15 14 14 12 9 8 8 8 8 9 9 9 9 10 11 11 11 11 12 12 12 11 12 12 12 13 12 12 12 12 13 13 14 14 15
19 19 18 17 16 16 17 16 13 9 9 9 9 10 10 10 9 9 9 10 10 12 13 13 13 14 14 15 15 15 15 15 14 12 11 10 9 9 9 9 9 10 11 12 13 13 13 13 12 12 13 13 13 13 13 13 13 13 14 15 15 15 16
20 19 18 18 18 19 19 17 14 11 10 10 10 11 11 10 10 10 10 11 12 14 15 15 15 15 15 15 16 16 16 16 15 15 14 13 13 12 11 11 11 11 13 14 14 14 14 13 13 13 14 14 14 15 15 15 14 15 16 16 17 17 17
21 20 19 19 19 20 19 17 14 12 11 11 12 12 12 11 11 11 11 12 14 15 16 17 17 17 17 17 17 17 17 17 17 16 15 15 14 14 13 13 13 13 14 14 15 15 15 14 14 14 15 16 16 16 17 17 16 15 16 18 18 18 19
22 21 21 21 21 21 19 17 14 13 13 14 14 13 12 12 11 11 12 12 14 15 16 16 17 17 17 17 16 16 17 17 17 17 16 16 15 14 13 13 14 14 14 14 15 15 15 15 15 16 17 17 17 17 18 18 17 15 17 19 20 20 20
24 22 20 20 20 20 18 17 15 15 16 16 16 15 14 13 13 13 13 13 14 14 14 14 15 15 15 15 14 15 15 15 16 16 16 16 15 14 13 13 13 13 13 13 13 14 14 15 16 17 18 18 18 19 20 20 18 17 18 20 20 20 20
25 21 19 19 19 18 17 17 17 18 18 18 17 16 15 14 15 16 15 14 13 13 12 13 13 13 13 12 13 13 13 13 13 13 14 14 13 13 12 12 12 13 13 12 13 14 14 15 17 17 18 18 18 19 21 22 21 20 20 21 20 20 19
24 19 17 17 17 17 17 18 19 20 20 20 19 18 16 15 16 17 17 15 13 12 11 12 12 12 12 12 13 14 13 13 13 13 13 12 12 11 10 11 12 12 12 12 12 14 15 16 17 18 19 20 19 19 21 22 23 22 22 21 21 20 19
20 17 16 16 16 16 17 19 20 21 21 21 20 18 17 16 17 18 17 16 13 11 11 11 11 11 12 13 14 14 14 13 13 13 13 12 11 10 10 11 12 12 13 13 13 14 15 16 18 19 20 21 21 21 22 22 23 23 23 22 21 20 19
17 16 16 17 18 19 19 20 21 22 22 21 20 18 18 17 17 18 18 16 13 11 11 11 11 11 12 13 14 14 14 14 14 14 13 12 11 11 10 11 12 13 13 14 15 16 17 18 18 19 20 20 21 22 22 22 23 23 23 24 23 21 20
16 16 17 18 19 20 21 21 21 22 23 21 20 19 18 17 18 19 18 16 14 12 11 11 11 12 12 12 12 12 13 13 13 13 12 12 11 11 11 11 12 13 14 15 16 17 19 19 20 21 21 21 21 22 22 22 23 22 23 23 23 21 20
17 16 15 16 17 18 19 19 19 21 21 21 20 19 18 17 18 19 19 17 15 13 12 12 11 12 12 12 12 11 11 11 11 11 10 10 10 10 11 11 12 12 14 15 16 18 19 19 20 21 21 21 21 21 21 22 22 22 22 22 22 20 19
18 16 14 13 14 15 16 17 18 19 18 19 19 20 20 19 18 19 20 18 16 15 14 12 12 12 12 12 12 11 10 10 10 9 9 9 9 10 10 11 12 13 14 15 17 18 18 18 19 20 21 20 20 20 20 20 20 20 21 21 20 20 20
16 16 14 13 13 13 15 17 18 18 18 18 18 19 20 20 20 20 21 19 18 16 15 14 12 12 12 12 12 11 11 11 10 10 9 10 10 11 11 12 13 14 15 16 17 17 17 18 19 19 20 19 19 19 18 18 19 19 20 21 21 21 20
18 17 15 15 16 14 13 14 16 17 18 19 20 20 20 21 22 23 22 21 19 19 18 15 13 13 13 12 12 12 12 11 10 9 9 10 11 11 12 13 14 14 15 16 16 17 17 18 18 19 19 19 19 19 19 19 19 19 20 21 22 21 21
19 20 19 18 18 18 16 16 17 17 19 20 21 22 22 22 23 23 23 22 21 21 20 17 15 14 14 14 13 13 12 11 10 10 10 10 11 12 13 13 14 15 16 16 17 17 18 18 19 19 19 19 19 19 19 20 20 20 20 21 21 22 23
18 21 22 20 18 18 19 19 20 20 20 21 21 22 23 23 23 23 23 23 23 23 22 20 18 17 16 15 15 14 13 12 12 11 11 11 11 12 13 14 14 15 16 17 17 17 17 17 17 17 17 17 17 17 18 18 18 19 19 20 21 22 24
17 21 24 23 21 20 19 19 20 21 21 22 22 22 23 23 23 23 23 23 24 24 23 21 20 19 18 17 16 15 14 14 13 13 13 12 12 12 13 13 14 15 15 15 15 15 14 14 14 13 13 13 14 14 14 15 15 16 17 19 21 22 24
17 19 21 23 23 23 21 19 19 19 20 22 23 22 23 24 24 24 23 22 22 23 23 22 20 19 18 17 17 16 15 15 14 14 14 13 13 13 13 13 13 13 13 13 13 14 14 14 14 14 14 14 14 14 14 14 15 15 16 18 19 21 22
18 19 20 21 22 23 23 21 19 18 18 20 23 24 24 24 25 24 23 22 21 22 22 21 20 19 18 17 17 17 16 16 15 15 15 15 14 13 13 13 14 14 15 15 15 16 16 16 17 17 17 17 17 17 17 17 17 17 17 18 19 20 22
19 20 21 22 22 22 22 21 19 18 18 19 21 23 23 24 25 25 24 23 22 21 21 21 20 20 19 18 18 18 18 17 17 17 17 17 16 16 16 16 17 18 18 18 19 20 20 21 20 20 20 19 19 19 18 18 17 17 17 18 19 20 21
18 18 20 22 23 23 22 20 18 18 20 20 20 21 22 23 25 25 25 24 22 22 21 21 21 20 20 19 19 19 19 19 19 20 20 20 20 20 20 20 21 21 21 21 21 21 21 21 21 20 20 20 19 18 17 16 16 16 16 17 18 19 21
17 19 20 22 24 23 20 18 17 16 19 22 21 19 19 21 24 26 26 24 22 21 21 21 21 21 20 20 21 21 21 22 22 22 22 22 23 23 23 23 23 23 22 21 21 20 20 19 19 19 20 20 19 18 18 18 18 18 19 20 21 21 22
19 20 20 20 22 21 19 18 18 17 18 21 21 19 18 20 23 25 25 23 21 21 21 22 22 22 22 22 23 23 24 24 25 25 25 25 25 25 25 25 24 23 22 21 21 21 20 20 20 21 22 22 22 22 22 22 22 23 23 24 24 25 26
21 21 21 20 21 21 20 20 21 19 17 20 22 22 20 20 22 23 23 23 22 23 23 24 24 24 24 24 25 25 26 27 27 28 28 27 26 26 26 26 25 24 23 23 23 23 23 24 24 25 25 25 25 25 26 26 27 27 27 27 28 28 29
25 25 25 24 24 24 22 22 22 21 19 20 22 24 23 21 21 22 22 22 23 24 24 24 25 25 25 26 27 27 28 29 29 29 29 29 28 28 28 28 27 26 25 25 25 26 26 27 28 28 28 28 28 28 28 29 30 31 31 31 32 32 32
28 28 29 28 26 26 25 24 24 24 23 21 20 22 24 22 20 20 22 22 22 24 25 25 26 27 27 28 28 29 30 30 30 31 31 31 32 32 32 31 30 28 28 28 28 28 29 29 30 31 31 30 29 30 30 31 32 33 34 33 34 35 36
27 28 28 28 27 26 26 26 26 26 25 25 23 23 24 24 21 21 22 22 23 24 26 27 29 29 30 31 31 32 32 33 33 34 35 35 35 35 35 35 34 32 32 31 31 31 31 31 31 31 31 31 30 31 32 33 34 34 33 34 36 38 40
26 26 27 27 26 27 27 27 27 27 27 27 28 27 27 27 26 24 25 25 26 28 29 31 32 33 34 34 35 35 36 37 37 38 39 38 38 38 38 38 37 36 36 34 34 33 33 33 32 32 32 32 33 36 38 37 37 36 35 37 39 41 43
27 26 26 26 27 28 28 28 29 29 29 30 30 31 31 31 30 29 30 31 32 33 34 35 36 37 38 38 38 39 39 40 41 41 42 42 42 42 42 42 41 41 40 39 37 37 37 36 36 35 36 36 37 40 41 40 39 39 39 40 41 43 44
28 28 28 29 30 31 32 32 32 32 32 33 33 33 34 34 34 33 34 35 36 37 39 39 40 40 41 41 42 42 43 43 44 44 44 45 45 45 45 45 45 45 44 44 43 43 42 41 40 39 40 40 39 40 40 42 44 44 43 43 43 44 45
31 32 33 33 34 34 34 35 35 35 36 36 36 36 36 37 37 37 38 39 40 41 42 43 43 44 44 45 45 46 46 47 47 47 48 48 49 49 49 49 49 48 47 46 46 47 47 47 45 43 42 43 43 41 40 44 48 47 47 46 45 44 44
33 34 34 34 34 34 34 35 36 36 37 37 37 38 38 38 39 40 40 41 42 43 44 46 47 47 47 48 48 49 49 50 50 51 51 52 53 54 55 55 54 52 50 48 48 48 49 50 50 49 48 48 48 46 44 46 48 49 49 48 46 45 45
37 37 36 36 36 37 37 37 36 35 35 36 37 37 38 39 40 41 42 43 43 44 44 45 47 48 49 50 50 51 51 52 52 53 53 54 55 56 57 58 57 56 54 53 51 51 50 51 52 53 53 53 53 51 49 49 49 49 50 49 48 49 51
42 41 41 41 41 42 43 43 42 41 40 40 40 40 41 42 42 43 44 44 45 45 45 45 46 48 49 50 50 51 51 51 52 53 53 53 53 54 55 56 56 57 56 56 55 55 54 54 54 56 58 58 58 57 55 54 54 53 53 53 52 51 53
44 45 45 46 46 47 48 48 48 48 47 47 46 46 46 46 46 46 46 47 47 48 49 49 49 50 51 51 52 52 52 52 53 54 54 53 53 53 54 54 54 56 56 57 57 57 57 58 58 60 62 62 62 61 58 58 58 57 56 55 53 51 51
46 47 47 48 48 48 48 48 48 47 47 47 48 48 48 48 48 48 48 48 49 50 51 51 52 53 54 54 55 55 55 55 55 56 56 56 56 56 57 57 57 58 58 59 59 60 61 62 63 64 64 63 62 61 59 58 59 58 56 56 55 54 54

ECMWFFLT1_500_spd_042.txt.gz
Wind_Speed
24 23 23 24 24 24 23 21 20 19 19 18 17 15 14 13 12 11 11 10 10 10 11 11 11 10 10 11 10 10 9 9 9 9 9 8 8 8 8 8 9 10 10 11 11 13 14 14 14 12 11 12 11 10 11 12 12 12 13 13 14 14 15
25 25 25 26 25 23 22 21 21 20 19 18 17 16 15 13 13 12 12 11 11 11 12 12 11 11 11 11 11 11 11 11 11 11 11 11 10 9 9 9 10 10 11 11 12 13 14 14 14 13 13 14 14 12 12 14 14 15 15 15 15 16 17
27 28 27 26 24 23 22 22 22 21 19 19 18 16 15 13 13 13 12 12 12 13 14 14 13 12 12 12 12 11 11 11 12 12 12 13 13 13 12 11 11 12 12 13 13 14 14 15 15 14 14 15 16 15 15 15 16 17 17 17 17 18 19
29 29 28 26 24 24 23 23 23 21 20 20 19 16 15 14 14 13 13 13 14 14 15 15 15 14 14 13 13 13 13 13 13 13 14 14 15 15 14 14 14 14 14 14 14 15 15 16 16 16 16 16 17 16 16 16 17 18 18 18 19 19 20
29 28 27 26 25 25 25 24 22 20 19 20 18 16 15 15 14 14 14 14 14 14 15 15 15 15 15 15 14 13 13 13 13 13 14 15 16 15 15 15 15 15 16 15 15 15 16 17 17 17 17 17 17 17 17 18 19 19 19 19 20 21 21
28 28 27 27 27 25 24 23 21 19 19 20 18 17 17 16 16 15 14 14 14 14 14 14 14 14 14 14 13 13 12 12 11 11 12 13 14 14 14 14 15 15 15 15 15 16 17 18 18 18 18 18 18 18 19 20 21 21 20 20 21 21 21
28 28 28 28 27 25 23 21 20 21 21 21 20 18 18 17 16 15 14 14 14 14 13 14 14 13 12 12 11 11 11 10 9 8 9 10 10 11 12 12 13 13 13 14 15 15 16 17 18 18 19 19 19 19 19 20 21 21 21 21 21 22 22
27 28 28 28 26 24 23 21 21 23 23 22 20 19 18 18 16 15 14 14 14 14 13 14 13 12 11 11 11 11 11 10 9 9 8 8 8 9 10 11 11 11 12 12 13 13 14 15 17 17 18 18 19 18 19 20 20 21 21 21 21 22 23
26 27 28 28 25 24 22 20 22 24 23 21 19 19 18 18 17 15 15 15 15 14 14 14 13 12 11 11 11 12 12 11 11 10 10 10 9 10 11 11 11 10 10 10 11 11 13 14 15 15 15 16 17 17 18 19 20 21 22 22 22 22 23
24 26 28 27 24 21 19 19 22 23 22 20 19 19 18 18 18 17 16 16 16 16 15 14 13 12 11 11 11 12 12 12 12 12 12 12 12 12 13 13 12 12 11 11 11 11 12 13 13 14 14 14 15 16 17 19 20 21 22 22 22 22 22
22 24 26 24 21 19 18 19 21 21 20 20 19 19 19 19 19 19 18 17 17 17 16 15 14 13 11 11 10 11 11 11 12 13 14 15 15 15 15 16 15 15 14 13 13 13 13 13 13 13 13 13 14 16 17 18 19 20 20 20 20 20 20
20 22 24 22 20 19 19 19 20 20 20 20 20 20 20 21 21 20 19 18 17 18 17 16 15 14 12 11 10 10 10 11 12 13 14 15 16 16 16 17 17 17 16 15 14 14 14 14 14 13 13 13 14 15 16 16 17 17 18 18 18 19 19
19 21 22 21 19 18 17 19 20 21 21 21 22 22 22 23 23 21 20 18 17 18 18 17 16 15 14 12 12 11 11 11 12 12 14 15 16 16 16 16 16 16 16 15 15 15 15 15 14 14 13 14 15 15 15 15 16 16 17 17 17 18 18
19 21 21 19 17 15 15 17 18 19 20 20 22 23 23 24 24 23 21 19 18 18 19 19 18 17 16 15 14 14 13 13 13 13 14 15 15 16 16 16 15 15 15 15 15 15 15 15 15 14 14 15 15 15 15 15 16 17 17 17 18 18 19
19 20 19 18 16 15 15 15 15 16 17 18 19 21 22 23 24 24 23 21 19 18 19 20 20 19 18 17 16 16 15 15 15 14 15 16 16 16 16 15 15 15 15 15 15 16 16 15 15 15 15 16 16 16 18 19 19 20 20 20 20 20 20
19 19 19 19 17 16 15 14 13 13 14 16 18 19 20 21 22 23 22 22 21 21 20 21 21 21 20 19 19 18 18 17 17 16 16 16 17 16 16 15 15 14 15 15 16 17 17 16 17 17 17 18 19 20 21 21 21 21 21 21 21 21 20
19 19 19 19 19 18 17 15 15 15 15 17 18 19 21 22 23 24 23 23 23 23 22 22 23 23 23 22 21 21 20 19 19 18 17 17 17 16 16 15 14 15 15 16 17 17 18 18 18 19 19 20 21 21 21 20 19 19 18 18 18 18 17
17 19 20 20 20 21 20 18 18 18 18 19 21 21 22 23 24 25 25 24 24 24 24 24 24 25 24 24 24 23 23 22 20 19 19 18 17 17 16 16 15 16 16 17 18 18 18 19 19 19 19 19 19 18 17 16 16 16 16 16 16 16 16
17 19 19 19 20 21 22 22 21 20 19 20 21 21 22 23 23 24 25 25 25 25 24 25 26 26 26 26 26 25 24 23 21 19 19 18 17 17 17 17 16 17 17 18 18 18 18 18 19 18 18 17 17 17 16 16 16 17 17 18 18 18 18
20 20 20 20 19 19 21 23 23 23 22 20 20 20 21 22 23 23 24 24 25 24 24 25 26 27 28 27 27 26 25 23 22 20 19 18 18 18 18 17 17 17 18 18 18 18 18 18 18 18 18 18 18 18 18 19 20 20 20 20 20 20 20
21 22 21 20 20 19 20 23 24 25 23 20 20 19 19 20 22 23 23 23 24 24 24 25 26 26 26 26 26 25 24 23 22 21 20 19 18 18 18 18 19 19 19 19 19 19 19 20 20 20 21 21 22 22 22 22 23 23 22 22 22 22 21
22 23 22 21 23 24 24 24 25 26 23 20 18 19 19 19 20 22 23 23 24 24 25 26 26 26 25 25 24 24 23 23 22 21 21 20 19 19 20 20 21 21 21 21 21 22 22 23 24 24 25 25 25 25 25 24 24 24 24 23 23 22 22
23 24 23 22 23 24 23 22 22 22 20 18 18 18 19 19 19 21 23 23 24 24 24 25 25 26 25 24 24 23 22 22 22 21 21 21 21 21 22 23 23 24 24 24 24 25 25 25 26 26 26 26 25 25 24 23 23 24 24 24 23 23 23
22 22 22 21 21 21 21 21 21 21 19 18 18 18 18 19 20 20 22 23 23 23 23 24 25 25 25 25 24 23 22 21 21 21 22 22 23 23 24 25 26 26 27 27 27 26 26 26 26 26 25 25 24 24 24 24 24 24 25 25 26 26 26
23 23 22 22 22 21 21 21 22 22 21 21 21 20 19 20 20 21 22 22 23 23 23 24 24 25 25 25 25 24 23 22 22 23 23 24 25 26 27 27 28 29 29 29 29 28 28 27 27 26 27 27 27 27 26 26 25 26 26 26 27 28 28
22 23 23 22 22 22 22 21 22 23 24 23 22 22 21 21 22 23 24 24 24 24 24 24 25 25 25 25 25 25 24 24 24 24 25 26 27 28 29 30 30 30 31 31 31 30 30 30 30 30 30 30 30 29 27 26 26 27 27 28 28 29 29
23 23 23 24 23 22 22 23 24 24 24 23 23 23 23 23 23 25 27 27 26 26 25 25 25 26 26 26 26 26 26 26 25 25 26 27 29 30 30 30 30 30 31 31 32 32 33 33 33 33 33 33 33 31 29 27 27 27 27 28 30 30 30
26 25 25 25 25 24 24 24 24 24 24 24 24 25 25 26 25 27 29 30 30 28 26 26 27 28 28 28 28 28 27 27 27 28 29 30 30 31 32 32 32 32 33 34 34 34 35 35 36 36 37 37 37 35 32 30 29 29 29 30 31 31 33
28 28 28 28 27 26 26 26 26 26 26 26 26 25 26 27 28 28 29 30 31 30 29 28 29 31 31 31 30 30 30 30 31 32 33 33 34 34 35 35 36 37 37 37 37 37 37 38 39 39 40 40 41 40 38 36 35 34 34 34 34 34 35
29 30 31 31 29 27 27 28 28 28 28 28 28 28 29 29 29 29 30 30 31 32 32 32 32 33 34 33 33 33 34 35 36 36 37 37 38 38 38 39 40 41 41 41 41 41 41 41 42 42 43 43 44 44 44 43 42 41 41 41 39 37 37
31 32 32 32 30 30 30 30 29 29 29 29 30 30 31 32 32 32 33 34 34 35 36 36 36 36 37 37 37 38 38 38 39 40 40 41 41 41 42 42 43 44 43 43 44 44 45 45 46 46 46 46 47 48 48 47 48 48 49 49 46 42 41
31 32 31 31 31 30 30 30 30 30 30 31 32 33 33 35 35 36 37 37 38 39 40 40 40 40 41 42 42 43 43 43 43 44 44 45 46 46 46 47 47 47 47 47 47 48 48 49 49 50 50 51 51 52 51 51 52 52 52 53 51 47 46
31 32 32 31 30 30 31 32 33 33 34 34 34 34 35 36 38 39 40 41 42 43 43 44 44 44 45 46 47 47 48 48 47 48 48 49 50 50 51 51 51 52 52 52 52 53 53 53 54 54 55 55 55 56 56 56 56 55 55 56 56 54 52
33 34 33 32 31 31 32 33 35 35 35 35 35 35 35 36 37 38 40 42 43 45 45 46 46 47 47 47 48 49 49 50 50 50 51 52 53 54 54 55 55 55 56 56 56 57 57 57 57 57 58 59 59 59 59 59 59 59 58 58 58 58 57
36 37 38 38 37 37 37 37 39 39 40 40 40 41 41 41 42 42 43 44 45 45 46 47 47 47 47 47 47 47 48 49 49 49 50 51 53 54 55 56 57 57 58 59 60 60 60 61 61 60 61 61 61 61 60 60 60 61 61 60 60 60 59
43 45 46 47 46 45 44 45 46 47 47 47 47 48 48 49 49 49 50 50 50 50 50 50 50 50 50 50 49 50 51 51 51 51 51 51 52 52 53 55 56 57 58 60 60 61 62 62 63 62 62 61 61 60 60 60 60 61 62 62 62 62 61
49 49 50 51 50 50 49 50 50 51 51 51 51 52 52 52 52 53 53 53 53 53 52 52 52 52 52 52 52 53 54 54 54 54 54 54 54 55 55 56 57 58 59 60 61 62 62 63 63 63 63 63 63 62 61 61 61 61 62 63 64 64 64

ECMWFFLT1_500_spd_045.txt.gz
Wind_Speed
25 25 25 25 26 27 26 25 24 24 23 22 21 20 19 19 18 17 16 14 13 13 13 13 12 12 12 11 11 10 10 10 9 8 8 7 7 7 7 7 7 7 7 7 8 9 9 9 10 10 10 11 11 11 11 12 11 11 12 13 13 13 13
26 27 27 27 28 28 27 26 25 24 23 22 21 20 20 20 20 18 16 15 13 13 13 12 12 12 12 12 12 11 11 11 11 11 10 10 10 9 9 9 8 7 8 8 8 9 9 10 11 11 11 11 12 12 13 13 13 13 14 14 14 14 15
27 28 29 30 30 29 27 26 25 23 23 22 21 20 20 21 21 19 17 16 14 14 13 12 12 12 12 13 13 12 12 12 12 12 12 12 12 12 12 12 11 10 10 10 10 10 10 11 12 12 13 13 13 14 14 15 16 15 15 16 16 15 15
28 29 30 31 31 29 27 25 24 23 23 22 21 20 20 21 21 20 18 17 16 15 14 13 13 13 13 14 14 14 14 13 13 13 13 13 13 14 14 14 13 13 13 12 12 12 12 12 12 13 13 14 14 15 16 16 16 16 16 16 16 16 16
28 29 30 30 30 28 26 25 24 23 23 22 21 21 21 21 21 20 20 18 17 16 15 14 14 13 14 14 15 16 16 15 15 15 15 15 14 14 14 14 14 13 14 13 13 13 13 13 13 13 13 14 15 16 16 16 16 16 17 17 17 17 17
28 29 29 28 28 27 26 25 23 22 22 22 21 21 21 21 21 21 20 19 18 17 16 15 14 13 13 13 14 15 16 16 16 15 15 14 14 14 14 15 14 14 14 14 14 14 14 14 14 13 13 14 15 16 16 16 16 16 17 17 17 17 16
28 28 27 26 26 26 26 24 23 22 22 21 21 21 20 21 22 22 21 19 18 17 16 15 14 12 11 11 12 13 14 15 14 13 13 13 13 13 14 14 14 14 14 14 15 15 15 14 14 13 13 14 15 16 17 16 16 16 17 16 16 16 16
27 27 26 25 25 27 26 24 22 21 21 21 21 21 20 21 22 22 20 19 18 17 16 15 13 11 10 10 11 12 13 13 12 11 11 12 12 12 12 12 13 13 13 14 15 15 15 14 13 12 12 13 14 15 16 16 16 16 16 16 16 16 17
27 25 24 24 25 26 25 23 21 20 20 20 21 21 21 21 21 21 20 19 18 17 15 14 13 11 10 10 11 11 12 12 12 12 12 12 12 11 11 11 11 12 12 13 14 14 13 13 12 12 12 13 13 14 15 15 15 15 15 15 15 16 16
27 24 23 23 24 24 22 20 19 18 19 20 20 21 21 21 21 21 20 19 18 17 15 14 13 11 10 11 11 10 11 11 12 12 12 12 12 12 12 11 11 12 13 13 14 13 13 12 11 12 12 12 13 14 15 15 15 15 14 14 15 15 15
24 22 22 22 22 21 18 16 16 17 17 18 19 20 21 22 21 20 19 20 19 17 16 15 14 12 11 11 11 10 10 10 11 12 12 12 12 12 12 12 12 13 14 14 14 13 13 12 12 11 12 12 13 14 14 14 14 14 14 14 14 14 14
21 21 21 20 19 17 14 14 15 15 15 16 17 19 21 21 20 19 19 19 19 18 16 16 15 13 12 12 12 11 10 9 10 10 11 11 11 11 12 12 13 14 15 15 15 14 14 13 12 12 12 12 12 13 13 13 13 12 13 13 13 13 13
20 20 18 18 17 14 14 14 15 14 15 16 17 19 20 21 20 19 19 19 19 18 17 17 16 14 13 13 14 13 11 10 10 10 11 11 11 12 12 13 14 15 15 15 15 15 15 15 14 14 14 13 13 13 13 13 13 13 13 13 13 13 13
20 19 17 17 17 15 15 15 15 16 17 18 19 20 21 21 21 20 20 19 19 19 18 18 17 16 15 15 15 15 14 13 12 13 13 13 13 13 13 13 14 15 15 16 16 16 16 16 16 16 16 16 16 15 15 15 15 14 15 15 16 15 15
20 19 18 18 17 17 16 16 16 17 18 19 19 20 21 21 21 21 20 20 20 20 20 19 19 18 17 17 17 17 17 16 15 15 15 15 15 15 15 15 15 16 16 17 16 16 16 16 17 17 18 18 18 17 17 17 17 17 17 17 18 18 18
20 19 18 17 17 16 16 15 15 15 15 16 16 17 19 19 20 20 20 20 21 21 22 21 21 20 19 19 20 20 19 18 17 17 16 17 17 17 17 17 17 18 18 18 17 16 16 16 17 18 18 19 18 18 18 19 18 18 18 19 19 19 18
20 19 18 17 17 16 16 16 16 16 15 14 14 14 16 16 17 17 18 19 21 21 22 22 22 22 21 21 21 22 22 21 20 19 19 19 19 19 19 19 19 19 19 19 18 17 17 17 18 18 19 19 19 19 19 20 19 19 19 19 19 18 18
20 19 19 18 17 17 17 18 18 18 17 16 14 14 15 15 16 17 18 20 21 22 22 22 23 23 23 23 23 23 23 22 22 22 22 22 22 21 20 20 20 20 20 20 19 18 18 18 19 19 19 19 19 19 19 20 20 20 19 19 18 18 18
20 19 19 18 18 18 19 20 21 20 19 18 18 18 18 18 19 20 21 22 23 23 23 23 24 24 24 24 24 24 24 24 24 24 24 24 23 22 21 20 20 20 21 20 20 20 19 19 20 20 20 20 20 20 20 20 20 20 20 20 20 20 20
21 19 18 18 18 20 20 21 22 22 22 22 22 21 20 20 19 20 21 23 23 23 23 23 24 25 25 25 24 24 24 24 25 25 24 24 23 23 22 21 21 21 21 21 21 21 20 21 21 21 21 21 21 20 20 21 21 22 22 22 23 24 24
21 20 20 19 19 20 20 21 21 22 23 24 24 24 23 22 20 20 20 21 22 22 22 22 22 23 24 24 23 23 23 24 25 25 24 23 23 23 22 22 22 22 22 22 22 22 22 22 22 22 22 22 22 22 22 23 24 25 26 26 27 27 27
22 22 22 21 20 21 21 21 20 19 20 21 23 25 25 24 22 21 20 20 20 21 21 21 21 21 22 23 23 23 23 23 22 22 22 22 23 23 23 23 23 23 23 23 23 24 24 24 24 23 23 24 24 25 26 27 28 29 29 29 29 29 28
24 24 23 21 20 21 22 22 21 21 23 23 23 25 27 26 22 21 20 20 20 20 20 21 21 22 22 23 24 23 22 21 21 21 21 22 22 23 23 23 24 24 24 24 25 25 25 25 25 26 26 27 27 28 29 30 31 31 30 29 28 28 27
25 24 23 23 22 22 24 24 25 26 28 25 21 21 23 25 24 22 21 20 20 20 20 21 22 23 24 25 25 23 21 21 22 22 22 22 22 22 23 23 24 24 25 25 26 26 27 28 28 28 29 29 29 30 30 31 31 30 29 29 28 28 27
25 25 26 26 25 25 25 25 25 25 24 23 21 19 19 22 24 24 22 20 20 21 22 21 22 24 25 26 26 25 23 23 24 24 24 23 23 23 23 24 25 26 27 28 29 30 30 31 31 31 31 31 31 31 31 31 31 30 30 30 29 29 29
26 26 27 26 25 26 25 24 23 22 21 21 21 21 21 23 25 25 23 21 21 23 24 24 24 25 26 27 27 27 27 27 27 27 27 26 26 25 25 26 28 29 30 31 32 32 33 33 33 33 33 33 32 32 32 32 32 32 33 32 32 31 31
26 25 24 23 23 24 23 22 21 21 21 20 20 22 22 24 25 26 24 22 22 23 25 26 27 27 27 28 28 29 29 29 29 30 30 30 30 29 29 29 31 32 33 34 34 35 35 36 36 35 35 34 34 34 35 35 35 35 35 35 35 35 34
24 24 24 23 23 22 22 22 22 21 21 20 21 22 23 23 25 26 25 23 23 25 26 28 29 30 31 31 31 31 31 31 31 31 32 33 33 33 33 32 33 34 36 37 37 37 38 38 37 37 36 36 37 37 37 37 37 37 37 37 38 38 37
26 26 26 26 25 24 23 23 24 24 24 23 23 24 24 24 26 27 27 26 26 26 27 29 30 32 33 35 35 35 34 33 32 33 34 34 35 35 35 35 36 37 38 38 39 39 39 39 40 40 40 40 41 41 41 41 41 41 41 41 41 40 40
28 28 27 27 27 27 26 26 27 27 27 26 26 26 27 28 28 29 30 30 30 30 30 31 32 33 35 36 37 37 36 34 34 34 35 36 36 36 37 37 38 39 39 40 41 42 42 42 43 43 44 44 44 45 45 45 45 45 45 45 45 44 43
29 29 28 29 29 29 30 30 30 30 29 28 28 28 30 31 32 32 33 33 33 33 33 34 35 36 37 37 38 38 38 37 36 36 38 39 40 40 40 40 41 41 42 44 45 46 46 47 47 47 47 47 47 47 47 48 48 48 49 49 49 48 48
30 30 30 30 30 31 31 31 31 31 31 31 31 31 32 34 34 35 35 35 35 36 36 36 37 38 38 39 39 40 40 40 41 41 41 42 43 44 44 44 45 46 47 48 49 50 51 51 51 51 52 52 51 51 51 51 52 52 53 53 52 52 53
30 30 31 31 30 30 30 31 31 32 32 33 34 34 35 36 37 38 38 38 38 38 38 39 40 40 41 42 43 43 44 45 45 45 45 45 46 47 48 49 50 51 52 52 53 54 54 55 55 55 56 56 56 56 56 57 57 57 57 57 57 57 56
31 31 32 31 30 29 30 31 32 33 34 35 35 36 37 38 39 40 40 41 41 41 41 41 42 42 42 43 44 45 46 47 48 49 49 50 51 52 53 54 55 55 56 56 57 57 57 58 58 59 59 60 60 61 61 61 61 61 61 61 61 61 60
32 31 31 31 31 32 33 34 35 36 36 37 38 39 40 40 41 42 42 43 43 43 42 42 42 42 42 43 44 45 46 47 48 49 51 52 54 55 56 57 58 59 59 60 60 61 61 61 62 62 63 64 64 64 64 65 65 64 64 63 63 63 63
30 30 31 32 34 36 37 38 39 39 39 40 40 41 41 42 43 43 44 44 44 45 45 46 47 47 48 48 49 50 50 51 52 53 54 54 55 56 57 58 59 60 61 62 63 63 64 64 64 65 65 66 66 66 67 67 67 66 65 65 65 65 64
34 34 36 38 40 41 42 42 42 43 43 43 44 45 46 47 48 48 49 50 50 51 51 52 53 54 54 55 55 56 57 57 58 59 59 59 59 59 60 61 62 62 63 64 64 65 65 66 66 66 67 67 68 68 67 67 67 67 67 67 67 66 66

ECMWFFLT1_500_spd_048.txt.gz
Wind_Speed
23 23 23 24 24 23 21 21 21 20 18 17 17 17 17 17 18 18 18 18 18 18 18 17 17 16 15 14 13 12 12 11 11 11 10 10 9 8 7 8 7 7 7 7 7 7 7 7 7 7 7 7 7 8 8 8 8 8 8 8 10 10 11
24 25 26 25 25 23 22 21 21 21 19 18 18 18 18 18 18 19 19 19 19 19 19 18 17 16 14 14 13 12 12 12 12 12 12 11 11 10 9 9 9 8 8 8 8 8 7 8 8 8 8 8 9 9 9 9 9 10 10 10 11 11 12
25 27 28 27 26 25 23 22 22 22 21 20 20 19 19 19 19 19 19 19 19 19 19 18 17 15 14 13 13 12 12 12 12 12 12 13 13 12 12 12 11 11 10 9 9 9 9 9 9 9 10 10 10 10 10 11 11 10 10 11 11 11 12
28 29 30 29 28 26 25 24 23 22 21 21 21 21 20 19 19 19 19 19 19 19 19 17 16 15 15 14 13 13 12 12 13 13 13 14 14 14 14 13 14 14 13 12 11 10 10 12 11 11 11 11 11 11 11 12 11 11 11 11 11 12 12
30 31 31 30 27 27 26 24 23 22 21 22 22 21 20 19 19 19 19 19 19 20 19 17 16 16 15 15 14 14 14 14 14 14 15 15 15 15 14 14 16 15 14 14 14 12 11 12 12 12 12 13 13 13 13 13 12 12 12 12 12 13 13
32 32 31 28 27 27 26 24 23 22 22 22 22 21 20 19 19 19 19 19 20 20 19 17 17 16 16 15 15 14 14 14 14 15 16 16 15 15 14 14 16 16 14 13 15 14 13 12 13 14 14 15 15 15 15 15 14 14 13 13 13 13 13
32 32 30 27 26 26 25 24 23 23 23 22 21 20 20 19 19 19 20 21 20 20 19 18 17 16 16 15 15 14 14 13 14 14 15 15 15 15 14 13 15 16 15 15 15 15 14 13 14 15 16 16 16 16 16 16 16 15 15 15 14 14 15
29 30 28 27 26 25 25 24 23 23 23 22 21 20 20 19 19 20 21 21 20 20 19 18 17 17 15 14 14 13 12 12 12 12 13 14 13 13 12 12 13 14 14 14 14 14 14 13 14 15 16 16 16 16 16 15 16 15 15 15 15 15 15
27 28 27 26 25 25 24 22 22 22 22 21 21 19 19 19 19 20 20 20 20 19 19 18 18 17 16 14 13 12 11 11 11 11 11 11 12 11 11 11 11 12 12 12 12 12 12 13 13 15 15 14 14 14 14 14 14 14 14 14 14 14 14
26 27 27 25 24 24 23 21 21 22 21 20 20 19 19 18 18 18 18 18 19 19 19 18 18 17 16 15 13 11 10 11 11 10 10 11 11 11 11 11 11 11 11 11 11 11 11 11 12 13 13 13 13 13 13 13 13 13 13 13 13 13 13
27 27 26 23 22 22 20 20 21 21 20 20 20 19 18 17 17 17 17 17 18 19 19 18 18 17 16 15 14 12 10 10 10 10 10 10 10 11 11 11 11 10 10 10 10 11 11 11 11 13 13 13 13 13 13 13 13 12 12 12 12 12 12
25 25 24 23 22 20 19 20 20 19 20 20 20 19 17 17 17 16 16 16 18 19 19 19 18 16 15 16 15 13 11 10 10 9 9 9 9 10 10 10 10 9 9 9 10 11 11 11 11 12 13 13 14 14 14 14 13 12 12 13 12 12 12
23 22 24 24 22 20 20 19 18 18 19 19 18 18 16 15 15 15 16 16 18 19 18 18 17 16 15 15 15 14 12 12 11 10 9 9 9 9 9 9 9 9 9 9 10 11 12 12 12 13 13 14 14 14 15 15 14 14 14 14 14 14 14
22 23 25 23 20 19 19 18 17 17 18 18 17 16 16 15 15 15 16 17 18 19 18 18 17 16 15 15 15 14 14 13 13 12 11 10 10 10 9 10 10 11 11 11 12 13 13 14 14 14 14 15 15 15 15 15 15 16 16 16 16 16 16
23 24 25 22 19 19 19 18 17 18 18 17 16 16 16 16 15 15 16 17 19 19 19 18 17 16 15 15 15 15 15 15 15 14 14 13 12 12 12 12 12 13 14 15 15 15 15 16 16 16 16 16 15 16 16 16 17 17 17 18 18 19 19
24 25 24 22 21 20 19 18 18 19 18 16 16 17 18 18 18 17 18 19 20 20 20 19 18 17 17 16 16 16 16 16 16 16 16 15 14 14 14 14 15 16 17 17 17 17 17 18 18 18 17 17 16 16 17 17 17 17 18 19 20 20 20
25 25 24 23 21 20 19 19 20 19 17 16 16 17 17 18 18 18 18 19 19 20 20 19 18 18 18 18 18 18 18 18 18 18 17 17 17 16 16 17 17 18 19 19 19 19 19 19 20 20 19 19 18 17 17 17 18 18 19 20 20 20 21
23 22 22 21 20 19 19 20 20 19 17 16 16 17 17 17 17 16 16 17 17 17 18 18 18 18 19 19 19 19 20 20 20 20 19 19 18 18 19 19 20 20 20 20 20 20 20 20 21 21 21 20 19 19 18 18 19 19 20 21 21 21 21
23 21 22 22 20 18 19 19 20 19 18 18 18 18 18 17 16 15 15 15 15 16 17 18 18 19 20 20 21 21 21 21 22 22 22 21 21 20 21 21 21 21 21 21 22 21 21 22 23 23 22 22 21 20 19 19 20 20 21 21 22 22 22
25 24 24 23 20 19 20 20 20 20 20 19 19 20 20 19 18 17 16 16 16 17 19 20 21 21 21 22 23 23 23 23 23 23 23 23 23 22 22 22 22 22 22 22 22 22 22 23 24 24 24 23 22 21 20 21 21 22 22 22 23 23 23
24 24 23 22 21 21 21 21 21 21 21 21 22 22 23 22 21 19 19 18 18 19 20 22 23 23 23 24 24 25 25 24 24 23 23 23 23 23 22 22 22 22 22 22 22 23 24 24 25 25 25 24 23 22 22 22 22 22 22 23 24 25 26
25 25 23 22 22 20 19 20 21 21 22 23 23 24 25 25 24 23 21 21 20 20 21 21 22 23 23 24 25 25 25 25 24 23 23 23 23 23 22 22 22 23 23 23 23 24 25 25 26 26 26 25 24 23 23 23 23 23 24 26 27 29 30
26 25 24 24 24 22 21 20 20 21 22 23 23 24 25 25 24 24 24 24 23 22 23 22 22 22 23 23 24 24 24 24 24 24 24 24 25 24 24 24 24 25 25 25 26 26 26 27 27 27 27 26 25 25 25 25 25 26 27 29 30 31 32
25 24 25 25 25 24 23 21 21 21 22 23 23 23 23 23 23 23 24 25 25 24 24 23 22 21 21 22 24 24 24 24 25 25 26 26 27 27 27 26 27 27 27 28 28 28 28 28 28 28 28 28 28 28 28 29 29 30 30 31 32 32 33
25 25 25 25 26 26 25 23 21 21 23 24 24 24 25 25 24 23 23 24 25 26 25 24 22 21 21 22 24 25 25 25 26 27 27 28 28 28 29 29 30 30 31 31 31 31 31 31 31 31 31 31 31 32 32 33 33 32 33 33 34 34 34
26 24 24 25 26 26 25 25 24 24 26 26 25 26 26 25 24 23 21 21 23 25 26 24 22 21 21 23 24 26 27 27 27 28 28 28 28 29 30 31 32 33 34 34 34 34 34 34 34 34 34 34 34 35 35 36 35 35 35 36 36 36 36
26 25 25 26 26 26 26 26 26 26 27 25 24 23 23 22 22 21 21 20 21 24 26 26 23 22 22 23 25 26 28 28 28 28 28 28 28 29 30 31 33 34 35 36 36 37 37 37 37 36 36 37 37 38 38 39 38 38 39 39 39 39 39
29 28 28 28 29 29 28 27 25 24 24 24 23 23 22 22 22 21 20 20 21 24 26 27 25 24 23 23 24 26 28 29 29 29 29 29 30 31 31 32 33 34 35 36 37 38 39 39 39 39 39 40 40 40 41 42 41 41 41 42 42 42 42
30 29 28 28 29 29 27 25 24 23 22 22 23 23 23 23 23 22 21 20 21 23 26 27 27 26 25 24 25 27 28 30 30 31 31 32 33 34 34 35 35 36 37 38 39 40 40 40 41 41 42 42 43 43 44 44 44 43 43 44 44 44 44
27 26 26 26 27 26 25 25 25 24 23 23 24 25 25 25 24 24 23 23 23 24 26 28 29 28 28 28 28 29 30 32 33 34 35 35 36 37 37 37 38 38 39 40 40 41 42 42 43 44 44 44 45 45 46 46 45 46 46 46 47 47 47
26 26 25 25 26 26 27 27 27 27 26 26 26 27 27 27 27 27 26 26 27 27 28 30 31 31 32 32 32 33 34 35 36 37 38 39 39 39 39 40 40 40 40 40 41 42 43 44 45 45 46 46 47 47 48 48 48 49 50 50 51 51 51
28 28 29 29 29 30 30 30 30 30 30 30 29 30 30 30 30 29 29 29 30 30 31 33 34 35 35 36 36 36 37 38 39 40 40 41 41 42 42 42 43 44 44 44 44 45 45 46 47 48 48 49 50 50 51 52 52 52 53 54 54 55 55
31 32 32 33 33 32 32 32 32 32 32 31 31 31 31 31 30 30 30 30 31 32 33 34 36 37 38 38 38 39 39 39 39 40 41 41 42 43 44 46 46 47 48 49 49 49 50 51 51 52 53 54 55 55 56 56 57 57 57 58 59 59 60
33 34 34 34 34 33 32 32 32 32 32 31 31 32 31 31 30 30 31 31 32 34 35 36 38 39 39 40 40 40 40 40 40 41 42 43 44 46 47 48 49 49 50 52 52 52 53 54 55 56 57 59 60 61 61 62 62 62 62 62 63 64 64
33 34 34 34 34 33 33 33 33 33 33 32 32 32 32 31 31 31 33 34 35 37 38 39 40 41 41 42 43 43 43 43 43 44 44 45 46 47 48 49 49 49 51 52 53 54 55 56 58 59 60 61 63 64 64 64 65 66 66 66 67 67 68
33 34 34 34 35 34 34 33 33 33 33 33 34 34 34 34 34 35 37 38 39 40 40 41 42 42 43 44 44 45 45 45 45 46 46 47 48 49 50 52 52 53 55 56 58 59 60 61 62 63 64 65 65 66 67 67 68 68 69 69 69 69 69
34 34 34 34 34 34 34 33 34 34 35 35 36 37 37 37 38 39 39 40 40 41 42 42 43 44 45 47 48 49 49 50 51 52 53 54 55 56 57 57 58 59 60 61 62 63 64 65 66 66 67 68 69 70 70 71 71 71 72 72 72 73 72

ECMWFFLT1_500_spd_051.txt.gz
Wind_Speed
22 23 21 21 22 23 21 19 17 15 13 13 14 13 13 13 13 13 13 13 13 14 14 15 15 15 15 15 15 14 13 13 12 10 10 10 9 9 9 9 8 9 10 10 9 8 8 7 7 7 7 7 7 7 7 8 8 7 7 7 7 7 7
23 23 22 22 22 21 20 17 16 14 14 14 15 14 13 13 13 13 13 13 14 14 15 15 15 15 15 16 15 14 13 13 12 11 10 10 10 10 10 9 10 10 11 11 10 9 9 8 8 7 7 7 8 8 8 9 9 9 9 9 9 9 9
25 24 24 23 21 20 20 18 16 15 15 16 16 15 14 13 13 14 14 14 14 15 16 16 15 15 16 16 15 14 13 13 11 11 10 10 10 12 12 11 12 12 12 12 11 10 10 10 9 8 7 8 8 9 9 10 10 11 11 11 11 11 10
26 25 24 23 21 22 21 19 18 17 17 18 18 17 16 15 15 15 15 15 15 16 16 16 15 15 16 16 15 14 13 12 11 11 11 11 11 13 14 14 14 14 14 13 12 11 12 12 11 10 9 9 10 10 11 12 12 13 13 12 12 12 12
28 26 25 24 24 24 22 21 20 19 19 19 20 19 17 16 16 16 16 15 16 16 16 16 16 16 16 16 15 14 13 13 12 12 12 12 13 14 16 15 14 14 13 13 13 12 13 14 12 10 10 10 11 12 13 13 14 14 14 13 13 13 12
28 25 26 26 26 24 22 22 22 21 21 21 21 20 18 17 17 17 17 16 17 17 17 17 17 17 17 16 15 14 14 14 14 13 13 13 13 14 16 15 14 13 12 12 13 13 13 13 12 12 12 12 12 13 13 13 14 14 14 14 13 13 12
27 26 27 28 26 24 23 22 22 21 21 22 22 21 19 18 18 18 18 17 17 18 18 18 18 18 17 16 16 15 14 14 15 14 13 13 13 13 14 14 13 12 12 12 14 14 13 12 13 12 12 12 12 12 13 13 13 13 13 13 13 13 13
28 26 26 27 25 24 23 22 22 21 22 22 22 21 20 19 18 18 18 18 18 18 19 19 19 18 16 16 16 15 14 14 14 13 12 11 11 12 12 12 11 10 10 11 13 13 12 12 12 11 12 12 11 11 11 12 12 12 12 12 12 12 13
27 25 24 24 24 24 23 21 21 21 21 21 20 20 19 19 18 18 18 18 18 19 19 20 19 17 16 15 15 15 14 14 13 12 11 10 9 10 10 10 10 9 9 11 12 12 11 10 11 10 11 11 10 10 10 11 11 11 11 12 12 12 13
28 25 23 23 23 22 21 20 20 20 20 19 19 19 18 18 18 18 18 19 19 19 19 19 18 16 15 15 15 14 14 13 12 10 9 9 9 10 10 10 10 9 9 10 11 10 10 10 11 11 10 10 10 10 10 11 11 11 11 12 12 13 12
28 25 22 22 22 21 19 20 20 20 19 18 18 18 18 18 18 18 19 19 19 19 19 18 16 16 15 15 15 14 14 13 11 9 8 9 10 10 11 11 10 9 9 9 10 10 10 10 11 11 11 11 11 10 10 11 11 11 12 12 13 13 12
27 25 22 21 21 20 20 21 21 19 18 18 18 18 18 18 18 18 19 19 20 20 19 16 15 16 16 16 16 16 15 13 11 9 8 8 9 10 10 10 9 8 8 8 9 9 10 11 11 11 11 11 11 11 11 11 11 12 13 13 13 13 13
27 25 22 20 21 21 20 21 20 18 18 18 17 17 18 18 18 19 19 20 21 20 18 16 15 16 17 17 17 17 15 14 12 10 9 8 8 8 8 7 7 6 6 6 6 8 10 11 11 12 12 12 12 12 13 12 12 13 13 14 14 14 13
27 26 24 22 21 21 20 20 18 17 17 17 17 18 18 18 18 19 20 20 20 19 18 16 16 17 17 18 18 17 16 14 13 12 10 9 8 8 8 7 6 6 6 6 6 7 10 12 13 14 14 14 14 15 15 14 14 14 15 15 15 14 15
28 28 27 25 21 19 19 18 17 18 18 17 18 19 18 18 19 19 19 19 19 18 17 16 17 17 18 19 19 18 16 15 14 13 12 11 10 9 9 7 7 7 7 8 8 9 11 13 15 16 17 17 17 17 17 16 16 16 16 16 17 16 16
28 29 29 25 20 19 19 19 19 19 18 18 19 19 19 18 18 18 17 17 18 17 17 17 18 18 19 20 19 18 17 15 15 14 14 13 12 12 11 10 9 9 9 10 10 11 13 15 17 18 18 19 19 19 19 19 18 18 18 18 18 18 18
28 30 29 24 21 20 20 20 21 20 19 19 20 20 20 19 18 17 17 17 18 18 18 18 19 20 20 21 20 20 18 17 16 16 15 15 15 15 14 13 12 12 12 13 13 14 16 17 18 19 19 19 20 20 21 21 21 20 20 20 20 20 19
29 31 30 25 22 22 20 21 22 21 20 20 21 21 20 19 17 16 17 18 19 19 20 20 20 20 21 21 21 21 20 19 18 18 17 17 18 18 17 17 16 16 17 17 16 17 18 18 20 20 20 20 21 21 22 23 22 22 22 22 22 21 21
28 32 30 25 23 23 23 24 24 22 20 21 22 22 21 19 17 16 16 17 18 19 19 20 20 21 21 21 21 21 20 20 19 19 19 19 20 20 20 19 19 20 21 22 20 19 19 20 21 22 22 22 22 22 22 23 24 24 24 24 24 23 22
27 31 29 25 24 25 24 25 24 21 21 22 24 23 22 21 18 16 15 16 17 18 18 19 19 20 20 21 21 21 21 21 21 21 21 21 21 22 22 21 21 22 24 23 22 21 21 22 22 22 23 23 23 23 23 24 25 25 26 26 25 25 24
26 29 27 25 25 24 24 24 23 22 22 23 25 25 24 22 19 18 16 16 17 18 18 18 19 19 20 21 22 23 23 23 23 23 23 23 23 23 23 23 22 23 23 22 21 23 23 23 23 24 24 25 25 25 26 27 27 28 28 27 26 26 25
25 26 26 25 23 22 22 23 23 23 23 23 24 25 24 22 21 20 19 18 19 19 19 19 20 20 21 22 23 24 25 25 25 25 25 25 25 25 25 25 24 24 24 23 22 22 23 24 24 25 26 27 27 28 29 29 29 29 29 28 28 27 27
25 25 25 24 23 21 22 24 24 23 23 23 24 25 25 24 23 22 22 21 21 21 21 21 22 22 22 23 23 23 24 25 25 25 26 26 26 26 26 26 26 25 26 25 24 23 24 26 26 27 28 29 30 31 32 32 31 31 30 30 29 29 29
25 25 25 24 22 22 22 24 24 24 23 24 24 25 25 25 24 23 24 24 24 24 23 24 24 25 25 24 23 23 23 23 24 25 26 26 26 26 26 26 26 26 25 25 25 25 26 27 27 28 30 31 32 34 34 34 34 33 32 31 31 31 32
25 25 24 23 22 22 23 24 25 24 23 22 22 23 24 24 23 23 24 25 24 23 23 24 25 27 27 26 24 23 22 22 24 25 26 27 26 26 26 26 26 26 25 25 25 25 26 27 28 29 31 32 34 35 36 36 35 35 34 33 33 33 34
24 25 25 23 22 22 24 25 26 25 23 22 22 23 23 23 23 24 24 25 25 25 25 25 25 26 27 27 24 22 22 22 23 24 26 27 27 27 26 26 26 25 25 25 25 26 27 28 29 30 31 32 34 35 36 36 36 36 36 35 36 37 37
24 26 26 24 22 23 25 26 26 26 25 24 23 23 23 24 25 26 26 26 27 28 27 25 23 23 25 26 25 23 22 22 22 23 24 26 26 27 27 27 26 26 25 26 27 28 29 30 31 32 32 33 34 35 36 37 37 38 38 38 39 40 41
27 27 26 25 24 25 27 26 26 27 28 27 26 26 27 27 27 27 26 25 25 25 25 24 22 21 22 24 25 24 24 23 22 22 22 23 24 26 27 27 27 27 28 29 30 30 32 33 33 34 34 35 36 36 37 38 39 40 41 42 43 44 44
28 26 25 26 26 27 26 26 27 29 29 27 27 27 27 26 25 25 25 24 23 23 23 23 22 21 21 23 24 25 26 25 24 23 23 23 24 25 27 28 29 30 31 32 32 32 33 34 34 35 36 36 37 38 38 39 40 41 43 44 45 46 47
29 27 26 27 28 28 27 26 27 28 27 26 26 26 25 24 23 24 24 24 24 24 24 23 22 21 22 23 25 27 28 28 27 26 26 26 27 28 30 31 33 33 34 34 34 34 34 35 36 36 37 38 39 39 39 40 41 43 45 47 47 48 49
30 31 31 32 32 32 30 29 28 27 26 26 25 24 24 23 23 23 24 25 25 25 25 24 23 23 23 24 26 28 29 30 30 30 30 30 31 31 32 33 35 36 36 36 36 36 36 37 38 39 40 41 41 41 41 42 42 43 45 46 47 49 51
33 33 33 33 32 31 30 29 27 25 25 25 25 24 25 25 24 25 26 26 26 26 26 25 25 25 25 25 26 28 30 31 31 32 33 33 33 34 35 35 37 38 38 38 38 38 39 40 41 42 43 44 45 45 45 45 45 46 47 48 49 49 50
33 32 31 29 29 29 28 28 27 26 26 26 27 27 27 27 27 28 28 28 28 28 28 28 27 27 27 27 29 30 32 32 33 34 35 35 36 38 38 38 39 39 40 40 40 41 42 43 44 45 46 47 48 49 49 49 49 50 51 53 53 53 53
29 29 28 28 28 29 29 29 29 29 29 29 29 30 30 30 30 30 30 30 30 30 30 30 29 29 30 30 31 32 33 34 35 35 36 37 38 40 41 41 40 40 41 43 44 45 46 47 47 48 48 49 50 51 52 52 52 53 53 55 56 57 59
28 29 29 30 30 31 31 31 32 32 32 32 32 33 33 33 32 32 31 32 32 32 32 33 33 32 32 33 33 34 35 35 36 37 38 39 40 41 43 43 42 42 43 45 46 48 49 50 50 51 52 53 54 56 57 57 58 59 60 61 62 63 65
30 31 31 32 32 32 32 33 33 34 34 34 34 34 34 34 34 33 33 33 33 34 34 35 35 35 34 35 35 35 36 37 38 39 40 42 43 44 45 46 46 47 48 50 51 52 53 54 55 56 57 58 59 60 62 62 63 64 65 66 67 67 68
33 33 34 34 34 34 34 34 34 34 34 34 35 35 35 35 34 34 34 34 34 35 35 36 36 36 36 36 37 37 38 39 41 42 43 45 46 48 49 50 51 52 53 54 55 56 56 57 58 58 59 60 61 62 63 64 65 65 66 67 67 68 69

ECMWFFLT1_500_spd_054.txt.gz
Wind_Speed
26 26 25 23 22 22 21 19 18 16 15 14 14 13 13 13 13 12 12 11 10 9 8 7 8 8 8 8 8 8 8 8 9 9 10 10 10 11 10 9 8 8 7 7 7 7 8 8 6 6 5 5 5 5 5 5 5 5 5 5 5 6 7
25 24 23 22 21 20 19 17 16 15 14 14 14 14 14 13 13 12 11 10 9 9 9 8 8 8 9 9 8 7 7 8 9 10 10 10 11 11 10 9 9 9 9 8 8 8 9 8 6 6 6 6 6 5 5 5 5 6 6 6 7 7 8
23 22 21 22 20 18 17 15 14 13 14 14 14 14 14 13 13 12 11 11 10 10 10 10 9 9 10 9 8 8 7 8 9 10 10 10 11 11 10 10 10 10 10 10 10 10 9 8 7 7 7 7 7 6 6 6 6 7 7 7 7 8 8
23 21 21 20 18 17 15 13 13 12 13 13 14 14 15 15 14 13 12 12 12 11 10 10 10 10 10 9 9 8 8 9 9 10 10 10 11 11 11 11 12 11 11 12 12 11 10 9 8 8 8 7 7 8 8 8 8 8 8 7 8 8 8
22 21 20 19 18 17 16 15 14 13 13 14 15 15 16 17 16 15 14 13 13 13 12 11 10 10 10 10 10 9 9 9 10 10 11 11 12 13 12 13 14 13 12 12 11 11 10 10 9 9 8 7 8 8 9 9 9 8 8 8 8 8 8
23 21 20 20 20 19 18 17 15 12 13 15 16 16 17 18 18 17 16 16 15 15 13 12 12 12 11 11 11 11 10 10 10 11 12 13 13 14 14 14 15 14 13 12 11 11 11 10 9 9 8 8 8 9 9 9 8 7 7 8 8 9 9
22 21 21 21 22 21 19 17 15 13 15 16 16 17 18 19 19 19 19 18 17 16 15 14 13 13 12 12 12 12 11 11 11 12 13 13 13 14 14 14 15 14 13 12 11 11 11 10 9 9 8 8 8 8 8 8 7 6 7 7 8 9 9
20 21 21 22 23 22 19 17 17 17 18 17 18 19 19 20 20 20 20 19 18 17 16 15 15 14 14 14 14 13 12 11 11 12 12 13 13 14 14 14 15 13 12 12 11 10 10 9 9 8 8 8 7 7 6 6 6 6 6 7 7 8 9
20 21 20 21 23 21 17 16 18 19 19 18 18 19 19 20 21 21 21 21 20 19 18 16 15 15 16 16 15 14 13 12 12 12 12 12 13 13 13 13 14 13 12 12 10 9 9 9 8 8 8 6 5 5 5 6 6 6 6 7 7 7 8
19 20 20 21 21 16 14 15 15 17 17 16 17 17 18 19 20 22 22 22 22 20 19 18 17 17 17 16 15 14 13 12 12 11 12 12 12 12 12 12 12 12 12 12 10 9 9 8 7 7 7 5 4 4 5 5 6 6 6 6 7 7 8
20 20 20 22 20 15 14 14 14 14 15 15 16 17 17 19 20 22 22 23 22 21 20 19 18 18 17 17 16 14 13 12 12 11 12 12 12 12 12 12 12 12 12 12 11 10 9 8 7 7 6 5 5 5 5 6 6 7 6 7 7 8 9
21 21 21 23 23 20 17 15 14 13 15 16 17 17 18 19 20 21 22 22 22 22 21 20 19 18 17 17 16 14 13 12 12 11 12 12 12 11 12 12 13 13 12 12 12 10 8 7 7 7 6 5 5 5 5 6 7 7 8 8 9 9 10
21 22 22 23 25 22 19 17 15 14 16 17 18 18 19 20 20 21 22 23 23 23 22 21 19 18 17 17 16 14 13 12 12 12 12 12 12 11 10 11 12 11 11 11 11 9 8 8 7 6 6 6 5 5 6 6 8 9 9 10 10 10 11
20 22 23 23 22 22 20 18 16 15 17 18 18 19 19 20 20 21 22 23 23 23 22 21 20 19 18 18 17 15 14 13 12 13 13 13 12 11 10 9 10 10 10 10 10 10 9 9 8 7 7 7 6 7 7 7 9 11 11 12 12 12 13
18 20 23 23 22 22 21 19 17 17 18 18 18 19 20 20 21 22 23 23 23 22 22 21 20 20 20 18 17 15 14 14 14 14 14 14 14 13 11 10 10 10 10 10 10 10 10 10 9 9 8 8 8 9 9 8 10 13 13 13 14 14 15
19 19 22 25 24 23 24 22 19 19 19 18 17 19 20 21 21 22 22 23 22 22 22 21 21 21 20 19 17 16 15 15 15 15 15 15 15 15 14 13 13 12 12 11 11 12 12 12 11 11 10 10 11 12 11 10 12 15 15 15 16 17 18
20 20 22 24 24 24 25 24 22 20 19 18 19 21 21 22 22 22 22 22 22 21 20 20 20 21 20 19 18 17 16 16 16 16 16 17 17 17 17 16 16 15 15 14 14 15 15 14 14 14 12 12 14 15 13 12 14 16 17 17 18 19 20
21 21 21 23 24 24 25 25 24 22 20 20 21 23 23 22 22 21 21 21 21 20 19 19 19 19 19 19 18 18 18 18 18 18 18 18 18 18 19 19 18 18 17 17 17 18 18 17 17 17 15 15 16 17 16 15 16 16 18 20 20 20 22
22 22 21 22 24 25 26 26 25 24 22 21 23 24 23 22 21 21 21 21 21 21 20 20 20 20 20 20 20 19 19 19 19 19 20 20 20 20 20 20 21 20 19 19 20 20 19 19 18 18 18 18 19 19 19 19 18 17 18 21 23 23 24
24 23 21 22 25 26 27 27 27 26 23 22 24 25 24 23 22 21 22 22 21 21 21 21 22 22 22 22 21 21 20 20 20 20 20 21 21 21 20 21 22 22 22 21 21 21 20 20 19 20 21 21 20 20 21 21 20 19 20 22 24 25 26
27 24 22 23 25 27 28 29 30 27 24 24 26 25 25 25 24 23 22 21 20 20 21 21 21 21 21 21 21 19 19 19 19 20 20 21 22 21 21 21 23 23 23 23 23 22 22 21 20 21 22 22 20 19 21 23 22 22 22 23 25 26 27
28 25 23 23 25 28 30 31 30 27 26 27 28 26 25 26 25 23 21 19 20 20 20 20 20 20 20 19 18 18 17 18 19 20 21 22 23 23 22 23 24 24 25 24 24 24 24 23 21 21 22 22 20 20 22 23 24 24 25 25 26 27 28
27 26 24 23 25 27 29 30 28 28 29 29 27 25 25 25 24 22 20 20 22 21 20 19 19 19 19 19 18 18 18 19 19 21 22 23 25 25 24 24 24 24 25 25 25 25 24 23 22 22 22 22 21 21 22 24 24 25 26 27 27 28 29
27 26 25 25 26 25 26 27 27 27 27 25 24 24 24 22 21 21 22 23 23 22 21 21 20 20 20 20 21 21 21 21 21 21 22 23 24 25 25 25 24 24 25 25 24 24 24 23 23 22 23 23 23 23 23 25 25 26 26 27 28 29 30
28 27 25 26 27 26 25 25 24 23 22 22 23 23 22 21 21 23 24 24 24 23 23 23 23 23 23 24 24 24 24 24 24 23 22 22 23 23 24 25 25 25 25 25 24 24 24 24 24 24 24 25 24 24 25 26 26 27 27 28 29 30 31
29 27 24 24 26 26 24 23 22 21 21 21 22 22 21 22 23 23 24 24 25 25 24 24 24 25 26 26 26 25 26 26 26 24 22 22 21 21 22 24 25 25 25 25 25 25 25 25 25 25 25 26 26 27 27 27 28 28 29 30 31 32 32
27 25 24 24 24 23 22 22 22 21 21 21 22 22 23 23 23 23 24 24 25 25 25 25 25 25 26 26 26 26 27 27 27 25 23 22 21 21 22 23 24 24 24 25 25 25 26 26 26 26 26 27 28 28 29 29 29 30 31 31 32 33 34
24 24 25 25 23 22 24 24 23 23 22 21 23 24 25 25 25 24 23 23 24 25 25 25 25 26 27 28 29 29 27 26 26 25 24 24 23 23 23 23 23 22 22 24 25 25 26 27 27 28 28 28 29 30 31 31 32 33 34 33 33 33 34
25 24 24 25 25 25 25 26 25 23 23 23 24 26 27 28 27 26 25 25 26 27 27 28 28 27 27 28 29 28 26 24 23 24 25 26 26 25 24 24 23 22 22 24 25 26 27 28 29 29 30 31 32 32 33 34 35 35 35 33 33 33 35
26 26 24 25 26 26 26 27 26 23 24 25 26 26 27 28 29 28 28 29 29 29 29 28 27 26 26 26 26 25 24 23 22 23 25 26 27 27 26 26 25 25 25 25 26 27 29 30 31 32 33 34 35 36 37 37 37 36 35 34 35 36 38
25 25 25 26 27 26 27 28 27 25 27 28 27 27 28 29 30 31 31 30 29 28 26 25 25 24 24 25 25 24 23 22 22 23 25 26 26 27 27 28 28 28 28 28 28 29 31 32 34 34 35 36 37 38 39 39 39 38 38 38 39 41 42
26 27 27 28 28 27 28 29 29 30 31 30 28 28 28 29 30 30 29 27 26 25 24 23 23 24 24 24 25 24 24 23 24 25 26 26 26 27 28 29 29 30 31 30 31 32 33 34 35 36 37 38 39 40 40 41 41 41 42 42 43 44 45
27 29 30 30 30 30 30 31 32 33 33 31 29 27 27 28 28 27 25 24 23 23 23 23 24 24 24 25 24 25 25 25 26 27 27 27 27 27 28 30 31 32 32 33 34 34 35 36 37 38 39 40 41 41 42 43 44 44 45 46 47 48 49
30 31 31 32 33 33 33 35 35 34 33 32 29 26 25 25 25 24 23 23 24 24 24 25 25 26 26 26 26 26 27 27 28 29 29 30 30 28 28 30 32 33 34 36 36 37 37 38 39 40 41 42 43 45 46 47 48 49 50 51 52 53 54
31 32 32 32 32 34 35 36 36 35 32 30 26 24 24 24 24 25 24 25 25 26 26 27 27 28 28 29 29 29 30 30 31 32 31 32 33 31 30 31 34 34 35 37 38 39 40 41 42 43 45 47 48 50 51 52 53 54 55 55 56 56 57
27 29 30 31 33 34 34 34 33 32 29 27 25 25 25 26 27 28 28 28 28 28 29 30 30 30 31 32 33 33 33 33 34 34 34 34 35 34 33 34 36 37 37 38 39 41 43 45 47 49 50 52 53 53 54 55 55 56 56 57 58 58 59
27 28 28 30 31 32 31 30 29 29 28 28 27 28 28 29 29 30 31 31 30 30 30 31 31 32 33 34 34 35 35 35 35 35 35 35 36 36 36 37 38 40 41 42 44 46 48 49 50 51 52 53 54 54 55 55 56 57 58 59 59 60 61

ECMWFFLT1_500_spd_057.txt.gz
Wind_Speed
20 21 21 21 19 17 16 15 16 17 17 15 14 13 12 12 11 10 10 10 10 9 9 8 7 7 7 6 7 8 8 8 8 8 9 8 7 7 7 6 6 7 6 5 5 4 4 4 4 4 3 3 3 2 2 2 3 3 2 1 1 1 1
20 21 22 21 20 18 18 16 17 19 17 15 13 13 12 12 11 10 10 11 11 10 9 9 8 8 7 8 8 9 9 9 9 8 9 8 8 8 8 7 7 7 7 6 6 6 5 5 5 5 4 4 3 2 2 3 2 1 0 1 1 1 1
17 18 19 21 20 19 18 17 18 18 16 14 12 12 12 12 12 11 11 12 12 11 10 9 9 9 9 10 10 10 10 10 9 9 8 8 8 8 8 7 7 8 8 8 8 8 8 7 6 7 6 5 4 4 3 2 2 1 1 3 3 2 2
16 15 17 18 19 18 17 15 16 17 16 13 12 12 13 13 13 12 13 13 12 11 10 10 10 10 10 11 11 10 10 10 9 8 8 7 8 8 8 8 8 9 10 10 10 10 9 8 8 8 7 7 6 5 5 4 2 2 2 3 4 2 2
16 16 16 16 17 16 16 15 14 15 15 13 12 13 14 14 14 13 13 12 12 11 10 10 11 11 11 11 11 10 10 10 9 8 8 8 8 8 9 9 10 11 11 11 11 11 10 9 9 8 8 8 7 6 5 4 3 2 2 4 4 2 2
17 17 17 17 17 17 16 15 14 14 13 13 14 14 15 15 14 14 13 13 12 12 12 12 13 13 13 12 12 11 10 10 9 9 9 9 9 9 10 11 12 13 13 12 12 11 11 10 9 8 9 9 8 7 6 4 3 3 4 5 4 2 2
17 18 18 18 19 19 18 16 15 14 13 13 15 15 15 15 15 15 15 15 14 14 14 14 15 14 14 13 13 12 11 11 11 10 10 10 10 10 10 11 13 14 13 13 13 12 11 11 10 9 9 9 8 8 7 5 4 4 4 5 3 2 2
15 18 19 18 18 20 19 18 17 16 14 14 15 15 16 16 17 17 17 17 17 16 16 16 16 15 15 14 14 13 12 11 12 12 11 10 10 10 10 11 13 14 13 13 13 12 11 11 10 10 10 10 9 8 7 6 5 5 5 5 3 2 2
13 16 18 19 19 21 21 20 19 18 15 15 16 16 17 18 18 18 18 18 18 18 18 18 17 17 16 16 15 15 14 13 13 13 11 10 10 10 11 12 13 14 13 12 12 12 10 10 10 9 10 9 8 8 8 7 6 6 6 6 3 2 3
10 13 16 18 20 22 21 21 22 19 16 17 18 18 18 18 19 20 20 20 20 19 19 19 19 18 18 18 18 17 16 15 15 13 11 10 10 10 11 12 13 14 12 11 11 11 10 9 9 9 9 8 8 9 9 7 6 6 7 6 4 3 3
10 11 14 17 19 21 20 21 21 17 15 17 19 19 19 19 19 20 20 20 21 21 20 20 20 20 19 19 19 18 17 16 16 14 12 11 11 11 11 12 13 14 12 10 11 12 10 10 9 9 9 9 9 9 8 7 7 7 7 5 4 4 4
12 11 13 16 18 19 19 20 18 15 15 17 18 19 19 19 19 19 20 20 21 21 21 21 21 21 21 21 20 19 17 17 17 15 13 13 12 12 12 12 13 13 13 11 11 12 11 10 10 9 10 10 10 9 8 7 7 7 7 6 5 5 6
16 14 13 15 17 16 19 21 16 12 14 16 17 19 19 19 19 19 19 20 21 21 21 22 22 22 22 22 21 19 18 18 17 16 15 14 13 13 13 12 12 13 13 13 12 12 11 11 10 10 10 11 10 9 8 8 7 7 8 8 7 7 8
18 16 15 16 18 17 20 23 19 14 14 16 17 18 19 19 19 19 20 20 21 21 22 22 23 23 23 22 21 20 19 18 18 18 17 15 14 14 13 12 12 12 13 12 12 12 11 10 10 10 10 10 9 9 8 8 8 8 9 10 10 9 10
18 17 16 17 19 19 21 23 22 18 17 18 19 20 20 20 20 20 20 20 21 22 23 23 23 23 23 22 22 21 19 19 19 19 17 16 15 15 14 13 12 12 12 12 12 12 11 11 11 12 11 10 10 9 8 9 11 10 11 12 12 11 12
18 18 17 18 19 20 22 23 23 22 20 20 21 21 21 21 20 20 20 20 21 22 23 23 23 23 22 22 22 21 20 20 20 19 17 16 16 16 15 14 14 14 14 14 14 13 13 13 13 13 12 12 11 10 9 11 14 13 13 13 13 13 13
17 18 19 19 19 21 23 24 23 21 22 22 21 21 21 21 20 20 19 20 21 22 23 23 23 23 22 22 22 21 20 22 21 19 18 18 17 16 16 17 17 17 17 16 16 15 15 15 14 14 14 14 13 12 11 14 16 16 15 14 15 15 14
17 18 20 20 20 20 22 23 21 20 23 24 22 21 21 20 19 19 20 21 21 22 22 22 22 23 22 22 21 21 21 22 22 20 19 19 18 17 17 19 19 19 19 18 18 17 16 16 16 16 16 16 16 14 14 16 17 17 16 15 15 16 16
18 19 20 19 19 19 20 22 22 22 23 24 23 22 21 19 20 21 21 22 22 22 22 22 22 22 22 21 21 21 23 23 22 22 20 19 19 19 19 20 20 19 20 20 20 19 17 17 17 18 18 19 18 17 16 17 18 18 18 17 16 17 17
20 21 22 21 20 20 19 20 21 22 22 24 25 23 21 21 23 24 23 22 22 23 23 23 23 22 21 21 21 22 23 23 23 22 21 19 20 21 21 21 20 20 21 21 20 20 19 18 19 20 20 19 18 17 17 18 18 18 19 18 17 18 18
22 24 25 24 23 22 21 20 20 21 21 23 25 24 24 25 26 25 23 23 24 24 24 23 22 21 21 22 23 24 24 23 23 23 21 20 21 21 22 22 22 22 22 22 21 20 20 20 20 21 21 19 19 19 19 18 18 18 19 19 18 19 20
24 26 26 25 25 23 21 20 20 19 19 22 25 27 27 28 27 25 23 24 25 25 24 23 22 22 22 23 24 24 24 23 23 22 20 19 20 20 21 22 22 22 22 22 21 21 20 21 21 21 21 20 20 21 20 19 18 19 19 20 20 21 22
25 27 27 26 25 23 20 20 19 19 19 22 26 29 29 27 26 25 24 25 26 25 24 24 22 21 22 22 23 23 22 22 21 21 19 18 18 19 20 22 22 23 23 22 21 21 21 22 22 22 22 21 21 21 21 21 20 20 21 22 22 23 23
26 28 29 28 27 24 23 21 20 20 21 23 26 29 28 26 26 26 26 25 24 24 25 24 22 21 21 21 21 21 20 20 20 20 19 18 18 19 20 21 23 24 24 23 23 22 22 23 23 23 22 22 21 21 22 23 23 23 23 24 24 24 25
27 29 30 29 28 25 24 21 20 21 21 23 25 27 27 28 29 29 27 24 23 24 25 25 23 22 22 21 21 21 21 20 20 20 19 19 20 21 21 22 23 23 23 23 22 23 23 23 23 23 23 23 22 22 23 24 25 26 26 26 26 26 27
29 30 29 29 28 26 24 21 20 20 20 21 23 26 28 29 30 29 26 23 23 24 25 25 25 24 24 23 23 23 23 23 23 22 22 22 23 24 24 24 22 21 21 21 21 22 22 23 23 23 24 24 24 24 25 26 27 27 28 28 28 28 28
27 28 27 28 27 26 24 22 21 22 22 21 23 25 27 28 28 26 24 23 24 25 26 26 26 26 26 26 26 26 27 26 25 25 26 26 25 25 26 25 22 21 21 21 21 21 22 23 24 24 24 25 26 27 27 27 28 28 29 29 29 29 30
24 24 24 27 27 24 23 23 23 24 25 24 24 25 24 24 25 24 23 24 25 25 26 26 27 27 27 27 27 28 28 28 27 28 28 27 25 25 26 25 24 23 22 21 21 22 23 23 24 24 25 26 27 28 28 29 29 29 29 30 31 31 32
23 23 24 26 28 25 22 22 23 24 26 26 24 23 23 23 24 24 25 25 26 25 25 25 26 26 26 27 27 28 28 28 28 28 29 29 28 27 27 26 25 24 23 22 22 22 23 24 25 25 26 27 27 28 29 30 31 31 31 32 33 33 34
22 23 25 28 27 24 22 23 24 24 26 27 24 22 22 23 24 25 25 26 26 26 25 25 25 26 26 26 27 28 28 28 28 29 31 32 31 29 27 26 25 24 24 24 24 24 25 25 26 26 27 28 29 30 30 31 32 33 33 34 34 35 35
25 25 27 28 27 25 24 25 25 26 27 26 24 23 23 23 24 24 25 26 27 28 28 28 27 28 28 28 29 29 30 30 30 31 32 31 29 28 26 26 26 26 26 26 27 28 28 28 29 29 30 30 31 31 31 32 32 33 34 34 35 36 37
28 28 28 28 27 26 25 25 27 29 29 27 25 23 23 23 24 25 25 27 29 30 31 31 30 30 31 31 30 30 30 30 29 29 29 28 26 26 25 25 26 27 28 29 30 30 31 31 31 31 31 31 31 31 32 32 33 34 35 36 37 38 39
28 28 28 28 26 26 26 26 28 32 34 32 28 24 24 25 26 27 28 29 30 31 31 32 31 32 31 30 28 27 26 26 27 27 27 27 26 26 26 26 27 29 30 30 31 32 32 32 32 32 32 32 32 33 34 35 36 37 38 39 41 42 44
29 30 29 28 27 28 29 28 29 32 35 35 31 27 27 29 30 31 32 33 33 33 33 33 32 31 29 27 26 25 25 26 26 27 27 27 27 27 27 28 30 31 31 32 33 33 33 33 33 34 34 34 35 36 36 37 39 40 42 43 45 46 47
25 29 30 29 29 30 31 31 32 34 35 35 33 32 33 34 34 35 36 35 33 30 30 30 29 27 26 26 26 26 26 26 27 28 28 29 29 30 30 31 32 33 33 34 35 35 35 36 36 36 36 37 37 38 39 41 42 44 45 46 47 47 48
19 23 27 30 32 34 35 35 35 37 37 36 35 35 35 34 33 34 34 33 30 26 25 24 24 24 24 25 27 27 28 28 29 30 31 32 33 33 34 34 34 35 35 36 36 37 37 38 38 38 38 39 40 42 43 44 45 45 46 47 48 49 50
16 17 20 23 26 31 35 37 37 37 37 37 36 36 36 34 32 31 31 29 26 24 24 24 24 24 24 26 28 29 29 31 33 34 34 35 36 36 37 37 37 37 38 38 38 38 38 38 38 39 41 42 44 45 46 46 46 46 47 49 51 52 54

ECMWFFLT1_500_spd_060.txt.gz
Wind_Speed
18 20 19 19 21 21 21 21 18 18 18 19 19 19 19 20 21 21 20 20 20 19 19 18 17 16 16 15 14 13 12 12 12 11 11 10 10 11 10 8 8 7 7 7 8 8 7 7 7 7 7 7 7 7 7 7 7 7 7 7 6 6 5
14 16 16 17 20 21 21 20 18 18 19 19 19 20 20 20 20 19 19 20 20 19 19 19 18 18 17 16 15 14 14 13 13 12 12 11 11 11 10 9 8 8 8 8 8 8 8 8 8 8 8 8 8 8 9 9 8 8 8 7 7 6 6
15 14 13 14 17 20 20 18 17 19 19 20 20 20 21 20 19 18 19 20 20 20 20 19 19 18 17 17 16 15 14 14 15 14 13 12 12 11 10 10 9 9 9 9 9 9 9 9 9 9 9 10 10 10 10 10 10 10 9 8 8 7 7
16 15 13 12 14 17 19 17 17 18 19 20 21 21 21 20 19 19 20 20 20 20 20 20 20 19 18 17 16 15 15 15 16 15 14 13 12 12 11 11 10 9 10 10 10 11 10 10 10 10 10 11 11 10 11 12 11 10 9 8 9 8 8
17 15 14 13 13 14 16 16 15 17 18 19 21 22 22 21 21 20 20 20 19 20 20 20 20 18 17 17 16 16 16 16 16 15 15 14 12 12 12 11 10 10 10 11 11 12 12 12 11 11 11 12 11 11 12 13 12 11 10 9 10 10 9
18 16 16 15 14 13 13 14 15 16 18 19 20 22 23 22 22 21 20 20 20 20 20 20 20 19 18 17 17 18 17 17 15 15 14 14 13 13 12 11 11 11 12 13 13 13 13 13 13 12 12 13 13 12 13 13 13 12 11 11 11 11 10
16 15 18 18 16 14 13 13 15 17 18 19 21 22 23 22 21 21 21 21 21 21 21 21 20 19 19 19 19 18 17 16 15 15 15 14 14 13 12 12 12 12 13 14 14 14 14 14 13 13 13 14 14 13 14 13 14 14 12 12 12 11 10
17 13 17 19 18 16 14 15 17 18 19 20 20 22 23 22 21 21 22 22 22 22 22 22 21 20 21 20 20 19 18 17 16 16 15 15 15 14 13 13 13 13 14 14 14 14 15 14 14 13 14 14 14 14 14 14 15 14 12 11 11 11 10
21 13 13 16 19 18 16 18 20 21 21 20 20 22 22 22 22 22 22 23 23 23 23 22 22 22 22 21 20 20 18 17 16 16 16 15 15 15 14 14 14 14 14 13 13 14 14 14 14 13 13 14 14 13 14 15 16 15 13 11 11 10 9
22 15 11 13 17 19 19 19 22 23 22 21 22 23 23 23 22 22 22 23 23 23 23 23 23 23 23 22 21 20 19 18 17 16 16 16 16 16 16 16 15 15 14 13 13 13 14 13 13 13 13 14 14 14 15 16 17 16 13 12 12 11 9
22 17 12 11 15 19 20 20 21 22 22 23 23 24 23 22 22 22 23 23 23 24 24 24 25 25 24 23 21 20 20 19 17 16 17 17 17 17 17 17 15 14 15 14 12 12 13 13 13 13 13 14 15 15 16 17 17 16 14 13 13 12 11
22 20 16 11 11 17 20 21 23 22 22 24 26 25 23 22 23 23 24 24 25 25 26 26 26 26 25 23 22 20 20 19 17 16 17 18 18 18 18 17 15 14 15 15 13 13 13 13 13 13 14 15 16 16 16 17 17 17 15 13 12 13 12
23 21 18 11 9 15 21 23 25 25 23 25 28 27 24 23 24 24 24 25 25 26 27 27 27 26 25 23 22 21 20 19 17 17 18 18 19 19 18 17 16 14 15 16 15 14 14 13 13 14 15 16 16 16 16 16 16 17 15 12 12 13 12
23 23 21 16 13 18 23 23 24 25 25 26 28 26 24 24 23 24 24 25 26 27 27 27 26 25 24 23 22 21 21 19 18 18 18 19 19 19 19 18 17 16 16 16 16 15 15 14 14 15 16 16 16 16 16 16 17 17 16 13 13 14 13
22 23 24 22 20 20 23 23 23 25 26 28 27 25 23 23 23 24 25 26 26 27 27 26 25 24 23 22 21 21 21 20 19 19 19 19 19 20 20 19 18 17 16 16 16 15 15 14 14 15 16 16 16 16 17 17 18 18 17 15 14 14 14
20 21 23 24 21 19 21 23 24 26 27 27 24 23 22 22 23 24 25 26 27 26 26 24 23 23 22 22 21 21 21 20 20 19 19 19 20 21 21 20 19 18 17 17 16 15 15 14 14 15 16 16 16 17 18 19 19 19 19 17 15 15 15
18 20 22 24 21 20 22 25 26 27 29 27 21 20 22 22 22 24 25 26 27 26 24 23 22 22 22 22 21 21 22 21 20 19 20 21 22 23 22 21 20 19 19 18 17 16 15 15 15 16 17 17 17 18 19 20 20 20 20 19 17 16 16
19 20 22 23 21 21 23 26 28 30 33 32 25 22 23 23 23 24 25 26 26 24 23 22 23 23 22 22 22 22 22 21 20 20 21 22 23 23 23 22 21 21 20 19 18 18 17 16 16 16 17 17 18 19 20 21 21 21 21 21 20 18 18
18 19 22 23 23 23 24 26 30 32 34 34 31 27 26 26 25 25 26 25 24 23 22 22 23 23 22 22 22 22 22 21 20 21 22 23 24 24 24 23 23 22 21 21 20 20 19 18 18 17 17 18 19 20 20 21 22 22 22 22 22 21 20
17 19 22 23 25 26 25 27 32 33 32 32 32 30 28 27 26 25 25 24 23 23 22 22 22 22 22 22 21 21 22 21 21 22 23 24 25 25 25 24 24 23 22 22 22 21 20 20 19 19 19 20 21 20 20 21 22 22 23 22 22 22 21
19 20 22 23 26 27 26 27 30 32 33 32 30 28 26 26 27 25 24 23 23 24 23 22 21 21 21 21 21 21 21 21 22 23 24 25 26 26 25 24 24 24 23 23 23 22 22 21 21 21 20 21 21 21 21 22 22 22 22 22 22 22 22
21 22 23 24 25 26 27 28 28 29 31 30 29 29 28 27 27 27 24 24 25 27 26 23 22 21 22 22 22 21 21 21 23 23 24 26 27 26 25 25 25 25 24 24 24 23 23 22 22 22 22 22 22 22 22 23 23 22 22 22 23 23 23
23 23 24 25 25 26 28 30 30 29 29 29 30 31 29 28 28 28 26 26 28 30 28 25 23 23 23 23 22 22 22 22 23 24 25 26 27 26 26 25 25 24 24 24 23 23 23 23 24 24 24 24 24 24 24 24 24 24 24 24 24 24 24
24 25 25 26 27 27 29 32 33 31 28 27 27 27 27 29 29 28 28 29 31 31 29 27 25 24 24 24 24 23 23 24 24 25 26 27 27 27 26 25 24 22 22 22 22 22 22 24 26 27 26 27 26 26 26 26 26 26 26 26 26 25 26
26 26 26 27 28 27 28 32 36 35 29 25 24 24 25 27 27 28 31 33 33 32 30 28 25 24 25 25 25 25 24 24 24 24 25 26 26 25 25 23 22 22 21 21 21 22 22 22 24 26 26 28 28 28 27 27 26 26 26 26 26 27 27
24 25 26 28 28 27 28 32 37 38 32 24 23 24 25 26 27 30 33 35 34 32 30 28 25 25 26 26 26 26 25 23 23 23 24 25 25 24 24 24 23 22 21 22 22 23 24 25 26 27 27 27 28 28 28 27 27 26 26 27 27 28 29
22 23 24 27 29 29 31 33 36 39 35 26 23 25 25 27 30 32 34 35 34 33 31 29 27 26 27 27 27 27 25 23 22 23 24 25 26 25 25 25 24 23 23 24 24 24 26 27 29 30 30 29 28 28 27 27 28 29 28 28 29 29 30
20 21 24 28 30 30 33 34 36 40 37 28 25 25 25 26 29 31 33 34 34 35 34 31 29 28 28 28 29 28 26 24 24 24 25 26 27 28 28 27 26 26 26 26 26 27 28 29 29 31 31 31 30 29 28 28 30 30 30 30 31 31 32
20 21 25 30 30 30 33 34 37 41 36 27 26 26 25 26 28 28 30 32 34 37 35 32 31 30 29 29 29 29 28 26 26 27 27 27 28 30 31 30 28 28 28 28 29 30 31 31 31 31 32 31 31 30 30 30 30 30 30 31 31 32 32
20 21 23 26 27 29 31 33 37 40 34 27 26 27 27 28 30 30 30 32 35 36 34 32 31 31 30 29 29 29 29 28 28 28 28 28 28 29 30 31 31 30 31 31 32 33 34 34 34 33 32 31 30 29 29 30 30 30 30 30 31 32 33
22 22 22 23 25 27 30 32 37 37 31 26 27 29 30 31 32 31 31 31 33 33 32 31 32 31 30 29 29 29 28 28 29 29 29 29 29 29 29 31 32 33 34 35 34 34 35 36 35 33 32 31 30 29 29 29 30 30 30 31 32 33 34
25 24 24 24 24 26 30 34 38 36 30 27 29 32 34 34 33 31 31 30 31 32 32 32 32 31 30 29 29 29 29 28 29 29 29 29 30 30 31 32 33 34 35 35 33 33 34 35 34 33 32 32 31 31 30 30 31 31 32 33 34 34 35
22 23 25 25 25 27 30 34 37 35 32 31 32 34 35 36 34 30 29 29 31 31 31 31 31 31 31 31 31 31 31 31 31 30 31 31 31 31 32 33 32 32 33 32 31 32 33 34 33 33 32 32 32 32 33 33 33 34 34 35 35 36 37
16 21 26 28 29 31 33 36 37 36 35 33 32 33 35 35 34 31 29 28 29 30 30 30 30 30 30 31 33 34 34 34 33 33 33 32 31 31 32 31 30 30 30 31 31 32 33 33 34 34 34 34 34 35 36 36 36 36 36 37 37 38 38
18 24 27 30 32 33 35 37 38 37 36 34 33 34 37 37 37 34 30 28 29 29 30 30 30 30 30 32 34 35 35 35 35 35 34 32 31 30 30 30 30 30 30 31 31 32 33 34 35 35 36 37 37 38 38 38 38 38 38 38 39 39 40
19 23 26 29 31 32 34 37 38 37 36 35 34 35 37 41 42 37 31 29 29 29 30 31 31 32 34 35 36 36 37 37 37 35 33 31 30 29 30 30 30 30 31 31 32 34 35 36 37 37 38 38 39 39 40 40 40 40 40 40 41 42 43
20 21 21 23 25 27 30 34 37 36 34 34 35 34 34 38 41 39 35 33 33 33 33 33 34 36 37 37 37 38 38 37 35 33 30 29 30 30 31 31 31 31 32 33 35 36 37 38 39 40 41 42 42 42 42 42 42 42 43 43 44 45 46

ECMWFFLT1_500_spd_063.txt.gz
Wind_Speed
22 19 15 16 17 17 18 22 24 25 24 23 24 25 25 24 24 23 22 23 23 23 23 22 22 22 22 21 21 20 19 18 17 17 17 16 15 14 13 12 11 10 10 11 11 12 12 12 12 11 11 11 11 11 11 10 8 8 8 9 10 9 8
21 19 15 14 15 16 18 21 24 26 25 25 26 27 26 24 24 24 23 23 24 24 23 23 23 23 23 22 21 20 19 18 17 18 18 17 16 15 14 12 11 11 12 12 12 12 12 12 12 12 13 12 12 13 12 11 10 10 10 10 10 9 9
21 20 15 13 14 16 17 20 24 26 28 28 27 27 26 25 24 24 24 23 24 25 23 23 23 24 24 23 21 20 19 18 18 19 19 18 17 16 15 13 13 13 13 12 13 13 13 12 12 12 13 13 14 14 13 12 12 12 11 11 11 11 11
21 22 19 15 15 15 17 20 23 26 28 28 26 25 24 24 23 24 24 24 25 25 23 23 24 25 24 23 22 21 20 20 20 20 20 19 19 17 16 15 15 14 14 13 14 14 13 13 13 13 13 14 15 15 14 14 14 13 13 13 13 13 13
20 22 21 18 16 16 17 18 21 24 25 26 26 26 25 24 23 24 24 24 24 24 24 25 25 25 24 23 22 21 21 21 22 22 21 21 20 18 17 16 16 15 14 14 14 14 14 15 14 14 15 15 16 16 16 16 15 15 15 15 15 15 14
19 20 21 19 18 17 18 19 20 23 24 25 26 28 28 27 25 25 25 25 25 25 25 26 25 24 24 24 23 22 22 22 23 22 21 21 20 19 18 17 17 16 15 14 14 15 15 15 15 15 16 16 17 18 19 18 17 17 17 18 17 16 15
17 18 21 22 21 20 19 20 21 24 25 25 26 28 28 28 27 26 25 25 26 25 25 25 25 25 24 24 24 23 24 24 23 22 21 20 20 19 19 18 17 16 15 15 15 16 16 16 16 16 17 17 18 20 20 20 19 19 19 19 18 17 16
15 17 21 23 23 20 20 21 21 23 24 24 25 26 27 28 28 27 26 27 27 26 26 26 25 25 25 24 25 25 25 24 23 22 21 20 20 20 20 19 18 17 17 17 17 17 17 16 16 17 18 19 19 20 21 21 20 20 19 18 18 17 15
16 17 21 24 22 20 21 23 23 23 24 24 24 25 28 28 28 27 27 28 27 26 26 26 26 26 26 26 26 26 26 25 23 22 21 21 21 21 21 20 20 19 18 18 18 17 16 16 17 18 19 19 19 20 21 22 22 21 19 18 18 17 16
20 19 22 24 24 21 21 24 26 26 25 25 25 26 29 29 28 27 27 28 27 27 27 27 27 26 27 27 27 27 26 25 24 23 22 22 22 22 22 21 21 20 19 19 19 17 16 16 17 18 18 18 19 20 22 23 22 21 19 18 18 18 16
24 22 23 26 26 23 22 23 27 28 28 28 28 29 29 29 27 26 27 27 27 27 27 27 27 27 28 28 28 27 26 25 24 24 23 23 23 22 22 22 21 21 20 20 19 18 16 16 16 18 18 18 19 21 22 23 22 20 19 19 19 18 16
24 22 23 27 29 25 21 22 26 29 31 32 31 30 29 27 26 26 27 28 28 27 27 27 28 28 29 28 28 27 26 26 26 25 24 24 23 23 22 22 22 21 20 20 19 18 16 15 16 16 17 19 20 21 22 23 22 20 19 19 18 18 17
23 23 24 28 28 23 20 22 25 29 33 32 30 30 29 27 27 28 29 29 29 27 27 28 28 29 29 29 28 27 26 26 27 26 25 24 23 23 22 22 22 21 21 20 20 19 16 15 15 16 17 18 20 21 22 23 22 20 19 19 19 18 17
21 24 27 27 26 24 23 23 25 29 32 30 29 29 28 27 28 29 30 30 28 27 27 28 28 29 29 28 28 27 26 26 27 26 25 24 23 23 22 21 22 21 21 21 20 19 17 15 15 16 18 19 20 21 23 23 21 21 21 20 19 19 18
20 26 28 25 23 25 25 23 23 27 30 30 30 29 28 28 29 31 31 31 29 28 28 28 28 28 28 28 27 27 26 26 26 26 26 24 23 23 21 22 22 23 22 22 21 19 17 16 16 17 19 21 22 22 23 23 22 22 22 21 21 20 20
21 26 27 22 22 25 25 23 24 27 30 31 31 31 29 29 31 32 32 31 30 29 30 29 28 28 27 27 26 26 26 26 26 26 26 24 23 22 22 22 23 23 23 22 21 19 17 16 17 18 21 22 23 23 23 23 23 23 23 22 21 20 20
22 26 25 20 21 24 23 24 25 26 29 31 32 32 31 31 32 33 33 31 30 30 29 28 26 26 26 26 25 25 26 26 26 26 25 23 22 22 23 23 23 23 23 23 21 19 18 17 17 18 20 22 23 23 24 24 24 24 23 23 21 20 20
23 24 23 21 22 24 24 25 26 25 27 29 31 33 32 33 33 33 32 30 29 29 27 26 25 25 25 25 25 26 26 26 25 24 24 23 23 23 23 23 23 24 24 24 22 20 19 18 18 18 19 21 23 23 24 24 25 24 23 23 22 21 21
22 22 21 22 26 27 24 25 26 26 26 28 31 33 34 35 34 32 30 29 29 28 26 26 25 25 25 25 25 26 26 24 24 23 24 24 23 23 23 23 23 24 25 24 23 21 20 19 19 19 19 21 22 23 24 24 25 25 24 24 23 24 24
22 20 20 23 27 27 25 25 27 27 27 29 30 31 35 38 34 31 29 28 27 27 26 26 26 25 25 24 25 25 24 23 23 24 24 24 23 23 23 23 24 24 25 25 24 23 21 21 20 20 20 22 23 23 24 25 26 26 25 25 26 26 26
22 21 22 24 26 26 26 26 27 28 29 29 28 28 34 38 35 31 28 25 25 25 26 27 26 25 24 23 23 24 23 23 23 24 24 24 24 24 24 24 24 24 25 25 24 24 23 22 22 22 22 23 25 25 26 27 28 27 27 27 28 28 27
23 23 24 25 26 27 27 26 26 28 29 29 29 30 33 36 36 33 27 25 25 26 27 27 27 26 24 23 23 23 23 23 24 24 25 25 25 25 24 24 24 24 25 25 25 25 24 25 24 24 24 25 26 27 29 30 29 29 28 28 29 28 28
24 25 25 26 27 28 28 27 28 29 29 30 32 32 34 36 38 36 31 28 27 27 28 29 28 27 25 24 23 22 23 23 24 25 25 25 25 24 24 24 25 25 25 26 26 26 26 27 27 26 26 27 28 28 29 29 29 29 29 29 29 29 29
25 25 25 27 28 29 28 28 29 29 28 31 33 33 33 36 39 38 34 30 29 28 29 30 30 28 26 25 24 22 22 23 24 24 24 24 25 24 24 25 25 26 26 26 27 27 27 29 29 29 28 29 29 29 28 27 28 29 29 30 30 31 31
27 25 26 28 28 29 29 28 28 27 28 31 34 33 31 33 36 36 33 31 30 30 30 31 31 30 27 26 25 23 23 24 25 24 24 24 25 25 25 25 26 27 27 27 27 28 28 29 30 30 29 29 30 30 29 30 30 31 31 31 32 33 33
28 27 27 28 28 28 29 29 28 27 29 32 34 33 31 31 32 32 32 32 31 31 32 33 33 32 30 28 26 26 25 26 26 25 25 25 26 26 27 26 27 27 28 28 28 28 28 28 29 29 29 29 30 30 30 31 32 32 32 33 33 34 35
29 28 27 27 28 28 28 29 29 28 31 33 33 33 33 33 32 32 32 32 31 30 33 35 35 34 32 29 28 28 27 27 27 26 27 27 27 27 27 27 27 27 27 28 28 27 27 27 28 29 29 29 30 30 30 30 31 31 32 33 35 36 37
28 28 26 27 28 28 28 28 28 29 32 33 33 35 37 37 35 33 32 31 30 30 31 34 36 35 33 30 30 30 29 28 28 28 28 28 27 27 27 26 26 26 27 27 27 28 28 28 29 29 30 30 30 31 31 31 32 32 32 33 35 36 36
28 27 27 28 28 27 27 28 29 31 33 33 33 35 40 40 36 33 32 31 30 30 30 33 36 37 35 32 31 31 30 29 30 30 29 28 28 27 27 26 26 27 28 28 29 29 30 30 30 31 31 31 32 32 32 33 33 33 33 34 35 35 35
26 27 27 28 26 25 26 29 34 37 36 34 35 37 42 44 38 33 32 31 30 31 32 33 35 36 37 36 34 33 32 31 31 31 30 30 29 29 28 28 28 29 30 30 31 32 32 33 33 32 32 32 32 33 34 34 35 35 35 36 37 37 37
26 27 28 30 29 27 26 27 32 35 37 37 38 39 42 46 43 35 31 30 30 31 32 34 35 34 35 38 38 36 35 34 32 31 31 31 30 30 31 31 31 31 32 33 34 34 34 34 34 34 34 34 34 35 35 36 36 37 36 37 38 38 39
26 27 28 30 28 26 25 24 24 27 33 39 42 42 43 47 46 39 32 29 31 33 35 37 36 34 34 36 39 39 39 36 34 33 32 32 32 32 33 33 33 33 33 33 33 34 34 34 34 34 35 35 36 36 36 36 38 38 38 39 39 39 40
25 26 26 26 23 22 22 24 24 25 30 35 39 43 46 48 46 39 31 28 29 33 36 38 38 37 37 37 38 40 40 38 35 34 33 33 33 33 33 33 34 34 34 34 34 34 34 34 34 35 36 35 35 35 36 37 38 38 39 39 40 40 40
24 24 24 24 24 24 24 26 26 26 28 31 34 40 46 46 42 35 28 26 27 31 35 38 38 38 39 39 39 41 40 37 35 34 34 34 34 33 32 32 33 34 34 35 35 35 35 36 36 35 34 34 33 34 35 35 36 37 38 39 40 41 42
24 24 23 21 23 24 26 28 29 29 31 34 36 40 45 45 41 35 30 29 30 31 34 38 39 38 39 40 40 40 38 35 35 35 35 35 35 34 33 33 34 34 34 35 36 36 36 36 36 34 33 33 33 34 34 35 36 37 39 40 40 41 42
23 23 23 21 21 25 29 33 33 32 33 36 39 41 42 44 43 38 33 32 32 32 35 39 40 39 39 39 39 38 36 35 35 35 36 36 36 36 36 35 35 35 36 37 37 37 36 35 34 33 33 33 33 34 35 37 38 39 39 39 41 42 43
23 21 22 21 22 28 33 34 31 26 26 31 38 40 40 41 40 37 34 34 33 33 37 41 41 39 38 37 36 35 35 35 35 35 36 35 35 35 36 36 36 37 38 39 39 37 35 34 34 34 33 34 34 36 37 39 40 40 41 42 43 44 45

ECMWFFLT1_500_spd_066.txt.gz
Wind_Speed
22 23 23 22 22 20 19 17 16 18 22 22 24 26 25 26 26 24 24 25 24 23 22 23 23 23 23 23 23 22 21 21 22 21 20 20 20 19 17 16 15 15 15 15 15 15 15 14 14 13 13 13 12 12 11 10 10 10 11 11 10 9 8
23 23 22 20 20 18 18 17 16 18 20 21 22 23 23 24 25 23 23 24 24 23 23 24 23 22 24 24 24 23 22 22 22 21 21 21 21 19 18 17 16 16 15 15 15 15 15 15 15 14 14 14 13 13 12 11 11 11 11 11 11 10 10
24 23 21 20 19 17 17 17 16 16 18 20 22 23 24 25 26 25 25 25 25 24 24 23 22 23 25 25 24 24 23 22 22 22 22 22 21 21 19 18 16 16 15 15 15 16 16 16 16 15 15 15 15 14 14 13 13 13 12 13 12 12 12
24 22 21 21 18 16 16 16 15 16 18 21 22 23 25 26 26 27 27 27 26 26 24 22 22 24 25 25 25 24 23 23 22 22 22 22 22 22 20 18 16 16 16 16 16 16 17 16 16 16 16 16 16 16 15 14 14 14 14 15 14 14 13
23 21 21 21 19 17 17 15 15 17 20 22 22 23 25 25 27 27 27 28 28 26 24 22 23 25 26 25 25 24 24 23 23 23 23 23 23 22 20 18 17 17 17 17 17 17 17 17 18 18 18 17 17 17 17 16 16 16 16 16 16 15 15
23 22 21 21 20 19 18 17 16 16 19 21 21 24 26 27 28 28 28 30 30 27 25 23 23 25 27 26 25 25 24 24 24 23 23 23 22 22 20 18 18 18 18 18 18 18 18 18 18 18 19 19 18 19 19 18 17 17 17 17 17 16 16
24 23 22 22 22 21 19 20 19 18 19 20 21 24 28 29 31 30 30 31 31 29 28 27 26 26 27 26 26 25 25 24 24 24 23 23 22 21 20 19 19 18 18 18 19 19 19 19 19 19 20 20 21 21 21 20 19 18 19 19 18 17 17
25 25 25 23 22 22 21 22 22 21 22 22 23 26 29 31 32 32 32 33 32 31 30 29 27 26 26 26 26 26 25 24 24 24 24 23 22 21 20 20 19 19 19 19 20 20 20 20 20 20 21 22 23 23 23 22 20 19 19 20 19 19 19
25 25 24 24 23 23 23 23 22 22 24 25 26 28 30 31 33 33 34 35 33 31 31 29 27 25 26 27 27 26 25 25 25 25 24 23 22 21 20 20 20 20 20 20 21 21 21 21 21 22 23 23 24 24 23 23 21 20 20 20 20 20 20
26 26 25 25 25 25 24 22 22 23 24 26 27 28 30 31 32 32 34 35 34 31 30 29 27 26 26 27 28 27 26 26 26 25 24 23 22 21 20 20 20 20 21 21 22 22 22 22 22 22 23 24 24 24 24 24 22 21 20 20 21 22 21
28 30 28 26 26 26 25 24 24 24 26 27 28 28 29 29 29 30 32 35 34 31 29 29 29 27 27 27 28 27 27 27 27 26 25 24 22 21 21 20 20 21 22 22 23 23 23 22 22 23 23 23 24 24 24 24 23 22 20 20 21 22 22
28 30 29 28 27 27 26 26 26 26 27 27 27 29 30 30 29 29 31 33 32 30 29 30 29 27 27 28 28 28 28 28 27 27 25 24 23 22 22 21 21 22 22 23 23 24 24 23 23 23 23 23 23 24 24 24 23 21 20 20 21 22 22
27 28 28 28 28 28 27 27 27 26 26 25 25 29 31 31 29 30 30 31 29 29 31 31 29 27 27 28 29 29 29 29 28 27 26 25 24 24 24 23 23 23 23 24 24 24 24 23 23 22 22 23 23 23 24 24 22 22 21 20 21 22 22
26 27 28 28 28 28 27 28 29 28 26 24 24 27 30 31 31 31 31 31 28 28 31 32 30 29 29 29 30 30 30 30 29 28 27 26 26 26 25 24 24 24 24 25 25 25 24 23 23 22 22 23 23 23 23 23 22 21 21 21 21 22 22
25 26 26 27 28 28 28 28 29 30 28 25 24 25 27 30 32 32 32 33 32 30 31 33 32 31 31 30 31 31 31 31 30 29 28 27 27 27 26 25 25 25 24 25 25 25 24 24 24 23 22 23 23 23 23 22 21 21 22 22 22 21 21
25 25 25 25 26 27 28 27 27 29 29 27 26 26 27 30 33 33 33 35 35 33 33 34 33 33 32 31 31 32 32 31 30 29 29 28 27 27 26 26 26 25 25 25 25 25 24 24 24 23 22 22 23 24 23 22 21 21 22 23 23 22 21
23 24 24 24 24 25 26 26 26 27 28 28 27 27 27 28 31 33 33 34 35 34 33 34 34 33 32 31 31 32 31 31 30 30 29 28 27 27 27 27 27 26 26 25 25 25 25 24 24 24 23 23 23 23 23 23 22 22 22 24 24 23 22
19 20 21 21 22 23 24 25 26 26 27 29 28 27 26 26 28 31 32 33 36 35 33 33 34 33 31 31 31 31 31 31 30 30 29 28 27 27 27 27 27 27 26 25 25 25 25 25 25 24 23 23 23 23 23 23 23 22 23 24 24 23 23
15 17 19 20 21 23 24 25 25 25 25 26 28 29 27 25 26 30 32 33 35 35 33 32 33 32 30 30 30 30 30 30 30 29 28 27 27 27 27 27 27 26 26 26 25 25 25 25 25 24 24 24 23 22 23 23 23 23 23 24 24 24 24
13 15 18 20 21 22 23 25 26 25 24 24 25 27 27 26 25 27 31 32 34 35 34 33 33 32 30 30 30 29 29 29 29 28 28 28 27 27 27 27 26 26 26 26 25 24 25 25 25 25 25 25 23 22 23 23 23 23 23 23 23 24 25
16 17 18 19 20 20 21 23 26 26 25 25 25 25 26 28 28 27 28 30 32 34 35 34 32 31 30 30 30 29 28 28 28 28 29 29 27 27 27 27 27 27 27 26 25 25 25 26 27 27 26 25 24 24 24 25 24 24 24 24 24 25 26
18 19 20 21 21 21 21 23 26 27 26 26 26 26 27 29 30 29 28 29 31 35 36 34 33 32 30 30 30 29 29 28 28 29 29 29 28 27 28 27 27 27 27 27 26 26 26 27 27 26 26 26 26 25 25 26 26 26 25 24 24 25 26
19 19 20 21 22 22 22 24 26 27 27 27 26 27 28 29 30 30 29 29 31 35 36 35 33 32 29 29 29 29 29 28 28 28 28 28 28 28 28 28 27 27 27 27 27 27 27 28 27 26 26 26 27 26 26 27 28 28 27 26 25 26 28
20 20 20 21 22 22 23 24 25 27 28 27 27 28 29 29 29 29 30 29 30 33 36 36 34 31 28 27 28 29 29 28 27 27 27 27 28 27 27 27 27 27 27 28 28 28 28 28 28 27 27 27 28 28 27 28 28 29 29 27 24 26 30
22 21 22 22 23 23 24 25 25 26 28 28 27 28 29 30 29 29 30 30 29 31 34 36 35 30 27 27 27 28 29 28 27 27 26 26 27 27 27 27 27 28 28 29 29 29 29 29 29 29 29 29 29 29 29 30 30 30 31 29 26 28 33
23 23 23 24 24 24 25 26 26 27 28 28 27 28 29 30 29 29 30 31 30 31 33 36 37 33 28 27 28 29 30 29 28 28 27 26 26 26 27 28 28 28 29 29 30 29 29 30 30 30 30 29 30 30 31 31 32 31 31 31 30 32 36
23 24 24 24 25 26 26 27 26 26 27 28 29 29 30 29 29 30 30 30 31 32 32 35 38 37 32 29 30 31 31 30 29 29 28 26 26 26 27 28 29 29 29 30 30 30 30 30 31 31 31 30 30 31 31 32 32 32 31 31 32 33 35
24 24 24 24 25 26 27 27 27 27 28 29 30 31 31 30 30 30 30 30 32 33 33 35 39 39 36 34 34 34 33 32 30 30 29 28 27 27 28 29 29 29 29 30 30 31 31 31 31 31 31 31 30 31 31 30 30 31 31 31 32 33 35
25 25 25 24 24 26 27 27 27 28 30 31 31 31 32 31 31 32 32 31 32 33 34 35 37 38 37 35 36 37 36 34 32 31 31 31 30 30 30 30 30 30 30 31 31 31 31 31 31 31 31 31 31 31 30 30 30 31 32 32 33 34 35
25 25 25 25 25 26 26 27 28 29 30 31 30 31 32 32 33 33 33 32 33 34 35 35 35 36 35 35 36 38 38 37 35 33 33 33 33 32 32 32 32 32 32 31 31 31 30 30 30 30 31 31 31 31 31 30 31 31 32 34 35 35 35
25 26 26 26 26 26 26 27 28 29 30 30 29 31 34 34 34 34 33 32 35 37 38 37 35 34 34 34 35 36 38 39 38 36 35 35 36 35 35 34 33 33 34 33 32 31 31 30 30 31 31 32 32 32 32 32 32 31 32 33 34 35 35
26 25 26 27 27 26 25 26 28 29 29 29 30 33 37 38 36 34 33 34 37 39 40 39 36 34 33 33 33 34 36 37 38 38 38 38 38 37 37 36 35 35 35 35 34 33 32 32 32 33 33 34 35 35 35 35 35 35 36 37 38 38 39
27 26 26 27 28 28 26 25 25 26 29 32 33 33 34 36 38 37 35 37 39 40 39 38 35 34 34 33 33 33 34 36 38 39 39 40 40 38 37 37 37 37 36 36 36 35 35 34 35 35 35 36 36 37 36 36 37 37 38 39 40 41 41
29 27 26 26 27 28 26 24 23 24 28 33 33 30 28 32 37 38 37 39 41 40 38 35 33 33 32 32 32 33 35 37 39 38 38 38 39 39 38 39 39 38 38 38 37 36 36 36 36 36 36 37 37 37 38 37 37 37 38 39 41 43 43
32 30 28 26 27 26 25 24 23 23 25 32 35 32 28 28 34 37 37 41 44 43 37 32 29 28 29 30 32 34 36 38 39 40 39 39 39 40 40 40 40 40 40 39 38 37 37 37 37 37 37 37 38 38 38 38 38 39 40 42 43 44 44
34 33 31 29 28 27 24 23 23 24 24 28 33 33 28 26 31 37 39 41 44 42 37 31 27 26 26 27 30 33 34 34 35 37 38 38 39 41 43 42 41 39 39 39 39 38 38 38 38 38 38 38 38 38 38 38 40 41 43 43 42 42 42
35 35 34 31 30 29 26 23 23 24 24 25 26 25 20 17 24 36 40 40 40 40 38 36 32 30 27 26 28 30 31 32 33 34 35 36 38 41 44 44 41 39 38 39 39 39 39 40 40 41 41 41 40 39 39 40 41 42 42 40 39 39 38

ECMWFFLT1_500_spd_069.txt.gz
Wind_Speed
30 29 28 27 25 24 24 26 25 24 28 28 23 22 23 22 21 22 24 25 25 25 24 23 22 23 25 25 22 20 19 18 19 20 19 19 19 19 18 17 17 17 18 17 17 17 16 14 14 14 14 15 15 13 12 12 12 12 11 11 10 9 9
29 28 26 27 26 24 25 26 24 22 25 25 19 19 21 20 19 21 23 24 24 25 25 23 23 23 24 25 23 21 20 19 20 20 20 19 19 19 19 18 18 18 18 17 17 17 17 15 15 15 15 16 16 15 14 13 13 13 13 12 11 11 10
28 28 27 27 26 25 27 27 23 20 20 20 17 17 19 18 18 21 23 24 25 26 25 24 24 25 26 25 24 23 22 20 21 22 21 19 19 20 20 19 19 18 18 17 17 18 17 16 15 15 16 17 17 16 15 14 14 14 14 13 13 12 12
25 27 28 28 26 26 28 26 22 19 18 20 19 17 18 19 19 22 24 24 25 26 26 25 25 26 27 26 26 25 23 22 22 23 21 19 20 21 20 20 19 18 17 17 18 18 17 16 16 16 16 17 17 17 16 15 15 15 15 15 14 14 13
25 25 28 29 27 27 27 26 22 21 20 21 21 19 19 21 22 23 24 24 25 26 26 25 26 27 27 27 27 26 24 24 24 23 21 20 20 21 21 20 19 18 18 18 18 18 18 17 16 16 17 17 17 17 17 16 16 16 17 16 16 16 15
29 28 28 29 29 27 26 25 23 22 21 22 23 22 22 23 24 25 26 26 27 29 28 27 28 29 28 27 27 26 26 25 24 23 22 21 20 21 21 20 19 19 18 18 19 19 18 17 16 17 17 18 18 18 18 18 18 18 18 17 17 17 16
30 30 29 29 30 29 28 27 25 23 23 23 24 24 23 24 25 25 27 27 28 30 30 30 30 30 30 29 27 26 26 25 24 23 22 21 21 22 22 21 20 19 19 19 19 18 17 17 17 18 18 18 19 19 19 19 19 19 20 19 19 18 18
28 28 29 29 30 31 29 26 25 25 25 23 24 25 25 26 26 26 27 27 28 30 31 32 32 31 31 30 28 26 26 25 25 23 22 22 22 23 23 21 20 20 19 19 18 18 17 17 18 18 19 19 19 20 20 20 20 20 21 21 20 20 20
28 27 29 29 30 31 29 26 25 27 27 25 25 26 26 27 28 27 28 28 28 29 31 32 32 32 31 30 28 27 26 26 25 24 23 23 23 23 23 22 21 20 19 19 18 18 17 18 19 19 20 20 20 20 21 22 22 21 22 23 22 21 21
28 29 30 29 29 30 31 29 27 27 28 27 26 26 26 26 27 28 28 28 28 29 30 31 32 32 31 30 29 28 27 27 25 24 23 23 24 24 23 22 21 20 20 19 19 18 18 18 19 20 20 21 21 21 22 22 22 22 22 23 22 22 21
28 30 31 29 28 28 30 29 27 26 27 28 28 28 27 26 27 27 27 27 28 29 30 30 31 31 31 30 30 29 28 28 26 25 24 25 25 25 24 22 21 21 20 20 19 19 18 19 20 20 21 21 21 21 22 23 23 22 22 22 23 22 22
29 31 31 30 28 27 29 29 27 26 26 29 30 29 28 27 27 27 28 29 29 29 30 30 30 30 30 30 31 30 29 28 27 26 26 26 25 25 25 23 22 22 22 21 20 20 20 20 21 22 22 22 22 22 22 23 23 22 21 22 23 23 22
29 31 32 31 28 27 30 32 31 29 28 29 31 31 30 28 26 26 27 29 29 29 29 30 31 30 29 29 30 31 30 29 28 28 27 26 24 25 26 25 24 24 24 23 22 21 22 22 22 23 23 23 23 23 23 22 22 22 21 22 23 23 23
26 29 30 30 28 28 31 33 32 30 29 29 30 31 31 29 27 25 26 27 28 28 28 30 31 30 29 28 30 31 31 30 30 29 28 27 26 25 26 26 26 26 25 25 24 24 24 24 24 24 24 24 24 23 23 22 21 21 21 21 22 23 23
23 25 27 26 27 28 30 31 31 30 29 29 29 30 30 29 27 26 26 27 29 29 28 30 32 32 31 29 30 32 32 32 32 30 29 29 29 28 28 28 27 27 27 27 26 26 25 25 25 25 25 25 25 24 23 21 21 21 22 21 22 22 22
21 22 24 24 24 27 29 30 29 29 29 29 29 29 29 28 27 26 26 26 28 29 30 30 32 34 34 32 31 33 34 34 33 32 31 30 30 30 29 29 29 28 28 28 28 28 27 26 26 26 26 26 25 25 24 22 20 21 21 21 21 22 22
19 20 21 22 23 24 26 27 28 27 27 28 28 29 29 29 28 27 26 26 27 29 30 31 32 34 36 35 34 34 35 35 34 33 32 32 31 31 31 30 30 29 29 29 29 28 27 27 27 27 27 27 26 26 25 23 21 21 22 22 22 22 22
18 18 17 18 20 22 24 25 25 25 25 27 28 29 28 28 29 28 27 26 27 29 31 33 33 34 35 36 35 35 36 36 35 33 33 32 32 32 32 31 31 30 29 29 28 29 28 28 27 28 28 27 27 26 25 24 22 21 22 22 22 22 22
18 18 17 16 16 19 21 22 22 22 23 26 28 29 27 27 28 29 28 27 26 27 29 32 34 34 36 36 35 35 36 36 35 34 33 32 32 32 32 32 31 30 29 28 28 29 29 28 29 29 29 28 27 27 26 25 23 22 22 22 22 22 23
18 18 17 16 15 15 17 18 18 20 21 22 25 27 26 26 27 28 29 28 26 24 26 29 33 34 36 36 35 35 35 35 35 33 33 33 33 32 32 32 31 30 29 28 28 29 29 29 30 30 30 29 28 28 27 26 25 24 23 22 22 22 22
17 18 18 17 17 16 15 15 16 18 19 20 22 24 25 26 26 27 28 29 28 25 24 27 31 33 34 36 35 35 35 35 35 34 33 33 33 32 32 32 30 29 28 28 28 29 30 30 30 31 30 29 29 29 28 27 26 25 24 23 22 22 21
17 18 18 19 18 18 18 17 17 18 19 20 21 22 24 25 26 26 27 28 29 28 25 26 30 32 33 35 36 35 35 36 35 34 33 33 33 33 32 31 29 28 28 28 28 29 30 31 31 32 31 30 29 29 28 28 27 26 25 24 22 21 21
18 17 18 19 19 19 19 20 19 19 20 21 22 22 23 25 26 26 26 26 28 29 28 26 28 30 32 34 36 36 36 36 35 34 33 33 33 33 32 30 29 29 28 28 29 30 31 31 32 32 32 31 30 29 28 28 28 28 27 25 22 21 23
19 18 18 19 20 20 21 21 21 21 21 22 23 23 23 24 25 25 26 27 27 29 30 28 28 29 30 33 36 36 36 35 35 34 34 34 34 33 32 31 30 30 29 29 29 30 31 32 33 33 33 32 31 30 29 28 29 29 27 26 23 21 24
21 20 19 19 20 21 22 22 21 21 22 23 24 25 25 26 26 26 26 27 28 30 31 31 31 31 32 32 35 36 36 35 35 34 34 35 34 33 32 32 31 31 30 30 30 31 32 33 33 34 33 32 31 30 30 29 29 29 28 27 24 22 26
23 22 21 20 20 22 23 23 23 22 22 23 25 26 28 29 29 29 28 29 30 31 32 32 33 33 33 32 33 36 36 36 35 35 35 35 35 34 33 32 32 31 31 31 31 31 32 33 33 33 33 33 32 31 31 31 31 31 30 29 27 26 30
25 24 23 22 21 22 23 24 24 24 23 24 25 27 29 29 30 31 31 31 31 32 33 34 34 35 34 32 32 34 36 37 37 36 36 35 35 34 33 33 32 31 31 31 31 31 32 32 33 33 33 33 34 33 33 32 32 32 31 31 30 30 32
27 26 26 25 24 23 23 23 24 24 25 25 26 28 30 30 31 32 32 32 32 32 33 34 35 36 35 33 31 33 36 37 38 38 36 35 35 34 34 34 33 31 31 30 30 30 31 31 32 32 33 34 34 35 34 34 34 33 32 32 33 32 33
28 28 28 27 27 25 25 24 24 24 25 26 27 28 29 31 32 33 32 32 32 31 31 33 35 36 36 34 32 33 35 37 40 39 36 35 36 35 35 34 34 33 31 30 29 30 30 31 32 32 33 33 34 35 35 35 34 34 34 34 34 35 35
28 28 28 28 29 28 27 26 26 25 25 25 27 28 29 30 32 32 33 33 32 31 32 34 36 36 36 35 34 34 35 37 39 40 38 36 36 36 36 35 35 34 32 31 30 30 31 32 32 33 33 34 34 35 35 35 35 35 35 36 36 36 36
30 30 29 29 29 29 29 28 27 27 26 26 27 28 29 30 30 32 33 34 33 34 35 35 36 36 35 34 34 35 36 37 39 41 41 39 38 38 38 37 37 36 34 33 32 31 32 32 33 33 34 34 35 35 35 36 36 36 36 36 36 36 37
32 32 31 31 30 30 30 30 30 29 28 27 27 28 29 29 30 31 32 32 33 34 35 35 35 36 35 34 34 35 37 39 40 41 42 42 41 41 40 38 37 36 36 35 34 33 33 33 34 34 34 35 35 35 35 35 35 35 35 35 36 37 37
32 33 33 33 32 31 29 30 31 31 30 29 28 28 28 29 29 29 30 31 32 34 35 35 34 35 34 34 35 37 38 39 40 39 39 41 41 42 42 41 39 38 38 37 36 36 36 36 36 35 35 36 36 35 35 35 35 35 35 36 37 38 38
33 34 34 34 34 33 31 30 30 31 31 31 29 28 28 28 29 29 31 33 36 38 38 36 35 36 37 37 38 39 39 39 39 38 38 39 40 41 41 41 41 40 39 39 38 38 38 38 38 38 38 38 38 37 37 36 36 36 37 38 38 39 40
37 36 35 35 34 34 33 32 31 30 31 31 30 28 27 27 28 29 32 34 35 38 40 38 36 39 41 40 39 38 37 36 38 39 39 39 39 39 38 39 39 40 40 40 40 40 40 40 40 40 40 40 40 40 39 38 38 38 38 39 40 40 40
41 40 39 37 36 35 34 34 33 32 31 31 30 28 27 28 29 31 33 32 31 34 36 36 37 41 43 41 38 36 36 36 38 39 38 37 37 37 38 39 40 39 38 39 39 40 41 42 42 41 42 42 42 42 42 40 40 39 39 40 40 40 39
44 43 42 42 40 38 36 35 35 34 32 32 30 27 27 27 26 26 28 31 32 34 35 34 35 40 43 41 38 36 36 37 38 38 37 36 37 38 39 40 41 40 39 39 39 40 42 43 43 43 43 43 44 44 44 42 41 40 40 40 40 40 39

ECMWFFLT1_500_spd_072.txt.gz
Wind_Speed
27 28 29 30 32 31 28 27 29 30 31 32 31 31 31 31 33 35 34 35 34 33 31 27 26 27 25 23 24 26 26 26 25 24 22 20 20 19 18 17 17 17 17 17 16 14 13 12 13 14 15 15 15 15 15 15 14 13 12 11 11 10 10
27 27 27 27 30 31 30 29 28 28 30 31 32 31 30 30 32 33 33 33 31 31 29 26 26 26 24 24 25 26 26 25 25 24 22 20 19 19 18 18 18 17 17 17 16 15 13 13 13 14 15 15 15 16 15 15 15 14 13 12 12 11 11
27 28 28 28 28 30 31 30 28 28 29 31 32 30 28 30 30 26 26 28 29 29 28 26 26 25 25 24 23 26 27 25 24 23 21 19 18 19 19 20 19 18 17 17 17 16 14 13 13 13 15 15 15 16 16 15 15 14 13 13 12 12 12
29 30 31 31 31 31 31 30 29 28 29 30 31 29 27 29 27 22 21 25 26 27 28 27 25 25 26 24 22 23 25 25 24 22 21 20 20 20 21 21 20 18 17 17 17 16 15 13 13 13 15 15 16 16 16 16 15 15 14 13 13 13 13
30 31 32 33 34 34 34 33 32 29 29 30 30 29 27 27 27 24 22 23 24 25 27 26 25 26 28 26 24 24 24 24 24 23 23 23 22 22 22 22 20 19 18 18 18 17 16 14 14 14 15 16 16 16 16 16 15 15 15 14 13 13 13
31 33 34 34 35 36 36 36 36 33 30 30 30 28 26 26 27 27 24 23 23 23 25 26 26 27 28 28 27 26 24 25 26 25 24 24 23 23 23 22 21 20 19 19 19 18 16 15 15 15 16 16 16 16 16 16 16 15 15 15 14 15 15
33 34 35 36 35 36 36 35 36 35 33 32 30 27 26 27 28 27 25 23 23 23 25 27 27 27 28 28 29 28 26 26 26 26 25 24 24 24 23 23 23 21 20 20 19 18 17 16 15 15 16 16 16 16 17 17 17 16 16 16 16 16 16
34 35 37 38 37 35 35 35 35 36 35 34 32 28 27 28 28 27 25 23 24 25 26 28 28 27 27 28 29 28 27 25 25 26 26 26 25 24 23 24 24 22 21 21 20 19 18 17 16 16 17 16 16 16 17 17 17 17 17 17 18 18 17
34 36 37 39 38 35 35 36 36 35 34 34 33 30 29 29 27 27 26 24 25 27 27 28 29 28 28 28 28 28 28 26 27 28 28 27 27 26 25 25 25 23 22 22 21 21 20 18 18 17 17 17 17 17 17 18 18 18 17 18 19 19 18
35 35 37 39 39 35 34 37 38 36 34 33 33 31 29 29 28 27 27 26 26 27 28 29 29 29 29 29 29 30 30 30 30 30 29 27 28 27 25 25 25 24 23 23 23 22 21 20 19 18 18 17 17 17 17 17 18 19 18 19 19 20 19
33 32 34 37 38 34 33 36 38 36 34 32 32 31 29 29 28 28 28 26 25 26 27 29 30 30 30 30 31 32 33 33 33 31 29 28 29 29 27 26 25 25 24 23 23 22 21 21 20 19 18 18 18 18 17 17 19 20 20 19 19 20 20
29 29 30 33 34 33 33 36 37 35 33 32 32 32 31 29 29 29 29 27 25 26 26 27 29 29 30 30 31 32 33 33 32 32 31 31 31 30 29 27 26 25 24 22 22 22 22 21 21 20 20 19 19 19 18 18 19 21 21 20 19 20 20
27 27 28 29 30 30 32 35 36 34 33 32 32 33 32 31 30 30 30 28 27 26 26 26 27 28 30 31 32 32 32 33 33 32 32 32 31 31 29 28 27 26 25 23 22 23 23 21 22 23 22 21 21 20 19 19 20 21 22 21 20 20 20
27 27 28 28 27 28 30 32 33 32 32 32 32 33 32 31 30 30 30 30 28 27 26 25 26 28 29 30 32 32 32 32 33 32 31 31 30 29 29 29 27 27 27 25 24 24 24 24 24 25 24 23 22 21 20 20 21 22 23 22 21 20 20
28 28 28 28 28 27 27 28 29 29 30 32 33 35 34 32 31 30 30 30 29 28 26 26 26 27 28 28 29 31 32 32 32 32 32 30 29 29 30 30 28 28 27 26 25 24 24 25 25 25 25 24 24 23 22 22 23 24 24 23 22 21 20
27 27 27 27 28 28 27 26 27 27 28 30 33 35 36 34 32 31 31 30 30 28 27 28 27 27 28 28 28 29 31 32 32 33 32 30 30 31 32 31 30 29 27 25 25 26 25 26 26 26 26 26 26 25 24 23 24 24 24 24 23 22 21
26 27 27 27 27 28 27 26 26 26 27 28 30 33 34 34 32 31 31 31 30 29 28 28 28 27 28 29 28 29 30 32 33 33 32 32 31 32 32 30 30 30 27 26 27 27 27 28 28 28 28 28 28 26 25 24 25 25 24 24 24 23 22
26 26 26 26 27 27 26 25 23 24 27 29 29 31 32 33 31 31 30 30 30 30 30 29 28 27 27 28 29 30 31 33 34 34 34 33 31 31 30 30 30 30 29 29 30 30 30 30 30 30 30 30 30 28 26 25 25 25 25 25 25 24 24
25 25 26 26 26 26 26 25 22 21 24 27 28 30 31 32 31 30 30 30 30 31 32 31 30 29 29 29 30 31 32 35 36 37 36 32 31 33 34 33 33 32 31 32 32 32 32 32 32 32 32 32 31 30 28 27 26 26 26 26 26 25 24
23 24 25 26 27 26 26 25 23 20 19 20 23 26 27 28 28 28 28 28 29 30 32 33 33 32 31 31 30 30 31 34 37 39 37 32 31 35 36 34 34 32 32 33 32 32 33 33 33 33 33 33 32 31 30 29 28 28 27 27 27 27 25
22 23 24 26 27 27 26 26 25 23 19 17 18 20 21 22 24 25 27 27 28 28 29 32 34 33 32 32 31 29 30 34 37 39 37 34 34 36 36 34 34 32 32 33 33 33 33 33 33 34 33 33 32 32 32 31 29 29 27 26 28 28 26
23 23 23 24 26 26 26 25 25 25 23 19 18 18 18 19 20 23 25 27 28 28 27 29 32 34 33 32 30 28 30 35 38 38 37 38 38 37 37 37 35 33 33 34 34 33 32 31 31 32 31 32 33 32 32 31 30 29 28 27 28 29 27
23 23 23 24 24 25 25 25 25 25 24 23 21 20 19 19 19 21 23 26 28 29 28 27 30 33 34 33 32 29 29 33 36 36 38 41 40 38 38 38 36 34 34 35 34 34 33 32 31 29 27 28 30 30 30 32 31 30 29 27 27 28 27
25 24 24 24 24 24 25 25 24 24 24 24 24 24 23 22 21 21 22 24 27 28 29 28 30 33 33 33 33 30 29 32 36 39 41 40 38 38 38 38 36 35 34 35 35 35 35 35 34 33 31 30 30 29 29 30 29 29 29 27 27 28 26
28 26 26 26 26 25 25 25 25 24 24 24 24 24 25 25 25 24 24 25 27 29 30 31 31 31 31 32 33 31 30 33 37 39 40 38 36 37 38 38 37 36 35 35 36 36 36 36 36 36 36 36 35 34 32 31 28 28 28 27 28 28 26
29 29 28 27 27 27 26 25 25 25 25 25 25 25 25 25 27 27 27 27 29 30 31 32 32 32 31 31 32 31 31 35 36 36 38 38 36 37 38 38 37 36 36 36 36 36 36 36 37 37 37 37 36 36 35 34 32 31 31 30 29 28 27
28 29 29 28 28 28 28 28 27 26 25 26 26 26 26 26 27 28 29 30 30 30 31 32 33 33 32 31 31 30 32 36 36 34 36 38 38 38 38 38 38 37 37 37 37 36 37 37 37 37 37 37 36 36 35 35 35 34 34 34 32 30 30
28 28 29 29 29 29 30 29 29 28 27 26 26 27 28 28 28 28 29 31 31 31 31 32 33 33 33 32 32 31 33 36 38 36 36 37 38 38 38 37 35 35 36 38 38 37 38 38 37 37 37 36 36 36 36 35 35 35 35 35 34 32 33
29 29 29 30 31 31 31 31 30 30 29 28 27 27 28 29 29 29 30 31 32 31 31 33 34 34 34 34 35 34 34 37 39 39 37 37 38 38 37 35 34 36 39 40 39 39 39 38 37 37 37 37 36 36 36 35 35 35 35 35 34 34 35
32 31 30 31 31 32 32 32 32 32 31 30 30 29 28 29 30 30 31 31 32 31 31 33 34 34 35 36 36 35 35 36 38 38 38 38 38 38 37 37 38 41 43 42 40 40 39 38 37 37 37 36 36 36 36 36 35 35 35 35 34 34 35
35 34 32 31 31 32 33 33 33 33 33 32 31 31 30 30 30 30 31 32 32 32 30 32 34 34 35 36 36 36 36 37 37 38 38 39 39 39 38 39 41 42 43 42 42 41 40 39 38 38 37 36 35 35 36 36 36 36 36 36 35 36 36
37 36 35 33 32 32 33 33 34 34 34 34 33 32 32 31 31 31 31 32 33 33 31 31 32 33 34 35 35 35 36 38 39 39 39 39 40 41 38 37 40 42 43 43 43 42 41 40 39 38 36 35 35 35 35 36 36 36 37 37 37 37 37
42 40 39 38 37 35 34 34 34 35 35 35 34 34 33 33 32 32 32 32 33 33 32 31 32 32 34 35 36 36 38 41 42 41 39 39 41 41 37 36 39 42 43 44 44 43 42 42 41 40 38 36 35 35 35 36 36 36 37 37 38 38 38
47 46 45 44 43 41 39 37 36 35 36 36 35 35 34 34 34 33 33 33 33 33 33 33 33 33 33 35 38 40 41 44 44 42 40 40 40 39 37 38 41 42 42 43 46 46 45 44 42 41 39 38 37 36 36 36 36 36 37 38 38 38 38
51 51 51 50 49 47 45 42 39 38 37 37 36 35 35 35 35 34 35 35 33 33 34 34 34 34 33 36 42 44 43 45 44 42 41 41 40 40 41 41 42 42 42 43 45 46 46 44 43 42 41 40 38 37 37 37 37 37 38 38 39 39 39
53 53 54 54 53 52 50 47 44 42 41 40 38 37 36 35 35 35 35 36 35 34 35 35 34 35 36 41 47 47 46 47 47 45 44 44 44 43 43 42 42 43 43 43 44 44 43 42 41 41 41 40 38 37 38 39 40 39 39 40 41 41 41
52 52 53 54 54 54 53 51 49 46 44 42 41 40 38 37 36 34 34 36 36 35 36 36 36 39 41 44 47 47 46 47 47 46 45 44 44 43 41 40 40 41 41 41 40 40 39 39 39 39 39 38 38 38 39 39 40 40 40 41 42 42 43

ECMWFFLT1_500_spd_075.txt.gz
Wind_Speed
25 25 24 24 25 27 30 33 33 32 31 31 31 30 30 31 32 31 31 31 32 32 35 36 33 30 29 28 30 29 28 30 29 27 27 26 24 23 23 22 22 21 20 19 17 15 15 15 15 14 13 13 12 11 12 12 11 11 11 11 11 11 10
25 26 26 26 26 28 30 33 34 34 32 30 31 30 30 32 32 32 31 31 32 32 34 35 29 26 26 25 27 28 28 28 28 27 26 26 25 24 23 22 22 21 20 19 17 16 16 16 16 15 14 13 13 12 12 12 12 11 11 11 10 10 11
25 26 27 28 28 29 30 33 34 35 35 33 33 32 31 32 32 33 33 32 32 32 34 33 24 18 21 24 25 26 27 26 27 26 25 26 26 24 22 22 23 22 20 19 17 17 17 17 16 16 15 14 13 13 13 12 12 12 12 12 11 10 11
27 27 29 29 29 30 31 32 33 34 36 35 35 35 34 33 33 34 34 33 31 31 33 30 21 15 17 23 26 26 27 26 26 27 26 27 27 25 23 23 23 22 21 19 17 18 18 17 17 17 17 15 13 13 14 13 13 13 12 12 12 11 11
27 29 30 30 30 31 31 33 33 33 35 36 36 36 36 36 36 35 34 33 31 30 29 26 23 21 20 24 27 27 27 26 26 28 28 27 26 25 24 24 24 22 21 19 18 19 19 17 17 17 17 15 13 14 15 14 14 13 12 13 13 12 12
27 29 30 31 31 31 32 33 34 34 35 37 38 37 36 37 37 35 33 33 31 29 27 25 26 26 24 26 27 26 27 26 25 26 28 27 26 26 25 25 23 21 21 20 19 19 19 18 18 18 17 15 14 15 16 15 15 14 13 14 14 13 13
27 29 30 31 32 32 33 34 36 37 36 37 37 37 37 37 36 35 34 33 32 30 26 24 25 24 23 25 27 26 26 25 22 22 25 26 26 25 24 24 23 22 22 20 19 20 21 20 18 18 17 16 16 16 17 17 16 15 14 15 15 14 14
28 30 31 32 33 34 35 35 37 38 37 37 37 36 37 37 36 35 34 32 32 31 26 23 22 22 22 24 26 26 26 25 23 22 25 27 27 25 25 25 24 23 22 21 21 21 21 20 19 19 18 18 17 17 17 18 17 17 16 16 16 16 15
29 30 32 33 34 36 37 37 38 39 39 39 37 35 35 36 37 35 34 32 31 31 28 23 21 21 22 24 26 27 27 26 26 26 28 28 27 27 27 26 25 23 23 22 22 22 22 21 20 20 20 19 18 18 18 18 19 18 17 17 17 17 16
28 29 31 32 34 36 38 39 39 40 41 40 39 37 34 33 35 34 33 32 31 31 30 25 22 22 23 24 27 28 28 28 29 29 30 29 28 28 28 27 26 24 24 23 23 23 24 23 21 21 21 21 20 19 19 19 20 19 18 18 17 17 18
29 29 29 30 31 33 35 38 39 39 40 39 39 39 36 33 33 33 33 32 30 30 31 27 24 23 23 25 27 28 29 29 29 30 30 30 29 29 28 27 25 24 25 25 25 24 24 23 22 22 23 23 22 20 19 19 20 19 18 19 18 18 18
29 29 28 29 30 31 33 36 37 37 37 36 34 34 35 34 34 33 32 32 30 30 31 29 27 25 24 25 27 28 29 30 29 30 30 30 30 29 28 28 26 25 26 26 25 24 23 24 24 24 25 25 23 21 20 19 19 19 19 20 20 19 19
28 28 28 28 29 31 32 35 37 37 37 36 33 33 33 33 34 34 32 31 31 30 31 31 29 27 24 24 26 27 29 30 30 30 31 31 31 31 31 30 28 28 28 27 26 25 27 27 26 26 26 26 24 22 20 18 19 20 20 21 21 20 20
28 28 28 28 29 30 31 33 35 36 37 37 36 35 34 32 33 34 32 31 31 31 32 32 32 30 26 25 25 25 27 29 30 31 32 33 33 33 33 32 31 31 29 28 29 29 29 28 27 27 27 27 25 22 19 18 19 21 22 22 22 22 20
28 28 28 28 28 29 30 32 33 33 34 36 37 36 35 33 32 31 30 30 30 30 32 33 33 32 30 27 26 26 28 28 29 30 32 32 33 33 32 32 33 32 30 30 30 30 29 28 28 28 28 27 25 22 20 19 20 22 23 24 24 23 21
29 29 29 28 28 29 29 30 30 31 32 34 35 36 36 34 32 31 31 31 31 31 30 31 33 33 32 30 28 28 29 29 29 30 30 31 33 33 32 32 33 33 32 30 30 29 29 29 29 29 28 27 24 22 22 22 23 24 25 25 25 25 23
29 29 29 29 28 28 29 29 29 29 29 31 33 35 36 34 32 31 31 31 32 32 31 30 29 31 33 32 30 30 29 29 28 28 29 30 32 33 33 33 33 33 33 31 30 31 31 30 30 30 29 26 23 22 23 25 26 26 26 26 26 26 25
29 29 29 29 28 28 28 29 29 28 28 29 30 32 35 34 32 31 29 30 32 33 33 31 27 28 31 31 31 31 30 30 29 29 29 29 31 33 34 34 34 34 35 33 32 33 31 30 30 31 30 26 23 24 25 27 28 28 27 27 27 27 26
29 29 29 29 29 28 28 29 29 28 27 29 29 29 31 32 30 29 29 31 31 31 33 33 28 26 27 28 31 32 32 31 30 31 30 29 30 33 34 34 34 36 37 35 33 33 33 32 31 31 30 27 26 29 28 28 29 29 28 27 27 27 26
29 29 29 29 29 29 29 29 29 28 27 28 28 28 28 28 26 27 29 31 31 30 32 34 32 28 27 27 30 32 34 34 32 31 31 31 32 34 35 35 35 38 39 37 35 34 33 33 32 32 32 29 30 32 29 27 29 29 28 27 27 27 27
28 28 29 29 29 29 29 30 30 29 27 27 28 28 27 26 24 24 28 31 31 28 29 34 34 31 29 29 29 30 33 35 33 32 31 32 33 34 36 37 37 39 40 39 37 35 33 34 34 34 33 30 30 32 30 28 29 30 29 28 27 27 28
29 29 29 29 30 30 30 30 31 32 29 27 27 28 28 27 25 24 25 29 30 27 26 31 34 32 31 31 29 28 31 34 34 34 33 33 33 34 36 37 39 40 39 39 39 37 36 35 35 34 33 30 30 31 30 28 28 28 27 27 27 27 29
32 32 31 30 31 31 31 30 31 33 32 29 28 28 28 27 27 25 25 26 27 26 26 29 32 31 31 33 30 28 29 31 33 35 36 35 35 36 37 38 40 40 39 39 41 41 38 36 35 34 33 31 31 32 32 30 29 27 26 27 27 27 29
35 35 34 33 33 33 33 31 31 32 33 32 30 29 28 28 27 27 27 26 25 25 25 28 30 30 30 33 32 30 29 29 30 33 34 34 34 34 35 37 39 40 40 40 42 41 38 35 36 35 34 33 33 32 32 32 32 29 27 28 28 27 29
36 35 35 35 35 35 35 34 32 31 32 32 31 30 29 28 28 28 28 27 27 25 25 26 28 28 29 30 31 32 32 30 29 30 31 32 34 33 34 36 38 39 39 39 39 39 38 37 37 37 37 37 35 33 33 34 33 30 28 28 28 28 30
36 36 37 37 36 36 36 35 34 32 31 31 31 31 31 30 29 29 28 28 28 28 28 27 26 28 30 30 29 31 32 30 29 29 30 32 33 33 34 37 39 39 39 39 38 38 39 40 40 40 39 39 37 35 35 36 36 35 33 32 30 29 30
38 38 38 38 37 36 36 36 35 33 32 31 31 31 31 31 31 30 29 29 28 28 29 29 28 29 31 30 29 29 30 30 29 29 30 31 32 34 37 39 38 38 38 38 38 39 40 41 41 41 40 39 38 37 37 37 38 38 38 36 34 33 34
40 40 39 38 36 34 33 35 35 35 33 33 32 31 31 32 32 32 31 31 29 29 29 29 30 31 31 31 30 29 30 31 30 30 31 32 32 35 39 39 37 37 38 39 40 42 43 41 41 42 41 39 38 37 38 38 39 38 37 36 35 36 37
41 41 40 39 38 36 35 34 35 36 35 34 34 33 32 31 32 33 33 32 32 31 30 29 30 31 32 32 32 31 31 31 31 31 32 33 34 37 39 39 38 38 41 42 42 41 41 41 41 41 41 40 39 38 38 39 39 38 36 36 37 37 37
43 43 42 42 41 40 38 36 35 36 36 36 35 34 33 32 32 33 33 34 33 33 32 31 30 31 32 32 32 32 32 33 32 32 32 34 36 38 38 40 41 38 38 40 42 40 38 39 40 38 38 40 40 39 40 40 39 39 38 38 38 38 38
44 43 43 43 42 41 40 38 37 36 36 36 35 35 34 33 33 32 33 34 34 34 34 33 33 32 32 32 32 31 32 34 34 33 33 35 37 37 37 40 43 40 37 38 41 40 40 41 42 40 39 41 41 40 42 42 40 41 40 39 39 39 39
46 46 46 46 45 44 44 43 42 40 39 38 37 36 35 35 35 34 33 33 34 34 35 35 34 34 34 33 32 31 32 35 36 34 34 36 37 39 41 42 43 42 41 40 41 42 42 42 45 47 47 46 44 41 42 42 42 41 41 40 40 40 40
49 50 50 50 50 50 49 48 48 46 44 42 42 40 39 37 37 37 36 35 34 34 34 35 35 35 35 34 33 32 33 36 36 35 36 37 38 39 42 43 43 43 43 43 43 43 42 41 43 47 49 46 42 41 42 43 43 42 42 41 40 40 40
53 53 53 53 53 53 53 52 51 50 49 47 45 45 44 42 40 38 38 37 36 34 34 34 35 36 36 35 35 34 34 36 37 37 37 38 38 38 40 43 45 45 43 43 44 45 43 42 43 46 48 46 44 43 44 44 44 44 43 42 41 40 39
54 54 54 55 55 55 55 55 54 53 51 50 48 46 46 46 44 42 40 39 39 38 36 35 35 36 36 36 35 35 36 37 39 39 38 38 39 40 41 43 46 47 45 43 44 45 45 45 45 46 48 49 47 46 45 46 46 46 45 43 41 40 40
53 54 54 55 55 55 55 56 56 55 54 52 50 48 47 47 46 44 42 40 40 40 39 38 37 36 37 36 36 36 37 38 41 42 40 41 42 43 44 45 46 48 47 43 42 44 45 46 46 44 45 46 47 47 46 46 47 47 46 44 43 41 40
54 54 55 55 56 56 56 56 56 56 56 54 53 51 49 47 46 46 44 42 41 41 41 40 39 38 38 37 36 37 37 38 41 43 41 43 45 44 45 48 49 50 49 45 43 44 45 46 45 44 44 45 46 45 44 44 44 45 45 45 44 43 41

ECMWFFLT1_500_spd_078.txt.gz
Wind_Speed
23 24 25 25 25 26 27 28 28 27 28 29 30 30 30 31 31 31 30 28 27 26 25 25 27 28 28 28 33 35 34 32 31 27 27 27 24 26 25 23 24 25 23 22 21 20 19 17 17 15 14 14 13 12 11 11 11 10 9 9 9 9 10
23 24 25 26 27 27 29 30 30 29 29 30 31 31 31 32 33 33 32 31 30 28 26 26 27 27 27 27 30 31 29 29 30 28 27 26 24 25 25 24 26 26 24 23 23 22 20 19 19 17 15 14 13 13 12 12 12 11 11 10 10 10 10
23 24 26 27 28 29 29 30 31 30 30 30 31 33 33 33 33 33 32 33 33 31 29 28 27 26 26 26 26 25 25 26 27 27 27 27 26 26 26 25 27 28 26 24 24 23 22 21 20 18 16 15 14 13 13 13 13 12 11 11 11 11 11
24 25 26 28 29 30 29 29 30 31 32 32 32 33 34 34 35 34 33 33 34 34 31 30 28 26 25 25 24 24 25 25 24 25 27 27 27 28 28 27 28 29 27 24 24 23 23 22 21 19 18 16 14 14 14 14 14 13 12 12 12 12 11
24 26 27 28 28 30 30 30 31 31 32 33 33 34 35 36 36 35 35 35 34 34 33 31 29 26 25 25 25 24 24 23 22 24 25 27 28 27 27 28 28 28 26 25 24 23 23 22 21 20 18 16 16 15 15 15 15 14 14 13 13 12 12
24 26 26 28 28 29 31 31 32 32 33 34 36 36 37 37 36 35 36 36 34 32 31 31 29 27 25 25 25 24 23 21 22 24 24 26 26 25 26 27 27 27 26 25 24 23 24 23 21 20 18 17 17 16 16 16 15 15 15 14 14 13 13
24 25 26 27 28 30 31 31 32 33 33 35 36 38 38 37 37 36 36 36 35 32 31 29 28 27 26 25 24 23 22 20 22 24 24 25 25 24 26 27 27 28 28 26 24 24 24 23 22 21 19 18 18 18 19 17 16 16 15 15 15 14 14
24 25 26 27 28 29 30 31 31 32 33 34 35 37 39 37 36 36 36 36 35 33 30 28 26 26 26 26 25 23 21 20 21 24 24 25 25 24 26 28 28 29 28 26 25 25 25 25 24 23 21 20 19 20 20 18 17 17 17 16 16 15 15
25 25 26 27 28 29 30 32 32 32 33 34 34 36 38 37 35 35 35 34 34 32 29 26 25 25 26 26 25 23 21 20 21 24 25 25 25 23 24 26 27 27 27 26 26 26 26 25 26 25 22 21 20 21 20 19 18 18 18 17 17 17 17
25 26 27 28 29 30 31 32 32 32 32 33 35 35 36 37 36 34 34 34 33 31 30 28 26 25 26 26 25 24 23 22 21 24 25 25 25 24 23 24 25 26 26 26 26 26 26 27 27 26 24 22 21 21 21 20 20 19 18 18 18 18 18
25 26 28 29 29 31 32 32 32 32 32 32 34 34 35 36 36 34 33 34 32 31 31 28 26 26 26 26 26 25 25 24 23 25 26 27 27 27 26 25 26 26 26 27 27 27 28 28 28 27 26 23 21 21 23 22 21 20 19 19 19 19 19
27 28 29 29 30 31 31 32 32 31 31 31 32 33 33 33 34 34 33 34 32 31 31 29 27 27 26 24 25 25 25 24 25 26 28 28 28 29 29 28 28 28 28 28 29 29 29 28 28 28 27 25 23 23 24 23 22 21 20 20 20 20 20
28 28 29 29 30 31 31 31 31 30 30 31 31 32 32 32 33 33 33 34 32 31 31 29 28 29 26 24 25 26 26 25 25 27 28 29 29 30 30 30 29 29 29 29 29 29 29 30 30 28 28 28 27 25 24 23 23 22 21 22 21 21 21
28 29 29 30 30 31 31 31 30 29 30 30 31 31 32 31 32 32 33 34 32 31 31 30 30 31 30 28 27 26 26 26 26 26 27 28 30 31 31 30 30 29 30 30 29 28 29 31 31 30 30 31 29 26 24 24 24 23 22 23 22 21 21
29 29 30 31 31 31 30 30 29 30 30 31 31 32 32 31 31 32 33 34 33 31 31 30 30 32 32 31 30 28 27 27 27 26 27 28 29 31 31 31 30 30 30 31 30 30 31 33 33 31 31 31 30 26 25 24 24 24 24 24 22 20 21
30 30 31 31 31 31 31 30 30 31 32 32 32 32 33 32 31 32 33 34 34 33 33 32 31 31 32 31 31 30 29 28 28 28 27 28 30 31 32 32 31 31 32 33 33 33 33 34 34 32 31 31 30 27 26 26 25 25 26 25 23 21 22
31 31 31 32 32 32 33 32 32 33 33 33 33 33 33 33 32 31 32 33 34 34 34 34 32 31 32 32 31 30 28 29 29 28 28 29 31 32 32 32 32 33 34 35 34 34 34 34 34 33 33 32 30 29 28 28 27 27 27 26 25 23 23
31 32 32 33 34 34 35 35 35 35 34 34 33 33 33 33 32 31 31 31 32 33 34 33 33 31 31 33 34 33 31 29 29 29 29 30 31 32 32 32 32 34 35 35 35 34 34 35 35 34 35 33 30 30 31 31 29 29 28 27 26 25 24
32 32 33 34 35 36 37 37 37 36 36 35 34 34 34 33 32 32 31 31 30 30 31 32 32 32 32 33 33 34 35 33 30 30 31 31 31 31 32 32 32 32 34 36 36 34 34 36 36 36 36 34 32 32 34 32 30 29 28 27 27 26 25
32 33 34 35 36 37 38 38 38 38 37 36 35 34 34 33 32 32 32 31 29 28 29 31 32 32 34 34 32 32 34 34 32 31 31 32 32 31 30 31 31 31 33 36 37 35 35 36 36 35 35 35 35 36 35 32 30 30 29 28 28 28 26
34 34 35 36 37 38 38 39 39 39 38 38 37 36 35 34 33 32 32 32 30 28 27 29 31 32 33 35 33 31 33 34 33 32 31 31 32 32 31 30 31 32 33 35 36 35 34 35 36 35 37 38 38 36 34 33 32 32 31 30 30 30 28
35 36 36 37 38 38 38 39 39 39 39 39 38 37 37 36 35 33 33 32 31 29 27 27 28 30 31 33 33 32 34 35 34 33 33 32 31 33 33 32 31 33 34 35 36 36 36 36 37 38 40 41 39 36 34 34 34 33 32 32 32 31 30
37 38 38 39 39 40 39 39 40 40 40 40 39 39 38 38 37 35 33 32 31 30 28 27 26 27 29 30 31 32 34 36 35 34 34 33 32 32 33 33 32 33 34 36 37 38 38 37 38 39 41 41 40 38 37 36 35 34 33 33 32 31 31
39 40 41 41 41 41 41 41 41 41 40 40 40 39 39 39 39 37 34 33 31 30 29 28 27 26 27 28 29 30 31 33 33 33 34 34 33 32 33 34 34 34 35 36 37 38 38 38 39 40 42 42 41 40 39 38 37 35 34 33 33 31 31
42 42 42 42 42 42 42 42 42 42 42 41 41 40 40 40 40 39 36 34 33 31 29 28 28 27 26 27 28 28 27 28 29 31 33 34 33 32 33 34 34 35 36 37 36 36 38 40 41 42 42 43 43 41 41 40 37 36 35 35 34 32 32
42 42 42 43 43 43 43 43 43 43 43 43 42 41 40 39 39 40 38 36 34 34 32 29 29 28 26 26 27 27 26 26 27 29 30 31 32 31 31 32 33 35 36 37 37 36 36 39 43 43 42 43 43 42 41 40 38 38 37 35 34 34 33
43 43 43 44 44 44 44 44 44 44 43 43 43 42 40 39 38 39 40 38 36 35 35 32 30 30 28 27 27 27 26 26 26 27 28 29 30 30 30 31 32 34 36 37 37 36 35 37 41 42 40 40 42 43 42 41 40 40 39 36 35 35 34
44 45 45 46 46 46 46 46 45 44 44 43 43 43 43 41 39 39 41 41 38 37 36 35 33 31 30 29 28 28 27 26 26 27 26 28 29 29 30 31 31 32 36 36 35 35 36 36 37 38 38 39 41 41 42 41 41 41 41 40 38 36 35
44 44 45 45 46 46 46 46 46 45 45 44 44 44 44 43 42 41 41 42 41 38 37 37 35 33 32 31 30 30 29 27 27 27 27 28 29 29 31 32 31 31 34 35 34 34 35 35 35 36 38 40 40 40 42 43 43 43 43 42 40 37 37
45 45 46 46 46 46 47 47 46 46 46 45 44 44 44 44 43 42 41 42 42 40 38 37 36 35 33 32 32 32 31 30 29 28 28 28 28 29 31 33 32 31 31 33 34 35 36 37 38 39 39 41 41 41 43 44 44 45 45 42 39 38 38
48 48 48 49 49 49 49 49 49 49 49 49 48 47 47 47 46 45 44 43 43 41 40 38 38 36 35 34 34 33 33 32 31 30 30 29 28 29 31 33 33 32 31 31 32 34 36 38 40 40 40 40 41 43 44 45 45 45 44 42 39 36 36
48 49 50 50 51 51 52 52 52 52 52 52 52 52 51 51 50 49 48 46 45 45 43 41 39 38 37 35 35 35 34 34 33 32 31 31 30 31 32 34 34 33 32 32 32 33 35 35 36 38 39 38 39 40 42 42 42 41 42 42 41 39 37
48 49 50 51 52 52 53 53 54 54 54 54 54 54 54 53 53 52 51 49 48 47 46 45 42 41 39 38 36 36 35 35 35 34 33 32 31 32 33 33 33 34 34 34 34 34 34 34 34 37 38 38 39 40 40 40 39 40 42 43 43 42 41
49 50 51 52 53 54 54 55 55 56 56 57 57 56 56 55 54 53 53 51 49 48 48 48 46 44 43 41 38 37 37 36 36 36 35 33 32 33 33 32 32 34 35 36 35 35 35 35 36 38 40 41 41 40 40 39 40 42 44 45 44 43 43
49 50 51 53 54 55 56 57 57 58 58 58 59 59 58 57 57 55 54 54 52 50 49 48 48 46 45 44 42 40 38 38 38 37 36 35 34 34 34 33 33 35 36 36 36 36 36 36 37 38 41 42 42 40 40 41 42 43 45 48 48 47 46
46 48 49 51 52 54 56 58 58 59 60 60 60 60 60 60 59 58 56 55 54 53 51 49 49 48 47 45 44 42 40 39 39 38 38 37 36 35 35 35 35 36 37 37 37 36 37 39 40 42 43 46 47 47 45 45 46 46 46 47 50 50 49
41 42 44 45 47 48 51 53 55 57 59 60 61 61 61 61 60 59 58 57 55 54 52 51 50 49 48 46 44 43 42 41 40 40 39 38 37 36 36 36 36 36 36 36 37 39 40 42 44 45 46 48 49 49 47 46 47 48 47 45 47 48 48

ECMWFFLT1_500_spd_081.txt.gz
Wind_Speed
23 23 23 23 23 22 22 23 24 25 25 24 24 25 26 28 28 26 26 26 27 28 28 27 25 24 25 28 28 26 25 26 27 25 27 29 23 20 23 22 24 28 28 26 24 22 22 22 21 19 18 18 18 19 18 18 17 16 14 13 12 11 10
23 24 24 24 23 23 23 24 24 25 25 25 25 25 26 27 27 27 27 27 27 28 28 28 27 26 25 26 28 28 25 25 26 24 27 29 23 21 24 24 27 30 28 26 25 23 24 23 21 21 20 18 18 19 19 18 18 17 15 13 13 12 10
23 24 24 24 24 24 24 24 24 25 25 26 26 26 27 27 28 28 28 28 28 28 28 28 28 28 27 25 26 28 26 26 25 23 26 29 26 25 25 26 29 30 29 27 25 25 25 24 22 23 21 19 20 20 19 18 18 18 16 14 14 13 12
24 25 25 25 25 25 25 25 24 25 26 27 27 27 27 28 29 29 29 28 28 28 28 28 28 28 28 26 25 26 27 27 26 23 23 26 28 29 26 26 29 30 30 29 27 27 26 24 23 24 23 21 21 20 20 20 19 18 17 15 14 14 13
24 25 25 26 26 26 25 25 25 26 27 27 27 27 28 28 29 30 30 30 28 28 28 27 27 27 28 28 27 26 26 26 26 23 22 24 28 29 26 26 29 30 29 29 29 29 27 26 25 25 24 23 22 22 22 21 20 20 18 16 15 14 14
25 25 26 26 26 25 25 25 25 26 27 27 28 28 28 29 29 30 31 31 30 29 27 27 27 26 27 27 27 26 26 26 25 24 23 24 26 28 26 27 29 30 29 30 29 29 28 27 26 26 26 24 24 24 23 22 22 21 19 17 16 15 15
26 26 26 26 25 25 25 25 25 26 27 28 28 28 28 29 30 30 31 32 32 31 28 28 27 26 26 26 26 25 25 26 25 24 24 23 24 26 25 26 28 29 30 30 29 29 28 28 28 29 28 26 26 25 24 23 23 22 20 19 17 16 17
26 27 26 26 25 26 26 26 26 26 27 28 28 28 28 28 29 30 31 32 32 32 30 28 27 26 26 26 26 25 24 25 25 23 22 23 24 24 24 25 27 28 29 29 29 30 29 30 31 31 29 28 26 25 24 24 23 22 21 19 18 17 17
27 27 27 26 26 26 26 27 27 27 28 28 29 29 28 28 28 29 30 31 32 32 30 29 28 27 26 26 27 27 26 25 24 23 23 24 25 25 26 27 27 28 29 29 29 30 30 31 32 31 29 28 26 25 26 25 24 23 22 20 19 18 18
28 28 28 27 27 27 26 27 28 28 28 28 29 28 27 27 27 28 30 30 31 32 31 30 29 28 28 26 27 28 27 25 24 23 24 24 25 26 27 28 28 29 29 30 30 31 32 32 32 31 30 28 26 26 26 25 25 25 23 21 20 20 20
30 30 29 28 28 27 27 28 28 29 29 29 29 28 27 26 27 28 30 31 32 33 33 32 30 30 29 28 27 27 27 26 24 23 24 23 24 27 27 28 29 29 29 29 31 33 34 33 32 31 30 28 27 28 27 26 26 26 24 23 22 21 21
31 31 30 29 28 28 28 28 29 30 30 29 29 28 27 27 27 28 30 32 32 33 34 34 33 31 30 29 29 28 28 28 25 24 24 25 25 27 27 28 29 29 28 28 28 30 32 31 31 32 31 30 29 30 29 28 27 28 26 24 24 23 22
32 31 31 30 29 29 28 29 30 30 30 30 29 28 28 28 29 29 31 32 33 33 34 35 34 33 30 29 29 29 30 29 27 25 25 26 26 27 28 29 30 30 30 29 28 29 30 30 31 33 32 31 30 30 30 29 29 29 28 26 24 24 24
32 32 32 31 30 29 29 30 30 31 31 31 30 30 29 30 31 31 31 32 33 33 34 35 35 34 32 29 28 29 30 30 30 29 27 27 28 28 29 29 31 32 33 32 31 31 31 31 32 34 32 30 30 31 31 31 31 30 29 27 25 25 25
33 33 33 32 31 31 31 31 32 32 32 32 32 31 31 31 32 32 31 31 32 32 33 34 35 34 32 30 28 28 30 31 31 30 28 28 29 30 30 30 31 33 33 34 34 33 33 33 33 34 33 31 32 34 34 33 32 31 30 28 26 26 26
34 34 33 33 32 32 32 33 33 33 33 33 33 32 31 32 33 33 32 31 32 32 32 33 34 34 33 31 29 28 29 30 31 30 30 30 30 30 31 31 31 31 33 35 35 34 34 35 35 36 35 33 34 35 34 34 33 32 31 29 27 27 27
35 35 34 34 34 34 34 34 34 34 34 34 34 34 33 33 33 33 33 32 32 33 31 31 32 34 33 32 30 29 28 29 30 30 31 32 32 30 31 32 32 32 32 34 36 35 35 36 35 36 35 34 34 34 34 36 35 34 34 31 28 29 30
35 35 35 35 36 36 36 36 36 36 36 36 36 36 35 35 34 34 33 33 33 33 32 30 30 32 33 32 31 29 28 29 30 30 30 32 34 33 31 32 33 33 31 32 35 36 36 36 35 35 35 35 35 34 35 38 37 35 36 34 31 32 32
36 36 36 37 37 37 37 37 37 37 37 37 37 38 37 37 36 35 35 34 34 34 33 30 30 31 31 32 31 30 29 29 29 29 30 32 34 35 34 33 34 34 33 32 34 35 36 37 36 37 38 38 37 37 37 38 38 36 37 37 34 33 32
37 37 37 38 38 38 38 38 38 38 38 39 39 39 40 39 39 38 37 37 36 35 34 32 31 30 30 30 31 30 29 29 29 28 30 32 34 35 35 34 34 35 34 34 34 36 37 38 38 39 39 38 38 38 38 38 39 39 39 39 37 33 32
37 38 38 39 39 39 40 39 39 39 40 40 41 41 42 42 41 40 40 39 38 37 36 34 33 32 30 30 30 29 29 29 29 28 28 31 34 35 34 34 35 35 36 36 35 35 36 36 37 38 38 38 37 38 39 39 39 40 40 40 39 35 34
37 38 39 40 40 41 41 41 41 41 41 42 43 43 43 43 43 42 41 41 40 39 38 36 35 34 32 30 30 30 29 29 29 28 28 29 32 34 33 34 36 37 36 37 36 35 34 34 36 38 38 38 38 39 40 39 39 40 41 40 40 38 37
38 39 40 41 41 42 42 42 43 43 44 44 45 44 44 44 44 44 43 43 42 42 40 38 37 36 34 31 30 30 30 29 29 28 27 28 29 32 33 34 36 38 38 37 37 37 37 36 36 36 38 38 39 40 40 38 38 42 42 41 41 41 41
39 40 41 41 42 42 43 44 45 45 46 46 46 45 45 45 46 46 45 45 44 43 42 40 37 37 36 33 31 31 31 30 30 29 28 27 27 29 31 33 36 38 40 39 37 37 38 38 37 37 37 36 36 38 39 38 39 42 43 44 45 44 44
39 40 41 41 42 43 44 45 45 46 46 47 47 47 47 47 48 48 48 47 46 45 44 42 39 36 36 35 33 33 33 32 31 30 29 28 27 27 28 31 33 36 39 40 38 37 37 38 39 39 37 35 35 37 39 40 41 42 43 46 47 46 44
39 40 41 42 42 43 44 45 46 46 47 48 48 48 49 49 49 49 49 49 48 46 45 44 42 39 37 36 35 34 35 34 33 31 30 29 28 28 27 28 31 33 36 37 37 36 37 38 40 40 37 35 36 38 41 41 40 41 43 45 46 45 43
40 40 41 42 43 44 44 45 46 47 48 48 48 49 49 49 49 49 49 49 49 48 47 46 45 44 40 38 37 36 36 36 35 34 32 31 30 29 28 28 28 30 33 34 33 33 35 37 39 39 38 37 38 39 41 40 39 40 42 42 43 43 42
41 42 43 44 45 46 46 47 48 49 50 51 51 51 51 51 51 50 50 50 49 49 48 47 46 45 43 40 39 38 37 37 37 36 35 33 32 30 30 29 28 29 31 31 31 32 32 33 36 38 39 39 39 39 39 39 39 40 41 41 43 42 41
43 44 45 46 47 48 49 49 50 51 52 52 53 53 53 53 54 53 53 53 52 51 51 49 48 46 45 43 41 40 40 38 38 38 37 35 34 33 32 31 29 29 31 31 31 31 31 31 33 35 38 40 38 37 38 39 40 41 41 41 42 43 44
44 45 45 46 46 47 48 49 50 51 51 52 53 53 54 54 55 55 55 55 55 54 54 53 52 50 48 46 43 42 42 41 40 39 38 37 36 35 34 33 30 29 30 31 31 31 29 30 31 33 36 38 38 36 36 39 40 39 38 39 40 42 45
42 43 44 45 45 46 47 49 50 51 52 53 54 55 56 56 56 56 57 56 57 56 56 55 54 54 53 51 48 45 44 44 43 41 40 39 38 37 37 35 32 30 31 32 33 32 30 29 30 31 33 36 38 36 34 35 36 35 35 37 39 41 43
41 42 44 45 46 47 48 49 51 52 54 55 57 58 58 59 60 60 60 59 59 59 58 57 56 55 54 54 52 49 46 46 46 45 43 41 39 38 38 37 34 32 32 33 34 33 32 30 30 30 31 34 37 37 34 32 33 33 34 37 39 40 41
40 41 42 44 45 46 47 48 49 51 52 54 55 57 58 59 60 61 62 62 62 62 61 60 59 58 56 55 54 51 48 47 47 48 46 44 42 40 38 38 36 34 33 34 34 33 32 31 30 31 32 32 34 35 33 32 32 35 38 41 41 41 41
37 38 39 40 42 43 44 45 46 47 48 49 51 53 54 56 57 59 60 61 62 63 63 63 62 60 59 57 55 53 50 47 47 48 48 47 45 42 39 38 37 36 34 34 34 34 33 30 30 32 33 32 32 32 31 31 32 35 38 40 41 42 44
35 36 37 38 39 39 40 41 42 44 45 47 48 50 51 53 54 55 57 58 59 61 61 62 62 61 60 58 57 55 52 49 47 46 47 48 48 46 42 39 37 36 36 35 35 35 34 32 30 31 32 32 32 32 31 32 31 32 35 38 40 42 44
34 34 35 36 37 38 38 39 41 42 44 45 47 48 49 50 51 52 53 54 55 56 58 59 59 59 59 57 56 55 53 51 48 46 46 46 48 49 46 42 39 37 37 36 36 36 36 33 31 31 32 32 32 31 31 33 33 32 34 38 41 42 42
33 33 34 35 36 36 37 38 40 42 44 46 47 48 48 48 48 48 49 49 50 50 52 53 55 55 55 55 54 53 52 50 48 47 46 45 46 48 48 45 42 39 38 37 37 37 36 34 33 33 32 31 31 32 33 35 35 34 35 38 41 43 42

ECMWFFLT1_500_spd_084.txt.gz
Wind_Speed
22 23 23 24 24 24 24 24 24 24 24 24 24 23 22 22 22 22 22 21 21 20 20 21 23 23 23 24 25 26 27 27 27 28 28 28 27 27 28 30 29 27 28 28 28 28 27 27 26 26 26 24 24 24 24 23 23 23 22 20 19 19 19
23 23 24 24 25 25 25 25 25 25 25 25 24 23 23 23 23 23 23 23 22 22 22 22 23 23 24 25 26 26 27 28 29 29 28 28 28 28 28 30 31 27 26 28 30 30 28 28 27 27 27 26 25 25 25 25 25 24 23 22 20 20 20
24 24 24 25 25 25 25 25 26 26 26 25 24 23 23 23 23 23 24 24 23 24 24 24 24 24 24 25 26 27 27 28 29 30 29 29 29 28 28 31 33 29 25 24 28 32 31 29 28 28 28 27 27 28 27 26 26 25 24 23 21 20 20
24 25 25 25 25 26 26 26 27 27 26 25 24 23 23 23 23 24 23 24 23 23 24 25 25 26 25 25 27 28 29 28 28 30 31 30 29 29 28 30 33 30 25 22 25 33 34 31 30 30 30 30 30 29 27 25 25 24 23 23 23 22 21
25 25 26 26 26 26 27 27 28 27 26 25 24 23 23 23 23 24 24 24 23 23 23 24 25 25 26 26 27 29 30 30 29 29 31 31 29 29 28 28 31 31 25 21 25 31 35 33 32 32 32 32 31 30 28 26 25 25 25 25 24 24 23
25 26 26 26 26 27 28 28 28 28 27 26 25 24 23 23 23 23 24 23 23 23 23 23 24 25 25 25 26 29 31 30 29 29 31 31 29 29 28 28 29 31 28 26 27 30 35 35 33 32 33 33 31 31 30 27 26 26 26 25 25 25 24
25 26 26 26 27 28 28 29 29 29 28 27 26 25 24 24 23 23 23 23 23 23 24 24 24 24 25 25 26 28 31 31 29 29 31 32 30 29 28 27 28 31 31 31 30 30 35 36 34 34 35 34 33 32 31 29 27 27 26 26 26 26 25
25 26 27 27 28 28 29 30 30 30 29 28 27 26 25 24 24 24 23 22 22 23 24 24 24 24 25 25 26 27 29 31 30 29 30 31 31 29 28 27 28 29 30 31 31 31 34 35 34 36 36 36 34 33 32 30 28 28 28 28 27 26 26
25 26 27 28 29 30 30 30 31 31 30 29 28 27 26 25 24 24 24 23 23 24 25 25 25 25 25 26 26 27 28 30 30 29 29 30 30 30 29 28 29 30 31 31 31 32 33 34 35 36 36 36 36 35 33 31 29 29 30 29 27 27 27
26 27 28 30 31 31 31 31 31 32 31 30 29 28 27 26 25 24 24 25 26 26 26 26 26 26 25 26 27 27 27 29 30 29 29 29 29 29 30 30 30 30 31 31 31 32 33 34 34 35 36 36 36 36 34 32 30 31 31 30 29 29 29
28 29 30 32 33 33 33 32 32 32 32 31 30 29 28 28 27 26 25 26 27 28 27 27 27 27 26 26 27 27 27 28 29 29 28 29 29 28 30 31 30 29 28 29 31 31 33 35 35 36 36 36 36 35 34 33 33 33 33 31 30 31 31
29 30 31 33 34 34 34 34 34 34 33 33 32 31 30 29 29 28 28 28 28 28 28 27 27 27 27 26 26 27 27 28 28 29 28 28 29 28 29 32 32 29 28 28 30 32 34 35 35 35 35 36 36 36 36 36 36 35 35 32 31 32 32
30 31 32 33 34 35 35 35 35 35 34 34 33 33 32 32 31 30 29 29 29 28 28 28 28 28 28 28 27 27 27 27 28 29 28 28 28 29 29 32 33 31 30 30 30 33 35 35 34 35 36 36 37 38 38 38 37 37 37 34 33 33 32
31 32 33 34 35 35 36 36 36 35 35 35 35 34 34 34 33 33 32 31 30 29 29 29 29 29 28 29 29 29 28 28 28 29 29 28 28 29 29 31 33 33 33 33 32 32 34 36 35 36 37 38 39 40 40 39 38 39 39 35 33 34 34
33 34 34 35 35 36 36 37 37 37 36 36 36 35 35 35 35 35 35 34 32 31 30 30 30 29 28 28 29 30 30 30 29 29 29 29 28 29 30 30 33 35 35 35 35 33 33 35 36 38 37 36 38 42 41 40 40 40 40 37 35 36 35
34 34 35 35 36 36 37 37 38 38 38 37 37 37 37 36 37 37 37 36 35 33 32 32 31 30 29 28 29 30 31 31 30 29 29 30 29 29 30 30 32 34 35 35 35 35 35 34 35 38 38 35 37 41 41 40 40 41 40 39 37 37 35
35 35 35 36 36 37 37 38 38 38 39 39 38 38 38 38 38 38 38 39 38 37 35 35 33 32 30 29 29 30 31 32 32 31 30 31 30 29 29 30 31 33 35 35 34 35 36 35 34 36 38 38 37 39 40 40 40 41 42 41 39 37 37
35 36 36 37 37 38 38 38 39 39 40 40 40 40 40 40 40 40 40 40 40 39 38 38 37 35 33 31 30 30 31 32 32 33 32 32 32 31 29 29 31 33 34 34 35 35 35 36 36 35 37 40 41 39 39 40 39 41 42 41 40 39 38
36 37 37 38 38 38 38 39 39 40 40 41 41 41 41 41 41 41 41 41 41 41 41 41 39 37 35 34 32 31 32 32 33 33 33 33 33 33 31 30 30 32 33 34 35 36 36 36 37 35 35 38 42 42 41 40 40 41 42 41 40 40 39
37 38 38 38 38 38 39 39 40 40 41 41 42 42 43 43 43 43 42 43 43 43 43 43 41 40 38 36 35 33 33 33 34 34 34 34 35 35 34 32 31 32 33 34 34 36 37 37 37 35 33 34 38 42 41 40 41 43 43 42 41 40 41
38 38 38 38 39 39 39 40 40 41 42 42 43 43 43 43 44 44 44 44 45 45 45 44 43 42 41 39 38 36 35 34 35 35 35 35 36 36 36 35 33 32 33 33 33 35 37 38 37 36 33 33 35 40 42 41 41 43 43 42 41 40 42
38 38 38 38 39 39 40 40 41 42 42 43 43 44 44 44 44 45 45 46 46 46 46 46 45 44 43 42 41 40 38 36 36 36 36 36 36 37 38 37 36 34 33 33 33 34 36 38 38 37 36 36 36 39 42 43 42 42 42 41 41 41 41
38 38 38 38 39 39 40 40 41 42 42 43 43 44 45 45 46 46 47 47 48 48 48 48 48 47 46 45 44 42 41 39 37 37 37 37 37 38 39 39 38 37 36 34 32 33 35 38 38 38 39 39 38 38 41 44 43 43 43 43 42 42 42
37 38 38 38 38 39 39 40 41 42 43 43 44 45 46 47 47 48 49 49 49 49 49 49 49 49 48 48 47 46 44 42 40 38 37 38 38 38 39 40 40 39 38 37 34 32 34 36 37 38 40 41 40 37 37 41 44 44 44 43 43 43 44
38 38 38 38 38 39 39 40 41 42 43 44 45 46 47 47 48 49 50 50 51 51 51 52 51 51 51 50 50 49 47 46 44 41 39 38 39 39 39 40 41 40 39 39 37 34 34 35 36 38 40 42 42 40 37 38 41 43 44 45 45 45 46
38 38 38 39 39 40 41 42 43 44 45 46 47 47 48 49 50 51 51 52 53 53 54 54 54 54 54 53 53 52 51 49 48 46 43 40 39 40 40 40 40 41 41 40 40 38 35 35 35 36 39 41 42 41 39 40 41 41 41 44 47 47 48
38 39 39 40 41 41 42 43 44 44 45 46 47 48 49 50 50 51 52 53 54 54 55 55 55 55 55 55 55 54 54 53 51 50 48 44 41 41 42 42 41 40 41 41 42 40 38 36 35 34 36 39 41 41 41 42 42 42 41 41 45 48 49
38 39 39 40 41 41 42 43 44 45 46 47 48 49 50 51 52 53 54 55 56 56 57 57 57 57 57 57 57 56 55 55 54 53 52 50 46 43 42 43 43 41 40 41 43 42 40 38 36 34 34 35 38 39 41 41 42 43 43 42 43 46 48
37 38 38 39 40 41 42 43 44 45 47 48 49 50 51 52 53 54 56 57 58 59 60 60 61 61 61 61 60 60 59 57 56 55 54 53 51 48 44 43 44 44 41 41 42 43 43 41 38 35 34 34 35 37 38 39 41 43 45 44 43 44 46
37 37 38 39 40 42 42 43 44 45 46 48 49 50 52 53 54 55 56 57 58 59 60 61 62 62 63 63 64 64 63 62 60 58 56 55 53 52 50 46 45 45 44 42 41 43 44 43 40 37 35 35 35 36 36 37 39 41 44 45 44 43 43
36 37 38 39 40 41 41 42 43 44 46 47 48 50 51 52 53 54 55 56 56 57 58 59 60 60 61 62 62 63 64 65 64 63 61 58 55 54 53 51 47 46 46 44 42 42 43 43 42 40 38 36 36 35 35 36 37 39 42 44 44 43 42
36 37 37 38 38 39 40 41 42 44 45 46 48 49 50 51 52 52 53 54 55 56 57 58 59 59 60 60 61 61 62 63 64 64 64 62 59 56 54 54 51 49 47 47 45 43 42 42 43 42 41 39 37 35 34 35 35 36 39 41 42 41 41
35 35 35 36 37 38 39 40 42 43 44 45 46 47 48 49 50 51 52 53 54 55 56 57 58 59 60 60 60 60 61 61 62 63 63 63 62 59 56 54 53 51 50 49 48 45 43 42 42 43 43 41 38 36 34 34 34 34 36 38 39 38 37
32 33 34 35 36 38 39 40 41 42 43 44 45 46 47 48 50 51 52 53 54 54 55 57 58 58 59 59 59 59 59 60 60 61 62 62 61 60 58 56 53 52 51 51 50 48 45 43 41 42 43 42 39 37 35 34 34 35 34 35 36 35 35
31 32 34 35 36 37 38 39 40 41 42 43 44 45 46 47 48 49 50 51 53 54 55 56 57 57 57 57 57 57 57 57 57 58 59 59 59 58 57 56 54 52 51 52 52 50 47 45 43 41 42 42 40 39 37 35 35 35 34 33 33 33 33
32 33 34 35 36 37 37 38 39 39 40 41 42 43 44 45 46 46 48 50 52 54 55 56 56 56 55 54 54 53 52 52 52 52 54 55 56 56 55 54 53 52 51 52 54 52 49 47 44 42 41 41 40 38 37 36 35 35 34 33 32 32 33
32 33 34 34 35 35 36 37 37 38 39 40 41 42 42 43 43 44 46 48 51 54 56 57 56 54 52 51 50 49 48 47 46 46 47 49 51 52 52 51 52 51 50 51 53 53 50 48 46 43 41 40 39 38 37 36 34 33 33 33 33 32 31

ECMWFFLT1_500_spd_087.txt.gz
Wind_Speed
24 24 23 23 23 23 23 23 23 24 24 24 23 23 23 23 23 22 22 21 21 21 21 20 20 20 20 22 23 23 23 24 24 25 27 30 30 30 31 30 29 30 31 31 29 27 28 28 28 29 29 31 33 32 31 31 30 29 28 28 28 26 24
23 23 23 23 23 24 24 24 24 25 24 25 25 24 24 24 24 23 22 22 21 21 21 20 19 18 18 19 21 22 23 24 25 25 26 28 30 30 31 31 30 31 32 32 30 28 28 30 32 32 31 32 33 33 32 32 32 31 30 30 29 27 26
23 23 23 23 24 24 25 25 25 25 25 25 25 25 25 25 25 24 24 23 22 21 21 20 19 19 18 19 20 21 22 23 24 25 26 27 29 30 32 32 31 31 32 32 31 29 30 33 34 33 34 34 33 34 34 34 34 32 31 30 29 27 26
23 23 23 24 24 24 25 25 25 26 26 26 25 25 25 25 26 25 25 24 24 23 22 21 20 19 19 20 21 22 23 23 24 26 27 28 29 29 31 32 31 31 32 31 30 30 32 34 36 35 35 35 35 35 36 35 35 33 30 30 29 28 27
24 23 24 24 24 24 25 25 25 26 26 26 26 26 26 25 26 26 26 25 24 23 22 21 20 20 20 21 22 23 24 25 25 26 27 29 30 29 30 31 31 30 31 31 30 31 31 30 32 33 34 36 36 36 36 36 35 33 30 29 29 28 28
24 24 24 24 24 24 25 25 25 26 27 27 27 27 27 27 27 27 27 26 25 24 22 22 21 21 22 23 24 25 26 26 27 27 28 29 30 30 29 30 32 30 30 31 31 31 31 29 29 29 30 34 37 37 37 36 34 33 31 29 29 29 29
25 24 24 24 24 25 25 25 26 27 27 27 27 27 27 28 28 28 28 27 26 25 23 23 23 23 24 25 26 27 27 27 28 29 29 29 31 31 30 29 31 31 29 30 31 31 31 30 30 30 31 32 35 39 39 36 35 34 31 30 30 31 31
25 25 25 25 25 26 26 26 27 27 28 28 28 28 28 28 29 29 29 28 27 26 25 25 25 26 26 27 27 28 28 28 29 30 30 30 31 31 31 30 30 31 30 29 30 30 30 30 31 32 32 31 33 40 40 37 36 34 32 33 33 32 32
26 27 27 27 27 27 27 28 28 29 29 29 29 29 29 30 30 30 30 30 29 27 27 27 27 27 28 28 28 28 28 28 28 30 30 30 31 31 31 30 30 30 30 29 30 30 30 31 32 31 32 33 34 39 41 39 37 34 33 35 34 33 33
28 28 28 29 30 30 30 30 30 30 30 31 31 31 31 31 31 31 31 31 30 29 29 29 29 28 29 29 29 29 29 29 29 30 31 31 31 32 31 31 30 30 30 30 29 30 31 31 31 30 33 36 35 36 41 40 37 35 35 37 36 35 35
30 30 31 31 31 31 31 31 31 31 32 32 32 32 32 33 32 32 32 32 32 32 31 31 31 30 30 30 30 31 31 31 30 30 31 31 31 32 32 31 31 31 31 30 30 30 31 31 31 30 32 36 36 35 39 40 38 36 37 39 38 37 37
31 32 33 33 33 32 32 32 32 32 33 33 33 33 34 34 34 34 34 34 34 34 34 33 33 32 31 31 31 32 33 33 32 32 32 32 32 32 32 32 31 31 31 31 31 31 30 31 32 32 30 33 36 36 38 40 39 38 39 41 39 38 39
33 34 34 34 34 33 33 33 33 33 33 34 34 34 35 35 36 36 36 36 36 36 35 35 34 34 33 33 32 33 33 34 34 33 33 34 33 32 32 32 32 31 32 31 31 32 32 31 32 33 32 31 34 37 38 39 39 39 40 42 42 41 41
34 34 34 34 34 34 34 34 34 34 34 34 35 35 36 36 37 37 38 37 37 37 37 36 36 36 35 35 34 34 34 34 34 34 34 35 35 34 33 33 33 32 32 31 31 32 33 33 33 34 34 33 32 35 38 40 41 40 39 41 43 42 42
34 35 35 35 35 35 35 35 35 35 35 35 36 36 37 38 38 39 39 39 39 39 38 38 37 37 37 36 36 36 35 35 35 35 35 35 36 36 34 34 34 33 33 32 31 31 33 34 34 34 35 36 34 33 35 39 41 40 38 40 43 44 43
35 36 35 35 36 36 36 36 36 36 36 36 37 38 39 39 40 40 40 41 41 41 41 40 40 39 39 38 37 37 37 36 36 36 35 36 37 37 36 35 35 35 34 32 32 32 32 34 35 35 35 36 36 35 34 36 39 41 40 40 42 45 45
36 36 36 36 36 36 36 36 37 37 37 38 39 39 40 40 41 41 42 42 42 42 43 43 42 42 41 40 40 39 39 39 38 37 36 36 37 38 38 37 37 37 36 34 33 33 33 33 34 36 36 36 36 36 35 35 36 40 42 41 43 48 50
37 37 37 37 37 37 37 37 37 38 38 39 40 40 41 41 42 42 43 43 43 43 44 44 44 43 43 43 42 42 41 41 40 39 38 37 37 38 38 38 38 39 39 37 34 34 34 34 34 36 37 37 37 36 35 35 35 37 40 40 42 49 54
38 38 38 38 38 37 37 38 38 39 39 40 41 41 42 42 43 43 43 43 44 44 44 44 44 44 44 43 43 43 43 42 42 42 41 39 38 38 39 39 38 40 41 40 38 36 35 35 35 35 36 37 38 37 36 37 37 37 37 38 40 45 52
39 39 40 39 38 38 38 38 39 39 40 41 41 42 42 43 43 43 43 44 44 44 45 45 45 45 45 45 44 44 44 44 44 44 44 43 41 40 40 40 40 40 41 42 41 39 37 36 35 35 35 37 39 39 38 37 38 37 36 39 41 41 47
41 41 41 40 39 39 38 39 39 40 40 41 42 42 43 43 43 44 44 44 44 45 45 45 45 45 46 46 46 46 46 46 46 46 46 45 45 43 41 41 41 41 41 43 43 42 40 38 37 36 35 36 38 40 40 38 38 37 36 40 43 42 46
42 41 40 39 39 39 39 39 40 40 41 41 42 42 43 43 44 44 45 45 46 46 47 47 47 47 47 47 47 47 47 47 47 47 47 47 47 46 45 43 42 42 42 43 44 45 43 41 40 38 36 36 38 39 41 39 38 38 39 42 45 46 48
41 40 40 39 39 39 40 40 40 40 41 41 42 43 43 43 44 44 45 45 46 46 47 47 47 48 48 47 47 47 47 47 47 48 48 48 48 49 48 47 45 44 43 43 44 45 45 44 43 41 38 37 37 38 40 40 39 40 43 42 41 44 48
40 39 39 39 39 40 40 40 40 41 41 41 41 41 42 42 42 43 43 44 45 46 47 48 48 49 50 50 50 50 49 49 49 49 49 49 49 50 50 50 49 47 46 45 45 46 46 46 45 44 41 39 38 38 39 40 40 41 44 43 39 39 45
39 39 39 39 40 40 40 39 39 39 39 39 40 40 41 42 43 44 45 46 47 48 49 50 51 52 53 54 54 55 55 54 53 53 52 52 52 51 51 51 51 51 49 48 46 46 47 47 47 46 44 42 40 39 39 39 40 41 43 44 42 39 40
38 38 39 39 39 39 38 38 38 38 39 39 41 42 43 44 45 46 46 47 48 49 51 52 53 54 55 57 58 58 59 59 59 58 57 57 56 55 55 54 53 53 53 52 50 48 48 49 48 47 46 44 42 41 40 39 39 41 43 44 44 41 40
38 38 39 38 38 37 37 37 38 39 40 41 42 43 44 45 45 46 47 48 50 51 52 53 54 55 56 56 57 58 59 59 60 60 59 59 59 59 58 58 57 57 56 55 54 51 49 49 50 49 48 47 44 42 41 40 39 40 43 45 45 44 43
38 38 38 37 37 37 37 38 39 40 41 41 42 43 43 45 46 47 48 49 50 51 52 52 53 54 54 55 55 56 57 58 59 60 59 59 58 58 59 59 59 60 60 59 58 56 53 50 50 50 50 48 46 44 42 41 40 40 42 45 46 46 46
38 37 37 36 37 37 38 39 39 40 40 41 42 43 44 45 46 47 48 49 50 51 52 52 53 54 54 55 56 56 57 58 59 61 61 61 61 59 58 58 58 59 61 62 62 60 58 54 51 51 51 50 48 46 43 41 41 40 41 44 45 45 46
36 36 36 36 37 37 38 38 39 39 40 41 42 43 44 45 46 47 48 50 51 52 52 53 54 55 55 56 56 57 58 58 59 60 62 63 64 63 62 60 59 58 59 61 63 63 62 59 55 52 51 51 49 47 44 42 42 41 41 42 44 44 45
35 35 35 36 36 36 37 37 38 39 40 41 43 44 45 46 47 48 49 51 52 53 53 54 55 55 56 56 57 58 58 59 60 61 62 63 64 65 65 64 62 60 59 59 61 63 64 63 59 54 52 51 50 48 45 43 42 42 42 42 42 43 44
34 34 34 35 35 35 36 37 38 39 40 42 43 44 46 47 48 49 50 51 52 53 53 54 54 55 56 57 58 59 59 60 61 62 62 62 63 64 65 65 64 62 61 59 60 61 64 64 62 58 54 52 50 48 45 44 43 43 43 42 42 43 44
33 33 33 34 34 35 36 37 38 40 41 42 44 45 46 47 48 49 50 51 51 52 52 53 54 55 56 57 58 59 61 62 62 63 63 63 62 62 63 64 64 63 62 61 60 60 62 63 63 60 56 52 51 49 46 45 44 44 44 43 43 43 44
32 32 32 33 34 35 36 37 39 40 41 42 44 45 46 47 48 48 49 49 50 51 51 52 53 54 56 57 58 60 61 63 64 64 64 63 61 59 58 58 60 61 61 61 60 60 61 61 62 61 57 54 51 50 48 45 44 44 45 44 43 42 43
30 30 31 32 34 35 36 37 39 40 41 42 42 43 44 45 46 46 47 48 49 50 51 51 52 54 55 56 58 60 62 64 66 66 65 62 59 55 52 51 52 55 57 58 59 60 60 60 60 60 58 54 52 51 50 47 44 44 44 44 43 42 42
29 30 32 33 34 35 36 37 38 39 40 40 41 41 42 43 44 44 45 46 47 48 49 50 51 53 54 56 58 61 64 66 66 65 63 60 56 51 46 44 45 47 50 52 54 56 58 58 58 58 58 55 52 52 51 48 45 45 44 43 43 43 43
30 31 32 33 35 35 36 37 37 38 38 38 39 40 40 41 42 43 44 45 46 47 47 48 50 51 53 56 58 61 64 65 63 61 58 55 52 48 42 38 38 40 43 45 47 49 52 55 55 56 57 55 52 52 52 49 47 45 44 43 44 43 43

ECMWFFLT1_500_spd_090.txt.gz
Wind_Speed
24 25 25 25 25 24 25 25 25 24 24 24 23 23 24 24 24 24 23 23 23 23 23 23 23 22 22 23 24 24 24 24 24 24 24 25 25 25 26 27 29 30 29 28 27 28 27 26 28 30 32 32 32 33 31 30 31 33 34 34 33 32 31
25 25 25 26 26 26 26 26 26 25 25 24 24 24 24 24 24 24 24 24 23 23 23 24 24 24 23 23 23 24 24 25 25 25 25 26 27 27 26 27 27 29 30 29 28 30 30 28 26 28 31 32 33 34 33 31 32 33 36 35 34 33 32
26 26 26 26 26 26 26 26 26 26 25 25 25 25 25 25 25 25 24 24 23 23 23 24 24 25 24 24 24 25 25 26 26 27 27 28 28 28 29 28 28 29 30 30 30 30 31 31 29 27 30 32 32 33 35 35 34 33 36 37 34 33 32
27 27 27 27 27 27 27 27 27 27 27 26 26 25 25 25 25 26 25 24 24 23 24 24 25 25 25 25 26 26 26 26 27 28 28 29 29 29 29 30 29 29 29 30 30 30 30 31 31 29 29 32 33 32 34 36 36 35 35 36 35 33 32
29 28 28 28 28 28 28 28 28 28 27 27 27 27 26 26 26 26 25 25 25 25 25 25 25 26 26 26 27 27 27 28 28 28 29 29 30 29 29 30 30 31 30 30 30 30 30 31 32 30 28 31 33 32 32 32 34 35 34 35 35 33 33
29 29 29 29 29 28 28 28 28 28 28 27 27 27 27 27 27 26 26 26 26 26 26 26 26 26 26 27 27 28 29 29 30 30 29 29 30 30 30 30 31 31 32 31 30 30 30 30 31 30 28 30 31 31 31 30 30 32 32 33 35 35 34
30 30 30 30 29 29 29 28 29 29 28 28 28 28 28 28 28 27 27 27 27 27 27 27 27 27 28 28 29 29 30 31 31 31 31 30 30 30 30 30 31 31 32 32 31 30 30 30 30 31 29 29 29 30 31 30 28 29 31 33 35 36 35
31 31 31 31 30 30 30 30 30 30 30 29 29 29 29 29 29 29 28 28 28 28 28 28 29 29 29 30 30 31 31 32 32 32 32 32 31 31 31 31 31 31 32 33 32 31 31 30 30 30 30 29 29 29 30 31 29 27 30 34 37 37 36
31 32 32 32 32 32 32 31 31 31 31 31 31 31 31 31 31 31 30 30 29 29 29 30 30 31 31 32 32 32 33 33 34 34 34 33 33 33 32 32 31 32 32 33 33 32 31 31 30 30 30 30 29 29 30 31 31 28 29 33 37 39 38
32 33 33 33 33 33 33 33 33 33 33 33 33 33 33 33 33 32 32 31 31 31 31 31 32 32 33 33 34 34 34 35 35 36 36 35 35 35 34 34 33 33 33 33 33 33 32 32 31 30 30 30 29 29 29 30 31 31 32 33 36 40 39
33 34 34 34 33 33 34 34 34 35 35 35 35 35 35 35 34 34 33 33 32 32 32 33 33 34 34 35 35 35 35 36 36 37 37 37 37 37 36 36 35 35 34 33 33 34 33 32 32 31 30 30 29 29 29 30 31 33 34 35 36 39 41
34 34 33 33 34 34 34 35 36 36 36 36 36 36 36 36 36 35 34 33 33 33 33 34 34 35 36 36 37 37 37 37 37 37 38 39 39 39 38 37 37 37 36 35 34 34 34 34 33 32 31 31 30 29 30 32 33 33 33 35 38 39 42
34 34 34 34 34 35 35 36 37 38 38 37 37 37 37 37 36 36 35 35 35 35 35 35 36 36 37 38 38 38 39 39 39 39 39 40 40 40 39 39 38 39 38 37 36 35 35 34 34 34 32 31 30 29 30 33 34 33 31 33 36 38 40
34 34 35 35 36 36 36 37 38 39 38 38 38 38 38 37 37 37 36 36 36 36 36 36 37 38 38 39 39 40 40 40 40 40 40 41 41 41 41 40 40 40 40 39 37 37 36 35 35 35 34 33 31 30 30 33 34 34 31 31 33 36 40
34 36 37 37 38 38 38 38 39 39 39 39 39 39 38 38 38 38 37 38 38 38 38 38 38 39 40 41 41 42 42 42 42 42 42 42 42 42 42 42 41 41 41 40 39 39 38 37 36 36 36 35 33 31 31 32 34 34 33 32 32 34 38
36 37 38 39 40 40 40 40 40 40 39 40 39 39 39 39 38 38 38 38 39 39 39 39 40 40 41 41 42 43 43 43 43 43 43 43 42 42 42 42 42 42 42 41 41 40 40 39 37 36 36 36 36 34 32 32 33 34 34 33 33 33 34
37 38 39 40 41 41 41 40 40 41 41 40 40 39 39 39 38 38 39 39 39 39 40 40 41 42 42 43 43 43 43 44 44 44 44 43 43 43 43 42 43 43 43 42 42 42 42 41 40 38 37 37 37 36 34 33 33 34 34 33 33 33 33
38 39 40 40 40 40 40 40 41 41 41 41 40 39 39 39 39 39 39 39 40 40 41 41 42 43 43 44 44 45 44 44 44 45 45 45 45 44 44 44 44 44 44 43 43 44 44 43 42 41 39 38 38 38 37 36 34 34 35 34 33 34 34
39 39 39 39 40 40 40 40 41 41 41 40 40 39 38 38 38 39 39 39 40 40 41 41 42 43 43 44 44 44 44 44 44 44 45 45 45 45 45 46 46 46 45 45 44 45 45 45 44 43 41 40 40 39 38 37 36 35 35 34 34 34 34
38 38 39 39 39 40 40 41 41 41 40 40 39 38 38 38 38 38 38 39 39 39 39 40 40 41 41 41 42 42 42 43 43 43 44 44 45 45 46 46 46 47 47 47 46 45 46 46 46 45 44 42 41 41 40 39 38 37 36 35 35 35 35
37 38 39 39 39 40 41 41 41 40 39 38 38 38 38 37 37 37 37 37 37 37 38 38 39 39 40 41 42 43 43 44 44 45 45 46 46 46 47 47 48 48 48 48 48 47 47 47 47 46 46 45 43 42 42 41 40 39 39 37 35 36 37
38 39 39 39 40 40 41 40 39 38 38 38 37 37 36 36 35 35 36 36 37 38 39 40 41 42 43 43 44 45 46 47 48 48 48 49 49 50 50 50 51 51 51 51 51 50 49 49 48 48 47 48 47 45 43 43 42 41 40 39 37 36 37
39 39 39 40 40 40 40 38 38 37 37 37 36 35 35 35 35 36 37 38 40 41 42 43 44 45 46 47 48 49 50 50 50 51 51 51 51 51 52 52 53 54 54 55 55 54 54 53 52 50 49 49 49 48 46 44 44 43 42 41 39 37 37
39 39 40 40 39 39 37 36 36 37 37 36 35 35 35 36 37 38 39 40 41 43 44 45 47 48 49 50 51 51 51 51 51 51 51 51 50 50 50 51 52 53 54 55 56 57 57 57 57 55 53 51 50 51 49 47 46 45 45 44 41 39 38
39 39 39 38 37 36 35 36 36 36 36 35 35 36 37 38 39 39 40 41 43 44 45 46 48 49 49 50 50 51 51 51 51 51 51 51 51 51 51 51 51 52 53 54 55 56 57 58 59 60 59 56 54 53 52 50 48 46 47 46 44 41 40
38 38 37 36 35 34 35 36 36 36 35 36 36 37 38 39 40 40 41 42 43 44 45 46 47 48 49 49 50 51 51 52 52 52 53 53 53 53 53 53 53 53 54 54 55 56 56 57 58 60 61 61 59 57 55 53 51 48 47 48 46 44 42
36 35 35 34 34 34 35 36 36 36 36 37 37 38 39 40 40 41 42 43 44 45 45 46 47 48 49 50 51 51 52 53 53 54 54 55 55 55 56 56 56 56 56 56 57 57 58 58 58 59 60 62 62 61 59 57 54 52 49 49 49 46 43
34 33 33 33 34 35 35 35 35 36 37 37 38 38 39 40 41 42 43 44 44 45 46 47 48 49 49 50 51 52 53 54 54 55 56 56 57 58 58 59 59 59 59 59 59 59 60 60 60 60 60 61 63 63 62 60 58 55 52 50 49 48 45
32 32 32 33 34 34 34 35 35 36 37 37 38 38 39 40 41 42 43 44 45 46 47 48 49 49 50 51 52 53 53 54 55 56 57 58 58 59 60 61 61 62 62 62 62 62 62 62 62 62 62 62 63 63 63 63 61 59 55 52 50 50 47
32 32 33 33 33 33 34 35 35 36 36 37 38 38 39 40 41 42 44 45 46 47 48 49 50 50 51 51 52 53 54 55 55 56 57 58 59 60 61 62 63 64 65 65 65 65 65 63 62 63 64 64 64 64 63 64 63 61 58 55 52 51 49
31 32 32 32 32 33 34 35 35 35 36 37 37 38 40 41 42 43 44 46 47 48 49 50 50 51 52 52 53 53 54 55 56 56 57 58 59 61 62 64 65 66 67 68 68 67 67 66 63 63 64 65 65 64 64 65 64 63 61 57 53 52 51
31 31 31 32 32 33 33 34 34 35 36 37 38 39 40 42 43 44 45 46 47 48 49 50 50 51 52 53 54 54 55 55 56 57 58 59 60 62 63 65 67 68 69 70 70 68 67 66 64 62 62 64 65 65 65 65 64 63 62 59 55 52 51
30 30 30 31 32 32 32 32 33 35 36 37 39 40 41 42 44 45 45 46 47 48 49 50 51 52 52 53 54 55 55 56 56 57 58 60 61 63 65 67 68 69 69 68 67 65 64 63 62 61 60 61 63 64 65 65 64 63 62 60 56 54 52
29 29 30 31 31 30 31 32 33 35 37 38 39 41 42 43 44 44 45 45 46 47 48 49 50 51 52 53 54 55 55 56 56 58 60 61 63 65 67 68 68 66 63 60 58 57 56 56 56 56 56 58 60 63 63 63 63 63 62 60 57 55 53
29 29 29 29 29 30 31 32 34 35 37 38 39 40 41 42 42 43 44 44 45 46 47 49 50 51 52 53 53 54 55 56 57 59 60 62 65 68 68 67 64 59 54 51 48 48 48 48 48 49 50 52 55 59 61 61 62 62 61 60 58 56 54
28 27 27 27 28 29 31 32 34 35 37 38 39 39 39 39 40 41 42 43 44 45 46 48 49 50 51 52 53 54 55 56 57 59 61 64 67 68 66 63 59 53 48 44 41 39 39 39 39 39 41 44 48 53 57 58 59 60 60 59 58 56 55
26 25 26 27 28 30 31 33 34 35 36 37 37 36 37 37 38 39 40 41 43 44 45 47 48 49 50 51 52 53 53 55 57 60 63 66 67 65 63 60 57 51 44 39 36 32 29 29 30 31 32 36 40 45 50 52 54 57 58 58 57 56 55

ECMWFFLT1_500_spd_093.txt.gz
Wind_Speed
21 22 22 23 24 25 25 26 27 27 27 27 27 27 27 27 27 27 27 26 26 26 26 27 26 26 26 25 25 26 26 26 26 25 25 26 26 26 27 26 26 26 26 25 25 26 24 21 22 26 29 30 29 28 28 28 29 30 30 30 29 29 31
21 22 22 23 25 25 26 27 27 28 28 28 28 28 28 28 28 28 28 27 27 27 27 27 27 27 26 26 26 26 26 27 27 26 27 27 27 27 27 27 27 27 27 27 27 27 28 26 23 25 29 30 28 28 29 28 29 31 31 31 30 29 31
21 22 23 24 25 26 27 28 28 28 28 29 29 29 29 29 29 28 28 28 28 28 28 28 28 28 27 27 27 27 27 27 28 28 28 28 29 29 29 29 28 28 27 27 28 27 28 29 26 25 28 30 29 28 29 29 29 30 30 31 31 31 33
22 23 24 25 26 27 28 29 29 29 29 30 30 29 29 29 29 29 28 28 29 29 29 28 28 28 28 28 28 28 28 28 28 29 30 30 30 31 31 31 30 30 29 28 28 28 28 29 28 26 27 30 29 28 29 29 29 29 29 30 31 32 35
23 24 25 26 27 28 29 30 30 30 30 30 30 30 30 29 29 29 29 29 29 29 29 29 29 29 29 29 29 29 29 29 29 29 30 31 32 32 33 33 33 32 32 31 30 29 29 29 29 28 27 29 29 28 29 28 29 29 28 29 30 31 34
24 25 26 27 28 29 30 30 30 31 31 31 31 31 31 30 30 29 29 30 30 30 30 30 30 30 30 30 30 30 30 30 30 30 31 31 32 33 33 34 35 34 34 34 33 32 31 31 31 30 29 29 29 28 29 28 28 29 28 28 28 28 30
25 25 27 28 30 30 31 31 31 32 32 32 32 32 32 32 31 31 31 31 31 32 32 32 31 31 31 31 30 31 31 31 31 32 32 32 33 34 34 34 35 36 36 36 36 35 34 33 32 32 31 30 30 29 29 29 28 28 28 27 26 26 26
26 27 28 29 30 31 32 33 33 33 33 33 33 33 33 33 33 32 32 32 33 33 33 33 33 33 32 32 32 32 32 32 32 32 33 33 34 35 35 36 36 37 37 37 38 38 37 36 34 33 33 32 31 30 30 29 28 28 28 28 26 25 24
28 29 30 31 32 33 34 34 34 35 35 34 34 34 34 34 34 35 34 34 34 34 35 35 35 34 34 33 33 33 33 33 33 33 33 34 34 35 36 37 37 38 38 38 38 39 39 38 37 36 34 34 33 31 30 29 28 28 29 29 27 26 25
29 30 31 32 33 34 35 36 36 36 36 36 35 35 35 36 37 37 37 37 36 36 36 36 36 35 35 34 34 34 34 34 34 34 34 34 35 36 36 37 37 38 39 39 39 40 40 40 39 38 36 35 35 34 32 30 28 28 29 29 28 28 27
30 32 32 33 34 35 37 37 37 38 37 37 37 37 38 38 38 39 39 38 38 38 37 37 37 36 36 35 35 35 35 35 35 35 35 35 36 37 37 38 38 38 39 39 40 40 40 40 40 39 38 37 36 35 35 33 29 27 29 29 29 30 31
31 32 33 34 35 36 38 38 38 39 39 39 39 40 40 40 40 40 40 39 39 39 38 38 37 37 37 36 36 36 36 36 36 36 36 36 37 37 38 38 39 39 40 40 40 41 41 41 41 40 40 39 38 36 36 36 33 28 29 30 29 30 32
32 33 34 35 36 38 39 39 39 39 40 40 41 42 42 41 40 40 40 40 40 39 39 38 38 38 37 37 37 37 37 37 37 37 37 37 37 38 39 39 40 40 41 41 41 41 41 42 42 41 41 40 39 38 37 38 36 31 30 31 30 29 32
33 34 35 36 37 38 39 39 40 40 40 41 42 42 42 41 41 41 40 40 40 39 39 39 38 38 38 38 37 37 37 37 37 38 38 39 39 40 41 41 42 42 42 42 42 42 42 42 42 42 42 42 40 40 39 39 39 35 32 33 32 30 32
33 34 35 36 37 38 39 40 40 41 41 42 43 42 41 41 42 42 41 40 39 39 38 38 38 38 38 38 37 37 37 38 38 39 39 40 40 41 42 43 43 44 44 44 43 43 43 43 43 42 43 43 42 41 41 41 40 38 34 33 34 33 32
33 34 35 36 37 38 39 40 41 42 42 42 42 41 41 42 42 41 41 40 39 38 38 38 37 37 37 38 38 38 38 39 39 40 40 41 41 42 43 43 44 44 45 45 44 44 44 44 44 44 43 44 44 43 43 43 42 41 38 34 34 35 34
33 34 35 36 37 39 40 41 42 42 42 41 41 41 41 42 42 41 40 39 39 38 38 37 37 37 37 37 38 38 38 38 39 39 40 41 41 42 43 43 43 44 45 45 45 45 45 45 45 45 45 45 46 45 44 45 44 44 42 38 35 36 36
33 34 35 36 38 39 40 41 41 40 40 41 41 41 41 41 41 40 39 39 38 37 37 37 36 36 36 37 37 37 38 38 38 39 40 41 42 43 44 44 44 45 45 46 46 46 47 47 46 46 46 46 47 47 46 46 46 46 45 42 38 37 38
33 35 36 37 38 39 40 40 39 39 40 41 40 41 41 41 40 39 38 37 37 36 35 35 35 35 36 36 37 38 39 40 40 41 42 43 44 45 46 47 47 48 49 49 49 49 49 49 49 49 49 48 48 48 48 48 48 47 47 45 42 39 39
34 36 36 37 38 38 38 38 39 40 40 40 40 41 41 39 38 37 37 36 35 34 34 35 35 36 37 38 39 40 41 42 43 44 45 46 47 48 49 49 50 50 51 51 51 52 52 52 52 52 53 52 51 50 49 49 49 50 49 47 45 43 41
35 36 36 36 37 37 37 38 39 40 40 40 41 40 39 38 37 36 35 34 34 34 35 36 37 38 39 40 41 42 43 44 45 45 46 47 48 48 49 50 50 51 51 51 51 52 52 53 53 54 54 55 56 55 53 52 51 51 51 50 48 46 44
35 35 35 36 36 37 38 39 39 40 40 40 40 38 37 36 36 35 34 35 35 36 37 38 39 40 41 42 43 44 45 45 46 46 46 47 47 48 48 49 50 50 51 51 51 51 52 53 54 54 54 55 56 57 57 57 55 54 54 53 51 49 47
35 35 35 36 36 37 38 38 39 39 39 39 37 36 36 35 35 35 35 35 36 38 39 40 41 42 43 43 44 45 45 46 46 46 47 47 47 48 48 49 50 50 51 52 52 52 53 53 54 55 55 55 56 57 57 58 58 58 57 56 54 52 50
34 34 35 35 35 36 37 37 38 38 38 36 35 35 35 35 35 35 36 37 38 39 40 41 42 43 43 44 45 45 46 46 47 47 48 48 48 49 49 50 50 51 52 52 53 53 54 54 55 56 57 57 58 59 59 58 58 59 60 60 58 56 54
32 32 33 33 34 35 36 37 37 36 35 35 35 35 35 35 35 36 37 38 38 39 40 41 42 43 44 45 46 46 47 47 48 48 49 49 50 50 50 51 51 52 53 53 54 54 55 55 55 56 58 59 59 60 61 62 61 59 60 61 61 59 58
30 31 32 33 34 34 35 35 35 34 34 34 35 35 35 35 36 36 37 38 38 39 40 41 42 43 45 46 47 47 48 49 49 50 50 50 50 51 51 51 52 53 54 54 55 56 56 56 57 57 58 59 61 62 63 64 65 64 62 61 61 60 60
30 31 32 32 33 33 34 34 34 34 34 34 34 34 35 35 36 36 37 37 38 39 40 41 42 44 45 46 47 48 48 49 50 50 50 51 51 51 52 53 53 54 55 56 57 58 58 58 59 59 59 59 61 63 64 65 67 67 67 65 63 61 60
29 30 30 31 32 33 33 33 33 34 34 34 34 34 35 35 35 36 37 37 38 40 41 42 43 44 45 46 47 47 48 49 50 50 51 52 52 53 53 54 55 56 57 58 59 60 60 61 61 62 62 62 62 63 65 67 68 69 70 70 68 64 61
29 29 30 31 32 32 32 32 33 33 33 33 34 34 34 35 35 36 37 38 39 40 41 42 43 44 45 45 46 47 48 49 50 51 52 53 53 54 55 55 56 57 59 60 61 62 63 64 64 65 64 64 64 64 66 68 69 69 71 72 72 69 64
29 29 30 30 31 31 31 32 32 32 32 33 33 33 33 34 35 36 37 38 40 41 42 43 43 44 44 45 46 47 48 50 51 52 52 53 54 54 55 56 57 59 60 62 63 65 66 66 67 67 67 66 67 67 67 68 69 70 71 72 73 73 70
28 29 29 30 30 30 30 31 31 31 32 32 32 32 33 34 35 36 37 39 40 41 42 42 43 44 44 45 46 48 49 50 51 52 52 53 53 54 55 57 59 60 62 63 65 67 68 69 68 68 68 67 67 67 68 68 68 69 71 72 73 74 73
28 29 29 30 30 30 30 30 30 31 31 31 31 32 33 34 35 36 38 39 40 40 41 42 43 44 45 46 47 49 50 51 51 51 52 52 53 54 55 57 59 61 63 65 67 68 68 68 67 64 63 62 63 63 64 65 66 68 69 70 72 73 74
28 28 29 28 28 29 29 29 29 30 30 31 31 32 33 34 36 37 38 38 39 39 40 42 43 44 46 47 49 50 50 50 51 51 52 53 53 55 56 58 59 62 65 67 67 66 64 62 60 56 53 52 53 54 54 56 59 63 66 67 69 71 73
27 27 27 27 28 28 28 28 28 29 30 31 31 32 34 35 36 38 38 38 38 39 40 42 43 45 47 48 49 50 50 50 50 51 52 53 54 56 57 59 61 64 66 66 64 60 56 53 50 46 42 41 42 43 44 44 47 52 57 62 65 67 70
26 26 26 27 27 27 27 27 28 29 30 31 32 33 35 36 37 37 37 37 38 38 40 42 43 46 47 48 48 48 49 50 50 51 52 53 54 56 58 60 63 66 65 63 59 53 46 42 40 36 32 30 31 33 35 35 36 39 44 51 58 63 66
25 25 26 26 26 25 26 26 27 29 30 31 32 34 35 36 36 35 35 36 37 38 40 41 44 45 46 46 46 47 48 49 50 50 51 53 54 56 58 61 64 65 64 61 56 47 39 34 32 26 22 22 25 25 26 27 27 28 31 37 47 55 60
24 24 25 25 24 24 25 26 27 28 30 31 33 34 34 34 33 33 33 35 36 37 39 41 43 44 44 44 45 46 47 48 49 50 51 53 55 56 59 63 65 64 63 59 53 44 36 31 27 20 16 22 27 27 26 25 24 22 20 24 33 43 51

ECMWFFLT1_500_spd_096.txt.gz
Wind_Speed
20 20 20 20 21 21 21 22 22 22 23 23 24 25 26 26 27 28 28 28 29 29 30 30 31 31 31 31 32 32 31 31 30 30 30 29 29 30 30 30 30 29 29 28 27 25 23 23 25 28 29 29 29 28 28 28 28 27 27 27 27 27 27
20 20 20 21 21 21 22 22 23 23 24 25 26 26 27 28 28 29 29 30 30 30 30 31 31 31 32 32 32 32 32 32 32 31 31 31 30 30 30 30 30 30 31 31 30 29 26 25 24 26 29 29 29 30 29 29 29 28 28 28 28 28 28
20 20 20 21 21 22 22 23 23 24 25 26 26 27 28 28 29 29 30 31 31 31 31 31 32 32 32 33 33 33 33 33 33 33 32 32 32 31 31 31 31 31 31 32 32 32 31 29 26 26 29 29 29 30 31 30 31 30 28 29 29 28 28
20 20 21 21 22 23 24 24 24 25 26 26 27 27 28 28 29 30 31 31 31 32 32 32 32 33 33 34 34 34 34 34 34 34 34 34 33 33 32 32 32 32 32 32 33 33 33 33 31 28 29 30 29 30 32 31 32 31 30 29 29 29 29
20 21 22 22 23 24 25 25 26 27 27 28 28 29 29 30 30 31 31 32 32 32 32 32 32 33 33 34 34 35 35 35 35 35 35 35 35 34 34 33 33 33 33 33 33 34 34 34 33 31 31 32 31 30 32 32 32 32 32 31 29 29 30
21 22 23 23 24 25 26 27 28 29 29 29 30 30 31 31 32 32 32 32 32 33 33 33 33 33 34 34 34 35 35 35 36 36 35 35 35 35 35 35 34 34 34 34 34 34 35 35 35 34 32 33 32 31 31 32 33 33 33 33 31 29 29
22 23 24 24 25 26 27 28 29 30 31 31 31 32 32 32 33 33 33 33 33 34 34 34 34 34 34 35 35 35 36 36 36 36 36 36 36 36 36 35 35 35 35 35 35 35 35 36 36 36 34 33 33 32 32 32 33 33 34 35 33 31 30
23 24 25 25 26 27 28 28 29 31 32 33 33 33 34 34 35 35 35 35 35 35 35 35 34 34 35 35 35 36 36 36 37 37 37 37 37 37 37 36 36 36 37 37 37 36 36 37 37 38 37 35 34 33 32 32 32 33 34 36 35 33 32
25 25 26 26 27 28 28 29 30 31 33 34 34 35 35 36 37 37 37 37 37 37 36 35 35 35 35 36 36 36 37 37 37 37 37 38 38 38 38 38 38 38 38 38 38 37 37 37 38 39 39 39 38 36 34 32 32 33 35 36 35 34 34
26 27 27 28 28 29 29 30 31 32 34 35 35 36 37 37 38 38 39 39 39 38 36 36 36 36 37 37 37 37 37 37 37 37 38 38 38 39 39 39 39 39 39 39 39 39 39 39 39 40 40 41 41 40 38 35 32 32 35 37 36 35 35
28 29 29 29 29 30 30 31 32 34 35 36 37 37 38 39 39 39 40 40 40 38 37 37 38 38 38 38 37 37 37 37 38 37 38 38 39 39 40 40 40 39 39 40 40 40 40 40 41 42 42 43 43 44 43 40 35 32 34 36 37 36 36
29 30 30 31 31 31 31 32 34 35 36 38 38 39 39 40 40 41 41 41 40 38 38 39 39 39 38 38 37 37 37 37 37 37 38 38 39 39 40 40 40 40 40 41 41 41 42 42 43 43 44 45 45 45 46 45 41 36 35 36 37 38 38
29 30 31 31 32 32 33 34 35 36 38 39 39 39 40 40 41 41 41 40 39 39 39 40 40 39 38 37 37 37 37 37 37 38 38 38 39 39 40 40 41 41 41 42 42 43 43 44 45 45 46 46 47 47 47 48 46 41 37 37 38 38 39
30 30 31 32 32 33 34 35 36 37 38 39 39 40 40 41 42 41 40 39 39 39 40 40 40 39 38 38 37 37 37 37 37 37 38 38 39 39 40 40 41 41 42 42 43 44 44 45 45 46 46 47 47 48 49 49 49 46 41 40 40 39 40
31 31 32 32 33 34 34 35 36 37 38 38 39 40 41 42 42 41 40 40 40 40 40 40 39 38 38 38 38 37 37 37 37 37 37 37 38 39 39 40 41 42 42 43 44 44 45 45 46 46 46 47 47 48 49 50 50 49 44 42 42 41 41
32 32 32 33 33 34 34 35 36 37 37 38 39 41 42 42 41 40 40 40 40 40 40 40 39 38 38 38 38 37 36 36 36 36 37 38 38 39 40 41 42 43 44 45 46 47 47 48 48 48 48 48 48 48 50 51 50 50 47 43 43 43 43
30 31 32 32 33 34 34 35 35 36 37 38 40 41 41 40 40 40 40 40 40 40 40 39 39 38 38 38 37 37 37 37 37 38 38 39 40 41 42 44 44 45 46 47 48 49 50 51 51 52 51 51 51 51 51 52 52 52 50 46 44 44 44
29 30 31 32 33 33 34 34 35 36 37 39 40 40 39 39 39 40 40 40 40 40 40 39 39 39 38 38 38 38 38 39 39 40 41 42 43 44 45 46 46 47 48 49 49 50 51 52 52 53 54 54 54 54 54 54 55 54 53 51 47 45 46
28 29 30 31 32 33 34 34 35 36 37 38 38 38 39 39 40 40 40 40 40 40 39 39 39 39 38 39 39 39 40 41 42 43 44 45 46 46 47 48 48 48 49 49 50 50 51 51 52 53 54 54 55 55 56 56 56 56 56 55 53 50 48
29 30 30 32 33 34 34 35 36 36 37 37 37 38 38 39 40 40 40 40 40 39 39 39 39 39 39 40 40 41 42 43 44 45 45 46 46 47 48 49 49 50 50 51 51 51 52 52 52 53 53 54 55 55 56 56 57 58 58 57 56 54 52
30 30 31 32 34 34 35 35 35 36 36 37 37 37 38 39 40 40 40 39 39 39 39 39 39 40 40 41 42 43 44 44 45 45 46 46 47 48 48 49 50 50 51 52 52 53 54 54 54 54 55 55 56 56 56 57 57 58 59 59 58 57 56
29 31 32 33 34 35 35 34 35 35 36 36 36 37 38 39 39 39 38 38 39 40 40 40 40 40 41 42 43 44 44 45 45 46 46 47 48 48 49 49 50 51 51 52 52 53 54 55 56 56 57 57 58 58 58 58 58 58 59 60 60 60 59
30 31 33 34 34 33 33 33 34 34 35 35 36 37 38 38 38 38 38 39 40 40 40 40 41 42 43 43 44 44 45 45 46 46 47 47 48 49 50 50 50 51 51 51 52 52 52 53 55 56 57 59 60 61 61 61 60 60 61 61 62 61 61
32 32 33 33 31 30 31 31 33 33 34 35 36 36 37 37 37 37 38 39 40 40 40 41 42 43 43 44 44 44 45 46 47 47 48 48 49 49 49 49 49 49 50 50 50 51 51 52 53 55 56 58 60 62 63 64 64 64 64 63 63 63 63
30 29 29 29 28 28 30 31 32 33 34 34 35 35 36 36 37 38 39 39 39 40 41 42 43 43 43 43 44 45 46 47 47 48 48 49 48 48 47 47 48 48 49 49 50 50 51 52 54 55 56 57 59 61 63 65 66 66 67 67 66 66 65
25 25 25 26 27 28 30 31 32 32 33 33 34 35 35 36 37 38 38 39 39 40 41 42 42 43 43 44 45 46 47 47 48 48 48 47 47 47 47 47 48 48 49 50 50 51 52 53 55 56 57 58 60 61 63 65 66 68 69 69 70 69 68
24 25 25 26 27 28 29 30 30 31 32 33 33 34 35 36 37 37 38 39 39 40 40 41 42 42 43 45 46 47 47 47 47 47 47 47 47 47 47 48 48 49 50 51 52 53 54 55 57 58 59 60 62 63 64 66 67 68 69 71 71 72 71
24 24 24 25 26 27 28 29 29 31 32 32 33 34 35 36 36 37 38 38 39 39 39 40 41 42 44 45 45 46 46 46 46 46 46 47 47 48 48 49 49 50 51 53 54 55 57 58 60 61 62 63 64 65 66 67 68 69 70 71 72 73 73
23 23 24 25 26 27 28 29 30 31 32 32 33 34 35 36 37 37 38 38 38 39 39 40 41 42 43 44 44 44 43 44 44 45 46 47 47 48 48 49 50 51 52 54 55 57 58 59 61 63 64 65 66 67 68 69 70 71 71 72 73 73 74
23 24 25 26 27 27 29 30 30 31 31 32 33 34 35 36 36 37 37 37 38 38 39 40 41 42 42 42 42 42 42 43 45 46 46 46 46 47 48 49 50 51 52 54 56 57 58 60 62 64 66 67 68 68 68 67 67 68 69 71 73 74 74
23 24 25 26 27 28 29 29 29 30 31 32 33 34 35 35 35 36 36 37 37 38 39 40 41 41 40 40 40 41 42 44 45 45 45 45 46 47 48 49 50 51 53 54 56 58 60 62 64 65 65 65 63 61 59 57 55 55 57 60 65 69 72
24 25 26 27 27 28 28 28 29 30 31 32 33 34 34 34 34 35 35 36 38 39 40 40 39 39 39 39 40 42 43 44 44 44 44 44 46 47 48 49 51 52 53 55 56 59 62 64 64 61 58 55 52 48 44 41 41 41 42 45 50 57 64
24 25 26 26 27 27 27 28 29 30 31 32 33 33 33 33 34 34 36 37 38 39 39 38 38 38 38 39 41 42 43 43 43 43 43 45 46 47 48 50 51 52 54 55 57 60 63 63 59 52 48 45 40 35 32 31 32 33 34 34 35 41 49
25 25 26 26 26 26 27 28 29 31 31 32 32 32 32 33 33 35 36 37 38 37 37 36 36 37 38 40 41 42 42 42 41 42 44 45 46 48 49 50 51 52 53 56 59 62 63 59 51 44 40 36 31 29 31 33 32 30 29 28 28 31 36
25 25 25 25 25 26 27 29 30 30 30 30 31 31 32 33 34 35 37 37 36 35 35 35 36 37 39 40 41 41 41 40 41 42 44 45 46 48 48 50 51 52 54 57 61 64 62 54 45 38 33 29 27 31 37 38 34 32 32 31 29 29 30
24 25 24 24 25 26 28 29 29 29 29 29 30 31 32 33 35 36 36 35 34 33 33 34 35 37 39 40 41 40 40 40 41 43 44 45 46 47 48 49 51 52 55 58 61 63 59 50 41 35 30 29 31 36 40 41 37 35 36 36 33 28 25
24 24 24 24 25 26 28 28 28 28 28 29 30 31 32 34 35 34 33 32 32 32 33 34 36 38 39 39 39 38 39 39 41 42 44 45 46 46 47 48 50 53 56 59 62 62 56 47 38 33 31 33 35 39 43 42 38 36 36 34 29 25 23

ECMWFFLT1_500_spd_102.txt.gz
Wind_Speed
12 13 14 15 16 17 17 18 19 20 21 21 22 22 22 23 23 24 25 26 26 27 28 29 30 31 32 33 34 35 36 36 37 37 38 38 38 38 39 40 40 40 40 39 38 37 34 30 29 32 34 34 34 33 33 32 32 33 34 33 33 32 31
12 13 14 15 16 17 17 19 20 21 21 22 22 23 23 24 25 25 26 27 27 28 29 30 31 32 33 34 35 36 37 37 38 38 39 39 39 38 38 39 40 40 41 41 41 40 40 37 33 31 32 34 35 36 35 33 32 33 34 34 34 34 32
12 13 14 15 16 17 18 19 21 21 22 22 23 24 25 26 27 27 28 28 29 30 30 31 32 33 33 35 36 37 37 38 39 39 39 39 39 39 39 39 39 39 40 40 41 41 41 41 39 36 34 33 33 35 37 36 34 34 34 35 35 35 34
13 13 14 16 17 18 19 20 21 21 22 23 24 25 26 27 29 29 30 30 31 31 32 32 33 34 35 36 37 37 38 38 39 39 39 39 39 39 39 40 40 40 40 40 40 40 40 40 40 39 38 36 34 34 36 36 36 35 35 35 36 36 35
13 14 15 17 18 20 20 21 21 22 22 23 24 26 27 29 30 31 31 32 32 33 33 33 34 35 36 37 37 37 38 38 38 39 39 39 39 40 40 41 41 41 41 41 41 41 41 41 40 39 39 38 36 35 36 36 37 37 36 36 37 37 37
15 16 18 19 20 20 21 21 22 23 24 25 26 27 28 30 31 32 33 33 34 34 34 35 36 37 37 37 37 37 37 38 38 38 39 39 40 40 41 41 41 42 41 41 41 42 42 42 41 40 40 39 38 36 36 36 37 38 38 38 38 39 38
16 18 19 20 20 21 21 22 23 24 25 26 27 28 29 31 32 33 34 35 35 35 35 36 37 38 38 38 38 38 38 38 39 39 39 40 40 40 41 41 41 41 41 41 41 41 41 42 42 42 41 40 39 38 37 37 38 38 39 39 40 41 40
18 19 20 20 21 22 23 24 24 25 26 27 28 29 31 32 33 34 35 36 36 36 37 38 38 38 38 38 39 39 40 40 40 40 40 41 41 41 40 40 40 40 40 40 40 40 41 41 41 42 42 41 40 39 38 38 38 39 39 39 40 42 42
21 21 21 22 22 24 25 26 27 27 28 29 30 31 32 33 34 35 36 37 38 39 39 39 39 39 39 39 40 40 40 40 41 41 41 41 41 41 41 40 40 40 40 40 40 40 40 41 41 41 42 42 41 40 38 37 38 39 40 40 41 42 43
21 22 22 23 24 26 27 28 28 29 30 30 31 32 34 35 37 38 38 39 39 40 40 40 39 39 39 40 41 41 41 41 41 42 42 42 41 41 41 40 40 40 40 40 40 40 40 41 41 42 42 43 43 42 41 38 37 38 40 41 41 43 43
21 22 23 25 26 27 28 29 30 31 32 33 34 35 36 37 38 39 39 39 40 40 40 40 39 40 40 41 42 41 41 41 42 42 42 42 42 41 41 40 40 40 40 41 41 41 42 42 42 43 43 44 44 44 44 42 40 40 41 41 42 43 44
22 23 24 26 27 28 29 30 31 33 33 34 35 36 37 37 38 39 39 39 40 40 40 40 40 41 41 42 42 41 42 42 43 43 43 42 42 41 41 41 41 42 42 42 43 43 43 44 44 44 45 46 46 46 46 46 44 43 44 44 44 45 45
24 25 27 28 29 30 31 31 32 33 34 35 36 36 37 37 38 38 39 39 39 39 40 40 41 41 42 42 41 41 42 43 43 43 43 43 42 41 42 42 42 43 43 43 44 45 45 46 46 47 47 48 49 49 49 49 48 46 46 47 47 47 48
26 27 29 29 30 31 31 32 33 34 35 36 37 37 37 37 38 38 38 38 39 39 40 41 41 41 41 41 41 42 43 44 44 44 44 43 42 43 43 43 44 44 44 45 45 46 47 48 48 49 49 49 50 51 51 51 50 49 48 49 50 50 50
28 29 29 30 31 31 32 33 34 35 37 37 37 37 37 37 37 37 38 38 39 40 41 41 40 40 40 41 42 43 44 45 45 44 44 44 44 44 44 44 45 45 46 47 48 48 49 49 50 50 51 51 51 52 52 52 52 51 50 50 51 52 52
28 29 30 31 32 32 33 34 35 36 36 36 36 36 36 36 37 37 38 39 40 41 40 40 39 39 40 42 43 44 45 45 45 44 45 45 45 45 45 45 47 48 49 49 50 50 51 51 51 52 52 52 52 52 53 53 53 53 52 51 51 52 53
29 30 31 32 32 33 34 34 35 35 36 36 36 36 36 37 38 38 39 40 41 41 40 39 39 40 42 43 44 45 45 45 45 45 45 45 45 46 46 47 48 49 50 50 51 51 52 52 52 53 53 53 54 54 54 55 55 55 54 53 53 53 54
30 30 31 31 32 33 34 34 35 35 36 36 36 37 38 39 39 40 40 41 41 39 38 38 40 41 43 44 44 45 45 45 45 45 45 45 46 47 48 49 50 50 51 51 52 52 53 53 54 54 55 55 55 56 56 56 56 56 56 56 55 55 55
30 30 31 31 32 33 33 34 34 35 36 36 37 38 39 39 40 41 41 40 38 36 36 38 41 42 43 44 44 44 45 45 45 45 45 47 48 49 49 50 50 51 51 52 53 53 54 55 56 56 57 57 57 57 57 57 58 58 58 58 58 57 57
30 30 31 32 32 32 33 33 34 34 35 35 36 37 39 40 40 40 39 36 34 35 38 40 41 42 43 43 44 44 44 44 44 45 47 48 49 49 49 50 50 51 52 53 54 55 55 56 56 57 57 57 57 57 57 57 57 58 58 58 58 58 58
30 31 31 32 32 32 32 33 33 34 34 34 34 35 35 36 36 35 33 33 35 37 39 40 41 42 42 43 43 43 43 44 45 46 47 48 49 49 50 51 51 52 53 55 55 56 56 55 55 55 55 55 56 56 56 57 57 57 58 58 58 59 58
31 31 32 32 33 33 32 32 33 33 33 33 34 33 31 30 30 31 32 35 37 39 39 40 41 41 42 42 42 42 43 44 46 46 47 48 48 50 51 52 53 54 54 54 55 54 54 54 54 54 54 55 55 56 56 57 58 58 59 59 60 60 60
31 31 32 32 33 33 32 32 33 33 33 34 35 34 31 30 30 32 34 36 38 38 39 40 40 41 41 41 41 43 44 45 46 46 47 48 49 50 52 53 53 53 53 52 52 52 52 52 52 53 54 55 55 56 57 58 59 60 60 61 61 62 62
31 31 32 32 32 32 32 32 32 33 34 35 36 35 33 32 32 33 35 36 37 37 38 38 39 39 39 40 42 43 44 45 45 46 47 49 50 52 52 52 52 51 51 50 50 50 50 50 51 52 53 54 56 57 59 59 60 60 61 61 62 63 63
31 31 31 31 31 31 30 30 31 32 34 34 34 33 32 32 33 33 34 35 36 36 37 37 38 39 40 42 43 43 44 45 46 47 49 50 51 52 51 51 50 50 49 48 48 48 48 49 50 51 52 54 55 57 58 60 61 61 62 62 63 64 65
30 30 31 31 30 30 29 30 31 32 31 31 31 31 31 31 32 33 34 34 35 36 36 37 38 39 41 42 43 43 44 46 47 49 50 50 50 50 49 49 48 48 47 47 46 47 48 49 50 51 53 54 55 56 57 59 60 62 63 64 64 64 64
30 30 30 30 29 30 30 31 31 31 30 30 30 30 30 31 32 33 33 34 35 35 36 37 39 40 41 42 43 44 45 47 48 49 49 49 48 48 47 47 46 46 45 45 46 47 48 49 50 52 53 53 54 55 57 59 61 63 62 60 57 53 50
29 29 29 29 29 30 31 31 31 30 30 29 29 29 30 31 31 32 33 34 34 35 36 38 39 40 41 42 43 45 46 47 48 48 48 47 47 46 46 45 44 44 44 45 46 47 48 50 51 52 52 52 53 55 58 61 60 56 50 45 42 40 41
29 28 28 29 29 29 30 30 30 29 29 29 29 29 30 31 31 32 33 34 34 36 37 38 39 40 41 42 44 45 47 47 47 46 46 45 45 44 44 43 43 43 44 45 46 47 49 50 50 51 51 52 54 57 60 57 50 42 38 36 37 40 43
28 28 28 28 28 29 29 29 29 28 28 28 28 29 30 31 32 32 33 34 35 36 38 38 39 40 42 43 45 45 46 45 45 44 43 43 42 41 41 42 42 43 44 45 46 48 48 49 49 50 51 53 56 59 56 47 37 33 34 37 40 44 45
28 28 28 28 28 28 28 28 28 28 28 28 28 29 30 31 32 32 33 34 35 37 38 38 39 40 42 43 44 44 44 43 42 42 41 41 40 40 40 41 42 43 44 45 46 47 48 48 49 50 52 54 57 57 49 37 31 32 35 39 43 47 47
28 28 28 28 28 28 28 27 27 27 27 27 28 29 30 31 32 32 33 34 36 37 37 38 39 40 42 43 43 42 41 40 40 39 39 39 39 39 40 41 41 43 44 45 46 46 47 48 49 51 52 55 57 54 42 32 31 34 37 41 47 50 49
28 28 28 28 28 27 27 27 26 26 27 27 28 29 30 31 31 32 33 35 36 36 37 38 39 41 41 41 40 39 38 38 38 37 37 37 38 39 40 40 41 42 43 44 45 46 47 48 49 51 53 55 57 51 37 31 33 36 39 44 49 51 50
29 28 28 28 27 27 26 26 26 26 27 28 29 29 30 31 31 32 34 34 35 36 37 38 39 40 40 38 37 36 36 36 36 36 36 37 37 38 39 40 41 41 42 44 45 45 46 47 49 50 52 56 58 51 39 33 35 37 40 43 49 52 50
29 28 28 28 27 26 26 26 26 26 27 28 29 29 30 30 31 33 33 34 34 35 36 38 39 38 37 35 34 34 34 34 35 35 36 36 37 38 39 40 40 40 41 43 44 45 46 46 47 49 52 55 57 52 42 36 35 37 39 41 47 51 49
29 28 28 27 26 26 26 25 26 27 27 28 29 29 29 30 31 32 33 33 34 35 36 37 37 36 34 33 33 33 34 34 34 34 35 36 37 38 39 39 39 40 41 43 43 44 45 45 47 49 51 54 56 51 43 36 34 35 36 38 45 50 49
29 28 27 27 26 26 26 26 26 27 27 28 28 28 29 30 31 31 32 32 33 35 36 36 35 33 32 32 32 33 33 33 34 34 35 35 36 37 37 38 39 40 41 41 42 43 44 45 46 49 50 52 55 51 42 35 32 33 34 37 43 48 48

ECMWFFLT1_500_spd_105.txt.gz
Wind_Speed
13 15 16 14 14 14 13 13 14 14 14 15 15 16 17 18 20 21 23 24 25 26 27 28 28 29 29 30 31 31 32 33 35 35 36 36 37 37 38 38 38 38 38 38 37 36 34 32 31 31 33 34 34 35 35 36 36 36 36 36 35 34 33
16 16 14 13 13 13 13 13 13 14 15 15 17 18 19 21 23 24 26 27 28 29 29 29 30 30 31 31 32 32 33 34 36 36 36 37 37 37 37 37 37 38 38 38 38 38 37 36 34 33 32 32 34 34 35 36 37 37 38 38 37 36 35
15 13 11 11 12 12 12 12 14 15 16 17 18 20 22 23 25 26 28 29 30 30 31 31 31 31 31 31 32 33 35 36 37 37 37 36 36 36 36 36 37 37 37 38 38 38 37 37 37 36 34 33 33 33 34 35 37 37 38 38 38 38 37
12 10 10 10 11 12 12 14 15 16 17 19 20 21 23 25 27 28 30 31 31 31 32 32 32 32 32 32 33 35 36 36 36 36 36 36 36 36 36 37 37 37 37 37 37 37 37 36 36 36 36 35 34 33 33 33 35 36 37 38 39 39 38
9 9 10 11 13 14 14 15 16 18 19 20 22 23 25 27 28 30 31 31 32 32 32 32 33 33 33 34 35 35 36 36 36 35 36 36 37 37 37 38 38 38 38 38 38 37 37 37 36 36 36 35 35 34 34 33 34 35 36 37 39 39 38
9 10 12 13 15 15 15 17 18 19 21 22 24 26 27 28 29 30 31 32 32 33 33 34 35 35 35 36 35 35 35 35 35 36 36 37 37 37 38 39 40 39 39 39 39 38 38 38 38 37 37 36 35 34 35 34 34 35 36 37 38 39 39
11 13 14 15 16 17 18 19 20 22 23 25 26 27 28 28 29 30 31 33 34 35 35 36 36 36 37 36 36 35 35 35 36 37 37 37 37 39 40 40 40 40 40 40 40 40 40 40 39 38 37 37 36 36 35 36 36 36 36 37 38 39 39
14 15 16 16 17 19 20 21 22 24 25 26 26 27 27 28 30 31 33 34 35 36 36 36 36 37 36 36 36 35 36 36 37 38 37 38 39 40 41 41 41 41 41 41 41 41 41 40 40 40 39 38 37 36 36 37 38 39 38 38 39 40 40
16 17 18 18 19 19 21 22 23 24 25 26 27 27 29 30 32 33 34 34 35 35 36 36 36 36 36 36 36 36 37 38 38 38 38 39 40 41 42 42 42 42 42 41 41 41 41 41 41 41 41 40 39 38 37 37 38 40 41 41 40 41 42
17 17 17 18 18 19 20 22 23 24 25 27 28 29 30 31 32 33 34 34 35 35 35 35 36 36 36 36 36 37 38 38 38 38 38 40 42 43 44 44 43 43 42 43 43 43 43 43 43 43 43 43 43 42 40 39 40 40 42 43 43 42 43
16 16 17 17 19 20 22 23 25 26 27 28 29 30 31 32 33 34 34 35 35 35 35 35 35 36 36 36 37 38 39 38 38 38 40 42 44 45 45 44 44 44 44 45 45 45 45 45 45 45 45 45 45 45 45 44 43 43 43 44 44 44 44
15 16 17 19 21 23 25 26 27 27 28 29 29 30 31 32 33 34 35 35 35 35 35 35 35 36 36 37 38 39 39 38 39 40 42 44 45 45 45 44 45 45 45 46 46 46 46 46 46 46 47 47 47 47 47 46 46 46 46 45 45 46 45
17 18 20 22 24 25 26 27 27 28 28 29 29 30 31 33 34 35 35 35 34 34 35 35 36 36 37 38 39 39 39 39 40 42 45 46 46 46 46 46 46 46 46 47 47 47 47 48 48 48 48 49 49 49 48 48 48 47 47 48 48 47 47
20 21 22 24 25 26 27 27 28 28 29 29 30 31 32 34 35 35 34 34 34 35 35 36 36 37 38 38 38 38 38 40 42 44 45 45 46 46 47 47 47 47 47 47 48 48 49 49 50 50 51 51 51 51 51 50 50 49 49 49 50 50 49
22 23 24 25 26 27 28 28 29 29 30 30 31 32 33 34 34 34 34 34 34 35 36 36 36 37 38 37 36 37 39 42 43 44 45 45 46 46 46 46 47 47 48 48 49 50 50 51 51 51 51 52 52 52 52 52 52 52 51 51 51 52 51
23 23 24 26 27 28 29 29 29 30 30 31 32 33 33 33 34 34 33 33 34 35 35 36 36 37 35 34 36 39 41 43 43 44 45 45 45 45 46 47 47 48 49 49 50 51 51 51 51 52 52 52 53 53 54 54 54 54 54 53 53 53 53
23 24 25 26 28 29 29 30 30 31 31 32 32 33 33 33 33 33 32 32 34 34 35 35 34 33 33 35 39 41 42 43 44 44 45 45 45 45 46 48 49 49 50 50 50 51 51 52 52 53 53 53 54 54 54 54 54 54 54 54 54 54 55
24 25 26 27 29 30 30 31 31 31 32 32 32 32 32 32 32 31 31 32 33 34 34 33 32 32 35 39 41 42 42 43 44 44 44 44 45 46 48 49 49 50 50 50 50 51 52 53 53 53 54 54 53 53 53 53 53 53 53 53 53 53 54
25 26 27 28 30 31 31 31 32 32 32 32 32 32 32 32 31 31 31 33 34 35 35 34 34 36 39 41 41 41 42 43 43 43 44 45 46 47 48 49 49 50 50 51 51 52 53 53 53 52 52 51 51 51 51 51 51 51 51 52 52 52 52
27 28 29 30 31 32 32 32 32 33 33 32 32 32 31 31 31 31 33 34 35 36 35 36 37 39 40 40 40 41 42 42 43 44 45 47 48 48 48 49 49 50 51 52 52 52 52 51 50 50 49 49 49 49 50 50 51 51 52 52 53 53 53
29 30 31 32 32 33 33 33 33 33 33 32 32 31 30 30 31 32 34 34 35 35 35 36 38 39 39 39 40 41 41 42 44 45 46 47 48 48 48 49 49 50 51 52 51 51 49 48 47 47 48 48 48 49 50 51 51 52 53 53 54 54 54
31 31 32 33 33 33 33 33 34 33 32 32 31 30 29 30 31 32 33 33 33 34 35 36 37 37 38 39 40 41 42 44 45 46 46 47 47 48 48 49 50 50 50 50 49 49 48 47 47 47 47 48 48 49 50 52 53 53 54 54 55 55 55
32 33 33 34 33 33 33 34 34 33 32 30 29 29 30 31 31 31 31 32 33 33 34 35 36 37 38 39 40 42 43 44 45 45 46 46 47 48 49 49 50 49 48 47 47 47 46 47 47 47 48 48 49 50 52 53 54 55 55 55 55 55 55
33 33 34 34 34 33 33 34 33 32 31 29 29 30 30 30 30 30 31 31 32 33 33 34 35 37 38 39 41 42 43 44 45 45 45 46 47 48 49 49 48 47 46 45 45 45 45 46 46 47 48 50 51 52 53 54 53 54 54 54 55 57 57
34 34 34 34 34 33 33 34 33 31 30 29 29 29 29 29 29 30 30 30 31 32 33 34 36 37 38 40 41 42 43 44 44 45 45 46 47 47 47 46 45 45 44 43 43 44 44 45 46 47 49 50 51 52 53 53 53 54 55 56 57 56 52
34 34 34 35 34 33 33 33 32 30 29 29 29 28 28 29 29 29 29 30 30 31 33 34 36 37 39 40 41 42 43 44 44 45 45 46 46 45 44 44 43 43 42 42 42 43 44 45 46 48 49 50 50 50 51 53 55 57 59 59 55 46 39
35 35 35 34 34 33 33 32 30 29 29 28 28 28 28 28 28 28 29 29 30 32 33 35 36 38 39 40 41 42 43 43 44 45 45 45 44 43 42 41 41 41 41 42 42 43 44 45 46 47 48 48 49 50 52 53 55 58 58 54 46 37 33
35 35 34 34 34 33 32 30 29 28 28 28 27 27 27 27 27 28 28 29 30 32 34 35 37 38 39 40 41 42 42 43 44 44 44 43 42 41 40 40 40 41 41 42 42 43 44 45 46 46 46 48 49 51 52 54 56 56 52 45 39 35 36
35 35 34 34 33 32 31 29 28 28 28 27 27 27 27 27 27 28 28 29 31 33 34 36 37 38 39 40 41 41 41 43 43 43 42 41 40 39 39 40 40 40 41 41 42 43 44 45 45 45 46 48 49 50 51 53 56 54 46 39 36 36 39
35 35 34 33 32 31 30 28 28 27 28 27 27 27 27 27 27 28 29 30 31 33 35 36 37 38 39 40 40 40 41 42 42 41 39 38 38 38 39 39 40 40 40 41 42 43 43 44 45 46 47 47 48 49 50 53 55 51 42 36 34 36 39
35 34 33 32 31 31 30 29 28 28 28 27 27 26 26 27 27 28 29 30 32 34 35 36 37 38 38 39 39 40 41 41 40 38 37 37 37 38 38 39 39 39 40 41 42 42 43 45 46 46 46 47 47 48 50 53 53 47 39 34 33 35 38
35 33 32 31 31 30 30 29 28 28 28 27 27 26 26 26 27 28 29 31 32 34 35 36 37 37 38 38 39 40 40 39 37 36 36 36 37 37 37 37 38 38 39 40 41 42 44 45 46 47 47 47 47 48 50 53 52 45 37 33 33 35 38
33 32 31 31 31 30 29 28 28 28 28 27 26 26 26 27 27 28 29 31 32 34 35 36 36 37 37 38 38 39 38 36 35 34 35 36 36 37 37 37 37 38 39 39 41 42 44 45 46 47 47 47 48 48 49 52 52 46 39 34 33 35 38
32 31 31 31 31 30 29 28 28 28 28 27 26 26 26 27 27 28 30 31 32 33 34 35 35 36 36 37 37 36 35 33 33 33 34 35 36 36 36 37 37 37 37 39 40 42 43 45 46 47 47 47 48 48 48 51 52 49 42 36 34 35 38
32 31 31 31 31 30 29 28 28 28 28 27 27 26 27 27 28 28 29 31 32 33 34 34 34 34 35 35 35 34 32 31 32 33 34 35 35 36 36 36 35 36 36 38 40 41 42 44 45 46 47 47 47 47 47 49 52 50 43 36 34 35 37
32 31 31 31 31 30 29 28 28 28 28 27 27 27 27 27 28 28 29 30 31 32 33 33 33 33 34 34 33 32 31 30 31 32 33 34 35 35 35 35 34 35 36 37 39 40 41 43 45 46 47 47 46 46 46 48 51 50 43 36 35 35 37
32 31 31 32 31 30 29 28 28 29 28 28 27 27 27 27 28 28 29 30 31 32 32 31 32 33 33 33 31 30 29 30 31 32 33 34 35 35 34 34 34 34 35 37 38 40 41 42 44 46 46 47 46 46 46 46 49 50 46 41 37 35 37

ECMWFFLT1_500_spd_108.txt.gz
Wind_Speed
15 14 12 9 9 10 11 12 12 12 13 13 14 14 15 15 16 17 17 18 20 22 23 25 25 26 26 27 28 29 30 31 33 34 35 36 36 36 36 35 34 34 33 32 32 32 32 32 31 31 32 33 33 34 35 34 34 33 33 33 32 31 30
13 12 10 9 10 11 12 12 11 12 13 14 15 15 16 17 18 19 20 21 23 24 25 26 27 27 28 28 29 30 31 32 33 34 34 35 35 36 36 35 35 34 34 34 35 36 35 35 34 33 33 34 35 36 37 37 36 35 34 34 33 32 31
11 9 9 9 11 12 12 11 12 12 13 14 15 16 18 19 20 21 22 24 25 26 27 27 28 29 29 30 30 31 32 33 33 33 33 34 35 35 35 35 34 34 34 36 37 38 38 38 37 36 35 35 35 36 38 40 39 38 37 36 35 34 33
9 8 7 10 12 12 11 11 12 13 14 15 17 18 20 21 22 24 24 25 26 27 28 28 29 30 30 31 31 32 33 33 33 33 33 34 35 35 35 35 34 34 36 37 38 38 39 39 38 37 37 36 36 36 37 39 40 40 39 38 37 37 37
7 7 8 11 12 11 12 12 13 14 16 17 19 20 22 23 24 25 25 26 27 28 29 29 30 30 31 32 32 33 33 33 33 33 34 34 35 35 35 34 34 36 37 38 40 40 40 40 39 38 37 37 37 38 38 39 40 42 41 40 39 39 39
7 9 11 13 12 11 12 14 14 16 18 19 21 22 23 24 24 25 26 27 28 29 29 30 30 31 32 32 33 33 33 33 33 33 34 35 36 36 35 35 35 37 39 41 42 42 42 41 40 39 39 39 39 39 39 39 40 42 43 43 42 40 41
9 11 13 13 12 12 13 14 16 18 19 20 21 22 23 24 25 26 27 28 29 29 30 31 31 32 32 32 32 32 32 32 33 34 35 36 36 36 35 36 37 39 41 43 43 43 42 42 41 41 41 40 40 40 41 41 41 42 43 44 44 43 43
12 12 12 13 13 13 14 16 17 19 20 20 21 23 24 25 26 27 28 28 29 30 30 31 32 32 32 32 32 32 32 33 33 35 36 36 37 36 36 37 39 42 43 44 44 44 44 43 43 43 43 42 42 42 42 42 43 43 44 45 46 46 45
11 11 11 12 14 14 15 16 17 18 19 21 22 23 25 26 27 28 28 29 30 30 31 32 32 32 32 32 32 32 33 34 34 35 37 37 37 36 37 40 42 44 45 45 44 44 44 45 45 45 45 45 45 44 44 43 43 44 45 45 46 47 48
11 11 11 12 13 14 15 16 17 19 20 22 23 25 26 26 27 28 28 29 30 31 32 33 33 32 32 32 32 33 33 34 35 36 37 36 36 38 40 42 44 44 45 45 45 45 46 46 47 47 47 47 47 47 47 46 45 44 45 45 45 45 47
11 11 11 12 12 13 15 16 18 20 21 23 24 25 26 27 27 28 29 30 31 32 33 33 32 32 32 32 32 33 35 36 37 37 36 36 38 41 43 44 44 44 45 45 46 47 47 48 49 49 50 50 50 50 49 49 49 48 47 47 47 46 46
10 10 11 11 12 14 16 18 20 21 23 24 25 26 27 28 28 29 30 31 32 32 32 32 31 31 31 32 33 34 36 36 36 35 35 38 41 43 44 44 45 45 46 47 48 49 50 50 51 51 52 52 51 51 51 51 51 51 50 50 50 50 50
10 10 11 12 13 15 17 19 21 23 24 25 26 27 28 29 30 31 31 32 32 32 31 31 31 31 31 32 33 34 35 34 34 35 38 41 42 43 44 45 45 46 48 49 50 51 51 52 52 53 53 53 53 53 53 53 52 53 53 53 53 53 53
11 12 13 13 15 17 19 21 22 24 25 26 27 28 29 30 31 32 32 32 32 31 31 31 31 31 31 32 33 34 34 33 35 38 40 41 42 43 44 45 46 48 49 50 51 52 52 53 53 53 53 54 54 54 54 54 54 54 54 55 55 55 54
13 13 14 15 17 19 21 22 24 26 27 28 29 30 31 32 32 33 33 32 32 31 31 31 31 31 32 32 33 33 34 35 38 40 40 41 42 43 45 46 48 49 50 51 52 52 53 53 53 54 54 55 55 56 56 56 55 55 54 54 54 54 53
14 15 15 17 18 20 22 24 25 27 28 29 30 31 32 33 33 33 33 32 31 31 30 30 31 31 32 32 32 33 34 36 38 39 40 41 43 44 46 47 48 49 50 51 52 53 53 54 54 55 55 56 55 55 55 54 54 53 52 51 51 51 50
15 16 17 18 20 22 24 25 26 28 29 30 31 32 33 33 34 33 32 31 30 29 29 30 31 31 31 31 32 33 34 36 37 38 40 42 44 45 47 48 49 50 51 52 52 53 54 54 55 55 54 54 53 52 52 51 51 50 50 49 49 50 49
16 17 19 20 22 23 25 26 28 29 30 31 32 33 33 34 34 33 31 30 29 29 30 31 31 30 30 31 31 32 34 35 37 39 41 43 45 46 47 48 49 50 51 52 53 53 54 54 53 52 51 50 50 49 49 49 50 50 50 50 49 50 50
18 20 21 23 24 25 26 28 29 30 31 32 32 33 34 34 33 32 30 29 29 29 30 30 29 29 30 30 31 32 34 36 38 40 42 43 45 46 48 49 50 51 51 52 52 52 52 51 50 49 48 48 48 48 49 49 50 50 50 51 51 51 51
21 22 24 25 26 27 28 29 30 31 32 32 33 34 34 34 33 31 29 29 29 29 29 28 29 29 30 30 31 33 35 37 39 41 43 44 45 47 48 49 50 50 51 51 51 51 49 48 48 47 47 47 47 48 48 49 50 50 51 51 52 52 51
22 23 25 26 27 29 30 31 32 33 33 33 33 34 34 34 32 30 29 29 28 28 28 28 28 29 29 30 32 34 36 38 40 41 43 44 46 47 48 48 49 50 50 51 50 49 48 46 46 46 46 46 47 47 48 49 50 51 51 51 51 51 50
22 24 25 27 28 30 31 32 33 34 34 34 34 34 34 34 32 30 29 28 28 27 27 28 28 28 29 31 32 34 37 38 40 42 44 45 46 47 47 48 49 50 50 49 48 47 47 46 46 46 46 46 47 48 49 50 50 50 50 49 49 49 49
23 25 26 28 29 31 32 33 34 34 35 34 34 34 34 33 31 30 29 28 27 27 27 27 28 28 29 31 33 35 37 39 41 42 44 45 46 47 47 48 49 48 48 47 46 46 45 45 45 45 46 47 48 49 49 49 49 49 48 48 49 49 50
25 27 28 29 30 31 33 34 34 35 35 35 35 35 34 32 31 29 28 27 27 27 27 27 28 29 30 32 34 36 38 40 42 43 44 45 46 46 47 47 47 46 45 44 44 44 44 44 44 45 46 47 48 49 49 49 49 49 49 49 50 52 52
27 28 29 30 30 32 33 34 35 36 36 35 35 35 33 32 30 28 27 27 27 27 27 27 28 30 31 33 35 37 39 40 42 43 44 44 45 46 46 46 45 44 43 42 42 42 42 42 43 44 45 46 47 48 49 50 51 51 51 51 52 54 53
29 29 30 31 31 32 34 35 36 36 36 35 35 34 33 31 29 28 27 27 27 27 27 28 29 30 32 34 36 38 39 41 42 42 43 44 45 45 45 44 43 42 42 41 41 40 40 41 42 43 44 45 47 49 50 50 51 52 52 54 55 55 50
30 31 31 31 31 33 34 36 36 36 35 35 35 34 32 30 28 27 27 27 27 27 28 28 29 31 33 35 37 38 39 40 41 42 43 44 44 44 43 42 41 41 41 40 39 38 38 39 40 41 43 45 47 49 49 49 50 51 53 55 56 53 44
31 31 31 31 32 33 35 35 36 35 35 35 34 32 31 29 28 27 27 27 27 28 28 29 30 32 34 35 37 38 39 40 41 41 42 43 43 42 42 41 40 40 40 39 38 37 37 38 39 40 43 45 47 49 49 49 50 50 52 55 56 51 42
30 30 30 31 32 33 35 35 36 35 35 34 33 31 30 29 28 28 28 28 28 28 29 30 31 32 34 35 36 37 38 39 40 41 42 42 42 41 40 40 40 39 39 38 37 37 37 38 39 41 43 45 47 48 49 49 49 50 52 54 55 51 44
30 30 30 31 32 33 34 35 36 35 34 33 32 31 29 28 28 28 28 28 28 28 29 30 32 33 34 35 36 37 38 39 40 41 41 41 40 39 39 39 39 38 38 37 37 37 37 38 39 41 42 44 46 47 48 47 47 48 50 53 54 51 44
29 30 30 31 32 33 34 35 35 34 33 32 31 30 29 28 28 28 28 28 28 29 30 31 32 33 34 35 36 37 38 39 40 40 40 39 38 38 38 38 38 37 37 37 37 37 37 38 39 41 42 44 45 46 47 46 45 46 49 51 53 50 44
29 30 30 31 32 33 34 35 34 32 31 31 31 30 28 27 28 28 28 28 29 29 30 31 32 33 34 34 36 37 38 38 39 39 38 37 37 37 37 37 37 37 37 37 37 36 37 38 40 41 43 44 44 45 47 47 46 46 48 50 51 49 44
30 30 30 31 32 33 34 34 32 31 31 31 30 29 28 27 28 28 28 28 29 29 30 31 32 32 33 34 36 37 37 38 38 37 36 36 35 36 36 36 36 36 36 36 36 36 37 38 40 42 43 44 44 45 46 47 47 47 49 51 52 50 46
30 30 30 31 32 32 32 32 31 31 31 30 30 28 27 27 28 28 28 28 29 29 30 31 31 32 33 34 35 36 36 36 36 35 34 34 34 35 35 35 36 36 36 35 35 36 37 38 40 41 42 44 44 45 46 47 47 47 48 50 51 51 48
30 30 30 31 31 31 32 32 31 31 31 30 30 29 28 28 28 28 28 28 28 29 30 30 31 32 33 34 34 34 35 35 34 33 33 33 33 33 34 34 34 35 34 34 34 35 37 38 39 40 41 43 44 44 45 47 47 47 48 49 50 51 49
30 30 31 31 31 31 32 32 32 32 32 31 30 29 29 28 29 29 28 28 28 29 30 30 30 31 32 32 33 33 34 33 33 32 31 31 32 32 33 33 33 34 34 33 34 35 36 37 38 40 41 42 43 43 44 46 47 46 47 48 49 50 49
31 31 31 31 31 32 32 32 32 33 32 31 31 30 30 29 29 29 28 28 29 29 29 29 30 31 31 31 32 32 32 32 31 30 30 30 30 31 31 32 32 33 33 33 33 34 35 36 38 40 41 42 43 44 43 44 46 46 46 47 48 50 50

ECMWFFLT1_500_spd_111.txt.gz
Wind_Speed
13 11 9 10 12 12 9 7 6 6 6 6 7 9 11 13 14 15 17 18 19 20 21 22 22 23 24 25 26 27 27 28 28 29 29 28 28 29 29 29 30 30 30 30 29 29 29 31 34 36 37 38 39 39 39 39 39 38 37 37 37 37 37
11 10 11 13 12 10 8 6 5 6 6 7 8 10 12 14 15 17 18 19 21 21 22 23 24 25 26 27 27 28 28 28 29 29 29 29 29 29 30 30 31 31 31 31 31 31 32 34 36 38 40 41 43 43 43 42 42 41 40 39 38 38 38
10 11 14 13 10 8 6 5 5 7 7 8 9 11 13 15 16 18 19 21 22 23 23 24 26 27 27 28 28 29 29 29 29 29 29 30 30 30 31 31 32 32 32 32 32 33 35 37 39 41 42 42 43 43 43 43 43 43 43 42 42 41 40
12 14 14 11 9 8 6 5 6 8 8 9 11 13 15 16 18 19 20 22 23 24 25 26 27 28 28 29 29 29 29 30 30 30 30 30 31 32 33 33 33 33 33 32 33 34 36 39 41 42 43 43 43 42 42 43 43 44 44 44 44 44 43
14 14 12 10 9 7 5 6 8 9 10 11 12 14 15 17 18 20 21 23 24 25 27 27 28 29 29 30 30 30 30 30 31 31 32 32 33 34 34 34 34 33 33 33 34 36 39 41 42 42 42 42 43 43 43 44 45 45 46 46 46 46 46
13 12 11 9 7 5 5 7 9 10 11 12 13 14 16 17 19 21 23 24 25 26 27 28 29 29 30 30 31 31 31 32 32 33 33 33 34 34 34 34 33 33 34 35 38 40 41 42 42 42 42 43 44 44 45 45 45 47 48 48 48 48 48
12 11 10 8 6 5 6 9 10 11 12 13 13 14 16 18 20 22 24 25 26 27 28 29 30 30 31 31 31 31 32 33 33 33 33 34 34 34 33 33 33 34 36 39 41 42 42 42 42 43 44 45 46 46 47 47 47 48 48 49 49 49 49
11 10 8 6 5 5 8 10 11 11 12 12 14 16 18 20 22 23 25 26 27 28 29 30 31 32 32 32 32 32 33 33 33 33 33 33 33 32 32 32 34 37 39 41 42 42 42 43 44 44 45 45 47 47 48 49 49 49 49 49 50 50 50
10 8 7 6 6 7 9 10 11 10 11 13 15 17 19 21 23 24 26 27 28 29 30 31 32 33 33 32 32 33 33 33 33 32 32 32 32 32 32 34 37 39 40 41 42 42 43 44 45 46 46 47 47 48 49 50 50 50 50 50 50 51 51
8 8 8 8 8 8 9 9 9 10 12 14 16 18 20 22 24 26 27 28 29 30 31 32 33 33 33 33 33 33 33 32 32 32 32 32 32 33 35 37 38 39 40 41 43 44 45 46 47 48 48 49 49 49 50 51 51 51 51 52 52 52 52
9 9 10 10 9 8 7 8 9 11 13 16 17 19 21 23 25 26 28 29 30 31 32 33 34 34 33 33 33 32 32 31 32 32 32 32 33 35 36 37 38 39 41 43 44 46 47 48 49 49 50 50 51 51 51 52 54 54 54 54 55 55 55
10 10 10 10 8 7 7 9 11 13 15 17 19 21 23 25 26 27 29 30 31 32 33 34 34 34 33 32 32 31 31 32 32 32 32 33 34 35 36 37 39 41 43 44 46 47 48 49 50 51 52 52 52 53 53 54 55 56 57 56 55 56 56
11 11 10 9 7 7 8 10 12 14 16 18 20 22 24 26 27 28 30 31 32 33 34 34 34 33 32 31 31 31 32 32 32 32 32 33 34 35 36 38 41 42 44 46 47 48 49 50 51 52 53 54 54 55 56 57 57 56 57 57 55 54 53
12 11 9 8 8 9 10 11 13 15 17 19 22 24 25 27 28 30 31 32 33 34 34 34 33 32 31 31 32 32 32 32 31 31 32 33 34 36 38 40 42 44 46 47 48 49 50 51 52 53 54 55 56 57 57 57 56 54 53 53 52 51 50
13 11 9 9 9 10 11 12 14 16 19 21 23 25 26 28 29 30 32 33 34 34 34 34 33 31 31 32 32 32 31 31 31 31 32 33 35 37 39 41 43 45 47 48 49 50 51 52 53 54 55 56 56 56 56 55 54 52 49 49 49 49 49
13 11 10 11 11 10 11 13 15 18 20 23 25 26 27 29 30 31 33 34 34 35 34 33 32 32 32 32 32 31 31 30 30 31 32 34 36 38 40 43 44 46 47 49 50 51 52 53 54 54 54 54 54 54 53 53 52 50 49 48 49 49 48
14 13 12 12 11 11 13 15 17 19 22 24 26 28 29 30 31 32 33 34 35 35 34 33 32 32 31 31 30 30 30 30 30 31 33 35 37 40 42 44 45 47 48 49 50 51 52 53 53 53 53 52 52 52 51 51 50 50 49 48 48 49 49
15 14 13 12 12 13 15 17 19 21 23 25 27 29 30 31 32 33 33 34 35 35 34 33 32 31 30 30 29 29 30 30 31 32 34 36 39 41 43 45 46 47 48 49 50 51 52 52 52 51 51 51 50 50 49 49 49 49 49 49 49 49 49
16 14 13 13 14 15 17 19 21 22 25 27 28 30 31 32 33 34 34 34 34 34 33 32 31 30 29 29 29 29 30 31 32 33 36 38 40 42 44 46 47 48 48 49 50 51 51 51 51 50 50 49 49 48 48 48 48 49 49 50 50 49 48
16 15 15 15 16 18 20 21 22 24 26 28 30 31 32 33 34 34 34 34 34 34 33 31 30 29 28 28 29 29 30 31 32 35 37 39 41 43 45 46 47 47 48 49 49 50 50 50 50 50 49 48 47 47 47 47 48 49 49 50 49 49 48
16 16 16 17 18 20 21 22 23 25 27 29 30 32 33 34 35 35 35 35 34 33 32 30 29 28 28 28 29 29 30 32 34 36 38 40 42 43 45 45 46 47 48 49 49 50 50 50 49 49 48 47 46 46 46 47 49 49 49 50 50 49 49
18 18 18 19 20 21 23 24 25 27 29 30 31 32 33 35 36 35 35 35 34 33 31 29 28 28 28 28 29 30 31 32 35 37 39 41 42 44 45 45 46 47 48 49 49 50 50 50 49 48 47 46 45 45 46 48 49 49 49 50 50 50 49
20 20 20 21 22 24 25 25 27 28 30 30 31 32 34 35 36 35 35 35 33 32 30 28 28 28 28 29 29 30 32 34 36 38 39 41 42 44 45 45 46 47 47 48 49 49 49 49 48 47 46 45 45 46 47 48 49 50 50 51 51 50 50
23 23 23 24 24 26 27 27 28 30 30 31 31 33 34 35 35 35 35 34 33 31 29 28 28 28 28 29 29 31 32 34 36 38 39 41 43 44 45 45 46 46 47 47 48 48 47 47 46 46 45 45 46 47 47 48 49 51 51 52 52 52 52
25 25 25 25 26 27 28 29 30 31 31 31 32 33 34 35 35 35 34 34 32 30 29 28 28 28 28 29 30 31 33 35 37 38 40 42 43 44 44 45 46 46 46 46 46 45 45 45 45 44 44 45 46 46 47 49 51 52 53 53 54 54 53
27 27 27 27 27 29 30 30 31 31 31 31 32 33 34 34 35 34 34 33 32 30 29 28 28 28 28 29 30 32 33 35 37 38 40 42 42 43 44 45 45 45 45 44 44 44 43 43 43 43 43 43 44 45 48 50 51 53 54 54 55 54 54
29 28 28 29 30 31 32 32 32 32 31 31 32 33 34 34 34 34 34 32 31 30 29 28 28 28 29 29 31 32 34 35 37 39 40 41 42 43 44 44 44 44 43 42 42 42 41 41 41 41 40 41 43 45 47 49 50 51 53 55 55 54 55
30 30 30 32 33 33 33 33 32 32 31 31 32 33 34 34 34 33 33 32 30 29 29 28 28 28 29 30 31 32 34 35 37 38 40 40 42 43 43 44 43 42 41 41 40 40 39 39 38 38 39 40 43 45 47 48 49 50 52 54 55 55 56
31 32 33 34 34 34 34 32 31 31 31 31 32 33 34 34 33 32 32 31 30 29 28 28 28 28 29 30 31 32 34 35 37 38 39 40 41 42 42 42 42 40 40 39 38 38 37 36 35 36 38 41 42 44 46 48 48 49 51 54 54 55 56
32 33 33 34 34 33 32 31 30 30 31 32 32 33 33 33 32 31 31 30 29 28 28 28 28 28 29 30 31 32 33 35 36 38 39 40 41 41 41 41 40 39 38 37 37 36 35 34 34 36 39 40 41 43 45 46 47 48 50 53 54 54 54
32 33 33 33 32 31 30 30 29 30 31 32 32 33 32 32 31 31 30 30 29 28 27 27 28 28 29 30 31 32 33 35 36 37 38 39 40 40 40 39 38 37 37 36 35 34 32 32 34 36 38 39 41 42 43 44 46 47 49 51 53 53 53
32 32 32 31 30 30 29 29 29 30 31 32 32 32 32 31 30 30 30 29 28 27 27 27 27 28 29 30 31 31 33 34 36 37 37 38 38 39 38 37 37 36 35 34 33 32 31 32 34 36 37 39 40 42 43 44 46 47 49 50 52 52 52
32 32 31 30 29 29 29 29 29 29 30 31 32 32 31 30 30 30 30 29 28 27 27 27 27 28 29 29 30 31 32 34 35 36 36 37 37 37 37 36 36 35 34 33 32 31 31 33 34 36 37 39 40 42 44 46 47 48 50 51 53 53 53
32 31 30 30 29 29 29 29 28 29 30 31 31 31 31 31 31 31 30 29 28 27 27 27 27 27 28 29 29 30 32 33 34 35 35 36 36 36 36 35 35 34 33 32 31 30 31 33 34 36 38 39 40 42 44 46 48 49 50 52 53 53 54
32 31 30 30 29 29 29 28 28 29 30 31 31 31 31 31 31 31 30 29 28 27 27 27 27 27 28 28 29 30 31 32 33 34 34 34 34 34 34 34 34 33 31 31 30 30 31 33 34 36 37 39 40 42 44 46 47 49 50 51 52 53 54
32 32 31 31 30 29 29 29 29 29 30 31 32 31 31 31 32 32 31 30 29 28 27 27 27 27 27 27 28 29 30 31 32 32 32 32 33 33 33 32 32 31 30 30 30 30 31 32 34 35 36 37 39 41 43 44 46 48 49 51 52 53 54
33 33 33 32 30 29 29 29 30 30 31 32 32 32 31 31 32 32 32 31 30 29 27 26 26 27 27 27 27 27 28 30 30 30 30 31 31 31 31 31 31 30 30 30 29 29 30 32 33 35 35 36 38 39 41 43 45 46 48 50 51 53 54

ECMWFFLT1_500_spd_114.txt.gz
Wind_Speed
22 20 19 16 14 12 13 15 15 13 12 10 10 10 9 8 9 10 11 12 13 15 16 18 20 21 22 23 24 25 26 26 27 28 28 29 30 30 29 29 28 28 28 28 28 29 29 29 30 33 34 35 36 37 38 39 40 40 41 41 42 42 42
19 17 16 14 13 11 14 17 16 13 11 11 10 10 9 9 10 11 12 13 14 16 17 19 20 22 23 24 25 26 27 27 28 29 30 30 30 29 29 28 28 28 28 29 29 29 28 28 30 34 37 38 38 39 39 40 42 43 44 45 45 45 45
17 15 13 12 11 13 17 18 14 12 11 11 10 9 9 9 10 11 13 14 16 17 18 20 21 23 24 25 26 27 27 28 29 30 30 30 29 29 28 28 29 29 29 30 29 29 29 31 34 36 37 38 39 40 41 42 43 44 44 45 46 47 47
16 14 12 11 13 16 18 15 12 12 11 10 8 8 9 10 11 13 14 15 16 17 19 21 22 24 25 26 26 27 28 29 30 30 30 29 29 29 29 29 30 30 30 30 30 30 32 34 35 36 37 39 40 42 43 44 45 46 46 46 47 48 49
15 14 13 14 17 18 16 13 12 12 9 8 7 8 10 11 13 14 15 16 17 19 20 22 23 24 25 26 27 28 29 29 30 30 29 29 29 29 29 30 30 30 30 30 30 31 33 34 35 36 38 40 42 43 44 46 47 48 48 48 49 50 51
16 15 15 17 18 15 13 12 11 10 7 7 8 9 11 13 14 15 15 16 18 20 21 23 24 25 26 27 27 28 29 29 30 30 30 29 29 29 30 30 30 30 30 30 31 32 33 34 36 38 40 42 44 46 47 47 48 49 51 51 52 52 53
17 17 17 17 15 12 11 11 9 8 7 7 9 11 12 13 14 15 16 17 19 21 22 23 24 25 26 27 28 29 29 30 30 30 30 29 29 30 31 31 30 30 30 30 31 32 34 36 38 40 42 44 45 47 48 48 48 50 51 53 54 54 54
17 17 16 13 11 11 10 9 8 8 8 9 10 11 12 12 14 15 17 18 20 21 23 24 25 26 27 28 29 30 30 30 30 30 30 30 30 31 31 31 30 29 30 30 32 34 36 38 39 41 42 44 45 47 48 49 50 50 51 53 55 56 55
18 17 14 11 11 10 10 10 10 9 9 10 10 11 11 13 14 16 17 19 21 22 23 25 26 27 28 29 30 30 31 31 30 30 30 31 31 31 31 30 29 29 30 32 34 36 37 39 41 42 43 44 45 46 48 50 51 52 53 53 55 55 55
17 15 13 12 11 11 11 11 10 10 9 10 10 11 12 13 15 16 18 19 21 23 24 25 27 28 29 30 31 31 31 31 31 30 31 31 31 31 30 29 29 30 31 33 35 37 39 41 43 44 45 45 46 47 48 51 53 54 54 54 55 55 54
15 14 13 12 12 11 11 11 10 10 9 9 10 11 12 14 15 17 18 20 22 23 25 27 28 29 30 31 31 31 31 31 31 31 31 31 31 30 29 29 30 31 33 35 37 39 41 43 45 45 46 46 48 49 50 53 54 55 55 54 54 54 52
15 14 13 13 12 12 11 11 10 10 9 9 10 11 13 14 16 17 19 21 23 25 26 28 29 30 31 31 31 31 31 31 31 31 31 31 30 30 29 30 31 32 35 37 39 41 43 45 46 46 47 48 50 52 53 54 55 56 56 54 52 52 51
15 14 14 13 13 12 12 11 10 10 9 9 11 13 14 15 17 19 20 22 24 26 27 29 30 31 32 32 32 32 32 31 31 31 30 30 30 30 30 30 32 34 37 39 41 43 45 46 47 48 50 51 53 54 55 56 55 53 53 52 50 50 50
16 15 15 14 13 13 12 11 10 9 9 10 12 14 15 17 18 20 22 23 25 27 28 29 31 32 32 32 32 32 32 31 31 31 30 30 30 30 30 31 34 36 38 40 43 45 46 47 48 50 52 53 54 55 56 55 54 51 50 50 49 49 49
17 16 16 15 14 13 12 11 10 10 11 12 14 16 17 18 19 21 23 24 26 28 29 30 31 32 33 33 33 33 32 31 31 30 30 30 30 30 31 33 35 38 39 42 44 46 47 48 50 51 52 53 54 55 55 54 52 49 48 48 48 48 49
17 17 16 15 15 14 13 12 12 12 13 14 16 17 18 19 20 22 24 26 28 29 31 31 32 32 33 33 33 33 32 31 31 30 30 30 30 30 32 34 37 39 41 43 45 46 48 49 50 51 52 53 53 53 53 52 50 48 47 47 47 48 48
18 17 16 16 15 15 14 14 14 14 15 16 18 18 19 20 22 23 25 27 29 31 32 32 33 33 33 33 33 33 32 31 30 30 30 30 30 31 33 36 38 40 42 44 46 47 48 49 50 51 52 52 52 51 51 49 48 47 46 46 47 48 49
18 17 17 17 17 16 16 16 17 16 17 18 19 19 20 22 23 25 26 28 30 32 33 33 33 33 33 33 33 32 31 30 30 30 30 30 31 33 35 37 39 40 43 45 46 47 48 49 50 51 51 51 50 49 48 47 46 46 46 47 47 49 50
19 19 19 19 19 18 19 19 18 17 18 20 20 20 22 23 25 26 28 29 31 33 34 34 34 34 33 33 33 32 31 30 30 30 30 31 32 34 36 38 39 41 44 45 46 47 48 49 50 50 50 49 47 46 45 44 44 45 46 48 48 49 49
20 20 21 21 21 22 22 21 19 18 20 21 21 22 23 25 26 28 29 30 32 34 34 34 34 33 33 33 32 31 30 30 30 30 30 31 33 35 37 38 40 42 44 45 46 47 48 48 49 49 48 47 45 43 43 43 44 45 46 48 49 49 49
22 22 22 23 23 23 23 21 20 20 22 22 23 24 25 26 28 29 30 31 33 34 34 34 33 33 33 32 32 31 30 30 30 30 31 32 34 35 37 39 41 43 44 45 45 46 47 48 48 47 46 44 42 42 42 43 44 46 47 48 49 50 50
24 24 23 24 24 23 22 22 22 22 23 24 24 25 27 28 29 30 30 31 33 34 34 33 33 33 32 32 31 30 30 30 30 30 31 32 34 36 38 39 41 43 43 44 45 46 47 47 47 46 44 42 41 41 43 44 45 46 47 48 50 50 51
26 25 24 24 24 23 23 23 23 24 25 25 26 27 28 29 30 30 31 32 33 34 33 33 33 33 32 32 31 30 29 29 30 30 31 33 34 36 38 40 41 42 43 44 45 46 46 46 46 45 43 41 41 42 43 44 46 47 48 49 51 52 52
27 26 25 25 25 24 24 24 25 26 26 26 27 28 29 30 30 31 31 32 33 34 33 33 33 33 32 32 30 29 29 29 29 30 31 33 35 36 38 39 41 41 42 43 44 44 45 44 44 42 41 41 42 42 43 44 46 47 48 50 52 53 53
28 27 26 26 26 26 26 26 27 27 27 28 29 30 31 31 31 31 31 32 33 33 33 33 33 33 32 31 30 29 29 29 29 30 31 33 35 36 38 39 40 40 41 42 42 42 43 42 41 39 39 40 42 43 44 45 47 48 49 50 52 53 54
28 28 28 27 28 28 28 28 28 29 29 30 31 32 32 32 31 31 31 32 33 33 33 33 33 32 31 30 29 28 28 28 29 30 31 33 34 36 37 38 39 39 40 40 40 40 40 39 38 38 39 40 41 42 44 46 47 48 49 50 52 53 55
30 30 30 30 30 30 30 30 30 31 31 32 32 33 32 31 31 31 31 32 33 33 33 32 32 31 30 29 28 28 28 28 29 29 31 32 34 35 36 37 38 38 39 38 38 38 38 36 36 36 38 39 40 42 43 44 46 47 49 50 52 54 56
31 31 32 32 32 32 32 32 32 32 33 33 33 33 32 31 31 31 31 32 32 32 32 31 31 30 29 28 28 28 27 28 28 29 30 32 33 35 35 36 37 37 37 36 36 36 35 34 34 36 37 39 40 41 42 43 45 46 48 50 52 54 56
32 33 33 33 33 34 34 33 32 32 32 33 32 32 31 31 30 30 31 31 32 32 31 30 30 30 29 28 28 27 27 27 28 29 30 31 33 34 35 35 36 36 36 35 35 34 33 32 33 35 36 38 39 40 41 43 44 46 47 49 51 54 56
33 34 35 34 33 35 36 34 32 32 32 32 32 32 31 30 29 30 30 31 31 31 30 29 29 29 28 28 27 27 27 27 27 28 30 31 32 33 34 34 35 35 35 34 34 33 31 31 32 34 35 36 37 38 40 41 43 44 46 49 51 54 56
36 36 36 34 34 35 36 35 33 33 33 32 32 31 31 29 29 29 30 30 31 31 29 28 28 28 28 27 27 27 27 27 27 28 29 31 31 32 33 34 34 34 34 33 33 31 30 30 31 32 34 35 36 36 37 38 40 42 45 47 50 52 54
37 38 36 34 34 35 35 35 33 33 33 32 31 31 30 29 29 29 30 30 31 31 29 28 28 28 28 27 27 27 27 27 27 28 29 30 31 31 32 32 32 32 33 33 32 31 30 30 30 31 32 33 35 35 36 37 39 41 43 46 48 51 53
38 38 36 34 33 35 35 34 33 32 32 31 30 30 29 29 29 29 30 30 31 31 29 27 28 28 28 28 28 27 27 27 27 28 29 30 30 31 32 31 31 31 32 32 32 31 30 30 29 30 31 32 33 34 35 37 38 40 42 45 47 49 52
36 38 37 35 34 35 34 33 31 30 30 30 30 30 29 29 30 30 30 30 31 31 29 28 28 28 29 29 29 28 27 27 27 28 28 29 29 30 31 30 30 30 31 31 31 31 30 30 30 30 31 32 33 34 35 36 38 40 42 44 46 48 50
36 40 41 39 37 35 33 31 30 29 29 30 30 30 30 30 31 31 31 31 31 31 30 29 29 29 30 30 30 28 27 27 27 27 28 28 29 30 30 29 29 29 30 30 30 30 30 30 30 30 30 31 32 33 35 36 37 39 41 42 45 46 48
38 40 40 36 34 33 32 30 29 29 29 30 31 31 31 32 32 32 32 31 32 32 30 29 30 30 31 31 31 29 27 27 27 27 27 27 28 30 30 29 28 29 29 29 29 29 30 30 30 30 30 31 32 33 34 35 37 38 40 41 43 45 47
36 37 37 34 32 31 30 29 29 29 30 31 31 31 32 33 33 33 33 32 32 32 31 30 31 31 32 32 32 30 28 27 27 26 26 27 28 29 29 27 27 28 28 28 28 29 29 30 30 30 30 31 31 32 33 35 36 38 39 40 42 44 46

ECMWFFLT1_500_spd_117.txt.gz
Wind_Speed
20 21 22 22 21 20 20 18 17 16 16 16 17 16 15 14 14 13 12 12 11 11 13 14 15 16 18 19 20 21 22 23 24 24 25 26 27 29 30 31 31 32 33 33 33 33 34 34 33 32 32 33 33 34 35 37 38 39 40 41 42 43 44
21 22 21 19 19 18 17 17 17 17 17 17 17 15 14 13 13 12 11 10 11 12 14 15 16 18 19 20 21 22 22 23 24 24 25 26 27 28 29 29 30 30 31 31 32 32 32 32 32 33 33 33 34 35 37 38 39 41 42 43 44 44 45
23 21 17 15 16 15 14 16 16 16 17 17 16 15 13 12 11 10 9 10 11 13 14 16 17 18 19 20 21 22 23 23 24 25 26 27 27 28 28 28 29 29 29 30 31 31 31 32 33 34 34 35 37 38 39 40 41 42 43 44 45 45 46
21 19 17 17 16 14 14 16 17 17 18 18 17 14 13 11 10 10 10 11 12 13 14 16 17 19 20 21 21 22 23 24 25 25 26 26 27 27 27 27 28 29 30 30 31 31 32 32 33 34 36 38 39 41 42 43 44 44 44 45 45 46 48
19 20 19 18 15 14 15 16 17 18 18 17 15 13 12 11 10 10 10 11 12 13 15 16 17 19 20 21 22 23 23 24 25 25 26 26 26 26 27 27 28 30 30 31 31 31 31 32 33 35 37 39 41 43 44 45 46 46 47 47 48 49 50
19 19 18 17 16 16 16 16 17 18 17 15 14 13 12 11 10 10 10 10 12 13 15 16 18 19 20 21 22 23 23 24 25 25 26 26 26 26 27 28 29 30 30 30 30 30 30 32 34 36 38 41 43 45 46 46 46 47 48 50 50 51 52
19 16 16 16 16 15 16 17 17 17 15 14 13 13 12 11 10 9 9 11 12 14 15 16 18 19 20 21 22 23 24 24 25 26 26 26 27 27 28 29 29 29 29 29 29 29 30 32 34 37 39 42 44 46 46 46 47 48 50 51 53 53 53
17 15 16 17 16 17 18 17 16 15 14 14 14 14 12 10 9 9 10 11 12 14 15 16 18 19 20 21 22 23 24 25 26 26 26 27 27 28 28 28 28 28 28 28 29 29 31 33 35 37 40 42 44 46 47 47 48 49 50 52 53 54 53
16 16 17 17 18 18 17 15 14 14 15 15 15 13 10 9 9 9 10 11 13 14 15 17 18 19 21 22 23 24 25 26 26 26 27 27 28 28 28 28 28 28 28 29 29 30 32 34 36 38 40 42 43 45 46 47 48 49 51 52 52 52 51
17 17 17 17 17 16 15 15 15 15 15 15 14 11 10 9 9 10 10 12 13 14 16 17 19 20 21 22 24 25 26 27 27 27 28 28 28 28 28 28 29 29 29 29 30 32 33 35 36 39 41 42 43 44 46 49 50 51 51 52 52 50 48
18 17 17 17 16 16 15 15 16 16 15 14 12 11 10 10 10 10 11 13 14 15 16 18 20 21 22 23 24 26 27 27 28 28 28 29 29 29 29 29 29 29 30 30 31 33 35 36 38 40 42 43 44 46 48 51 52 53 52 51 50 49 47
17 16 17 17 16 16 15 15 16 16 15 13 12 11 11 10 10 11 13 14 15 16 18 19 20 22 23 24 25 26 27 28 29 29 29 29 29 29 29 30 30 30 30 31 33 34 36 37 39 41 42 43 46 48 50 51 52 53 52 49 48 48 48
16 16 17 17 17 16 16 16 17 16 15 14 13 12 11 11 12 13 15 16 17 18 19 20 22 23 24 25 26 27 28 29 29 29 29 29 30 30 30 30 31 31 31 32 34 35 36 38 40 42 43 44 47 49 51 52 50 50 49 48 47 48 49
16 17 18 18 17 17 17 17 17 16 15 14 13 13 13 12 13 15 17 18 19 19 20 21 23 24 26 27 27 28 29 29 29 29 30 30 30 30 30 31 31 32 32 33 35 36 37 39 41 43 44 45 47 49 51 51 49 46 46 46 46 47 48
16 18 18 18 18 18 17 17 17 17 16 15 15 14 13 14 15 17 18 19 19 20 21 22 24 25 27 28 29 29 30 30 30 30 30 30 30 30 31 31 32 32 33 34 35 37 38 40 42 43 44 46 48 50 50 49 47 44 44 45 46 47 47
17 18 18 18 18 18 18 18 17 17 17 17 16 15 14 15 17 19 19 20 20 21 22 23 25 26 28 29 30 30 31 31 31 31 31 30 30 31 31 31 32 32 33 34 36 37 39 41 42 43 44 46 48 49 48 47 45 43 43 44 45 46 46
19 19 19 19 19 19 18 18 18 18 18 18 16 15 16 18 19 20 20 21 21 22 24 25 26 27 29 30 31 31 32 32 32 31 31 30 30 31 31 32 32 32 33 35 36 38 39 40 41 42 44 45 47 47 45 43 42 42 42 43 45 46 46
20 20 21 21 20 20 19 19 20 19 18 18 17 17 18 20 21 21 22 22 23 24 25 26 27 28 30 31 32 32 33 32 32 32 31 31 30 31 31 32 32 32 33 35 36 38 39 40 41 42 43 44 45 44 42 40 40 41 41 42 44 45 45
22 22 22 22 21 20 20 20 20 19 19 19 19 20 21 22 22 23 23 24 25 25 27 28 29 29 30 32 33 33 33 33 32 32 31 31 31 31 32 32 32 32 34 35 37 38 38 39 40 40 42 43 43 41 39 38 39 39 41 42 43 44 45
23 24 23 23 22 21 21 21 20 20 20 21 21 22 24 23 23 24 25 25 26 27 28 29 30 30 31 33 33 34 34 33 32 31 31 31 31 31 31 31 31 32 33 35 37 37 38 38 38 40 41 42 40 38 36 36 37 39 40 41 42 44 45
24 24 24 23 23 22 22 21 21 22 22 23 24 25 25 24 25 26 26 26 27 28 29 30 31 31 32 33 34 34 34 33 32 31 31 31 31 31 31 31 31 32 33 35 36 37 37 37 38 39 40 39 37 36 35 35 37 38 39 41 42 43 44
25 25 25 24 24 24 23 23 23 24 25 25 26 26 25 25 27 27 27 27 28 29 30 31 32 32 33 34 34 34 34 32 32 31 31 31 31 31 30 30 31 32 33 35 36 36 36 36 37 38 38 37 36 35 34 35 36 37 39 40 41 43 44
25 25 26 26 26 25 25 25 25 26 27 27 27 26 26 28 28 28 27 28 29 30 30 32 32 32 33 34 34 34 33 32 31 31 30 30 30 30 30 30 31 32 34 35 35 36 36 36 37 38 38 37 36 35 34 35 36 37 38 40 41 43 44
25 26 27 28 28 28 27 27 27 28 28 29 28 28 28 29 29 29 29 29 29 30 31 32 32 32 32 33 34 34 33 31 30 30 30 30 30 30 29 30 31 32 34 35 35 35 36 36 37 38 38 37 36 35 34 34 35 36 37 39 41 42 44
25 27 28 29 30 30 29 29 29 30 30 30 29 29 29 29 30 30 30 30 30 30 31 32 31 31 32 33 33 33 32 30 30 30 29 29 29 29 29 30 31 33 34 35 35 35 35 35 36 37 36 36 36 35 35 34 35 36 37 38 40 42 44
26 27 29 30 32 32 32 31 31 31 31 31 30 30 30 30 31 31 31 31 30 30 31 31 31 31 32 32 33 32 31 30 29 29 29 29 29 29 29 30 31 33 34 35 35 35 35 35 35 36 35 35 35 34 34 34 35 36 36 38 39 42 44
27 28 29 31 32 33 33 33 33 33 33 32 31 31 31 32 32 32 32 30 29 30 31 30 30 30 31 32 32 31 30 29 29 28 28 29 29 29 29 30 32 33 34 35 35 35 34 34 34 34 34 33 33 33 33 34 35 36 36 37 39 41 43
29 30 31 31 32 33 33 34 34 34 34 33 33 32 32 32 32 31 30 29 30 31 30 29 29 29 30 31 31 30 29 29 28 28 28 29 29 29 30 31 32 33 34 34 35 34 33 33 33 33 33 32 32 32 33 33 34 35 36 37 38 40 42
32 33 33 30 30 31 33 34 35 35 34 34 33 33 32 31 30 30 29 29 30 31 29 29 29 29 29 30 31 30 29 28 28 28 29 29 29 29 30 31 32 33 33 33 34 33 32 32 32 32 32 32 32 32 33 34 34 35 36 37 38 40 42
36 35 34 31 29 30 33 34 35 34 34 33 33 32 32 31 30 30 30 30 31 30 29 28 29 28 29 30 30 29 28 28 28 29 29 30 30 29 30 31 32 32 32 32 33 33 31 31 31 31 32 31 31 32 33 34 35 35 36 38 39 40 42
40 39 38 35 31 31 34 35 35 34 33 33 33 32 32 32 32 31 31 32 31 29 28 29 29 28 29 30 31 29 28 28 28 29 30 31 30 30 30 31 32 32 32 32 32 32 30 30 30 31 31 31 31 31 32 33 34 35 36 38 39 40 42
38 40 40 38 37 38 38 37 36 35 34 32 32 32 32 33 32 32 32 32 31 29 29 29 29 29 30 31 31 30 29 28 29 30 31 31 31 31 31 31 32 32 31 31 31 31 30 29 29 30 30 30 31 32 32 33 33 34 35 36 37 39 41
34 37 38 38 39 42 42 39 38 36 33 30 30 31 32 33 33 33 32 31 30 30 30 30 29 30 30 31 31 31 29 29 30 31 32 32 32 31 31 31 32 32 31 30 31 30 29 28 28 29 30 30 31 32 33 33 33 34 35 36 37 38 39
34 34 35 35 36 38 38 37 35 32 30 30 31 31 32 33 33 32 31 31 31 31 31 31 31 31 31 32 32 31 31 31 31 31 32 32 32 32 31 31 32 31 30 29 30 30 29 28 28 29 30 30 31 32 33 34 34 35 35 36 37 38 38
36 35 34 34 34 35 36 36 35 33 34 35 34 33 33 32 32 31 31 31 31 32 32 32 32 32 33 33 32 32 32 32 32 32 32 32 32 32 31 31 31 31 30 29 29 30 30 29 29 30 31 31 32 33 34 34 35 35 35 36 37 38 38
38 38 37 36 35 34 35 36 37 39 39 35 33 33 32 30 30 30 31 32 32 33 33 33 33 34 34 34 33 34 34 34 33 32 32 33 33 32 31 31 31 30 29 28 28 30 30 29 29 30 31 31 32 33 34 35 35 35 36 37 37 38 39
40 39 39 38 37 35 35 36 37 38 35 30 28 29 29 28 29 31 32 32 34 34 35 34 35 35 36 36 35 35 36 36 34 33 33 34 34 33 31 30 30 29 28 27 28 29 30 29 29 30 30 31 31 32 33 34 35 35 36 36 37 38 38

ECMWFFLT1_500_spd_120.txt.gz
Wind_Speed
22 20 20 21 20 20 20 20 19 18 18 18 17 17 18 19 18 16 14 12 11 11 10 11 12 14 15 17 19 21 22 24 25 26 27 27 28 29 30 31 31 32 32 32 32 32 33 33 33 32 32 31 32 32 33 35 37 38 40 41 42 43 44
22 22 21 23 23 21 20 20 19 19 19 18 18 18 18 17 16 13 12 11 10 10 11 12 13 15 16 18 19 21 22 23 24 25 26 27 28 29 30 30 31 31 31 31 31 32 33 33 33 33 32 32 32 32 34 36 37 39 41 42 43 44 45
21 23 22 24 25 22 19 19 18 18 19 18 18 18 17 15 14 13 11 11 11 11 12 13 15 15 16 18 19 20 22 23 24 25 26 27 28 28 29 29 29 30 30 30 30 31 32 32 32 33 33 33 33 34 35 36 38 40 42 43 44 45 46
20 21 22 23 24 21 17 17 17 17 17 17 17 17 16 14 13 12 11 12 12 13 13 14 15 15 16 18 19 20 21 23 24 25 26 26 27 27 28 28 29 29 29 30 30 30 31 31 32 32 33 34 35 37 38 38 40 42 43 44 44 46 48
20 20 19 19 19 18 16 16 17 16 16 17 17 17 17 15 13 13 12 13 13 13 14 14 14 15 16 18 19 20 22 23 24 25 25 26 27 27 28 28 29 29 29 29 30 30 30 31 32 32 33 35 37 38 39 40 42 43 44 45 46 48 51
20 19 17 15 15 17 17 16 16 16 16 17 18 18 16 14 13 13 13 14 14 13 13 13 14 15 16 18 19 21 22 23 24 25 26 26 27 28 28 29 29 29 29 29 29 30 30 31 32 33 34 36 38 40 41 42 43 45 46 47 48 50 53
18 16 15 15 16 18 17 16 17 17 17 17 18 18 15 14 14 14 14 15 14 13 13 13 14 15 17 19 20 22 23 24 24 25 26 27 28 28 29 29 29 29 29 29 29 30 31 31 32 34 36 38 39 40 41 43 44 45 46 48 50 52 53
19 17 16 17 18 18 17 16 18 18 17 18 18 17 15 14 15 15 15 15 13 13 13 14 15 16 18 19 21 22 23 24 25 25 26 27 28 29 29 29 29 29 29 29 30 30 31 32 33 35 37 39 40 41 42 44 44 44 46 49 51 53 53
19 18 18 18 18 18 18 18 18 18 18 18 17 16 15 15 15 16 16 14 13 13 14 15 16 18 19 20 21 23 23 24 25 26 27 28 29 29 29 29 29 29 29 29 30 31 32 33 34 35 37 39 41 42 43 43 44 44 47 50 51 51 51
18 18 18 19 19 19 18 19 19 18 17 16 16 16 16 16 17 17 15 14 14 14 15 16 18 19 20 21 22 23 24 25 26 27 28 29 29 29 29 29 29 29 29 30 31 31 32 33 34 36 37 39 40 42 42 42 43 45 48 50 50 50 49
17 18 19 20 19 19 18 17 17 16 16 16 16 16 16 17 17 16 15 14 14 15 16 17 19 20 21 22 23 24 25 26 27 28 29 30 30 30 30 30 29 29 29 30 31 32 33 34 35 36 37 39 40 41 42 43 44 46 49 51 51 48 46
18 18 19 20 19 18 17 16 16 17 17 17 17 17 17 18 17 16 15 15 15 16 17 19 20 21 22 23 24 24 25 26 27 29 30 30 30 30 30 30 29 29 29 30 31 32 33 33 34 36 37 39 40 41 42 43 45 48 50 50 49 47 45
20 20 19 19 19 18 17 16 16 17 17 17 17 17 18 18 17 16 16 16 16 17 18 19 20 22 23 24 24 25 26 27 28 29 30 31 31 31 31 30 29 29 29 30 31 32 33 33 34 36 37 39 40 40 41 43 46 48 50 49 47 44 43
21 21 20 19 19 18 17 17 17 18 17 17 17 18 18 18 18 17 17 17 17 17 18 19 21 22 23 24 25 25 26 28 29 30 31 31 32 31 31 30 29 29 30 31 32 32 33 33 34 36 38 39 39 39 41 43 46 48 48 47 43 41 42
21 21 21 19 18 17 17 18 18 18 17 18 18 18 19 19 19 19 18 18 18 18 19 20 22 23 24 24 25 26 27 28 29 30 31 32 32 31 30 30 29 30 30 31 32 32 32 33 34 36 38 38 38 39 41 43 46 47 47 45 41 40 40
20 21 21 19 18 18 19 19 18 18 18 18 19 19 20 20 20 20 19 19 19 19 20 21 23 24 25 25 26 26 27 28 29 30 31 32 32 31 31 30 30 30 30 31 31 32 32 33 35 37 38 37 37 39 41 44 45 46 45 43 40 39 39
21 21 21 20 19 20 20 19 19 18 19 19 20 20 21 21 21 21 21 20 20 20 21 22 24 25 26 26 26 27 28 29 30 31 32 32 32 31 31 30 30 30 30 31 31 31 32 33 35 37 37 37 37 39 41 43 45 45 44 41 39 38 38
21 22 21 20 20 21 21 20 20 20 20 21 21 22 22 22 22 22 21 21 21 22 23 23 25 26 27 27 27 27 28 29 31 31 32 32 32 32 31 31 31 30 30 30 31 31 32 34 36 37 36 36 37 39 41 42 43 43 41 39 38 37 37
21 21 20 20 21 21 21 21 21 21 21 22 22 23 23 23 23 23 22 22 23 23 24 24 26 27 28 28 28 28 29 30 31 32 32 33 32 32 32 31 31 30 30 30 30 31 32 34 36 36 36 36 37 38 39 41 41 40 39 37 36 37 37
20 20 19 20 20 21 21 21 21 22 22 23 24 24 24 24 24 23 23 23 24 24 24 25 27 28 29 29 29 29 29 30 32 32 32 33 32 32 32 31 30 30 30 30 30 31 33 35 36 36 35 35 36 37 38 39 39 38 37 36 36 36 37
19 19 19 20 21 21 22 22 22 23 23 24 25 26 26 25 24 24 24 25 25 25 25 27 28 29 30 30 30 30 29 30 32 32 32 33 32 32 32 31 30 29 29 29 30 31 33 35 36 35 35 35 36 36 37 37 38 37 36 36 36 36 37
20 20 20 20 21 21 22 23 24 24 25 25 26 27 26 26 25 26 26 26 26 26 26 28 29 30 31 31 30 30 30 31 32 32 32 32 32 32 31 30 29 29 29 29 30 31 33 35 35 35 35 35 35 36 36 36 36 36 36 36 36 36 37
20 20 20 20 21 22 23 24 25 25 26 26 27 27 27 27 27 27 27 27 27 27 28 29 30 31 32 31 31 30 30 31 32 32 32 32 32 32 31 30 29 28 28 29 30 31 33 34 35 35 34 35 35 35 35 35 35 36 36 36 36 36 37
21 20 21 21 22 23 24 25 26 27 27 27 28 28 28 28 28 28 29 29 28 29 30 30 31 32 32 31 30 30 30 31 31 31 32 32 32 31 30 29 29 28 28 29 30 31 32 34 34 34 34 34 34 34 34 35 35 36 37 37 37 37 37
22 22 23 24 24 25 26 26 27 28 28 29 29 29 29 29 30 30 30 30 30 31 31 31 32 32 32 31 30 30 30 31 31 31 31 32 32 31 30 29 29 28 29 30 31 31 33 34 34 34 34 34 35 35 35 35 36 36 37 37 37 37 37
23 24 26 27 28 28 28 28 29 30 29 30 30 30 31 31 31 32 32 32 32 32 33 32 32 32 31 30 30 30 31 31 31 31 31 32 31 31 30 29 29 29 30 31 32 32 33 34 35 35 35 35 35 35 36 36 37 37 37 37 38 38 38
24 26 28 30 32 32 31 30 29 30 30 31 31 32 33 33 33 34 34 34 34 34 34 33 32 31 30 30 30 30 31 31 31 30 31 31 31 31 30 30 30 30 31 32 32 33 34 35 35 35 35 35 36 36 36 36 37 37 37 37 37 38 38
26 27 30 32 33 33 33 31 29 28 30 31 33 34 34 35 36 36 36 36 36 35 34 32 31 31 30 30 30 30 31 32 31 30 30 31 31 31 30 31 31 31 32 33 33 34 34 35 36 36 35 35 36 36 35 36 36 37 37 36 37 38 38
26 28 31 34 34 33 34 34 32 29 29 31 33 34 35 37 37 38 38 37 36 35 34 33 32 31 30 30 30 30 31 32 31 30 31 31 31 31 31 32 32 32 33 33 34 34 35 35 36 36 35 35 35 36 35 36 37 38 38 38 38 38 39
27 28 30 32 34 35 37 37 36 34 32 31 32 33 35 37 38 39 39 38 37 35 34 34 33 32 31 31 31 31 32 32 32 31 31 31 31 31 31 32 33 33 34 34 34 34 35 35 36 36 35 34 34 35 35 36 37 38 38 38 38 38 39
29 29 30 30 32 34 36 36 37 39 39 36 35 35 35 36 38 39 38 37 36 35 35 34 33 32 32 31 32 32 32 33 33 32 32 33 32 32 32 33 34 34 34 34 34 34 35 35 35 36 35 33 33 34 34 35 36 37 37 38 38 38 39
29 29 30 31 32 33 35 36 38 41 44 45 43 40 38 38 39 39 38 36 35 34 35 34 34 33 32 32 32 32 33 34 34 33 34 34 34 33 33 34 35 36 36 35 35 35 35 35 35 35 35 33 32 33 33 34 35 36 36 37 37 37 38
29 30 31 32 32 33 34 36 37 39 43 48 48 44 41 42 42 41 38 34 33 33 34 34 33 33 33 33 33 33 34 35 35 35 35 36 36 35 35 35 36 36 37 37 37 36 35 35 35 35 34 33 32 32 33 33 34 35 36 36 36 37 37
30 32 32 32 32 32 33 33 34 34 35 38 40 39 38 39 41 40 36 32 32 34 34 34 33 33 33 34 34 34 35 36 36 36 37 37 37 37 37 37 37 36 37 38 38 37 35 34 34 34 33 32 32 32 33 33 33 35 35 36 36 36 37
32 33 33 33 33 33 32 32 33 34 33 33 33 34 35 35 36 35 33 30 32 34 35 34 32 32 33 34 35 36 37 37 38 38 39 39 39 40 40 39 38 37 37 38 39 38 36 35 34 33 33 32 32 32 32 33 33 34 35 36 36 37 37
35 36 36 36 35 35 34 34 35 35 35 35 34 35 35 34 33 31 31 31 32 32 33 32 31 32 33 34 35 37 38 39 39 39 41 42 42 43 43 42 39 37 37 38 39 38 36 35 34 33 32 32 32 32 33 33 34 35 35 35 35 36 37
37 38 39 39 39 39 38 37 36 35 35 36 36 35 35 34 33 32 32 33 32 30 30 30 31 32 34 35 36 38 39 40 40 41 43 44 45 47 47 43 39 38 37 38 38 38 36 35 34 34 33 32 33 33 33 33 34 35 35 35 35 35 36

ECMWFFLT1_500_spd_123.txt.gz
Wind_Speed
23 24 26 27 27 26 25 24 25 23 21 21 21 20 20 19 20 21 22 19 15 12 11 10 10 11 12 13 15 17 19 20 21 22 22 23 24 26 27 29 30 31 32 33 34 34 34 34 33 33 33 34 34 35 36 36 37 38 39 40 41 42 43
23 23 25 26 26 25 25 25 26 23 20 21 21 20 20 19 19 21 19 14 11 10 10 10 10 11 12 14 16 18 19 20 21 21 22 23 25 26 28 29 30 31 32 33 34 34 35 35 34 33 33 33 33 34 35 36 37 38 39 40 41 42 43
23 24 25 26 26 26 26 25 25 23 21 20 20 20 19 18 18 18 15 12 10 10 10 10 10 12 14 15 16 18 19 19 20 21 23 24 26 27 28 29 31 32 33 33 34 34 34 34 35 34 34 34 34 34 35 36 37 38 39 40 41 42 43
23 25 26 27 27 27 27 28 27 25 21 20 20 20 18 18 17 16 13 11 11 11 11 11 12 14 15 16 17 18 18 19 21 22 24 25 26 28 29 30 31 32 33 33 33 33 33 34 34 35 36 36 36 35 36 37 38 39 40 41 41 42 43
23 25 25 25 25 24 25 27 28 25 20 19 20 18 16 17 17 16 13 12 12 11 12 13 14 15 15 16 17 18 19 20 21 23 24 26 27 28 29 30 31 32 32 32 32 33 33 34 34 35 35 36 36 36 36 37 38 39 40 41 42 42 44
24 25 25 23 23 22 21 20 21 19 18 19 18 16 17 18 17 15 13 13 13 12 13 14 15 15 16 16 17 18 19 21 22 24 25 26 27 28 29 30 31 31 32 32 32 32 33 34 34 35 35 35 36 37 37 37 38 39 40 40 41 42 44
24 25 25 23 22 21 20 18 17 18 18 18 17 16 17 18 17 15 13 13 13 13 14 15 15 16 16 17 18 19 20 22 23 24 25 26 27 28 29 30 31 31 32 32 32 33 33 33 34 34 35 35 36 37 37 38 38 40 40 40 41 43 46
23 23 24 23 22 20 19 19 18 18 18 17 17 17 17 17 16 15 14 14 14 15 16 16 16 17 17 17 18 20 21 23 24 25 26 26 27 28 29 30 31 31 32 32 32 32 32 32 33 34 34 35 35 36 37 38 38 39 40 40 41 45 48
21 21 22 23 23 20 19 19 18 17 17 17 17 16 17 17 17 16 16 15 16 16 17 17 17 17 17 18 19 21 22 23 24 25 26 27 27 29 30 31 31 32 32 32 32 32 32 32 33 33 34 35 35 36 37 38 39 38 39 40 42 45 49
20 21 23 24 24 21 19 18 17 17 18 18 17 17 18 18 17 17 17 16 17 17 17 17 17 17 18 19 20 21 23 24 25 25 26 27 28 29 30 31 32 32 32 32 31 31 31 32 32 33 33 34 34 36 37 38 39 38 38 40 43 46 49
21 22 23 23 22 19 18 18 17 17 18 18 18 19 19 18 17 18 17 17 17 18 18 18 18 18 19 20 21 22 23 24 25 25 26 27 28 29 31 31 32 32 32 31 31 31 32 32 32 32 32 33 34 35 37 38 38 38 38 40 43 46 49
22 21 21 20 20 18 17 18 17 16 17 18 19 19 18 18 18 18 18 18 18 18 18 18 18 19 19 20 21 22 23 24 25 25 26 27 28 29 31 31 32 32 31 31 31 32 32 32 31 31 32 33 34 36 37 37 37 37 38 40 43 46 48
22 21 20 19 18 18 17 17 16 16 17 18 18 18 18 18 18 18 18 19 19 19 19 19 19 19 20 21 21 22 23 24 25 25 26 27 28 30 31 31 31 31 31 31 32 32 32 31 30 31 31 33 34 36 37 37 37 37 38 40 42 45 47
22 22 20 18 18 18 18 17 17 17 17 17 18 18 18 18 18 19 20 20 20 20 20 20 20 20 21 21 21 22 24 24 25 26 26 27 28 30 31 31 31 31 31 32 32 32 31 30 30 31 31 33 34 36 37 37 36 37 38 40 42 44 46
21 21 21 19 19 19 18 18 17 17 17 18 18 18 18 18 19 20 21 21 21 21 21 21 21 21 21 21 22 23 24 25 26 26 27 27 29 30 31 31 31 31 31 32 32 32 30 30 30 30 31 33 34 36 36 36 36 37 38 40 41 43 45
22 22 22 22 20 18 17 17 17 17 17 18 18 18 19 19 20 21 21 22 22 22 22 22 22 22 22 22 23 24 25 26 26 27 27 28 29 30 31 31 31 31 31 32 32 31 30 29 30 30 31 32 34 35 36 36 36 37 38 40 41 42 44
23 23 23 22 20 17 17 17 17 18 18 18 19 19 19 20 21 22 23 23 23 23 23 23 23 22 22 23 24 24 25 27 28 28 29 28 29 30 31 31 31 31 31 31 31 31 30 29 29 30 31 32 33 35 36 36 36 37 38 40 41 42 43
23 23 22 22 19 17 17 17 18 18 19 20 20 20 21 22 23 23 24 24 24 24 24 24 24 23 23 24 25 25 26 28 29 29 30 29 29 30 31 31 31 31 31 31 31 30 29 29 29 30 31 32 33 35 36 36 37 37 38 39 40 41 41
23 22 22 21 19 18 18 18 19 19 20 21 22 22 23 24 24 25 25 25 25 25 25 25 25 24 25 25 26 26 27 29 30 30 31 30 29 31 31 31 31 31 31 31 31 30 29 29 30 30 31 32 33 35 36 37 37 37 38 39 40 40 40
21 21 21 20 19 19 19 20 21 21 22 23 24 25 25 25 25 26 26 26 26 26 26 26 25 25 26 27 27 27 28 29 30 31 32 30 30 31 31 32 31 31 31 31 31 30 29 29 30 31 32 33 34 35 36 37 37 37 38 38 39 39 40
20 19 19 19 20 20 21 22 23 23 25 26 26 26 26 26 26 27 27 28 27 27 27 27 26 27 27 28 28 28 29 31 31 32 32 31 30 31 32 32 32 32 31 31 31 30 30 30 31 32 33 33 34 35 36 37 37 37 38 38 39 39 39
20 19 19 19 20 22 23 24 25 26 27 28 28 27 27 27 27 28 29 29 29 28 28 27 27 28 28 28 29 30 31 32 32 32 32 31 30 31 32 32 32 32 32 31 31 31 31 31 31 32 33 34 34 35 37 37 37 37 37 38 38 38 39
20 19 19 19 21 23 25 26 26 27 28 28 28 28 27 28 28 29 30 30 30 30 29 29 29 29 29 29 30 31 32 33 33 32 32 31 30 31 32 33 33 33 32 31 31 32 32 32 32 33 34 34 34 35 36 37 38 38 37 37 38 38 39
20 20 20 20 22 24 26 27 27 28 29 29 29 28 28 29 29 29 30 30 31 31 31 30 30 30 30 31 31 32 33 33 33 32 33 32 30 31 33 33 33 33 32 32 32 33 33 33 33 33 34 34 35 35 36 37 38 38 37 37 38 39 40
21 21 21 21 22 24 25 26 27 28 29 29 29 29 29 29 30 30 30 31 32 32 32 32 32 32 32 32 33 33 34 34 33 32 33 32 31 31 33 33 33 33 32 32 32 33 34 34 34 34 34 34 35 35 36 37 38 38 38 38 38 39 40
21 21 21 21 23 24 25 27 28 29 30 30 29 29 29 30 31 31 32 32 33 33 33 33 34 34 34 34 34 35 35 34 33 33 32 32 31 32 33 34 34 33 32 32 32 33 34 35 35 35 35 35 35 36 37 38 38 39 38 38 38 39 40
20 20 21 22 24 25 26 27 27 29 30 31 30 30 30 30 32 33 34 34 34 34 35 35 36 36 36 36 36 36 36 35 34 33 32 32 32 33 34 34 34 34 33 33 33 33 34 35 35 36 35 35 35 36 37 38 38 39 39 38 38 39 40
21 21 23 25 26 26 26 25 26 28 29 30 31 33 33 32 33 34 35 36 35 36 37 37 38 38 38 38 38 37 37 37 35 33 33 33 33 33 35 35 35 35 34 34 34 34 35 35 36 36 36 36 36 36 36 37 38 39 39 39 38 39 40
23 24 26 27 27 27 26 25 26 28 29 30 32 35 36 37 38 37 36 36 36 36 38 39 40 40 40 40 39 39 39 38 36 34 33 34 34 35 36 36 36 36 36 35 35 36 36 36 37 37 38 38 37 37 37 38 39 40 40 40 39 39 40
26 27 28 28 28 28 28 27 27 29 30 32 34 37 38 39 41 41 40 38 37 37 37 38 40 41 40 39 39 39 39 38 37 35 34 35 35 36 37 38 37 38 37 37 37 38 38 38 39 39 40 40 40 39 38 38 39 39 40 40 39 39 39
28 29 30 29 29 29 29 28 29 30 32 34 36 37 38 39 41 43 43 43 41 39 38 38 39 40 40 40 39 39 39 38 37 36 35 35 36 37 38 39 39 39 39 39 40 40 40 41 41 41 41 42 42 40 39 39 39 39 39 39 39 39 39
29 29 29 29 29 29 28 28 28 28 30 32 33 33 34 36 39 42 45 48 47 43 40 40 41 42 43 43 40 38 37 37 37 36 35 36 37 38 39 40 40 40 41 41 42 42 43 43 43 42 42 42 43 42 41 40 40 39 39 38 38 37 37
29 29 29 29 29 29 28 28 27 27 28 29 30 30 31 34 37 39 41 43 43 41 39 40 43 46 47 42 37 35 37 38 38 36 35 36 38 39 40 40 41 42 42 43 44 45 46 46 45 43 42 42 43 43 42 41 40 40 39 37 36 35 35
30 30 29 29 30 29 29 28 28 28 28 29 30 30 31 34 37 37 35 33 33 35 37 39 44 46 42 35 31 33 36 38 37 35 35 37 38 39 41 41 42 43 44 45 46 47 49 49 46 43 43 42 43 43 43 41 40 40 39 38 36 35 36
30 30 30 30 31 30 30 30 30 30 31 31 33 33 34 35 37 38 35 32 31 33 36 38 40 38 33 29 30 34 35 35 35 35 36 38 39 40 41 42 43 45 45 46 48 48 50 50 47 44 43 43 42 43 43 41 40 40 40 38 36 36 36
30 30 31 32 32 32 32 33 33 34 34 34 35 36 36 36 37 36 35 33 33 33 35 37 37 33 30 31 33 34 34 33 33 35 37 39 40 41 41 42 44 45 46 48 49 49 51 52 48 44 43 43 42 43 42 40 40 40 40 39 37 36 36
32 33 33 34 35 35 35 36 37 37 37 38 37 37 36 36 37 36 35 35 35 34 34 36 36 34 33 34 34 34 33 33 34 36 38 40 40 41 42 43 44 45 46 48 49 50 53 53 48 43 43 43 42 42 41 40 39 40 39 38 37 36 36